<?xml version='1.0' encoding='UTF-8'?><gpx version="1.1" creator="JPX - https://github.com/jenetics/jpx" xmlns="http://www.topografix.com/GPX/1/1"><trk><trkseg><trkpt lat="45.3100953" lon="9.2629778"><ele>87.0</ele><time>2026-04-25T08:45:21.17Z</time></trkpt><trkpt lat="45.3101803" lon="9.2629368"><ele>87.0</ele><time>2026-04-25T08:45:24.17Z</time></trkpt><trkpt lat="45.310245" lon="9.262907"><ele>87.0</ele><time>2026-04-25T08:45:26.17Z</time></trkpt><trkpt lat="45.3103094" lon="9.2629508"><ele>87.0</ele><time>2026-04-25T08:45:28.169Z</time></trkpt><trkpt lat="45.3102909" lon="9.2630847"><ele>87.0</ele><time>2026-04-25T08:45:29.171Z</time></trkpt><trkpt lat="45.3102879" lon="9.2632603"><ele>87.0</ele><time>2026-04-25T08:45:31.169Z</time></trkpt><trkpt lat="45.3102752" lon="9.2633707"><ele>87.16666666666667</ele><time>2026-04-25T08:45:32.171Z</time></trkpt><trkpt lat="45.3102623" lon="9.2634895"><ele>87.33333333333333</ele><time>2026-04-25T08:45:33.17Z</time></trkpt><trkpt lat="45.3102352" lon="9.2635951"><ele>87.5</ele><time>2026-04-25T08:45:34.17Z</time></trkpt><trkpt lat="45.3102099" lon="9.2637131"><ele>87.66666666666666</ele><time>2026-04-25T08:45:35.171Z</time></trkpt><trkpt lat="45.3101932" lon="9.2638227"><ele>87.83333333333333</ele><time>2026-04-25T08:45:36.17Z</time></trkpt><trkpt lat="45.3101622" lon="9.2639463"><ele>88.0</ele><time>2026-04-25T08:45:37.17Z</time></trkpt><trkpt lat="45.3101377" lon="9.2640681"><ele>88.0</ele><time>2026-04-25T08:45:38.17Z</time></trkpt><trkpt lat="45.3101203" lon="9.2641963"><ele>88.0</ele><time>2026-04-25T08:45:39.17Z</time></trkpt><trkpt lat="45.3101087" lon="9.2643049"><ele>88.0</ele><time>2026-04-25T08:45:40.169Z</time></trkpt><trkpt lat="45.310058" lon="9.2644323"><ele>88.0</ele><time>2026-04-25T08:45:41.17Z</time></trkpt><trkpt lat="45.3100107" lon="9.2645562"><ele>88.0</ele><time>2026-04-25T08:45:42.169Z</time></trkpt><trkpt lat="45.3099531" lon="9.2646853"><ele>88.0</ele><time>2026-04-25T08:45:43.17Z</time></trkpt><trkpt lat="45.3098901" lon="9.2648008"><ele>88.0</ele><time>2026-04-25T08:45:44.169Z</time></trkpt><trkpt lat="45.3098164" lon="9.2649161"><ele>88.0</ele><time>2026-04-25T08:45:45.17Z</time></trkpt><trkpt lat="45.3097308" lon="9.2650119"><ele>88.0</ele><time>2026-04-25T08:45:46.169Z</time></trkpt><trkpt lat="45.3096457" lon="9.2651007"><ele>88.0</ele><time>2026-04-25T08:45:47.168Z</time></trkpt><trkpt lat="45.3095488" lon="9.265194"><ele>88.0</ele><time>2026-04-25T08:45:48.169Z</time></trkpt><trkpt lat="45.3094429" lon="9.2652902"><ele>88.0</ele><time>2026-04-25T08:45:49.17Z</time></trkpt><trkpt lat="45.3093411" lon="9.2653887"><ele>88.0</ele><time>2026-04-25T08:45:50.168Z</time></trkpt><trkpt lat="45.3092343" lon="9.265491"><ele>88.0</ele><time>2026-04-25T08:45:51.17Z</time></trkpt><trkpt lat="45.3091299" lon="9.2655919"><ele>88.0</ele><time>2026-04-25T08:45:52.168Z</time></trkpt><trkpt lat="45.3090245" lon="9.2656956"><ele>88.0</ele><time>2026-04-25T08:45:53.17Z</time></trkpt><trkpt lat="45.3089279" lon="9.2657999"><ele>88.0</ele><time>2026-04-25T08:45:54.169Z</time></trkpt><trkpt lat="45.3088304" lon="9.2659131"><ele>88.0</ele><time>2026-04-25T08:45:55.169Z</time></trkpt><trkpt lat="45.3087333" lon="9.2660339"><ele>88.0</ele><time>2026-04-25T08:45:56.169Z</time></trkpt><trkpt lat="45.3086374" lon="9.2661649"><ele>88.0</ele><time>2026-04-25T08:45:57.168Z</time></trkpt><trkpt lat="45.3085461" lon="9.2663131"><ele>88.0</ele><time>2026-04-25T08:45:58.169Z</time></trkpt><trkpt lat="45.3084529" lon="9.2664679"><ele>88.0</ele><time>2026-04-25T08:45:59.168Z</time></trkpt><trkpt lat="45.3083721" lon="9.2666067"><ele>87.66666666666666</ele><time>2026-04-25T08:46:00.168Z</time></trkpt><trkpt lat="45.3082815" lon="9.2667967"><ele>87.33333333333333</ele><time>2026-04-25T08:46:01.168Z</time></trkpt><trkpt lat="45.3081988" lon="9.2669758"><ele>87.0</ele><time>2026-04-25T08:46:02.169Z</time></trkpt><trkpt lat="45.3081386" lon="9.2671515"><ele>87.0</ele><time>2026-04-25T08:46:03.168Z</time></trkpt><trkpt lat="45.3080735" lon="9.267348"><ele>87.0</ele><time>2026-04-25T08:46:04.169Z</time></trkpt><trkpt lat="45.3080115" lon="9.2675344"><ele>87.0</ele><time>2026-04-25T08:46:05.168Z</time></trkpt><trkpt lat="45.3079579" lon="9.2677013"><ele>87.0</ele><time>2026-04-25T08:46:06.169Z</time></trkpt><trkpt lat="45.3079036" lon="9.2678718"><ele>87.0</ele><time>2026-04-25T08:46:07.169Z</time></trkpt><trkpt lat="45.3078399" lon="9.2680232"><ele>87.0</ele><time>2026-04-25T08:46:08.169Z</time></trkpt><trkpt lat="45.307778" lon="9.2681602"><ele>87.0</ele><time>2026-04-25T08:46:09.168Z</time></trkpt><trkpt lat="45.307656" lon="9.2682279"><ele>87.0</ele><time>2026-04-25T08:46:11.169Z</time></trkpt><trkpt lat="45.307563" lon="9.2682486"><ele>87.0</ele><time>2026-04-25T08:46:13.169Z</time></trkpt><trkpt lat="45.3074858" lon="9.2681982"><ele>87.0</ele><time>2026-04-25T08:46:17.169Z</time></trkpt><trkpt lat="45.3073721" lon="9.2680736"><ele>87.0</ele><time>2026-04-25T08:46:19.168Z</time></trkpt><trkpt lat="45.3073056" lon="9.2679724"><ele>87.0</ele><time>2026-04-25T08:46:20.169Z</time></trkpt><trkpt lat="45.3072337" lon="9.2678509"><ele>87.0</ele><time>2026-04-25T08:46:21.169Z</time></trkpt><trkpt lat="45.3071579" lon="9.2677172"><ele>87.0</ele><time>2026-04-25T08:46:22.169Z</time></trkpt><trkpt lat="45.3070736" lon="9.2675741"><ele>87.0</ele><time>2026-04-25T08:46:23.169Z</time></trkpt><trkpt lat="45.3069899" lon="9.2674281"><ele>87.0</ele><time>2026-04-25T08:46:24.169Z</time></trkpt><trkpt lat="45.3069023" lon="9.2672794"><ele>87.0</ele><time>2026-04-25T08:46:25.169Z</time></trkpt><trkpt lat="45.3068139" lon="9.267122"><ele>87.0</ele><time>2026-04-25T08:46:26.17Z</time></trkpt><trkpt lat="45.3067145" lon="9.2669813"><ele>87.0</ele><time>2026-04-25T08:46:27.169Z</time></trkpt><trkpt lat="45.3066204" lon="9.2668207"><ele>87.0</ele><time>2026-04-25T08:46:28.168Z</time></trkpt><trkpt lat="45.3065316" lon="9.2666594"><ele>87.0</ele><time>2026-04-25T08:46:29.17Z</time></trkpt><trkpt lat="45.3064386" lon="9.266497"><ele>86.5</ele><time>2026-04-25T08:46:30.168Z</time></trkpt><trkpt lat="45.3063387" lon="9.2663414"><ele>86.0</ele><time>2026-04-25T08:46:31.17Z</time></trkpt><trkpt lat="45.306248" lon="9.2661843"><ele>85.5</ele><time>2026-04-25T08:46:32.168Z</time></trkpt><trkpt lat="45.3061537" lon="9.2660142"><ele>85.0</ele><time>2026-04-25T08:46:33.169Z</time></trkpt><trkpt lat="45.3060561" lon="9.2658617"><ele>85.0</ele><time>2026-04-25T08:46:34.168Z</time></trkpt><trkpt lat="45.3059745" lon="9.2657234"><ele>85.0</ele><time>2026-04-25T08:46:35.168Z</time></trkpt><trkpt lat="45.3058867" lon="9.2655877"><ele>85.0</ele><time>2026-04-25T08:46:36.169Z</time></trkpt><trkpt lat="45.3058148" lon="9.2654686"><ele>85.0</ele><time>2026-04-25T08:46:37.168Z</time></trkpt><trkpt lat="45.3057494" lon="9.2653565"><ele>85.0</ele><time>2026-04-25T08:46:38.17Z</time></trkpt><trkpt lat="45.3057054" lon="9.2652891"><ele>85.0</ele><time>2026-04-25T08:46:39.169Z</time></trkpt><trkpt lat="45.3056499" lon="9.2652083"><ele>85.0</ele><time>2026-04-25T08:46:40.168Z</time></trkpt><trkpt lat="45.3056078" lon="9.2651223"><ele>85.0</ele><time>2026-04-25T08:46:41.169Z</time></trkpt><trkpt lat="45.3055564" lon="9.2650445"><ele>85.0</ele><time>2026-04-25T08:46:42.169Z</time></trkpt><trkpt lat="45.3054748" lon="9.2648991"><ele>85.0</ele><time>2026-04-25T08:46:43.168Z</time></trkpt><trkpt lat="45.3053965" lon="9.2647554"><ele>84.75</ele><time>2026-04-25T08:46:44.169Z</time></trkpt><trkpt lat="45.3053241" lon="9.2646266"><ele>84.5</ele><time>2026-04-25T08:46:45.168Z</time></trkpt><trkpt lat="45.3052454" lon="9.2645497"><ele>84.25</ele><time>2026-04-25T08:46:47.169Z</time></trkpt><trkpt lat="45.3052416" lon="9.2646695"><ele>84.0</ele><time>2026-04-25T08:46:50.169Z</time></trkpt><trkpt lat="45.3052692" lon="9.2649851"><ele>84.0</ele><time>2026-04-25T08:46:52.169Z</time></trkpt><trkpt lat="45.3052672" lon="9.2651273"><ele>84.0</ele><time>2026-04-25T08:46:53.168Z</time></trkpt><trkpt lat="45.3052345" lon="9.2652716"><ele>84.0</ele><time>2026-04-25T08:46:54.169Z</time></trkpt><trkpt lat="45.3051828" lon="9.2654006"><ele>84.0</ele><time>2026-04-25T08:46:55.169Z</time></trkpt><trkpt lat="45.3051209" lon="9.2655341"><ele>84.0</ele><time>2026-04-25T08:46:56.17Z</time></trkpt><trkpt lat="45.3050426" lon="9.2656501"><ele>84.0</ele><time>2026-04-25T08:46:57.17Z</time></trkpt><trkpt lat="45.3049385" lon="9.2657418"><ele>84.0</ele><time>2026-04-25T08:46:58.17Z</time></trkpt><trkpt lat="45.3047899" lon="9.2657578"><ele>84.0</ele><time>2026-04-25T08:46:59.169Z</time></trkpt><trkpt lat="45.3046754" lon="9.2658186"><ele>84.0</ele><time>2026-04-25T08:47:00.168Z</time></trkpt><trkpt lat="45.3045513" lon="9.2658573"><ele>84.33333333333333</ele><time>2026-04-25T08:47:01.168Z</time></trkpt><trkpt lat="45.3043972" lon="9.2659343"><ele>84.66666666666666</ele><time>2026-04-25T08:47:02.169Z</time></trkpt><trkpt lat="45.3042732" lon="9.2659948"><ele>85.0</ele><time>2026-04-25T08:47:03.169Z</time></trkpt><trkpt lat="45.3041224" lon="9.2660679"><ele>85.0</ele><time>2026-04-25T08:47:04.168Z</time></trkpt><trkpt lat="45.3039781" lon="9.2661238"><ele>85.0</ele><time>2026-04-25T08:47:05.17Z</time></trkpt><trkpt lat="45.3038701" lon="9.2661755"><ele>85.0</ele><time>2026-04-25T08:47:06.169Z</time></trkpt><trkpt lat="45.3037609" lon="9.2662344"><ele>85.0</ele><time>2026-04-25T08:47:07.169Z</time></trkpt><trkpt lat="45.3036799" lon="9.2662441"><ele>84.8</ele><time>2026-04-25T08:47:08.17Z</time></trkpt><trkpt lat="45.3036155" lon="9.2662788"><ele>84.6</ele><time>2026-04-25T08:47:09.17Z</time></trkpt><trkpt lat="45.3035176" lon="9.2663186"><ele>84.4</ele><time>2026-04-25T08:47:10.17Z</time></trkpt><trkpt lat="45.3034199" lon="9.2663496"><ele>84.2</ele><time>2026-04-25T08:47:11.168Z</time></trkpt><trkpt lat="45.3033355" lon="9.2663825"><ele>84.0</ele><time>2026-04-25T08:47:12.169Z</time></trkpt><trkpt lat="45.3032158" lon="9.2664171"><ele>84.2</ele><time>2026-04-25T08:47:13.169Z</time></trkpt><trkpt lat="45.3031058" lon="9.2664589"><ele>84.4</ele><time>2026-04-25T08:47:14.168Z</time></trkpt><trkpt lat="45.3030059" lon="9.266489"><ele>84.6</ele><time>2026-04-25T08:47:15.169Z</time></trkpt><trkpt lat="45.3028965" lon="9.266537"><ele>84.8</ele><time>2026-04-25T08:47:16.169Z</time></trkpt><trkpt lat="45.3027967" lon="9.2665991"><ele>85.0</ele><time>2026-04-25T08:47:17.169Z</time></trkpt><trkpt lat="45.302699" lon="9.2666467"><ele>85.0</ele><time>2026-04-25T08:47:18.169Z</time></trkpt><trkpt lat="45.3025879" lon="9.266696"><ele>85.0</ele><time>2026-04-25T08:47:19.168Z</time></trkpt><trkpt lat="45.3024821" lon="9.2667451"><ele>85.0</ele><time>2026-04-25T08:47:20.169Z</time></trkpt><trkpt lat="45.3023631" lon="9.2667997"><ele>85.0</ele><time>2026-04-25T08:47:21.169Z</time></trkpt><trkpt lat="45.3022678" lon="9.2668616"><ele>84.8</ele><time>2026-04-25T08:47:22.17Z</time></trkpt><trkpt lat="45.3021615" lon="9.2669169"><ele>84.6</ele><time>2026-04-25T08:47:23.17Z</time></trkpt><trkpt lat="45.3020646" lon="9.2669475"><ele>84.4</ele><time>2026-04-25T08:47:24.169Z</time></trkpt><trkpt lat="45.3019554" lon="9.2669849"><ele>84.2</ele><time>2026-04-25T08:47:25.17Z</time></trkpt><trkpt lat="45.3018386" lon="9.2670387"><ele>84.0</ele><time>2026-04-25T08:47:26.169Z</time></trkpt><trkpt lat="45.3017434" lon="9.267057"><ele>84.0</ele><time>2026-04-25T08:47:27.17Z</time></trkpt><trkpt lat="45.3016171" lon="9.2671067"><ele>84.0</ele><time>2026-04-25T08:47:28.169Z</time></trkpt><trkpt lat="45.3014926" lon="9.2671443"><ele>84.0</ele><time>2026-04-25T08:47:29.17Z</time></trkpt><trkpt lat="45.3013766" lon="9.2671853"><ele>84.0</ele><time>2026-04-25T08:47:30.169Z</time></trkpt><trkpt lat="45.3012774" lon="9.2672177"><ele>84.0</ele><time>2026-04-25T08:47:31.168Z</time></trkpt><trkpt lat="45.3011943" lon="9.2672427"><ele>84.0</ele><time>2026-04-25T08:47:32.169Z</time></trkpt><trkpt lat="45.3011007" lon="9.2672713"><ele>84.0</ele><time>2026-04-25T08:47:33.169Z</time></trkpt><trkpt lat="45.3010101" lon="9.2672992"><ele>84.0</ele><time>2026-04-25T08:47:34.17Z</time></trkpt><trkpt lat="45.3009207" lon="9.2673273"><ele>84.0</ele><time>2026-04-25T08:47:35.169Z</time></trkpt><trkpt lat="45.3007897" lon="9.2673729"><ele>84.16666666666667</ele><time>2026-04-25T08:47:37.169Z</time></trkpt><trkpt lat="45.3007127" lon="9.2674085"><ele>84.33333333333333</ele><time>2026-04-25T08:47:38.169Z</time></trkpt><trkpt lat="45.3006483" lon="9.2674316"><ele>84.5</ele><time>2026-04-25T08:47:40.168Z</time></trkpt><trkpt lat="45.3005592" lon="9.2674794"><ele>84.66666666666666</ele><time>2026-04-25T08:47:43.169Z</time></trkpt><trkpt lat="45.3004959" lon="9.2675262"><ele>84.83333333333333</ele><time>2026-04-25T09:03:05.168Z</time></trkpt><trkpt lat="45.3004208" lon="9.2675518"><ele>85.0</ele><time>2026-04-25T09:03:08.169Z</time></trkpt><trkpt lat="45.3003519" lon="9.2675832"><ele>84.66666666666666</ele><time>2026-04-25T09:03:10.168Z</time></trkpt><trkpt lat="45.3002044" lon="9.267585"><ele>84.33333333333333</ele><time>2026-04-25T09:03:12.169Z</time></trkpt><trkpt lat="45.300141" lon="9.2676025"><ele>84.0</ele><time>2026-04-25T09:03:13.169Z</time></trkpt><trkpt lat="45.3000744" lon="9.2676226"><ele>83.66666666666667</ele><time>2026-04-25T09:03:14.17Z</time></trkpt><trkpt lat="45.3000043" lon="9.2676479"><ele>83.33333333333334</ele><time>2026-04-25T09:03:15.168Z</time></trkpt><trkpt lat="45.2999387" lon="9.267667"><ele>83.0</ele><time>2026-04-25T09:03:16.169Z</time></trkpt><trkpt lat="45.2998693" lon="9.2676946"><ele>83.0</ele><time>2026-04-25T09:03:17.17Z</time></trkpt><trkpt lat="45.2998025" lon="9.2677191"><ele>83.0</ele><time>2026-04-25T09:03:18.169Z</time></trkpt><trkpt lat="45.2997263" lon="9.2677437"><ele>83.0</ele><time>2026-04-25T09:03:19.168Z</time></trkpt><trkpt lat="45.2996448" lon="9.2677636"><ele>83.0</ele><time>2026-04-25T09:03:20.168Z</time></trkpt><trkpt lat="45.2995574" lon="9.267784"><ele>83.0</ele><time>2026-04-25T09:03:21.168Z</time></trkpt><trkpt lat="45.2994704" lon="9.2678017"><ele>83.0</ele><time>2026-04-25T09:03:22.168Z</time></trkpt><trkpt lat="45.2993834" lon="9.2678263"><ele>83.2</ele><time>2026-04-25T09:03:23.169Z</time></trkpt><trkpt lat="45.2992939" lon="9.2678469"><ele>83.4</ele><time>2026-04-25T09:03:24.169Z</time></trkpt><trkpt lat="45.2992077" lon="9.2678692"><ele>83.60000000000001</ele><time>2026-04-25T09:03:25.168Z</time></trkpt><trkpt lat="45.2991112" lon="9.2678876"><ele>83.80000000000001</ele><time>2026-04-25T09:03:26.17Z</time></trkpt><trkpt lat="45.2990058" lon="9.2679196"><ele>84.0</ele><time>2026-04-25T09:03:27.169Z</time></trkpt><trkpt lat="45.2988985" lon="9.267941"><ele>84.0</ele><time>2026-04-25T09:03:28.17Z</time></trkpt><trkpt lat="45.298808" lon="9.2679684"><ele>84.0</ele><time>2026-04-25T09:03:29.169Z</time></trkpt><trkpt lat="45.2987102" lon="9.2679858"><ele>84.0</ele><time>2026-04-25T09:03:30.169Z</time></trkpt><trkpt lat="45.2986201" lon="9.2680116"><ele>84.0</ele><time>2026-04-25T09:03:31.168Z</time></trkpt><trkpt lat="45.2985181" lon="9.2680294"><ele>84.0</ele><time>2026-04-25T09:03:32.168Z</time></trkpt><trkpt lat="45.2984228" lon="9.2680565"><ele>84.0</ele><time>2026-04-25T09:03:33.169Z</time></trkpt><trkpt lat="45.2983272" lon="9.268081"><ele>84.0</ele><time>2026-04-25T09:03:34.168Z</time></trkpt><trkpt lat="45.2982297" lon="9.2681064"><ele>84.0</ele><time>2026-04-25T09:03:35.169Z</time></trkpt><trkpt lat="45.2981363" lon="9.2681177"><ele>84.0</ele><time>2026-04-25T09:03:36.168Z</time></trkpt><trkpt lat="45.2980357" lon="9.2681436"><ele>84.0</ele><time>2026-04-25T09:03:37.17Z</time></trkpt><trkpt lat="45.2979366" lon="9.2681643"><ele>84.0</ele><time>2026-04-25T09:03:38.169Z</time></trkpt><trkpt lat="45.2978343" lon="9.2681869"><ele>84.0</ele><time>2026-04-25T09:03:39.169Z</time></trkpt><trkpt lat="45.2977415" lon="9.2682101"><ele>84.0</ele><time>2026-04-25T09:03:40.169Z</time></trkpt><trkpt lat="45.2976223" lon="9.2682365"><ele>84.0</ele><time>2026-04-25T09:03:41.169Z</time></trkpt><trkpt lat="45.2975061" lon="9.2682656"><ele>84.0</ele><time>2026-04-25T09:03:42.17Z</time></trkpt><trkpt lat="45.2973895" lon="9.2682896"><ele>84.0</ele><time>2026-04-25T09:03:43.168Z</time></trkpt><trkpt lat="45.2972773" lon="9.2683106"><ele>84.0</ele><time>2026-04-25T09:03:44.169Z</time></trkpt><trkpt lat="45.2971725" lon="9.2683368"><ele>84.0</ele><time>2026-04-25T09:03:45.168Z</time></trkpt><trkpt lat="45.2970592" lon="9.2683608"><ele>84.0</ele><time>2026-04-25T09:03:46.169Z</time></trkpt><trkpt lat="45.2969411" lon="9.2683877"><ele>84.0</ele><time>2026-04-25T09:03:47.17Z</time></trkpt><trkpt lat="45.2968264" lon="9.2684168"><ele>84.0</ele><time>2026-04-25T09:03:48.169Z</time></trkpt><trkpt lat="45.296703" lon="9.2684373"><ele>84.0</ele><time>2026-04-25T09:03:49.169Z</time></trkpt><trkpt lat="45.2965892" lon="9.2684629"><ele>84.0</ele><time>2026-04-25T09:03:50.169Z</time></trkpt><trkpt lat="45.2964705" lon="9.2684787"><ele>84.0</ele><time>2026-04-25T09:03:51.169Z</time></trkpt><trkpt lat="45.2963494" lon="9.2684948"><ele>84.0</ele><time>2026-04-25T09:03:52.169Z</time></trkpt><trkpt lat="45.2962273" lon="9.268509"><ele>84.0</ele><time>2026-04-25T09:03:53.168Z</time></trkpt><trkpt lat="45.2961064" lon="9.2685248"><ele>84.0</ele><time>2026-04-25T09:03:54.169Z</time></trkpt><trkpt lat="45.2959866" lon="9.2685416"><ele>84.0</ele><time>2026-04-25T09:03:55.17Z</time></trkpt><trkpt lat="45.2958654" lon="9.2685613"><ele>84.0</ele><time>2026-04-25T09:03:56.168Z</time></trkpt><trkpt lat="45.2957395" lon="9.2685748"><ele>84.0</ele><time>2026-04-25T09:03:57.17Z</time></trkpt><trkpt lat="45.2956201" lon="9.26859"><ele>84.0</ele><time>2026-04-25T09:03:58.169Z</time></trkpt><trkpt lat="45.2954945" lon="9.2686078"><ele>84.0</ele><time>2026-04-25T09:03:59.168Z</time></trkpt><trkpt lat="45.2953786" lon="9.2686281"><ele>84.0</ele><time>2026-04-25T09:04:00.168Z</time></trkpt><trkpt lat="45.2952574" lon="9.2686507"><ele>84.0</ele><time>2026-04-25T09:04:01.168Z</time></trkpt><trkpt lat="45.2951464" lon="9.2686631"><ele>84.0</ele><time>2026-04-25T09:04:02.169Z</time></trkpt><trkpt lat="45.2950352" lon="9.2686707"><ele>84.0</ele><time>2026-04-25T09:04:03.169Z</time></trkpt><trkpt lat="45.2949215" lon="9.2686738"><ele>84.0</ele><time>2026-04-25T09:04:04.168Z</time></trkpt><trkpt lat="45.2948059" lon="9.2686675"><ele>84.0</ele><time>2026-04-25T09:04:05.168Z</time></trkpt><trkpt lat="45.2946932" lon="9.2686475"><ele>84.0</ele><time>2026-04-25T09:04:06.169Z</time></trkpt><trkpt lat="45.2945807" lon="9.2686234"><ele>84.0</ele><time>2026-04-25T09:04:07.168Z</time></trkpt><trkpt lat="45.2944975" lon="9.2685989"><ele>84.0</ele><time>2026-04-25T09:04:08.17Z</time></trkpt><trkpt lat="45.2944155" lon="9.2685729"><ele>84.0</ele><time>2026-04-25T09:04:09.169Z</time></trkpt><trkpt lat="45.2943473" lon="9.2685315"><ele>84.0</ele><time>2026-04-25T09:04:10.168Z</time></trkpt><trkpt lat="45.2942841" lon="9.2684703"><ele>84.0</ele><time>2026-04-25T09:04:11.169Z</time></trkpt><trkpt lat="45.2942253" lon="9.2684198"><ele>84.0</ele><time>2026-04-25T09:04:12.168Z</time></trkpt><trkpt lat="45.2941577" lon="9.268344"><ele>84.0</ele><time>2026-04-25T09:04:13.169Z</time></trkpt><trkpt lat="45.2941004" lon="9.2682392"><ele>84.0</ele><time>2026-04-25T09:04:14.168Z</time></trkpt><trkpt lat="45.2940867" lon="9.2680403"><ele>84.0</ele><time>2026-04-25T09:04:15.169Z</time></trkpt><trkpt lat="45.2940466" lon="9.2678779"><ele>84.0</ele><time>2026-04-25T09:04:16.17Z</time></trkpt><trkpt lat="45.2940106" lon="9.2677064"><ele>84.0</ele><time>2026-04-25T09:04:17.169Z</time></trkpt><trkpt lat="45.2939765" lon="9.267494"><ele>84.0</ele><time>2026-04-25T09:04:18.169Z</time></trkpt><trkpt lat="45.2939463" lon="9.2673308"><ele>84.0</ele><time>2026-04-25T09:04:19.169Z</time></trkpt><trkpt lat="45.2939201" lon="9.2671766"><ele>84.0</ele><time>2026-04-25T09:04:20.169Z</time></trkpt><trkpt lat="45.2938916" lon="9.2670392"><ele>84.0</ele><time>2026-04-25T09:04:21.168Z</time></trkpt><trkpt lat="45.2938657" lon="9.2669145"><ele>84.0</ele><time>2026-04-25T09:04:22.169Z</time></trkpt><trkpt lat="45.2938348" lon="9.2667978"><ele>84.0</ele><time>2026-04-25T09:04:23.168Z</time></trkpt><trkpt lat="45.293806" lon="9.2666979"><ele>84.0</ele><time>2026-04-25T09:04:24.169Z</time></trkpt><trkpt lat="45.2937356" lon="9.2665831"><ele>84.0</ele><time>2026-04-25T09:04:26.168Z</time></trkpt><trkpt lat="45.2936228" lon="9.2665766"><ele>84.0</ele><time>2026-04-25T09:04:27.169Z</time></trkpt><trkpt lat="45.2934727" lon="9.266597"><ele>84.0</ele><time>2026-04-25T09:04:28.169Z</time></trkpt><trkpt lat="45.293343" lon="9.2666455"><ele>84.0</ele><time>2026-04-25T09:04:29.17Z</time></trkpt><trkpt lat="45.2932074" lon="9.2667017"><ele>84.0</ele><time>2026-04-25T09:04:30.169Z</time></trkpt><trkpt lat="45.2930673" lon="9.2667634"><ele>84.25</ele><time>2026-04-25T09:04:31.169Z</time></trkpt><trkpt lat="45.2929395" lon="9.2668177"><ele>84.5</ele><time>2026-04-25T09:04:32.169Z</time></trkpt><trkpt lat="45.2928165" lon="9.2668659"><ele>84.75</ele><time>2026-04-25T09:04:33.169Z</time></trkpt><trkpt lat="45.292685" lon="9.266911"><ele>85.0</ele><time>2026-04-25T09:04:34.169Z</time></trkpt><trkpt lat="45.2925524" lon="9.2669611"><ele>85.0</ele><time>2026-04-25T09:04:35.169Z</time></trkpt><trkpt lat="45.2924278" lon="9.2670009"><ele>85.0</ele><time>2026-04-25T09:04:36.169Z</time></trkpt><trkpt lat="45.2923006" lon="9.2670327"><ele>85.0</ele><time>2026-04-25T09:04:37.169Z</time></trkpt><trkpt lat="45.2921658" lon="9.2670815"><ele>85.0</ele><time>2026-04-25T09:04:38.168Z</time></trkpt><trkpt lat="45.2920251" lon="9.2671462"><ele>84.33333333333333</ele><time>2026-04-25T09:04:39.169Z</time></trkpt><trkpt lat="45.2918656" lon="9.2672209"><ele>83.66666666666667</ele><time>2026-04-25T09:04:40.169Z</time></trkpt><trkpt lat="45.2917156" lon="9.2672984"><ele>83.0</ele><time>2026-04-25T09:04:41.169Z</time></trkpt><trkpt lat="45.2915235" lon="9.2674137"><ele>83.0</ele><time>2026-04-25T09:04:42.168Z</time></trkpt><trkpt lat="45.2913432" lon="9.2675143"><ele>83.0</ele><time>2026-04-25T09:04:43.169Z</time></trkpt><trkpt lat="45.29117" lon="9.2676182"><ele>83.0</ele><time>2026-04-25T09:04:44.169Z</time></trkpt><trkpt lat="45.2910126" lon="9.2677147"><ele>83.0</ele><time>2026-04-25T09:04:45.17Z</time></trkpt><trkpt lat="45.29087" lon="9.2678031"><ele>83.0</ele><time>2026-04-25T09:04:46.17Z</time></trkpt><trkpt lat="45.2907357" lon="9.2678903"><ele>83.0</ele><time>2026-04-25T09:04:47.168Z</time></trkpt><trkpt lat="45.2906134" lon="9.2679739"><ele>83.0</ele><time>2026-04-25T09:04:48.17Z</time></trkpt><trkpt lat="45.2904874" lon="9.2680582"><ele>82.75</ele><time>2026-04-25T09:04:49.17Z</time></trkpt><trkpt lat="45.2903636" lon="9.2681453"><ele>82.5</ele><time>2026-04-25T09:04:50.17Z</time></trkpt><trkpt lat="45.2902471" lon="9.2682249"><ele>82.25</ele><time>2026-04-25T09:04:51.169Z</time></trkpt><trkpt lat="45.2901336" lon="9.2683051"><ele>82.0</ele><time>2026-04-25T09:04:52.17Z</time></trkpt><trkpt lat="45.2900207" lon="9.2683935"><ele>82.0</ele><time>2026-04-25T09:04:53.169Z</time></trkpt><trkpt lat="45.2899127" lon="9.2684921"><ele>82.0</ele><time>2026-04-25T09:04:54.169Z</time></trkpt><trkpt lat="45.2898042" lon="9.2685873"><ele>82.0</ele><time>2026-04-25T09:04:55.169Z</time></trkpt><trkpt lat="45.2896979" lon="9.2687007"><ele>82.0</ele><time>2026-04-25T09:04:56.168Z</time></trkpt><trkpt lat="45.2895758" lon="9.2688393"><ele>82.0</ele><time>2026-04-25T09:04:57.169Z</time></trkpt><trkpt lat="45.2894586" lon="9.268968"><ele>82.0</ele><time>2026-04-25T09:04:58.168Z</time></trkpt><trkpt lat="45.2893307" lon="9.2690973"><ele>82.0</ele><time>2026-04-25T09:04:59.168Z</time></trkpt><trkpt lat="45.2892329" lon="9.2692192"><ele>82.0</ele><time>2026-04-25T09:05:00.169Z</time></trkpt><trkpt lat="45.2891276" lon="9.2693461"><ele>82.0</ele><time>2026-04-25T09:05:01.169Z</time></trkpt><trkpt lat="45.2890248" lon="9.2694766"><ele>82.0</ele><time>2026-04-25T09:05:02.168Z</time></trkpt><trkpt lat="45.2889227" lon="9.2695972"><ele>82.0</ele><time>2026-04-25T09:05:03.169Z</time></trkpt><trkpt lat="45.2888181" lon="9.2697224"><ele>82.0</ele><time>2026-04-25T09:05:04.169Z</time></trkpt><trkpt lat="45.2887104" lon="9.2698534"><ele>81.75</ele><time>2026-04-25T09:05:05.17Z</time></trkpt><trkpt lat="45.288604" lon="9.2699798"><ele>81.5</ele><time>2026-04-25T09:05:06.168Z</time></trkpt><trkpt lat="45.2884997" lon="9.2701002"><ele>81.25</ele><time>2026-04-25T09:05:07.169Z</time></trkpt><trkpt lat="45.2883918" lon="9.2702169"><ele>81.0</ele><time>2026-04-25T09:05:08.169Z</time></trkpt><trkpt lat="45.2882885" lon="9.2703541"><ele>81.0</ele><time>2026-04-25T09:05:09.169Z</time></trkpt><trkpt lat="45.288188" lon="9.2704833"><ele>81.0</ele><time>2026-04-25T09:05:10.169Z</time></trkpt><trkpt lat="45.2880881" lon="9.2706091"><ele>81.0</ele><time>2026-04-25T09:05:11.17Z</time></trkpt><trkpt lat="45.2879913" lon="9.2707276"><ele>81.0</ele><time>2026-04-25T09:05:12.168Z</time></trkpt><trkpt lat="45.2879" lon="9.2708525"><ele>81.0</ele><time>2026-04-25T09:05:13.169Z</time></trkpt><trkpt lat="45.2877984" lon="9.2709914"><ele>81.0</ele><time>2026-04-25T09:05:14.168Z</time></trkpt><trkpt lat="45.2877026" lon="9.2711163"><ele>81.0</ele><time>2026-04-25T09:05:15.169Z</time></trkpt><trkpt lat="45.2876322" lon="9.2712548"><ele>81.0</ele><time>2026-04-25T09:05:16.168Z</time></trkpt><trkpt lat="45.2875554" lon="9.2714192"><ele>81.0</ele><time>2026-04-25T09:05:17.169Z</time></trkpt><trkpt lat="45.2874823" lon="9.2715833"><ele>81.0</ele><time>2026-04-25T09:05:18.168Z</time></trkpt><trkpt lat="45.2874166" lon="9.2717428"><ele>81.0</ele><time>2026-04-25T09:05:19.169Z</time></trkpt><trkpt lat="45.2873404" lon="9.2719067"><ele>81.0</ele><time>2026-04-25T09:05:20.168Z</time></trkpt><trkpt lat="45.287263" lon="9.2720852"><ele>80.75</ele><time>2026-04-25T09:05:21.168Z</time></trkpt><trkpt lat="45.287191" lon="9.2722713"><ele>80.5</ele><time>2026-04-25T09:05:22.168Z</time></trkpt><trkpt lat="45.2871202" lon="9.2724288"><ele>80.25</ele><time>2026-04-25T09:05:23.169Z</time></trkpt><trkpt lat="45.2870716" lon="9.2725505"><ele>80.0</ele><time>2026-04-25T09:05:24.169Z</time></trkpt><trkpt lat="45.287031" lon="9.2726524"><ele>80.0</ele><time>2026-04-25T09:05:25.168Z</time></trkpt><trkpt lat="45.2869899" lon="9.2727576"><ele>80.0</ele><time>2026-04-25T09:05:26.168Z</time></trkpt><trkpt lat="45.2869449" lon="9.2728465"><ele>80.0</ele><time>2026-04-25T09:05:27.169Z</time></trkpt><trkpt lat="45.2868931" lon="9.2729202"><ele>80.0</ele><time>2026-04-25T09:05:28.168Z</time></trkpt><trkpt lat="45.2868268" lon="9.2729792"><ele>80.0</ele><time>2026-04-25T09:05:29.169Z</time></trkpt><trkpt lat="45.2867517" lon="9.2730258"><ele>80.0</ele><time>2026-04-25T09:05:30.169Z</time></trkpt><trkpt lat="45.2866777" lon="9.2730587"><ele>80.0</ele><time>2026-04-25T09:05:31.168Z</time></trkpt><trkpt lat="45.2866057" lon="9.2730791"><ele>80.0</ele><time>2026-04-25T09:05:32.169Z</time></trkpt><trkpt lat="45.2864903" lon="9.2731149"><ele>80.0</ele><time>2026-04-25T09:05:34.169Z</time></trkpt><trkpt lat="45.2864025" lon="9.2731428"><ele>80.0</ele><time>2026-04-25T09:05:36.169Z</time></trkpt><trkpt lat="45.2863392" lon="9.2731649"><ele>80.0</ele><time>2026-04-25T09:05:38.168Z</time></trkpt><trkpt lat="45.2862691" lon="9.2731951"><ele>80.0</ele><time>2026-04-25T09:05:54.168Z</time></trkpt><trkpt lat="45.2861878" lon="9.2732344"><ele>79.6</ele><time>2026-04-25T09:05:57.169Z</time></trkpt><trkpt lat="45.2860685" lon="9.2732891"><ele>79.2</ele><time>2026-04-25T09:05:58.169Z</time></trkpt><trkpt lat="45.2859797" lon="9.2733394"><ele>78.8</ele><time>2026-04-25T09:05:59.168Z</time></trkpt><trkpt lat="45.2858838" lon="9.2733968"><ele>78.4</ele><time>2026-04-25T09:06:00.17Z</time></trkpt><trkpt lat="45.2857913" lon="9.273461"><ele>78.0</ele><time>2026-04-25T09:06:01.169Z</time></trkpt><trkpt lat="45.2857068" lon="9.2735305"><ele>78.0</ele><time>2026-04-25T09:06:02.169Z</time></trkpt><trkpt lat="45.2856363" lon="9.2736074"><ele>78.0</ele><time>2026-04-25T09:06:03.168Z</time></trkpt><trkpt lat="45.2855744" lon="9.2736904"><ele>78.0</ele><time>2026-04-25T09:06:04.169Z</time></trkpt><trkpt lat="45.2855323" lon="9.2737705"><ele>78.0</ele><time>2026-04-25T09:06:05.169Z</time></trkpt><trkpt lat="45.2854982" lon="9.2738723"><ele>78.0</ele><time>2026-04-25T09:06:06.169Z</time></trkpt><trkpt lat="45.2854629" lon="9.2740628"><ele>78.0</ele><time>2026-04-25T09:06:07.168Z</time></trkpt><trkpt lat="45.2854564" lon="9.2742143"><ele>78.0</ele><time>2026-04-25T09:06:08.168Z</time></trkpt><trkpt lat="45.2854585" lon="9.2743532"><ele>78.0</ele><time>2026-04-25T09:06:09.169Z</time></trkpt><trkpt lat="45.2854613" lon="9.2744988"><ele>78.0</ele><time>2026-04-25T09:06:10.169Z</time></trkpt><trkpt lat="45.2854577" lon="9.2746479"><ele>78.0</ele><time>2026-04-25T09:06:11.169Z</time></trkpt><trkpt lat="45.2854476" lon="9.2748285"><ele>78.25</ele><time>2026-04-25T09:06:12.168Z</time></trkpt><trkpt lat="45.2854159" lon="9.2749716"><ele>78.5</ele><time>2026-04-25T09:06:13.168Z</time></trkpt><trkpt lat="45.2853628" lon="9.2751033"><ele>78.75</ele><time>2026-04-25T09:06:14.169Z</time></trkpt><trkpt lat="45.2852781" lon="9.2752399"><ele>79.0</ele><time>2026-04-25T09:06:15.168Z</time></trkpt><trkpt lat="45.2851772" lon="9.2753603"><ele>79.0</ele><time>2026-04-25T09:06:16.168Z</time></trkpt><trkpt lat="45.2850731" lon="9.275477"><ele>79.0</ele><time>2026-04-25T09:06:17.168Z</time></trkpt><trkpt lat="45.2849673" lon="9.2755919"><ele>79.0</ele><time>2026-04-25T09:06:18.169Z</time></trkpt><trkpt lat="45.284847" lon="9.2757112"><ele>79.0</ele><time>2026-04-25T09:06:19.168Z</time></trkpt><trkpt lat="45.2847361" lon="9.2758348"><ele>78.25</ele><time>2026-04-25T09:06:20.169Z</time></trkpt><trkpt lat="45.2846241" lon="9.2759563"><ele>77.5</ele><time>2026-04-25T09:06:21.169Z</time></trkpt><trkpt lat="45.284513" lon="9.2760772"><ele>76.75</ele><time>2026-04-25T09:06:22.169Z</time></trkpt><trkpt lat="45.2843969" lon="9.276206"><ele>76.0</ele><time>2026-04-25T09:06:23.169Z</time></trkpt><trkpt lat="45.2842842" lon="9.2763371"><ele>76.0</ele><time>2026-04-25T09:06:24.169Z</time></trkpt><trkpt lat="45.2841888" lon="9.2764354"><ele>76.0</ele><time>2026-04-25T09:06:25.17Z</time></trkpt><trkpt lat="45.2840892" lon="9.2765443"><ele>76.0</ele><time>2026-04-25T09:06:26.168Z</time></trkpt><trkpt lat="45.283994" lon="9.2766427"><ele>76.0</ele><time>2026-04-25T09:06:27.169Z</time></trkpt><trkpt lat="45.2838961" lon="9.2767368"><ele>75.8</ele><time>2026-04-25T09:06:28.169Z</time></trkpt><trkpt lat="45.2838102" lon="9.276819"><ele>75.6</ele><time>2026-04-25T09:06:29.169Z</time></trkpt><trkpt lat="45.2837177" lon="9.2769028"><ele>75.4</ele><time>2026-04-25T09:06:30.169Z</time></trkpt><trkpt lat="45.2836249" lon="9.2769509"><ele>75.2</ele><time>2026-04-25T09:06:31.169Z</time></trkpt><trkpt lat="45.2835163" lon="9.2770017"><ele>75.0</ele><time>2026-04-25T09:06:32.169Z</time></trkpt><trkpt lat="45.2834197" lon="9.2770496"><ele>75.0</ele><time>2026-04-25T09:06:33.169Z</time></trkpt><trkpt lat="45.2833123" lon="9.2771217"><ele>75.0</ele><time>2026-04-25T09:06:34.17Z</time></trkpt><trkpt lat="45.2832105" lon="9.2772072"><ele>75.0</ele><time>2026-04-25T09:06:35.168Z</time></trkpt><trkpt lat="45.2831135" lon="9.2772893"><ele>75.0</ele><time>2026-04-25T09:06:36.169Z</time></trkpt><trkpt lat="45.2830049" lon="9.2773821"><ele>75.6</ele><time>2026-04-25T09:06:37.17Z</time></trkpt><trkpt lat="45.2829184" lon="9.2774439"><ele>76.2</ele><time>2026-04-25T09:06:38.168Z</time></trkpt><trkpt lat="45.2828113" lon="9.2775102"><ele>76.8</ele><time>2026-04-25T09:06:39.168Z</time></trkpt><trkpt lat="45.2827247" lon="9.2775423"><ele>77.4</ele><time>2026-04-25T09:06:40.168Z</time></trkpt><trkpt lat="45.2826392" lon="9.277572"><ele>78.0</ele><time>2026-04-25T09:06:41.168Z</time></trkpt><trkpt lat="45.2825634" lon="9.277553"><ele>78.0</ele><time>2026-04-25T09:06:43.169Z</time></trkpt><trkpt lat="45.2824883" lon="9.2775438"><ele>78.0</ele><time>2026-04-25T09:06:45.168Z</time></trkpt><trkpt lat="45.2824177" lon="9.2774885"><ele>78.0</ele><time>2026-04-25T09:08:05.169Z</time></trkpt><trkpt lat="45.2823726" lon="9.2774127"><ele>78.0</ele><time>2026-04-25T09:08:06.169Z</time></trkpt><trkpt lat="45.2823083" lon="9.2772612"><ele>78.0</ele><time>2026-04-25T09:08:08.17Z</time></trkpt><trkpt lat="45.2822607" lon="9.2771569"><ele>78.0</ele><time>2026-04-25T09:08:09.169Z</time></trkpt><trkpt lat="45.2821655" lon="9.276901"><ele>79.0</ele><time>2026-04-25T09:08:10.169Z</time></trkpt><trkpt lat="45.282106" lon="9.2767432"><ele>80.0</ele><time>2026-04-25T09:08:11.169Z</time></trkpt><trkpt lat="45.2820407" lon="9.2766066"><ele>81.0</ele><time>2026-04-25T09:08:12.168Z</time></trkpt><trkpt lat="45.2819469" lon="9.2764994"><ele>82.0</ele><time>2026-04-25T09:08:13.169Z</time></trkpt><trkpt lat="45.281854" lon="9.2764015"><ele>82.25</ele><time>2026-04-25T09:08:14.168Z</time></trkpt><trkpt lat="45.2817506" lon="9.2763045"><ele>82.5</ele><time>2026-04-25T09:08:15.168Z</time></trkpt><trkpt lat="45.2816458" lon="9.2762142"><ele>82.75</ele><time>2026-04-25T09:08:16.169Z</time></trkpt><trkpt lat="45.2815484" lon="9.2761118"><ele>83.0</ele><time>2026-04-25T09:08:17.169Z</time></trkpt><trkpt lat="45.281463" lon="9.2759928"><ele>83.2</ele><time>2026-04-25T09:08:18.169Z</time></trkpt><trkpt lat="45.2813864" lon="9.2759258"><ele>83.4</ele><time>2026-04-25T09:08:19.168Z</time></trkpt><trkpt lat="45.2812863" lon="9.275896"><ele>83.60000000000001</ele><time>2026-04-25T09:08:20.168Z</time></trkpt><trkpt lat="45.2811809" lon="9.2758815"><ele>83.80000000000001</ele><time>2026-04-25T09:08:21.17Z</time></trkpt><trkpt lat="45.2810804" lon="9.2758946"><ele>84.0</ele><time>2026-04-25T09:08:22.169Z</time></trkpt><trkpt lat="45.2809885" lon="9.2759331"><ele>84.0</ele><time>2026-04-25T09:08:23.17Z</time></trkpt><trkpt lat="45.2808939" lon="9.2759742"><ele>84.0</ele><time>2026-04-25T09:08:24.168Z</time></trkpt><trkpt lat="45.2808104" lon="9.2760771"><ele>84.0</ele><time>2026-04-25T09:08:25.168Z</time></trkpt><trkpt lat="45.2807148" lon="9.2761252"><ele>84.0</ele><time>2026-04-25T09:08:26.169Z</time></trkpt><trkpt lat="45.2806357" lon="9.2761967"><ele>84.0</ele><time>2026-04-25T09:08:27.169Z</time></trkpt><trkpt lat="45.2805593" lon="9.2761292"><ele>83.75</ele><time>2026-04-25T09:08:29.169Z</time></trkpt><trkpt lat="45.2805158" lon="9.2759421"><ele>83.5</ele><time>2026-04-25T09:08:30.169Z</time></trkpt><trkpt lat="45.2804511" lon="9.2758209"><ele>83.25</ele><time>2026-04-25T09:08:31.168Z</time></trkpt><trkpt lat="45.2804397" lon="9.2755699"><ele>83.0</ele><time>2026-04-25T09:08:32.17Z</time></trkpt><trkpt lat="45.2803962" lon="9.275381"><ele>83.0</ele><time>2026-04-25T09:08:33.169Z</time></trkpt><trkpt lat="45.2803389" lon="9.2752003"><ele>83.0</ele><time>2026-04-25T09:08:34.168Z</time></trkpt><trkpt lat="45.2802634" lon="9.2750307"><ele>83.0</ele><time>2026-04-25T09:08:35.169Z</time></trkpt><trkpt lat="45.2801786" lon="9.2748741"><ele>83.0</ele><time>2026-04-25T09:08:36.169Z</time></trkpt><trkpt lat="45.2800947" lon="9.2747275"><ele>83.0</ele><time>2026-04-25T09:08:37.169Z</time></trkpt><trkpt lat="45.2800174" lon="9.2745729"><ele>83.0</ele><time>2026-04-25T09:08:38.168Z</time></trkpt><trkpt lat="45.2799467" lon="9.2744091"><ele>83.0</ele><time>2026-04-25T09:08:39.168Z</time></trkpt><trkpt lat="45.2798819" lon="9.2742443"><ele>83.0</ele><time>2026-04-25T09:08:40.169Z</time></trkpt><trkpt lat="45.279817" lon="9.2740839"><ele>83.0</ele><time>2026-04-25T09:08:41.17Z</time></trkpt><trkpt lat="45.2797359" lon="9.2739456"><ele>83.0</ele><time>2026-04-25T09:08:42.169Z</time></trkpt><trkpt lat="45.2796428" lon="9.2738226"><ele>83.0</ele><time>2026-04-25T09:08:43.169Z</time></trkpt><trkpt lat="45.2795456" lon="9.273694"><ele>83.0</ele><time>2026-04-25T09:08:44.169Z</time></trkpt><trkpt lat="45.2794466" lon="9.2735595"><ele>83.0</ele><time>2026-04-25T09:08:45.17Z</time></trkpt><trkpt lat="45.2793495" lon="9.2734155"><ele>83.0</ele><time>2026-04-25T09:08:46.169Z</time></trkpt><trkpt lat="45.2792451" lon="9.2732794"><ele>83.0</ele><time>2026-04-25T09:08:47.17Z</time></trkpt><trkpt lat="45.2791358" lon="9.2731586"><ele>83.0</ele><time>2026-04-25T09:08:48.17Z</time></trkpt><trkpt lat="45.2790095" lon="9.2730433"><ele>83.25</ele><time>2026-04-25T09:08:49.168Z</time></trkpt><trkpt lat="45.2788826" lon="9.2729617"><ele>83.5</ele><time>2026-04-25T09:08:50.168Z</time></trkpt><trkpt lat="45.2787542" lon="9.2729126"><ele>83.75</ele><time>2026-04-25T09:08:51.168Z</time></trkpt><trkpt lat="45.2786152" lon="9.2728947"><ele>84.0</ele><time>2026-04-25T09:08:52.168Z</time></trkpt><trkpt lat="45.2784752" lon="9.2728884"><ele>84.0</ele><time>2026-04-25T09:08:53.169Z</time></trkpt><trkpt lat="45.2783303" lon="9.2728747"><ele>84.0</ele><time>2026-04-25T09:08:54.169Z</time></trkpt><trkpt lat="45.2781745" lon="9.2728755"><ele>84.0</ele><time>2026-04-25T09:08:55.169Z</time></trkpt><trkpt lat="45.2780345" lon="9.2728618"><ele>84.0</ele><time>2026-04-25T09:08:56.168Z</time></trkpt><trkpt lat="45.2778825" lon="9.2728344"><ele>83.75</ele><time>2026-04-25T09:08:57.17Z</time></trkpt><trkpt lat="45.2777359" lon="9.2727901"><ele>83.5</ele><time>2026-04-25T09:08:58.169Z</time></trkpt><trkpt lat="45.277593" lon="9.2727353"><ele>83.25</ele><time>2026-04-25T09:08:59.169Z</time></trkpt><trkpt lat="45.277469" lon="9.2726438"><ele>83.0</ele><time>2026-04-25T09:09:00.169Z</time></trkpt><trkpt lat="45.2773342" lon="9.2725922"><ele>83.25</ele><time>2026-04-25T09:09:01.169Z</time></trkpt><trkpt lat="45.2771936" lon="9.2725603"><ele>83.5</ele><time>2026-04-25T09:09:02.169Z</time></trkpt><trkpt lat="45.2770649" lon="9.2725551"><ele>83.75</ele><time>2026-04-25T09:09:03.169Z</time></trkpt><trkpt lat="45.2769055" lon="9.2725708"><ele>84.0</ele><time>2026-04-25T09:09:04.169Z</time></trkpt><trkpt lat="45.2767532" lon="9.2725749"><ele>84.0</ele><time>2026-04-25T09:09:05.168Z</time></trkpt><trkpt lat="45.2765986" lon="9.2725766"><ele>84.0</ele><time>2026-04-25T09:09:06.168Z</time></trkpt><trkpt lat="45.276456" lon="9.2725666"><ele>84.0</ele><time>2026-04-25T09:09:07.169Z</time></trkpt><trkpt lat="45.2763024" lon="9.2725518"><ele>83.5</ele><time>2026-04-25T09:09:08.169Z</time></trkpt><trkpt lat="45.2761634" lon="9.2725365"><ele>83.0</ele><time>2026-04-25T09:09:09.169Z</time></trkpt><trkpt lat="45.2760467" lon="9.2725181"><ele>82.5</ele><time>2026-04-25T09:09:10.169Z</time></trkpt><trkpt lat="45.2759922" lon="9.2724023"><ele>82.0</ele><time>2026-04-25T09:09:11.168Z</time></trkpt><trkpt lat="45.2759443" lon="9.2722035"><ele>82.0</ele><time>2026-04-25T09:09:12.17Z</time></trkpt><trkpt lat="45.275873" lon="9.2720484"><ele>82.0</ele><time>2026-04-25T09:09:13.168Z</time></trkpt><trkpt lat="45.2757958" lon="9.271873"><ele>82.0</ele><time>2026-04-25T09:09:14.17Z</time></trkpt><trkpt lat="45.2757176" lon="9.2716951"><ele>82.0</ele><time>2026-04-25T09:09:15.169Z</time></trkpt><trkpt lat="45.2756452" lon="9.271507"><ele>81.66666666666666</ele><time>2026-04-25T09:09:16.168Z</time></trkpt><trkpt lat="45.2755554" lon="9.2713295"><ele>81.33333333333333</ele><time>2026-04-25T09:09:17.169Z</time></trkpt><trkpt lat="45.2754754" lon="9.2711466"><ele>81.0</ele><time>2026-04-25T09:09:18.169Z</time></trkpt><trkpt lat="45.2754067" lon="9.2709443"><ele>81.0</ele><time>2026-04-25T09:09:19.169Z</time></trkpt><trkpt lat="45.2753389" lon="9.2707464"><ele>81.0</ele><time>2026-04-25T09:09:20.169Z</time></trkpt><trkpt lat="45.2752717" lon="9.2705528"><ele>81.0</ele><time>2026-04-25T09:09:21.169Z</time></trkpt><trkpt lat="45.2752169" lon="9.2703704"><ele>81.0</ele><time>2026-04-25T09:09:22.169Z</time></trkpt><trkpt lat="45.2751498" lon="9.2701922"><ele>81.0</ele><time>2026-04-25T09:09:23.169Z</time></trkpt><trkpt lat="45.2750867" lon="9.270022"><ele>81.0</ele><time>2026-04-25T09:09:24.168Z</time></trkpt><trkpt lat="45.2749231" lon="9.2699543"><ele>81.0</ele><time>2026-04-25T09:09:25.169Z</time></trkpt><trkpt lat="45.2747763" lon="9.2698542"><ele>81.0</ele><time>2026-04-25T09:09:26.17Z</time></trkpt><trkpt lat="45.2746355" lon="9.2697522"><ele>81.0</ele><time>2026-04-25T09:09:27.17Z</time></trkpt><trkpt lat="45.2744862" lon="9.2696396"><ele>81.0</ele><time>2026-04-25T09:09:28.168Z</time></trkpt><trkpt lat="45.274353" lon="9.2695317"><ele>81.0</ele><time>2026-04-25T09:09:29.168Z</time></trkpt><trkpt lat="45.2742394" lon="9.2694124"><ele>81.0</ele><time>2026-04-25T09:09:30.169Z</time></trkpt><trkpt lat="45.2741528" lon="9.2692647"><ele>81.0</ele><time>2026-04-25T09:09:31.169Z</time></trkpt><trkpt lat="45.2740796" lon="9.2690938"><ele>81.0</ele><time>2026-04-25T09:09:32.168Z</time></trkpt><trkpt lat="45.2740105" lon="9.2689044"><ele>81.33333333333333</ele><time>2026-04-25T09:09:33.169Z</time></trkpt><trkpt lat="45.273942" lon="9.2687125"><ele>81.66666666666666</ele><time>2026-04-25T09:09:34.168Z</time></trkpt><trkpt lat="45.2738811" lon="9.2685298"><ele>82.0</ele><time>2026-04-25T09:09:35.168Z</time></trkpt><trkpt lat="45.273808" lon="9.2683076"><ele>82.0</ele><time>2026-04-25T09:09:36.17Z</time></trkpt><trkpt lat="45.2737591" lon="9.2680776"><ele>82.0</ele><time>2026-04-25T09:09:37.169Z</time></trkpt><trkpt lat="45.2737161" lon="9.2678903"><ele>82.0</ele><time>2026-04-25T09:09:38.169Z</time></trkpt><trkpt lat="45.2736732" lon="9.267736"><ele>82.0</ele><time>2026-04-25T09:09:39.169Z</time></trkpt><trkpt lat="45.2736253" lon="9.2676331"><ele>82.0</ele><time>2026-04-25T09:09:40.169Z</time></trkpt><trkpt lat="45.2735787" lon="9.2675113"><ele>82.0</ele><time>2026-04-25T09:09:41.169Z</time></trkpt><trkpt lat="45.2735015" lon="9.2674315"><ele>82.0</ele><time>2026-04-25T09:09:42.168Z</time></trkpt><trkpt lat="45.2734201" lon="9.2673879"><ele>82.0</ele><time>2026-04-25T09:09:43.17Z</time></trkpt><trkpt lat="45.2732935" lon="9.2674096"><ele>82.0</ele><time>2026-04-25T09:09:44.169Z</time></trkpt><trkpt lat="45.2731593" lon="9.2675686"><ele>81.5</ele><time>2026-04-25T09:09:45.169Z</time></trkpt><trkpt lat="45.2730382" lon="9.2676841"><ele>81.0</ele><time>2026-04-25T09:09:46.168Z</time></trkpt><trkpt lat="45.2729153" lon="9.267764"><ele>80.5</ele><time>2026-04-25T09:09:47.169Z</time></trkpt><trkpt lat="45.272791" lon="9.2678439"><ele>80.0</ele><time>2026-04-25T09:09:48.169Z</time></trkpt><trkpt lat="45.2726709" lon="9.2679223"><ele>80.0</ele><time>2026-04-25T09:09:49.168Z</time></trkpt><trkpt lat="45.2725496" lon="9.2679983"><ele>80.0</ele><time>2026-04-25T09:09:50.169Z</time></trkpt><trkpt lat="45.2724348" lon="9.2680786"><ele>80.0</ele><time>2026-04-25T09:09:51.169Z</time></trkpt><trkpt lat="45.2723099" lon="9.2681755"><ele>80.0</ele><time>2026-04-25T09:09:52.168Z</time></trkpt><trkpt lat="45.2722456" lon="9.2682173"><ele>79.8</ele><time>2026-04-25T09:09:53.17Z</time></trkpt><trkpt lat="45.2721707" lon="9.2682684"><ele>79.6</ele><time>2026-04-25T09:09:54.168Z</time></trkpt><trkpt lat="45.2720812" lon="9.2683382"><ele>79.4</ele><time>2026-04-25T09:09:55.169Z</time></trkpt><trkpt lat="45.271988" lon="9.2684155"><ele>79.2</ele><time>2026-04-25T09:09:56.168Z</time></trkpt><trkpt lat="45.2718741" lon="9.268497"><ele>79.0</ele><time>2026-04-25T09:09:57.168Z</time></trkpt><trkpt lat="45.2717674" lon="9.2685788"><ele>79.0</ele><time>2026-04-25T09:09:58.169Z</time></trkpt><trkpt lat="45.2716365" lon="9.2686731"><ele>79.0</ele><time>2026-04-25T09:09:59.17Z</time></trkpt><trkpt lat="45.2715034" lon="9.2687551"><ele>79.0</ele><time>2026-04-25T09:10:00.168Z</time></trkpt><trkpt lat="45.2713813" lon="9.2688313"><ele>79.0</ele><time>2026-04-25T09:10:01.169Z</time></trkpt><trkpt lat="45.2712558" lon="9.268913"><ele>79.5</ele><time>2026-04-25T09:10:02.169Z</time></trkpt><trkpt lat="45.2711185" lon="9.2690181"><ele>80.0</ele><time>2026-04-25T09:10:03.169Z</time></trkpt><trkpt lat="45.2709924" lon="9.2691121"><ele>80.5</ele><time>2026-04-25T09:10:04.169Z</time></trkpt><trkpt lat="45.2708661" lon="9.2692043"><ele>81.0</ele><time>2026-04-25T09:10:05.169Z</time></trkpt><trkpt lat="45.2707459" lon="9.2692961"><ele>81.0</ele><time>2026-04-25T09:10:06.169Z</time></trkpt><trkpt lat="45.2706249" lon="9.2693972"><ele>81.0</ele><time>2026-04-25T09:10:07.168Z</time></trkpt><trkpt lat="45.2705181" lon="9.2695199"><ele>81.0</ele><time>2026-04-25T09:10:08.17Z</time></trkpt><trkpt lat="45.2704183" lon="9.2696573"><ele>81.0</ele><time>2026-04-25T09:10:09.168Z</time></trkpt><trkpt lat="45.2703143" lon="9.2697933"><ele>80.75</ele><time>2026-04-25T09:10:10.168Z</time></trkpt><trkpt lat="45.2702246" lon="9.2699608"><ele>80.5</ele><time>2026-04-25T09:10:11.168Z</time></trkpt><trkpt lat="45.2701327" lon="9.2701191"><ele>80.25</ele><time>2026-04-25T09:10:12.169Z</time></trkpt><trkpt lat="45.270044" lon="9.2702716"><ele>80.0</ele><time>2026-04-25T09:10:13.169Z</time></trkpt><trkpt lat="45.2699598" lon="9.2704179"><ele>80.0</ele><time>2026-04-25T09:10:14.169Z</time></trkpt><trkpt lat="45.2698755" lon="9.2705668"><ele>80.0</ele><time>2026-04-25T09:10:15.168Z</time></trkpt><trkpt lat="45.2698194" lon="9.2707399"><ele>80.0</ele><time>2026-04-25T09:10:16.168Z</time></trkpt><trkpt lat="45.2697369" lon="9.2708836"><ele>80.0</ele><time>2026-04-25T09:10:17.168Z</time></trkpt><trkpt lat="45.2696453" lon="9.271033"><ele>80.25</ele><time>2026-04-25T09:10:18.168Z</time></trkpt><trkpt lat="45.2696409" lon="9.2711826"><ele>80.5</ele><time>2026-04-25T09:10:19.169Z</time></trkpt><trkpt lat="45.269657" lon="9.2713675"><ele>80.75</ele><time>2026-04-25T09:10:20.168Z</time></trkpt><trkpt lat="45.269655" lon="9.2715437"><ele>81.0</ele><time>2026-04-25T09:10:21.169Z</time></trkpt><trkpt lat="45.269685" lon="9.2717713"><ele>81.0</ele><time>2026-04-25T09:10:22.168Z</time></trkpt><trkpt lat="45.2696769" lon="9.2719812"><ele>81.0</ele><time>2026-04-25T09:10:23.168Z</time></trkpt><trkpt lat="45.2696582" lon="9.2721701"><ele>81.0</ele><time>2026-04-25T09:10:24.168Z</time></trkpt><trkpt lat="45.2696593" lon="9.2723124"><ele>81.0</ele><time>2026-04-25T09:10:25.168Z</time></trkpt><trkpt lat="45.2696413" lon="9.2724265"><ele>81.0</ele><time>2026-04-25T09:10:26.17Z</time></trkpt><trkpt lat="45.2696269" lon="9.2725474"><ele>81.0</ele><time>2026-04-25T09:10:27.169Z</time></trkpt><trkpt lat="45.2695632" lon="9.2726293"><ele>81.0</ele><time>2026-04-25T09:10:28.169Z</time></trkpt><trkpt lat="45.2694269" lon="9.2726852"><ele>81.0</ele><time>2026-04-25T09:10:29.169Z</time></trkpt><trkpt lat="45.2693305" lon="9.272757"><ele>81.0</ele><time>2026-04-25T09:10:30.169Z</time></trkpt><trkpt lat="45.2692378" lon="9.2728297"><ele>81.0</ele><time>2026-04-25T09:10:31.17Z</time></trkpt><trkpt lat="45.2690984" lon="9.2729257"><ele>81.0</ele><time>2026-04-25T09:10:32.168Z</time></trkpt><trkpt lat="45.2689813" lon="9.2730108"><ele>81.0</ele><time>2026-04-25T09:10:33.169Z</time></trkpt><trkpt lat="45.2688542" lon="9.2731158"><ele>81.0</ele><time>2026-04-25T09:10:34.169Z</time></trkpt><trkpt lat="45.2687377" lon="9.2732057"><ele>81.25</ele><time>2026-04-25T09:10:35.17Z</time></trkpt><trkpt lat="45.2686306" lon="9.2733"><ele>81.5</ele><time>2026-04-25T09:10:36.168Z</time></trkpt><trkpt lat="45.2685312" lon="9.2733874"><ele>81.75</ele><time>2026-04-25T09:10:37.169Z</time></trkpt><trkpt lat="45.2684272" lon="9.2734814"><ele>82.0</ele><time>2026-04-25T09:10:38.169Z</time></trkpt><trkpt lat="45.2683233" lon="9.2735653"><ele>82.0</ele><time>2026-04-25T09:10:39.168Z</time></trkpt><trkpt lat="45.2681782" lon="9.273639"><ele>82.0</ele><time>2026-04-25T09:10:41.168Z</time></trkpt><trkpt lat="45.2681069" lon="9.27366"><ele>82.0</ele><time>2026-04-25T09:10:42.169Z</time></trkpt><trkpt lat="45.2679711" lon="9.2737632"><ele>82.0</ele><time>2026-04-25T09:10:44.169Z</time></trkpt><trkpt lat="45.2679046" lon="9.2738452"><ele>82.25</ele><time>2026-04-25T09:10:45.169Z</time></trkpt><trkpt lat="45.2678106" lon="9.2739101"><ele>82.5</ele><time>2026-04-25T09:10:46.169Z</time></trkpt><trkpt lat="45.2676841" lon="9.2740038"><ele>82.75</ele><time>2026-04-25T09:10:47.168Z</time></trkpt><trkpt lat="45.2675798" lon="9.274072"><ele>83.0</ele><time>2026-04-25T09:10:48.169Z</time></trkpt><trkpt lat="45.267458" lon="9.2741625"><ele>83.0</ele><time>2026-04-25T09:10:50.17Z</time></trkpt><trkpt lat="45.2674089" lon="9.2742187"><ele>83.0</ele><time>2026-04-25T09:10:51.168Z</time></trkpt><trkpt lat="45.2673246" lon="9.2742717"><ele>83.0</ele><time>2026-04-25T09:10:52.169Z</time></trkpt><trkpt lat="45.2672461" lon="9.274322"><ele>83.0</ele><time>2026-04-25T09:10:53.169Z</time></trkpt><trkpt lat="45.2671536" lon="9.2743695"><ele>83.0</ele><time>2026-04-25T09:10:54.17Z</time></trkpt><trkpt lat="45.2670522" lon="9.2744161"><ele>83.0</ele><time>2026-04-25T09:10:55.169Z</time></trkpt><trkpt lat="45.2668734" lon="9.2744855"><ele>83.0</ele><time>2026-04-25T09:10:56.169Z</time></trkpt><trkpt lat="45.266743" lon="9.2745431"><ele>83.0</ele><time>2026-04-25T09:10:57.169Z</time></trkpt><trkpt lat="45.2666166" lon="9.2746108"><ele>83.0</ele><time>2026-04-25T09:10:58.169Z</time></trkpt><trkpt lat="45.2664888" lon="9.2746934"><ele>83.0</ele><time>2026-04-25T09:10:59.168Z</time></trkpt><trkpt lat="45.2663602" lon="9.2747845"><ele>83.25</ele><time>2026-04-25T09:11:00.168Z</time></trkpt><trkpt lat="45.2662515" lon="9.2748612"><ele>83.5</ele><time>2026-04-25T09:11:01.17Z</time></trkpt><trkpt lat="45.2661465" lon="9.2749398"><ele>83.75</ele><time>2026-04-25T09:11:02.169Z</time></trkpt><trkpt lat="45.2660926" lon="9.2750757"><ele>84.0</ele><time>2026-04-25T09:11:03.168Z</time></trkpt><trkpt lat="45.2660273" lon="9.2751886"><ele>84.0</ele><time>2026-04-25T09:11:04.168Z</time></trkpt><trkpt lat="45.2659275" lon="9.2752269"><ele>84.0</ele><time>2026-04-25T09:11:05.17Z</time></trkpt><trkpt lat="45.2658527" lon="9.2752906"><ele>84.0</ele><time>2026-04-25T09:11:06.169Z</time></trkpt><trkpt lat="45.2657673" lon="9.2753468"><ele>84.0</ele><time>2026-04-25T09:11:07.169Z</time></trkpt><trkpt lat="45.2657186" lon="9.2752509"><ele>84.0</ele><time>2026-04-25T09:11:08.17Z</time></trkpt><trkpt lat="45.2656525" lon="9.275177"><ele>84.0</ele><time>2026-04-25T09:11:09.168Z</time></trkpt><trkpt lat="45.2655763" lon="9.2751051"><ele>84.0</ele><time>2026-04-25T09:11:10.17Z</time></trkpt><trkpt lat="45.2654865" lon="9.2750198"><ele>84.0</ele><time>2026-04-25T09:11:11.169Z</time></trkpt><trkpt lat="45.2653891" lon="9.2749182"><ele>84.0</ele><time>2026-04-25T09:11:12.169Z</time></trkpt><trkpt lat="45.2652923" lon="9.2748208"><ele>84.0</ele><time>2026-04-25T09:11:13.169Z</time></trkpt><trkpt lat="45.2651929" lon="9.2747236"><ele>84.0</ele><time>2026-04-25T09:11:14.17Z</time></trkpt><trkpt lat="45.2651112" lon="9.274653"><ele>84.0</ele><time>2026-04-25T09:11:15.169Z</time></trkpt><trkpt lat="45.2650301" lon="9.2746113"><ele>84.0</ele><time>2026-04-25T09:11:16.169Z</time></trkpt><trkpt lat="45.2649404" lon="9.2746395"><ele>84.0</ele><time>2026-04-25T09:11:18.17Z</time></trkpt><trkpt lat="45.264851" lon="9.2747244"><ele>84.0</ele><time>2026-04-25T09:11:21.169Z</time></trkpt><trkpt lat="45.2647738" lon="9.2747343"><ele>83.83333333333333</ele><time>2026-04-25T09:11:43.168Z</time></trkpt><trkpt lat="45.2646777" lon="9.2747134"><ele>83.66666666666667</ele><time>2026-04-25T09:11:45.17Z</time></trkpt><trkpt lat="45.2645774" lon="9.2747551"><ele>83.5</ele><time>2026-04-25T09:11:46.169Z</time></trkpt><trkpt lat="45.2645017" lon="9.274776"><ele>83.33333333333334</ele><time>2026-04-25T09:11:47.169Z</time></trkpt><trkpt lat="45.2644258" lon="9.2748144"><ele>83.16666666666667</ele><time>2026-04-25T09:11:48.168Z</time></trkpt><trkpt lat="45.2643439" lon="9.2748447"><ele>83.0</ele><time>2026-04-25T09:11:49.168Z</time></trkpt><trkpt lat="45.2642345" lon="9.2748902"><ele>83.0</ele><time>2026-04-25T09:11:50.169Z</time></trkpt><trkpt lat="45.2641422" lon="9.2749223"><ele>83.0</ele><time>2026-04-25T09:11:51.17Z</time></trkpt><trkpt lat="45.2640365" lon="9.2749635"><ele>83.0</ele><time>2026-04-25T09:11:52.169Z</time></trkpt><trkpt lat="45.2639266" lon="9.2750255"><ele>83.0</ele><time>2026-04-25T09:11:53.17Z</time></trkpt><trkpt lat="45.2638216" lon="9.2751264"><ele>83.0</ele><time>2026-04-25T09:11:54.169Z</time></trkpt><trkpt lat="45.2637055" lon="9.2752541"><ele>83.0</ele><time>2026-04-25T09:11:55.168Z</time></trkpt><trkpt lat="45.2635895" lon="9.2753797"><ele>83.0</ele><time>2026-04-25T09:11:56.17Z</time></trkpt><trkpt lat="45.2634716" lon="9.2755132"><ele>83.0</ele><time>2026-04-25T09:11:57.169Z</time></trkpt><trkpt lat="45.2633514" lon="9.2756555"><ele>83.0</ele><time>2026-04-25T09:11:58.17Z</time></trkpt><trkpt lat="45.2632289" lon="9.2757983"><ele>83.0</ele><time>2026-04-25T09:11:59.168Z</time></trkpt><trkpt lat="45.2631036" lon="9.2759435"><ele>83.0</ele><time>2026-04-25T09:12:00.168Z</time></trkpt><trkpt lat="45.2629793" lon="9.2760858"><ele>82.75</ele><time>2026-04-25T09:12:01.17Z</time></trkpt><trkpt lat="45.2628624" lon="9.2762141"><ele>82.5</ele><time>2026-04-25T09:12:02.169Z</time></trkpt><trkpt lat="45.2627565" lon="9.2763302"><ele>82.25</ele><time>2026-04-25T09:12:03.169Z</time></trkpt><trkpt lat="45.2626619" lon="9.276425"><ele>82.0</ele><time>2026-04-25T09:12:04.168Z</time></trkpt><trkpt lat="45.2625747" lon="9.2765053"><ele>82.0</ele><time>2026-04-25T09:12:05.168Z</time></trkpt><trkpt lat="45.2624892" lon="9.2765927"><ele>82.0</ele><time>2026-04-25T09:12:06.169Z</time></trkpt><trkpt lat="45.2624085" lon="9.2767023"><ele>82.0</ele><time>2026-04-25T09:12:07.168Z</time></trkpt><trkpt lat="45.2623134" lon="9.2768212"><ele>82.0</ele><time>2026-04-25T09:12:08.169Z</time></trkpt><trkpt lat="45.2622019" lon="9.2769467"><ele>81.5</ele><time>2026-04-25T09:12:09.169Z</time></trkpt><trkpt lat="45.2620764" lon="9.2770825"><ele>81.0</ele><time>2026-04-25T09:12:10.169Z</time></trkpt><trkpt lat="45.2619531" lon="9.2772022"><ele>80.5</ele><time>2026-04-25T09:12:11.168Z</time></trkpt><trkpt lat="45.2618383" lon="9.2773164"><ele>80.0</ele><time>2026-04-25T09:12:12.169Z</time></trkpt><trkpt lat="45.2617466" lon="9.2774411"><ele>80.0</ele><time>2026-04-25T09:12:13.169Z</time></trkpt><trkpt lat="45.2616636" lon="9.2775647"><ele>80.0</ele><time>2026-04-25T09:12:14.168Z</time></trkpt><trkpt lat="45.2616143" lon="9.2776819"><ele>80.0</ele><time>2026-04-25T09:12:15.168Z</time></trkpt><trkpt lat="45.2616217" lon="9.27788"><ele>80.0</ele><time>2026-04-25T09:12:16.169Z</time></trkpt><trkpt lat="45.2616562" lon="9.2781903"><ele>80.0</ele><time>2026-04-25T09:12:17.169Z</time></trkpt><trkpt lat="45.2616584" lon="9.2784065"><ele>80.0</ele><time>2026-04-25T09:12:18.17Z</time></trkpt><trkpt lat="45.2616657" lon="9.2786671"><ele>80.0</ele><time>2026-04-25T09:12:19.169Z</time></trkpt><trkpt lat="45.2616695" lon="9.2789202"><ele>79.66666666666667</ele><time>2026-04-25T09:12:20.168Z</time></trkpt><trkpt lat="45.261676" lon="9.2791688"><ele>79.33333333333333</ele><time>2026-04-25T09:12:21.169Z</time></trkpt><trkpt lat="45.2616781" lon="9.2793973"><ele>79.0</ele><time>2026-04-25T09:12:22.169Z</time></trkpt><trkpt lat="45.2616785" lon="9.2795945"><ele>79.0</ele><time>2026-04-25T09:12:23.169Z</time></trkpt><trkpt lat="45.2616787" lon="9.2797622"><ele>79.0</ele><time>2026-04-25T09:12:24.169Z</time></trkpt><trkpt lat="45.261647" lon="9.2799142"><ele>79.0</ele><time>2026-04-25T09:12:25.169Z</time></trkpt><trkpt lat="45.2616226" lon="9.2800506"><ele>79.0</ele><time>2026-04-25T09:12:26.169Z</time></trkpt><trkpt lat="45.2615143" lon="9.2801585"><ele>79.33333333333333</ele><time>2026-04-25T09:12:27.169Z</time></trkpt><trkpt lat="45.2613537" lon="9.2802842"><ele>79.66666666666667</ele><time>2026-04-25T09:12:28.168Z</time></trkpt><trkpt lat="45.2612529" lon="9.2803999"><ele>80.0</ele><time>2026-04-25T09:12:29.168Z</time></trkpt><trkpt lat="45.2611151" lon="9.2805697"><ele>80.0</ele><time>2026-04-25T09:12:30.168Z</time></trkpt><trkpt lat="45.2609544" lon="9.2807025"><ele>80.0</ele><time>2026-04-25T09:12:31.17Z</time></trkpt><trkpt lat="45.2608141" lon="9.2808425"><ele>80.0</ele><time>2026-04-25T09:12:32.168Z</time></trkpt><trkpt lat="45.260666" lon="9.2809913"><ele>79.66666666666667</ele><time>2026-04-25T09:12:33.17Z</time></trkpt><trkpt lat="45.2605192" lon="9.281134"><ele>79.33333333333333</ele><time>2026-04-25T09:12:34.17Z</time></trkpt><trkpt lat="45.2603974" lon="9.2812779"><ele>79.0</ele><time>2026-04-25T09:12:35.169Z</time></trkpt><trkpt lat="45.2602298" lon="9.2814549"><ele>79.0</ele><time>2026-04-25T09:12:36.169Z</time></trkpt><trkpt lat="45.2600732" lon="9.2816188"><ele>79.0</ele><time>2026-04-25T09:12:37.169Z</time></trkpt><trkpt lat="45.2599132" lon="9.2817895"><ele>79.0</ele><time>2026-04-25T09:12:38.169Z</time></trkpt><trkpt lat="45.259753" lon="9.2819643"><ele>79.0</ele><time>2026-04-25T09:12:39.169Z</time></trkpt><trkpt lat="45.2595992" lon="9.2821253"><ele>79.0</ele><time>2026-04-25T09:12:40.168Z</time></trkpt><trkpt lat="45.259427" lon="9.2823065"><ele>79.0</ele><time>2026-04-25T09:12:41.168Z</time></trkpt><trkpt lat="45.2592576" lon="9.2824824"><ele>79.0</ele><time>2026-04-25T09:12:42.168Z</time></trkpt><trkpt lat="45.2590845" lon="9.2826533"><ele>79.0</ele><time>2026-04-25T09:12:43.17Z</time></trkpt><trkpt lat="45.2589237" lon="9.2828175"><ele>79.0</ele><time>2026-04-25T09:12:44.169Z</time></trkpt><trkpt lat="45.2587667" lon="9.2829814"><ele>79.33333333333333</ele><time>2026-04-25T09:12:45.168Z</time></trkpt><trkpt lat="45.2586053" lon="9.2831478"><ele>79.66666666666667</ele><time>2026-04-25T09:12:46.168Z</time></trkpt><trkpt lat="45.2584607" lon="9.2833189"><ele>80.0</ele><time>2026-04-25T09:12:47.168Z</time></trkpt><trkpt lat="45.2583292" lon="9.2835122"><ele>80.0</ele><time>2026-04-25T09:12:48.168Z</time></trkpt><trkpt lat="45.2582059" lon="9.283716"><ele>80.0</ele><time>2026-04-25T09:12:49.169Z</time></trkpt><trkpt lat="45.2580683" lon="9.2838995"><ele>80.0</ele><time>2026-04-25T09:12:50.169Z</time></trkpt><trkpt lat="45.2579269" lon="9.284067"><ele>80.0</ele><time>2026-04-25T09:12:51.17Z</time></trkpt><trkpt lat="45.2577424" lon="9.2841888"><ele>80.0</ele><time>2026-04-25T09:12:52.169Z</time></trkpt><trkpt lat="45.2575672" lon="9.2843108"><ele>80.0</ele><time>2026-04-25T09:12:53.168Z</time></trkpt><trkpt lat="45.2573847" lon="9.2844227"><ele>80.0</ele><time>2026-04-25T09:12:54.168Z</time></trkpt><trkpt lat="45.2572046" lon="9.2845426"><ele>80.0</ele><time>2026-04-25T09:12:55.169Z</time></trkpt><trkpt lat="45.2570355" lon="9.2846793"><ele>80.0</ele><time>2026-04-25T09:12:56.169Z</time></trkpt><trkpt lat="45.2568729" lon="9.2848261"><ele>79.66666666666667</ele><time>2026-04-25T09:12:57.169Z</time></trkpt><trkpt lat="45.2567114" lon="9.2849625"><ele>79.33333333333333</ele><time>2026-04-25T09:12:58.17Z</time></trkpt><trkpt lat="45.2565473" lon="9.2850767"><ele>79.0</ele><time>2026-04-25T09:12:59.169Z</time></trkpt><trkpt lat="45.2563835" lon="9.2851866"><ele>79.66666666666666</ele><time>2026-04-25T09:13:00.17Z</time></trkpt><trkpt lat="45.2562265" lon="9.2852995"><ele>80.33333333333333</ele><time>2026-04-25T09:13:01.168Z</time></trkpt><trkpt lat="45.2560715" lon="9.2854093"><ele>81.0</ele><time>2026-04-25T09:13:02.168Z</time></trkpt><trkpt lat="45.2559175" lon="9.2855155"><ele>81.0</ele><time>2026-04-25T09:13:03.169Z</time></trkpt><trkpt lat="45.2557675" lon="9.2856182"><ele>81.0</ele><time>2026-04-25T09:13:04.168Z</time></trkpt><trkpt lat="45.2556066" lon="9.2857385"><ele>81.0</ele><time>2026-04-25T09:13:05.169Z</time></trkpt><trkpt lat="45.2554693" lon="9.2858419"><ele>81.25</ele><time>2026-04-25T09:13:06.17Z</time></trkpt><trkpt lat="45.2553623" lon="9.2859386"><ele>81.5</ele><time>2026-04-25T09:13:07.169Z</time></trkpt><trkpt lat="45.2552274" lon="9.2860395"><ele>81.75</ele><time>2026-04-25T09:13:08.169Z</time></trkpt><trkpt lat="45.2551545" lon="9.2860834"><ele>82.0</ele><time>2026-04-25T09:13:09.169Z</time></trkpt><trkpt lat="45.2550513" lon="9.2861574"><ele>82.0</ele><time>2026-04-25T09:13:10.168Z</time></trkpt><trkpt lat="45.2549496" lon="9.286239"><ele>82.0</ele><time>2026-04-25T09:13:11.168Z</time></trkpt><trkpt lat="45.2548634" lon="9.2862643"><ele>82.0</ele><time>2026-04-25T09:13:12.168Z</time></trkpt><trkpt lat="45.2547622" lon="9.2862882"><ele>82.0</ele><time>2026-04-25T09:13:13.169Z</time></trkpt><trkpt lat="45.2546537" lon="9.2863395"><ele>82.0</ele><time>2026-04-25T09:13:14.169Z</time></trkpt><trkpt lat="45.2545434" lon="9.2864074"><ele>82.0</ele><time>2026-04-25T09:13:15.169Z</time></trkpt><trkpt lat="45.2544206" lon="9.2864691"><ele>82.0</ele><time>2026-04-25T09:13:16.169Z</time></trkpt><trkpt lat="45.2542954" lon="9.2865264"><ele>82.0</ele><time>2026-04-25T09:13:17.168Z</time></trkpt><trkpt lat="45.2541663" lon="9.2865883"><ele>82.0</ele><time>2026-04-25T09:13:18.168Z</time></trkpt><trkpt lat="45.2540323" lon="9.286653"><ele>81.75</ele><time>2026-04-25T09:13:19.169Z</time></trkpt><trkpt lat="45.2538925" lon="9.286718"><ele>81.5</ele><time>2026-04-25T09:13:20.169Z</time></trkpt><trkpt lat="45.2537413" lon="9.2867767"><ele>81.25</ele><time>2026-04-25T09:13:21.168Z</time></trkpt><trkpt lat="45.2536182" lon="9.2868494"><ele>81.0</ele><time>2026-04-25T09:13:22.169Z</time></trkpt><trkpt lat="45.2534814" lon="9.2869147"><ele>81.0</ele><time>2026-04-25T09:13:23.168Z</time></trkpt><trkpt lat="45.2533489" lon="9.286976"><ele>81.0</ele><time>2026-04-25T09:13:24.169Z</time></trkpt><trkpt lat="45.2532194" lon="9.2870364"><ele>81.0</ele><time>2026-04-25T09:13:25.168Z</time></trkpt><trkpt lat="45.2530956" lon="9.2870963"><ele>81.0</ele><time>2026-04-25T09:13:26.169Z</time></trkpt><trkpt lat="45.252974" lon="9.2871519"><ele>81.0</ele><time>2026-04-25T09:13:27.168Z</time></trkpt><trkpt lat="45.2528473" lon="9.2872084"><ele>81.0</ele><time>2026-04-25T09:13:28.169Z</time></trkpt><trkpt lat="45.252718" lon="9.2872725"><ele>81.0</ele><time>2026-04-25T09:13:29.17Z</time></trkpt><trkpt lat="45.2525878" lon="9.2873392"><ele>81.0</ele><time>2026-04-25T09:13:30.169Z</time></trkpt><trkpt lat="45.2524576" lon="9.2874121"><ele>81.0</ele><time>2026-04-25T09:13:31.169Z</time></trkpt><trkpt lat="45.2523295" lon="9.2875002"><ele>81.0</ele><time>2026-04-25T09:13:32.168Z</time></trkpt><trkpt lat="45.2522024" lon="9.2876026"><ele>81.0</ele><time>2026-04-25T09:13:33.169Z</time></trkpt><trkpt lat="45.2520815" lon="9.2877223"><ele>81.0</ele><time>2026-04-25T09:13:34.169Z</time></trkpt><trkpt lat="45.2519653" lon="9.2878509"><ele>80.66666666666667</ele><time>2026-04-25T09:13:35.169Z</time></trkpt><trkpt lat="45.2518517" lon="9.2879898"><ele>80.33333333333334</ele><time>2026-04-25T09:13:36.17Z</time></trkpt><trkpt lat="45.2517351" lon="9.2881288"><ele>80.0</ele><time>2026-04-25T09:13:37.168Z</time></trkpt><trkpt lat="45.2516188" lon="9.2882712"><ele>80.0</ele><time>2026-04-25T09:13:38.169Z</time></trkpt><trkpt lat="45.2514996" lon="9.2884163"><ele>80.0</ele><time>2026-04-25T09:13:39.169Z</time></trkpt><trkpt lat="45.2513807" lon="9.2885632"><ele>80.0</ele><time>2026-04-25T09:13:40.168Z</time></trkpt><trkpt lat="45.2512629" lon="9.2887091"><ele>79.33333333333334</ele><time>2026-04-25T09:13:41.169Z</time></trkpt><trkpt lat="45.251143" lon="9.2888529"><ele>78.66666666666667</ele><time>2026-04-25T09:13:42.168Z</time></trkpt><trkpt lat="45.2510227" lon="9.2889953"><ele>78.0</ele><time>2026-04-25T09:13:43.17Z</time></trkpt><trkpt lat="45.2509044" lon="9.2891354"><ele>78.0</ele><time>2026-04-25T09:13:44.169Z</time></trkpt><trkpt lat="45.2507836" lon="9.2892753"><ele>78.0</ele><time>2026-04-25T09:13:45.169Z</time></trkpt><trkpt lat="45.2506596" lon="9.2894068"><ele>78.0</ele><time>2026-04-25T09:13:46.168Z</time></trkpt><trkpt lat="45.2505294" lon="9.2895239"><ele>77.66666666666667</ele><time>2026-04-25T09:13:47.169Z</time></trkpt><trkpt lat="45.2504018" lon="9.2896296"><ele>77.33333333333334</ele><time>2026-04-25T09:13:48.169Z</time></trkpt><trkpt lat="45.2502612" lon="9.2897513"><ele>77.0</ele><time>2026-04-25T09:13:49.169Z</time></trkpt><trkpt lat="45.2501277" lon="9.2898685"><ele>77.0</ele><time>2026-04-25T09:13:50.17Z</time></trkpt><trkpt lat="45.2499941" lon="9.2899887"><ele>77.0</ele><time>2026-04-25T09:13:51.17Z</time></trkpt><trkpt lat="45.2498662" lon="9.2901045"><ele>77.0</ele><time>2026-04-25T09:13:52.168Z</time></trkpt><trkpt lat="45.2497411" lon="9.2902175"><ele>77.0</ele><time>2026-04-25T09:13:53.169Z</time></trkpt><trkpt lat="45.2496228" lon="9.2903305"><ele>77.0</ele><time>2026-04-25T09:13:54.168Z</time></trkpt><trkpt lat="45.2495195" lon="9.2904443"><ele>77.0</ele><time>2026-04-25T09:13:55.168Z</time></trkpt><trkpt lat="45.2494308" lon="9.2905741"><ele>77.0</ele><time>2026-04-25T09:13:56.169Z</time></trkpt><trkpt lat="45.2493588" lon="9.2907219"><ele>77.5</ele><time>2026-04-25T09:13:57.169Z</time></trkpt><trkpt lat="45.249302" lon="9.2908855"><ele>78.0</ele><time>2026-04-25T09:13:58.168Z</time></trkpt><trkpt lat="45.2492581" lon="9.2910534"><ele>78.5</ele><time>2026-04-25T09:13:59.169Z</time></trkpt><trkpt lat="45.2492361" lon="9.2912315"><ele>79.0</ele><time>2026-04-25T09:14:00.168Z</time></trkpt><trkpt lat="45.2492361" lon="9.2914201"><ele>78.75</ele><time>2026-04-25T09:14:01.169Z</time></trkpt><trkpt lat="45.2492356" lon="9.2916062"><ele>78.5</ele><time>2026-04-25T09:14:02.17Z</time></trkpt><trkpt lat="45.2492363" lon="9.2917873"><ele>78.25</ele><time>2026-04-25T09:14:03.169Z</time></trkpt><trkpt lat="45.2492354" lon="9.2919691"><ele>78.0</ele><time>2026-04-25T09:14:04.17Z</time></trkpt><trkpt lat="45.2492337" lon="9.2921362"><ele>77.5</ele><time>2026-04-25T09:14:05.169Z</time></trkpt><trkpt lat="45.2492281" lon="9.2923035"><ele>77.0</ele><time>2026-04-25T09:14:06.168Z</time></trkpt><trkpt lat="45.2492215" lon="9.292465"><ele>76.5</ele><time>2026-04-25T09:14:07.17Z</time></trkpt><trkpt lat="45.2492184" lon="9.2926281"><ele>76.0</ele><time>2026-04-25T09:14:08.168Z</time></trkpt><trkpt lat="45.249217" lon="9.29279"><ele>76.0</ele><time>2026-04-25T09:14:09.168Z</time></trkpt><trkpt lat="45.2492171" lon="9.2929464"><ele>76.0</ele><time>2026-04-25T09:14:10.169Z</time></trkpt><trkpt lat="45.2492141" lon="9.2931009"><ele>76.0</ele><time>2026-04-25T09:14:11.169Z</time></trkpt><trkpt lat="45.2492118" lon="9.2932568"><ele>76.0</ele><time>2026-04-25T09:14:12.169Z</time></trkpt><trkpt lat="45.2492135" lon="9.2934095"><ele>76.0</ele><time>2026-04-25T09:14:13.168Z</time></trkpt><trkpt lat="45.24921" lon="9.2935594"><ele>76.0</ele><time>2026-04-25T09:14:14.168Z</time></trkpt><trkpt lat="45.249205" lon="9.2937059"><ele>76.0</ele><time>2026-04-25T09:14:15.169Z</time></trkpt><trkpt lat="45.2492035" lon="9.2938343"><ele>76.0</ele><time>2026-04-25T09:14:16.168Z</time></trkpt><trkpt lat="45.2491934" lon="9.2939838"><ele>76.0</ele><time>2026-04-25T09:14:17.168Z</time></trkpt><trkpt lat="45.2491797" lon="9.2941283"><ele>76.0</ele><time>2026-04-25T09:14:18.169Z</time></trkpt><trkpt lat="45.2491479" lon="9.2942589"><ele>76.0</ele><time>2026-04-25T09:14:19.169Z</time></trkpt><trkpt lat="45.2490772" lon="9.2943753"><ele>76.0</ele><time>2026-04-25T09:14:20.169Z</time></trkpt><trkpt lat="45.2490011" lon="9.2944856"><ele>76.0</ele><time>2026-04-25T09:14:21.168Z</time></trkpt><trkpt lat="45.2489244" lon="9.2945836"><ele>76.0</ele><time>2026-04-25T09:14:22.17Z</time></trkpt><trkpt lat="45.2488578" lon="9.2946982"><ele>76.0</ele><time>2026-04-25T09:14:23.168Z</time></trkpt><trkpt lat="45.2488013" lon="9.2948107"><ele>76.5</ele><time>2026-04-25T09:14:24.169Z</time></trkpt><trkpt lat="45.2487515" lon="9.2949007"><ele>77.0</ele><time>2026-04-25T09:14:25.168Z</time></trkpt><trkpt lat="45.2486966" lon="9.2950107"><ele>77.5</ele><time>2026-04-25T09:14:26.169Z</time></trkpt><trkpt lat="45.2486306" lon="9.2951232"><ele>78.0</ele><time>2026-04-25T09:14:28.169Z</time></trkpt><trkpt lat="45.2485677" lon="9.2951653"><ele>78.5</ele><time>2026-04-25T09:14:30.168Z</time></trkpt><trkpt lat="45.248483" lon="9.2952322"><ele>79.0</ele><time>2026-04-25T09:14:32.169Z</time></trkpt><trkpt lat="45.2483612" lon="9.2952802"><ele>79.0</ele><time>2026-04-25T09:14:34.168Z</time></trkpt><trkpt lat="45.2482361" lon="9.2953369"><ele>79.0</ele><time>2026-04-25T09:14:36.169Z</time></trkpt><trkpt lat="45.2481713" lon="9.2953686"><ele>79.0</ele><time>2026-04-25T09:14:37.169Z</time></trkpt><trkpt lat="45.2481014" lon="9.2953919"><ele>79.0</ele><time>2026-04-25T09:14:38.17Z</time></trkpt><trkpt lat="45.2480295" lon="9.2954017"><ele>79.0</ele><time>2026-04-25T09:14:39.169Z</time></trkpt><trkpt lat="45.2479586" lon="9.2954038"><ele>79.0</ele><time>2026-04-25T09:14:40.169Z</time></trkpt><trkpt lat="45.2478879" lon="9.2954083"><ele>79.16666666666666</ele><time>2026-04-25T09:14:41.168Z</time></trkpt><trkpt lat="45.2478157" lon="9.2954137"><ele>79.33333333333333</ele><time>2026-04-25T09:14:42.168Z</time></trkpt><trkpt lat="45.2477406" lon="9.2954092"><ele>79.5</ele><time>2026-04-25T09:14:43.168Z</time></trkpt><trkpt lat="45.247675" lon="9.2953808"><ele>79.66666666666667</ele><time>2026-04-25T09:14:44.168Z</time></trkpt><trkpt lat="45.2476099" lon="9.2953793"><ele>79.83333333333334</ele><time>2026-04-25T09:14:45.17Z</time></trkpt><trkpt lat="45.2475318" lon="9.2952637"><ele>80.0</ele><time>2026-04-25T09:14:46.169Z</time></trkpt><trkpt lat="45.2474363" lon="9.2951828"><ele>80.0</ele><time>2026-04-25T09:14:47.17Z</time></trkpt><trkpt lat="45.2473421" lon="9.2951046"><ele>80.0</ele><time>2026-04-25T09:14:48.168Z</time></trkpt><trkpt lat="45.2472459" lon="9.2950239"><ele>80.0</ele><time>2026-04-25T09:14:49.169Z</time></trkpt><trkpt lat="45.2471478" lon="9.2949338"><ele>80.0</ele><time>2026-04-25T09:14:50.17Z</time></trkpt><trkpt lat="45.2470512" lon="9.2948399"><ele>80.0</ele><time>2026-04-25T09:14:51.169Z</time></trkpt><trkpt lat="45.2469605" lon="9.2947481"><ele>80.0</ele><time>2026-04-25T09:14:52.168Z</time></trkpt><trkpt lat="45.2468748" lon="9.2946554"><ele>80.0</ele><time>2026-04-25T09:14:53.168Z</time></trkpt><trkpt lat="45.2467973" lon="9.2945565"><ele>80.0</ele><time>2026-04-25T09:14:54.169Z</time></trkpt><trkpt lat="45.2467209" lon="9.2944651"><ele>80.0</ele><time>2026-04-25T09:14:55.169Z</time></trkpt><trkpt lat="45.2466449" lon="9.2943835"><ele>80.0</ele><time>2026-04-25T09:14:56.168Z</time></trkpt><trkpt lat="45.2465762" lon="9.294309"><ele>80.0</ele><time>2026-04-25T09:14:57.168Z</time></trkpt><trkpt lat="45.2465125" lon="9.2942411"><ele>80.0</ele><time>2026-04-25T09:14:58.169Z</time></trkpt><trkpt lat="45.2464545" lon="9.294178"><ele>80.0</ele><time>2026-04-25T09:14:59.169Z</time></trkpt><trkpt lat="45.2463955" lon="9.2941113"><ele>80.0</ele><time>2026-04-25T09:15:00.17Z</time></trkpt><trkpt lat="45.2463284" lon="9.294043"><ele>80.0</ele><time>2026-04-25T09:15:01.17Z</time></trkpt><trkpt lat="45.2462564" lon="9.2939758"><ele>79.83333333333334</ele><time>2026-04-25T09:15:02.169Z</time></trkpt><trkpt lat="45.2461739" lon="9.2939361"><ele>79.66666666666667</ele><time>2026-04-25T09:15:03.169Z</time></trkpt><trkpt lat="45.2460963" lon="9.293929"><ele>79.5</ele><time>2026-04-25T09:15:04.169Z</time></trkpt><trkpt lat="45.2460186" lon="9.2939506"><ele>79.33333333333333</ele><time>2026-04-25T09:15:05.169Z</time></trkpt><trkpt lat="45.2459168" lon="9.2939723"><ele>79.16666666666666</ele><time>2026-04-25T09:15:06.168Z</time></trkpt><trkpt lat="45.2458167" lon="9.2939713"><ele>79.0</ele><time>2026-04-25T09:15:07.169Z</time></trkpt><trkpt lat="45.2457264" lon="9.2939701"><ele>79.0</ele><time>2026-04-25T09:15:08.17Z</time></trkpt><trkpt lat="45.2456401" lon="9.2939702"><ele>79.0</ele><time>2026-04-25T09:15:09.17Z</time></trkpt><trkpt lat="45.245547" lon="9.2939544"><ele>79.0</ele><time>2026-04-25T09:15:10.169Z</time></trkpt><trkpt lat="45.2454526" lon="9.2939222"><ele>79.0</ele><time>2026-04-25T09:15:11.169Z</time></trkpt><trkpt lat="45.2453536" lon="9.2938704"><ele>79.0</ele><time>2026-04-25T09:15:12.169Z</time></trkpt><trkpt lat="45.2452574" lon="9.2937867"><ele>78.75</ele><time>2026-04-25T09:15:13.169Z</time></trkpt><trkpt lat="45.2451711" lon="9.2936667"><ele>78.5</ele><time>2026-04-25T09:15:14.169Z</time></trkpt><trkpt lat="45.2450831" lon="9.2935633"><ele>78.25</ele><time>2026-04-25T09:15:15.168Z</time></trkpt><trkpt lat="45.2450421" lon="9.2933574"><ele>78.0</ele><time>2026-04-25T09:15:16.169Z</time></trkpt><trkpt lat="45.2449929" lon="9.2931795"><ele>78.0</ele><time>2026-04-25T09:15:17.169Z</time></trkpt><trkpt lat="45.2449485" lon="9.2930019"><ele>78.0</ele><time>2026-04-25T09:15:18.17Z</time></trkpt><trkpt lat="45.2448992" lon="9.2928179"><ele>78.0</ele><time>2026-04-25T09:15:19.168Z</time></trkpt><trkpt lat="45.2448491" lon="9.2926276"><ele>78.0</ele><time>2026-04-25T09:15:20.17Z</time></trkpt><trkpt lat="45.2448022" lon="9.2924391"><ele>78.0</ele><time>2026-04-25T09:15:21.169Z</time></trkpt><trkpt lat="45.2447532" lon="9.2922497"><ele>78.0</ele><time>2026-04-25T09:15:22.168Z</time></trkpt><trkpt lat="45.2447018" lon="9.2920584"><ele>78.0</ele><time>2026-04-25T09:15:23.169Z</time></trkpt><trkpt lat="45.2446487" lon="9.2918606"><ele>78.0</ele><time>2026-04-25T09:15:24.168Z</time></trkpt><trkpt lat="45.2445947" lon="9.2916618"><ele>78.0</ele><time>2026-04-25T09:15:25.169Z</time></trkpt><trkpt lat="45.2445402" lon="9.2914555"><ele>78.0</ele><time>2026-04-25T09:15:26.168Z</time></trkpt><trkpt lat="45.244492" lon="9.2912572"><ele>78.0</ele><time>2026-04-25T09:15:27.169Z</time></trkpt><trkpt lat="45.2444399" lon="9.2910401"><ele>78.0</ele><time>2026-04-25T09:15:28.169Z</time></trkpt><trkpt lat="45.2443795" lon="9.2908025"><ele>78.0</ele><time>2026-04-25T09:15:29.169Z</time></trkpt><trkpt lat="45.2443136" lon="9.2905668"><ele>78.0</ele><time>2026-04-25T09:15:30.169Z</time></trkpt><trkpt lat="45.2442499" lon="9.2903405"><ele>78.0</ele><time>2026-04-25T09:15:31.168Z</time></trkpt><trkpt lat="45.2441931" lon="9.2901165"><ele>78.0</ele><time>2026-04-25T09:15:32.169Z</time></trkpt><trkpt lat="45.244138" lon="9.2898947"><ele>78.0</ele><time>2026-04-25T09:15:33.17Z</time></trkpt><trkpt lat="45.2440878" lon="9.2896828"><ele>78.0</ele><time>2026-04-25T09:15:34.17Z</time></trkpt><trkpt lat="45.2440455" lon="9.2894746"><ele>78.0</ele><time>2026-04-25T09:15:35.17Z</time></trkpt><trkpt lat="45.2440152" lon="9.2892663"><ele>78.0</ele><time>2026-04-25T09:15:36.169Z</time></trkpt><trkpt lat="45.2439969" lon="9.2890524"><ele>78.66666666666667</ele><time>2026-04-25T09:15:37.168Z</time></trkpt><trkpt lat="45.2439864" lon="9.2888343"><ele>79.33333333333334</ele><time>2026-04-25T09:15:38.17Z</time></trkpt><trkpt lat="45.2439811" lon="9.2886168"><ele>80.0</ele><time>2026-04-25T09:15:39.169Z</time></trkpt><trkpt lat="45.2439785" lon="9.2883934"><ele>80.0</ele><time>2026-04-25T09:15:40.169Z</time></trkpt><trkpt lat="45.2439795" lon="9.288166"><ele>80.0</ele><time>2026-04-25T09:15:41.168Z</time></trkpt><trkpt lat="45.243985" lon="9.2879385"><ele>80.0</ele><time>2026-04-25T09:15:42.17Z</time></trkpt><trkpt lat="45.2439895" lon="9.2877039"><ele>79.66666666666667</ele><time>2026-04-25T09:15:43.168Z</time></trkpt><trkpt lat="45.243997" lon="9.2874666"><ele>79.33333333333333</ele><time>2026-04-25T09:15:44.168Z</time></trkpt><trkpt lat="45.2440019" lon="9.2872309"><ele>79.0</ele><time>2026-04-25T09:15:45.169Z</time></trkpt><trkpt lat="45.2440072" lon="9.2869997"><ele>78.66666666666666</ele><time>2026-04-25T09:15:46.169Z</time></trkpt><trkpt lat="45.2440113" lon="9.2867642"><ele>78.33333333333333</ele><time>2026-04-25T09:15:47.168Z</time></trkpt><trkpt lat="45.2440131" lon="9.2865518"><ele>78.0</ele><time>2026-04-25T09:15:48.168Z</time></trkpt><trkpt lat="45.2440166" lon="9.2863398"><ele>78.0</ele><time>2026-04-25T09:15:49.169Z</time></trkpt><trkpt lat="45.2440208" lon="9.2861324"><ele>78.0</ele><time>2026-04-25T09:15:50.169Z</time></trkpt><trkpt lat="45.2440208" lon="9.2859229"><ele>78.0</ele><time>2026-04-25T09:15:51.168Z</time></trkpt><trkpt lat="45.2440099" lon="9.2857141"><ele>78.0</ele><time>2026-04-25T09:15:52.169Z</time></trkpt><trkpt lat="45.2439814" lon="9.2855195"><ele>78.0</ele><time>2026-04-25T09:15:53.17Z</time></trkpt><trkpt lat="45.2439351" lon="9.2853317"><ele>78.0</ele><time>2026-04-25T09:15:54.169Z</time></trkpt><trkpt lat="45.2438577" lon="9.2851332"><ele>78.0</ele><time>2026-04-25T09:15:55.169Z</time></trkpt><trkpt lat="45.2437663" lon="9.2849634"><ele>78.0</ele><time>2026-04-25T09:15:56.169Z</time></trkpt><trkpt lat="45.2436632" lon="9.2848128"><ele>78.0</ele><time>2026-04-25T09:15:57.168Z</time></trkpt><trkpt lat="45.2435435" lon="9.2846774"><ele>78.0</ele><time>2026-04-25T09:15:58.169Z</time></trkpt><trkpt lat="45.2434192" lon="9.2845511"><ele>78.0</ele><time>2026-04-25T09:15:59.17Z</time></trkpt><trkpt lat="45.2432934" lon="9.2844198"><ele>78.0</ele><time>2026-04-25T09:16:00.168Z</time></trkpt><trkpt lat="45.2431672" lon="9.2842904"><ele>78.0</ele><time>2026-04-25T09:16:01.169Z</time></trkpt><trkpt lat="45.243044" lon="9.2841606"><ele>78.33333333333333</ele><time>2026-04-25T09:16:02.169Z</time></trkpt><trkpt lat="45.2429233" lon="9.2840294"><ele>78.66666666666666</ele><time>2026-04-25T09:16:03.169Z</time></trkpt><trkpt lat="45.2427977" lon="9.2838998"><ele>79.0</ele><time>2026-04-25T09:16:04.168Z</time></trkpt><trkpt lat="45.2426766" lon="9.2837718"><ele>79.25</ele><time>2026-04-25T09:16:05.169Z</time></trkpt><trkpt lat="45.2425573" lon="9.2836449"><ele>79.5</ele><time>2026-04-25T09:16:06.17Z</time></trkpt><trkpt lat="45.2424367" lon="9.2835182"><ele>79.75</ele><time>2026-04-25T09:16:07.169Z</time></trkpt><trkpt lat="45.2423236" lon="9.2833972"><ele>80.0</ele><time>2026-04-25T09:16:08.169Z</time></trkpt><trkpt lat="45.2422219" lon="9.2832914"><ele>79.6</ele><time>2026-04-25T09:16:09.169Z</time></trkpt><trkpt lat="45.2421297" lon="9.2831941"><ele>79.2</ele><time>2026-04-25T09:16:10.17Z</time></trkpt><trkpt lat="45.2420467" lon="9.2831037"><ele>78.8</ele><time>2026-04-25T09:16:11.168Z</time></trkpt><trkpt lat="45.2419673" lon="9.2830138"><ele>78.4</ele><time>2026-04-25T09:16:12.169Z</time></trkpt><trkpt lat="45.2418865" lon="9.2829158"><ele>78.0</ele><time>2026-04-25T09:16:13.168Z</time></trkpt><trkpt lat="45.2418163" lon="9.2828242"><ele>77.8</ele><time>2026-04-25T09:16:14.169Z</time></trkpt><trkpt lat="45.2417427" lon="9.2827168"><ele>77.6</ele><time>2026-04-25T09:16:15.17Z</time></trkpt><trkpt lat="45.24166" lon="9.2825828"><ele>77.4</ele><time>2026-04-25T09:16:16.169Z</time></trkpt><trkpt lat="45.2415966" lon="9.2824801"><ele>77.2</ele><time>2026-04-25T09:16:17.169Z</time></trkpt><trkpt lat="45.2415501" lon="9.282391"><ele>77.0</ele><time>2026-04-25T09:16:18.168Z</time></trkpt><trkpt lat="45.241513" lon="9.2823173"><ele>77.33333333333334</ele><time>2026-04-25T09:16:19.169Z</time></trkpt><trkpt lat="45.2414408" lon="9.2822589"><ele>77.66666666666667</ele><time>2026-04-25T09:16:21.168Z</time></trkpt><trkpt lat="45.2413641" lon="9.2823433"><ele>78.0</ele><time>2026-04-25T09:16:23.168Z</time></trkpt><trkpt lat="45.2413065" lon="9.2824166"><ele>78.33333333333333</ele><time>2026-04-25T09:16:24.168Z</time></trkpt><trkpt lat="45.2412407" lon="9.2824924"><ele>78.66666666666666</ele><time>2026-04-25T09:16:25.169Z</time></trkpt><trkpt lat="45.2411721" lon="9.282588"><ele>79.0</ele><time>2026-04-25T09:16:26.169Z</time></trkpt><trkpt lat="45.2410953" lon="9.2826745"><ele>79.0</ele><time>2026-04-25T09:16:27.168Z</time></trkpt><trkpt lat="45.2410016" lon="9.2827746"><ele>79.0</ele><time>2026-04-25T09:16:28.168Z</time></trkpt><trkpt lat="45.2409227" lon="9.2828947"><ele>79.0</ele><time>2026-04-25T09:16:29.169Z</time></trkpt><trkpt lat="45.2408279" lon="9.2830319"><ele>79.0</ele><time>2026-04-25T09:16:30.168Z</time></trkpt><trkpt lat="45.2407196" lon="9.2831757"><ele>78.75</ele><time>2026-04-25T09:16:31.169Z</time></trkpt><trkpt lat="45.2406111" lon="9.2833201"><ele>78.5</ele><time>2026-04-25T09:16:32.168Z</time></trkpt><trkpt lat="45.2405031" lon="9.283462"><ele>78.25</ele><time>2026-04-25T09:16:33.169Z</time></trkpt><trkpt lat="45.2403981" lon="9.2836059"><ele>78.0</ele><time>2026-04-25T09:16:34.169Z</time></trkpt><trkpt lat="45.240293" lon="9.2837364"><ele>78.0</ele><time>2026-04-25T09:16:35.169Z</time></trkpt><trkpt lat="45.2401912" lon="9.2838652"><ele>78.0</ele><time>2026-04-25T09:16:36.169Z</time></trkpt><trkpt lat="45.2400928" lon="9.2839976"><ele>78.0</ele><time>2026-04-25T09:16:37.17Z</time></trkpt><trkpt lat="45.2399917" lon="9.2841209"><ele>78.0</ele><time>2026-04-25T09:16:38.169Z</time></trkpt><trkpt lat="45.2399024" lon="9.2842381"><ele>78.0</ele><time>2026-04-25T09:16:39.169Z</time></trkpt><trkpt lat="45.2398198" lon="9.2843429"><ele>78.0</ele><time>2026-04-25T09:16:40.168Z</time></trkpt><trkpt lat="45.2397464" lon="9.2844251"><ele>78.0</ele><time>2026-04-25T09:16:41.17Z</time></trkpt><trkpt lat="45.23968" lon="9.2845084"><ele>78.0</ele><time>2026-04-25T09:16:42.168Z</time></trkpt><trkpt lat="45.239615" lon="9.284589"><ele>78.0</ele><time>2026-04-25T09:16:43.169Z</time></trkpt><trkpt lat="45.239578" lon="9.2846776"><ele>78.5</ele><time>2026-04-25T09:16:44.168Z</time></trkpt><trkpt lat="45.2395324" lon="9.2848096"><ele>79.0</ele><time>2026-04-25T09:16:45.169Z</time></trkpt><trkpt lat="45.2394921" lon="9.2849363"><ele>79.5</ele><time>2026-04-25T09:16:46.169Z</time></trkpt><trkpt lat="45.2394348" lon="9.2851191"><ele>80.0</ele><time>2026-04-25T09:16:47.169Z</time></trkpt><trkpt lat="45.2393727" lon="9.285287"><ele>80.0</ele><time>2026-04-25T09:16:48.168Z</time></trkpt><trkpt lat="45.2393154" lon="9.2854495"><ele>80.0</ele><time>2026-04-25T09:16:49.168Z</time></trkpt><trkpt lat="45.2392608" lon="9.2855929"><ele>80.0</ele><time>2026-04-25T09:16:50.169Z</time></trkpt><trkpt lat="45.2392098" lon="9.2857284"><ele>80.0</ele><time>2026-04-25T09:16:51.169Z</time></trkpt><trkpt lat="45.2391635" lon="9.2858461"><ele>80.0</ele><time>2026-04-25T09:16:52.169Z</time></trkpt><trkpt lat="45.2391022" lon="9.2859466"><ele>80.0</ele><time>2026-04-25T09:16:53.169Z</time></trkpt><trkpt lat="45.2390225" lon="9.2860506"><ele>80.0</ele><time>2026-04-25T09:16:54.168Z</time></trkpt><trkpt lat="45.2389266" lon="9.286132"><ele>80.0</ele><time>2026-04-25T09:16:55.169Z</time></trkpt><trkpt lat="45.2388568" lon="9.2862122"><ele>80.0</ele><time>2026-04-25T09:16:56.168Z</time></trkpt><trkpt lat="45.2387927" lon="9.2863208"><ele>80.0</ele><time>2026-04-25T09:16:57.169Z</time></trkpt><trkpt lat="45.2387322" lon="9.2864545"><ele>79.5</ele><time>2026-04-25T09:16:58.17Z</time></trkpt><trkpt lat="45.2386632" lon="9.2865922"><ele>79.0</ele><time>2026-04-25T09:16:59.168Z</time></trkpt><trkpt lat="45.2385888" lon="9.2867315"><ele>78.5</ele><time>2026-04-25T09:17:00.169Z</time></trkpt><trkpt lat="45.238519" lon="9.2868638"><ele>78.0</ele><time>2026-04-25T09:17:01.17Z</time></trkpt><trkpt lat="45.2384563" lon="9.2869867"><ele>78.0</ele><time>2026-04-25T09:17:02.169Z</time></trkpt><trkpt lat="45.2384075" lon="9.2871049"><ele>78.0</ele><time>2026-04-25T09:17:03.169Z</time></trkpt><trkpt lat="45.2383694" lon="9.287248"><ele>78.0</ele><time>2026-04-25T09:17:04.169Z</time></trkpt><trkpt lat="45.2383399" lon="9.2873972"><ele>78.0</ele><time>2026-04-25T09:17:05.169Z</time></trkpt><trkpt lat="45.2383086" lon="9.2875435"><ele>78.0</ele><time>2026-04-25T09:17:06.169Z</time></trkpt><trkpt lat="45.2382756" lon="9.2877025"><ele>78.25</ele><time>2026-04-25T09:17:07.169Z</time></trkpt><trkpt lat="45.2382417" lon="9.2878557"><ele>78.5</ele><time>2026-04-25T09:17:08.169Z</time></trkpt><trkpt lat="45.2382053" lon="9.2880095"><ele>78.75</ele><time>2026-04-25T09:17:09.168Z</time></trkpt><trkpt lat="45.2381684" lon="9.2881668"><ele>79.0</ele><time>2026-04-25T09:17:10.169Z</time></trkpt><trkpt lat="45.2381352" lon="9.2883201"><ele>78.5</ele><time>2026-04-25T09:17:11.168Z</time></trkpt><trkpt lat="45.2380984" lon="9.2884726"><ele>78.0</ele><time>2026-04-25T09:17:12.17Z</time></trkpt><trkpt lat="45.2380628" lon="9.2886231"><ele>77.5</ele><time>2026-04-25T09:17:13.169Z</time></trkpt><trkpt lat="45.2380273" lon="9.2887773"><ele>77.0</ele><time>2026-04-25T09:17:14.169Z</time></trkpt><trkpt lat="45.2379961" lon="9.2889303"><ele>76.8</ele><time>2026-04-25T09:17:15.169Z</time></trkpt><trkpt lat="45.2379625" lon="9.2890773"><ele>76.6</ele><time>2026-04-25T09:17:16.168Z</time></trkpt><trkpt lat="45.2379362" lon="9.2892313"><ele>76.39999999999999</ele><time>2026-04-25T09:17:17.168Z</time></trkpt><trkpt lat="45.2379082" lon="9.2893479"><ele>76.2</ele><time>2026-04-25T09:17:18.17Z</time></trkpt><trkpt lat="45.237889" lon="9.2894472"><ele>76.0</ele><time>2026-04-25T09:17:19.168Z</time></trkpt><trkpt lat="45.2378687" lon="9.2895591"><ele>76.0</ele><time>2026-04-25T09:17:20.168Z</time></trkpt><trkpt lat="45.2378404" lon="9.2896869"><ele>76.0</ele><time>2026-04-25T09:17:21.169Z</time></trkpt><trkpt lat="45.2378158" lon="9.2898187"><ele>76.0</ele><time>2026-04-25T09:17:22.169Z</time></trkpt><trkpt lat="45.2377798" lon="9.2899549"><ele>76.0</ele><time>2026-04-25T09:17:23.168Z</time></trkpt><trkpt lat="45.2377459" lon="9.2900892"><ele>76.0</ele><time>2026-04-25T09:17:24.169Z</time></trkpt><trkpt lat="45.2377085" lon="9.2902259"><ele>76.2</ele><time>2026-04-25T09:17:25.169Z</time></trkpt><trkpt lat="45.2376703" lon="9.2903684"><ele>76.39999999999999</ele><time>2026-04-25T09:17:26.169Z</time></trkpt><trkpt lat="45.2376339" lon="9.2905123"><ele>76.6</ele><time>2026-04-25T09:17:27.169Z</time></trkpt><trkpt lat="45.2375975" lon="9.2906542"><ele>76.8</ele><time>2026-04-25T09:17:28.169Z</time></trkpt><trkpt lat="45.2375626" lon="9.2907956"><ele>77.0</ele><time>2026-04-25T09:17:29.169Z</time></trkpt><trkpt lat="45.2375306" lon="9.2909346"><ele>77.0</ele><time>2026-04-25T09:17:30.169Z</time></trkpt><trkpt lat="45.2374999" lon="9.2910716"><ele>77.0</ele><time>2026-04-25T09:17:31.169Z</time></trkpt><trkpt lat="45.2374472" lon="9.2912087"><ele>77.0</ele><time>2026-04-25T09:17:32.168Z</time></trkpt><trkpt lat="45.2373825" lon="9.2913334"><ele>77.0</ele><time>2026-04-25T09:17:33.168Z</time></trkpt><trkpt lat="45.2373008" lon="9.2914617"><ele>77.0</ele><time>2026-04-25T09:17:34.169Z</time></trkpt><trkpt lat="45.2372184" lon="9.2915844"><ele>77.0</ele><time>2026-04-25T09:17:35.169Z</time></trkpt><trkpt lat="45.2371227" lon="9.2917255"><ele>77.0</ele><time>2026-04-25T09:17:36.169Z</time></trkpt><trkpt lat="45.2370297" lon="9.2918553"><ele>77.0</ele><time>2026-04-25T09:17:37.169Z</time></trkpt><trkpt lat="45.2369418" lon="9.2919852"><ele>77.0</ele><time>2026-04-25T09:17:38.17Z</time></trkpt><trkpt lat="45.2368445" lon="9.2921262"><ele>77.0</ele><time>2026-04-25T09:17:39.168Z</time></trkpt><trkpt lat="45.2367613" lon="9.29225"><ele>77.0</ele><time>2026-04-25T09:17:40.169Z</time></trkpt><trkpt lat="45.2366845" lon="9.2923634"><ele>77.0</ele><time>2026-04-25T09:17:41.168Z</time></trkpt><trkpt lat="45.2366141" lon="9.2924635"><ele>77.0</ele><time>2026-04-25T09:17:42.168Z</time></trkpt><trkpt lat="45.2365429" lon="9.2925708"><ele>77.0</ele><time>2026-04-25T09:17:43.169Z</time></trkpt><trkpt lat="45.2364714" lon="9.2926705"><ele>77.0</ele><time>2026-04-25T09:17:44.168Z</time></trkpt><trkpt lat="45.2363914" lon="9.2927661"><ele>77.0</ele><time>2026-04-25T09:17:45.17Z</time></trkpt><trkpt lat="45.2363459" lon="9.2928628"><ele>77.0</ele><time>2026-04-25T09:17:46.168Z</time></trkpt><trkpt lat="45.2362817" lon="9.2929546"><ele>77.0</ele><time>2026-04-25T09:17:47.168Z</time></trkpt><trkpt lat="45.2362152" lon="9.2930322"><ele>77.0</ele><time>2026-04-25T09:17:48.168Z</time></trkpt><trkpt lat="45.23615" lon="9.2931563"><ele>76.83333333333334</ele><time>2026-04-25T09:17:50.169Z</time></trkpt><trkpt lat="45.2360794" lon="9.2932179"><ele>76.66666666666667</ele><time>2026-04-25T09:17:52.169Z</time></trkpt><trkpt lat="45.2361008" lon="9.2933134"><ele>76.5</ele><time>2026-04-25T09:17:55.168Z</time></trkpt><trkpt lat="45.236166" lon="9.2934237"><ele>76.33333333333333</ele><time>2026-04-25T09:17:58.169Z</time></trkpt><trkpt lat="45.2362061" lon="9.2935064"><ele>76.16666666666666</ele><time>2026-04-25T09:17:59.169Z</time></trkpt><trkpt lat="45.2362504" lon="9.2935954"><ele>76.0</ele><time>2026-04-25T09:18:00.169Z</time></trkpt><trkpt lat="45.2362759" lon="9.2936864"><ele>76.0</ele><time>2026-04-25T09:18:01.168Z</time></trkpt><trkpt lat="45.2363404" lon="9.2938712"><ele>76.0</ele><time>2026-04-25T09:18:03.17Z</time></trkpt><trkpt lat="45.2363663" lon="9.2939615"><ele>76.0</ele><time>2026-04-25T09:18:05.168Z</time></trkpt><trkpt lat="45.2363425" lon="9.2941445"><ele>76.0</ele><time>2026-04-25T09:18:07.169Z</time></trkpt><trkpt lat="45.236299" lon="9.2942681"><ele>76.0</ele><time>2026-04-25T09:18:08.169Z</time></trkpt><trkpt lat="45.2362402" lon="9.2944175"><ele>75.75</ele><time>2026-04-25T09:18:09.169Z</time></trkpt><trkpt lat="45.2361574" lon="9.2945782"><ele>75.5</ele><time>2026-04-25T09:18:10.168Z</time></trkpt><trkpt lat="45.2360744" lon="9.2947431"><ele>75.25</ele><time>2026-04-25T09:18:11.169Z</time></trkpt><trkpt lat="45.2359732" lon="9.2948966"><ele>75.0</ele><time>2026-04-25T09:18:12.17Z</time></trkpt><trkpt lat="45.2358695" lon="9.2950532"><ele>75.33333333333333</ele><time>2026-04-25T09:18:13.168Z</time></trkpt><trkpt lat="45.2357488" lon="9.2952354"><ele>75.66666666666666</ele><time>2026-04-25T09:18:14.169Z</time></trkpt><trkpt lat="45.2356292" lon="9.295409"><ele>76.0</ele><time>2026-04-25T09:18:15.169Z</time></trkpt><trkpt lat="45.2355296" lon="9.2955506"><ele>76.25</ele><time>2026-04-25T09:18:16.168Z</time></trkpt><trkpt lat="45.2354457" lon="9.2956861"><ele>76.5</ele><time>2026-04-25T09:18:17.169Z</time></trkpt><trkpt lat="45.2353496" lon="9.2958449"><ele>76.75</ele><time>2026-04-25T09:18:18.169Z</time></trkpt><trkpt lat="45.2352621" lon="9.2959921"><ele>77.0</ele><time>2026-04-25T09:18:19.169Z</time></trkpt><trkpt lat="45.2351914" lon="9.2961122"><ele>77.0</ele><time>2026-04-25T09:18:20.169Z</time></trkpt><trkpt lat="45.2351123" lon="9.2962419"><ele>77.0</ele><time>2026-04-25T09:18:21.17Z</time></trkpt><trkpt lat="45.2350446" lon="9.296374"><ele>77.0</ele><time>2026-04-25T09:18:22.169Z</time></trkpt><trkpt lat="45.2349707" lon="9.2964886"><ele>77.0</ele><time>2026-04-25T09:18:23.169Z</time></trkpt><trkpt lat="45.2348981" lon="9.2966044"><ele>76.75</ele><time>2026-04-25T09:18:24.168Z</time></trkpt><trkpt lat="45.2348103" lon="9.2967716"><ele>76.5</ele><time>2026-04-25T09:18:25.168Z</time></trkpt><trkpt lat="45.2347429" lon="9.2969151"><ele>76.25</ele><time>2026-04-25T09:18:26.169Z</time></trkpt><trkpt lat="45.2346902" lon="9.2970355"><ele>76.0</ele><time>2026-04-25T09:18:27.169Z</time></trkpt><trkpt lat="45.2346346" lon="9.2971327"><ele>76.0</ele><time>2026-04-25T09:18:28.17Z</time></trkpt><trkpt lat="45.2345812" lon="9.2972158"><ele>76.0</ele><time>2026-04-25T09:18:29.168Z</time></trkpt><trkpt lat="45.2345293" lon="9.2972798"><ele>76.0</ele><time>2026-04-25T09:18:30.169Z</time></trkpt><trkpt lat="45.2344621" lon="9.2973362"><ele>76.0</ele><time>2026-04-25T09:18:31.168Z</time></trkpt><trkpt lat="45.2343491" lon="9.2974208"><ele>76.0</ele><time>2026-04-25T09:18:32.169Z</time></trkpt><trkpt lat="45.2342563" lon="9.2974869"><ele>76.0</ele><time>2026-04-25T09:18:33.168Z</time></trkpt><trkpt lat="45.234162" lon="9.2975536"><ele>76.0</ele><time>2026-04-25T09:18:34.17Z</time></trkpt><trkpt lat="45.2340548" lon="9.2976139"><ele>76.0</ele><time>2026-04-25T09:18:35.169Z</time></trkpt><trkpt lat="45.2339526" lon="9.2976473"><ele>76.0</ele><time>2026-04-25T09:18:36.17Z</time></trkpt><trkpt lat="45.2338434" lon="9.2976846"><ele>76.0</ele><time>2026-04-25T09:18:37.168Z</time></trkpt><trkpt lat="45.233735" lon="9.2977204"><ele>76.0</ele><time>2026-04-25T09:18:38.168Z</time></trkpt><trkpt lat="45.2336354" lon="9.2977496"><ele>76.0</ele><time>2026-04-25T09:18:39.169Z</time></trkpt><trkpt lat="45.2335271" lon="9.2977792"><ele>76.0</ele><time>2026-04-25T09:18:40.168Z</time></trkpt><trkpt lat="45.2334221" lon="9.2978002"><ele>76.0</ele><time>2026-04-25T09:18:41.168Z</time></trkpt><trkpt lat="45.2333205" lon="9.2978194"><ele>76.0</ele><time>2026-04-25T09:18:42.169Z</time></trkpt><trkpt lat="45.2332217" lon="9.2978336"><ele>75.6</ele><time>2026-04-25T09:18:43.169Z</time></trkpt><trkpt lat="45.2331107" lon="9.2978567"><ele>75.19999999999999</ele><time>2026-04-25T09:18:44.168Z</time></trkpt><trkpt lat="45.2330134" lon="9.2978802"><ele>74.80000000000001</ele><time>2026-04-25T09:18:45.169Z</time></trkpt><trkpt lat="45.2329145" lon="9.2979011"><ele>74.4</ele><time>2026-04-25T09:18:46.168Z</time></trkpt><trkpt lat="45.2328061" lon="9.2979249"><ele>74.0</ele><time>2026-04-25T09:18:47.169Z</time></trkpt><trkpt lat="45.2326961" lon="9.2979456"><ele>74.0</ele><time>2026-04-25T09:18:48.168Z</time></trkpt><trkpt lat="45.2325761" lon="9.2979749"><ele>74.0</ele><time>2026-04-25T09:18:49.169Z</time></trkpt><trkpt lat="45.2324725" lon="9.2980088"><ele>74.0</ele><time>2026-04-25T09:18:50.169Z</time></trkpt><trkpt lat="45.2323563" lon="9.2980139"><ele>74.0</ele><time>2026-04-25T09:18:51.169Z</time></trkpt><trkpt lat="45.2322481" lon="9.2980331"><ele>74.4</ele><time>2026-04-25T09:18:52.169Z</time></trkpt><trkpt lat="45.2321392" lon="9.2980464"><ele>74.80000000000001</ele><time>2026-04-25T09:18:53.17Z</time></trkpt><trkpt lat="45.2320274" lon="9.2980527"><ele>75.19999999999999</ele><time>2026-04-25T09:18:54.17Z</time></trkpt><trkpt lat="45.2319156" lon="9.2980565"><ele>75.6</ele><time>2026-04-25T09:18:55.169Z</time></trkpt><trkpt lat="45.2318089" lon="9.2980643"><ele>76.0</ele><time>2026-04-25T09:18:56.169Z</time></trkpt><trkpt lat="45.2317023" lon="9.2980694"><ele>76.0</ele><time>2026-04-25T09:18:57.168Z</time></trkpt><trkpt lat="45.2315946" lon="9.2980799"><ele>76.0</ele><time>2026-04-25T09:18:58.169Z</time></trkpt><trkpt lat="45.2314947" lon="9.2980856"><ele>76.0</ele><time>2026-04-25T09:18:59.169Z</time></trkpt><trkpt lat="45.2313888" lon="9.2980683"><ele>76.0</ele><time>2026-04-25T09:19:00.17Z</time></trkpt><trkpt lat="45.2312825" lon="9.2980497"><ele>76.0</ele><time>2026-04-25T09:19:01.169Z</time></trkpt><trkpt lat="45.2311833" lon="9.298022"><ele>76.0</ele><time>2026-04-25T09:19:02.168Z</time></trkpt><trkpt lat="45.2310847" lon="9.2979878"><ele>76.0</ele><time>2026-04-25T09:19:03.169Z</time></trkpt><trkpt lat="45.2309878" lon="9.2979517"><ele>76.0</ele><time>2026-04-25T09:19:04.169Z</time></trkpt><trkpt lat="45.2308849" lon="9.2979282"><ele>76.0</ele><time>2026-04-25T09:19:05.169Z</time></trkpt><trkpt lat="45.2307775" lon="9.2979113"><ele>76.0</ele><time>2026-04-25T09:19:06.169Z</time></trkpt><trkpt lat="45.2306687" lon="9.2979149"><ele>75.8</ele><time>2026-04-25T09:19:07.168Z</time></trkpt><trkpt lat="45.2305592" lon="9.2979257"><ele>75.6</ele><time>2026-04-25T09:19:08.169Z</time></trkpt><trkpt lat="45.2304505" lon="9.2979312"><ele>75.4</ele><time>2026-04-25T09:19:09.168Z</time></trkpt><trkpt lat="45.2303431" lon="9.2979436"><ele>75.2</ele><time>2026-04-25T09:19:10.169Z</time></trkpt><trkpt lat="45.2302293" lon="9.2979569"><ele>75.0</ele><time>2026-04-25T09:19:11.169Z</time></trkpt><trkpt lat="45.2301185" lon="9.2979706"><ele>75.0</ele><time>2026-04-25T09:19:12.169Z</time></trkpt><trkpt lat="45.2300029" lon="9.2979881"><ele>75.0</ele><time>2026-04-25T09:19:13.169Z</time></trkpt><trkpt lat="45.2298879" lon="9.2980062"><ele>75.0</ele><time>2026-04-25T09:19:14.169Z</time></trkpt><trkpt lat="45.2297728" lon="9.2980256"><ele>75.0</ele><time>2026-04-25T09:19:15.168Z</time></trkpt><trkpt lat="45.2296609" lon="9.2980446"><ele>75.2</ele><time>2026-04-25T09:19:16.169Z</time></trkpt><trkpt lat="45.2295469" lon="9.2980764"><ele>75.4</ele><time>2026-04-25T09:19:17.17Z</time></trkpt><trkpt lat="45.2294439" lon="9.2981202"><ele>75.6</ele><time>2026-04-25T09:19:18.17Z</time></trkpt><trkpt lat="45.2293538" lon="9.2981831"><ele>75.8</ele><time>2026-04-25T09:19:19.169Z</time></trkpt><trkpt lat="45.2292626" lon="9.2982653"><ele>76.0</ele><time>2026-04-25T09:19:20.169Z</time></trkpt><trkpt lat="45.2291783" lon="9.2983613"><ele>76.0</ele><time>2026-04-25T09:19:21.168Z</time></trkpt><trkpt lat="45.2290985" lon="9.2984673"><ele>76.0</ele><time>2026-04-25T09:19:22.17Z</time></trkpt><trkpt lat="45.2290155" lon="9.2985656"><ele>76.0</ele><time>2026-04-25T09:19:24.169Z</time></trkpt><trkpt lat="45.2289095" lon="9.2985936"><ele>76.0</ele><time>2026-04-25T09:19:26.17Z</time></trkpt><trkpt lat="45.2288016" lon="9.2985095"><ele>76.0</ele><time>2026-04-25T09:19:28.168Z</time></trkpt><trkpt lat="45.2287436" lon="9.2983941"><ele>76.0</ele><time>2026-04-25T09:19:29.168Z</time></trkpt><trkpt lat="45.2286664" lon="9.2982502"><ele>76.0</ele><time>2026-04-25T09:19:30.169Z</time></trkpt><trkpt lat="45.2285852" lon="9.2980957"><ele>76.0</ele><time>2026-04-25T09:19:31.17Z</time></trkpt><trkpt lat="45.2285002" lon="9.2979285"><ele>76.0</ele><time>2026-04-25T09:19:32.17Z</time></trkpt><trkpt lat="45.2284116" lon="9.2977604"><ele>76.0</ele><time>2026-04-25T09:19:33.169Z</time></trkpt><trkpt lat="45.228334" lon="9.2976076"><ele>76.0</ele><time>2026-04-25T09:19:34.169Z</time></trkpt><trkpt lat="45.2282598" lon="9.2974713"><ele>76.0</ele><time>2026-04-25T09:19:35.168Z</time></trkpt><trkpt lat="45.2281919" lon="9.2973465"><ele>76.0</ele><time>2026-04-25T09:19:36.169Z</time></trkpt><trkpt lat="45.2281362" lon="9.2972259"><ele>75.66666666666666</ele><time>2026-04-25T09:19:37.169Z</time></trkpt><trkpt lat="45.2280824" lon="9.2971091"><ele>75.33333333333333</ele><time>2026-04-25T09:19:38.169Z</time></trkpt><trkpt lat="45.228032" lon="9.297009"><ele>75.0</ele><time>2026-04-25T09:19:39.169Z</time></trkpt><trkpt lat="45.2279414" lon="9.2969803"><ele>74.66666666666667</ele><time>2026-04-25T09:19:41.169Z</time></trkpt><trkpt lat="45.2278723" lon="9.2969964"><ele>74.33333333333334</ele><time>2026-04-25T09:19:42.169Z</time></trkpt><trkpt lat="45.2277955" lon="9.2970395"><ele>74.0</ele><time>2026-04-25T09:19:43.17Z</time></trkpt><trkpt lat="45.2277034" lon="9.2971071"><ele>74.0</ele><time>2026-04-25T09:19:44.168Z</time></trkpt><trkpt lat="45.2275991" lon="9.2971789"><ele>74.0</ele><time>2026-04-25T09:19:45.169Z</time></trkpt><trkpt lat="45.2274993" lon="9.2972507"><ele>74.0</ele><time>2026-04-25T09:19:46.169Z</time></trkpt><trkpt lat="45.2273742" lon="9.2973178"><ele>74.0</ele><time>2026-04-25T09:19:47.168Z</time></trkpt><trkpt lat="45.2272804" lon="9.2974109"><ele>74.0</ele><time>2026-04-25T09:19:48.169Z</time></trkpt><trkpt lat="45.2271743" lon="9.2974951"><ele>74.0</ele><time>2026-04-25T09:19:49.168Z</time></trkpt><trkpt lat="45.2270701" lon="9.2975886"><ele>74.0</ele><time>2026-04-25T09:19:50.169Z</time></trkpt><trkpt lat="45.2269622" lon="9.2976741"><ele>74.0</ele><time>2026-04-25T09:19:51.169Z</time></trkpt><trkpt lat="45.2268559" lon="9.2977606"><ele>74.0</ele><time>2026-04-25T09:19:52.169Z</time></trkpt><trkpt lat="45.2267487" lon="9.2978408"><ele>74.0</ele><time>2026-04-25T09:19:53.169Z</time></trkpt><trkpt lat="45.2266384" lon="9.297915"><ele>74.0</ele><time>2026-04-25T09:19:54.169Z</time></trkpt><trkpt lat="45.2265265" lon="9.2979883"><ele>74.0</ele><time>2026-04-25T09:19:55.168Z</time></trkpt><trkpt lat="45.226411" lon="9.298088"><ele>74.5</ele><time>2026-04-25T09:19:56.169Z</time></trkpt><trkpt lat="45.2262955" lon="9.2981908"><ele>75.0</ele><time>2026-04-25T09:19:57.168Z</time></trkpt><trkpt lat="45.2261758" lon="9.2982981"><ele>75.5</ele><time>2026-04-25T09:19:58.169Z</time></trkpt><trkpt lat="45.2260457" lon="9.2984116"><ele>76.0</ele><time>2026-04-25T09:19:59.168Z</time></trkpt><trkpt lat="45.2259134" lon="9.2985234"><ele>76.0</ele><time>2026-04-25T09:20:00.169Z</time></trkpt><trkpt lat="45.2257854" lon="9.2986288"><ele>76.0</ele><time>2026-04-25T09:20:01.169Z</time></trkpt><trkpt lat="45.2256376" lon="9.2987572"><ele>76.0</ele><time>2026-04-25T09:20:02.169Z</time></trkpt><trkpt lat="45.2254873" lon="9.2988812"><ele>76.0</ele><time>2026-04-25T09:20:03.169Z</time></trkpt><trkpt lat="45.2253347" lon="9.2990119"><ele>76.0</ele><time>2026-04-25T09:20:04.169Z</time></trkpt><trkpt lat="45.2251926" lon="9.2991294"><ele>76.0</ele><time>2026-04-25T09:20:05.169Z</time></trkpt><trkpt lat="45.2250678" lon="9.2992374"><ele>76.0</ele><time>2026-04-25T09:20:06.168Z</time></trkpt><trkpt lat="45.224954" lon="9.2993367"><ele>76.0</ele><time>2026-04-25T09:20:07.17Z</time></trkpt><trkpt lat="45.224843" lon="9.2994327"><ele>76.0</ele><time>2026-04-25T09:20:08.168Z</time></trkpt><trkpt lat="45.2247679" lon="9.2995033"><ele>76.0</ele><time>2026-04-25T09:20:09.169Z</time></trkpt><trkpt lat="45.2246856" lon="9.2995823"><ele>75.83333333333333</ele><time>2026-04-25T09:20:10.169Z</time></trkpt><trkpt lat="45.2246081" lon="9.2996424"><ele>75.66666666666666</ele><time>2026-04-25T09:20:11.169Z</time></trkpt><trkpt lat="45.2245269" lon="9.2996641"><ele>75.5</ele><time>2026-04-25T09:20:12.168Z</time></trkpt><trkpt lat="45.2244405" lon="9.2996551"><ele>75.33333333333333</ele><time>2026-04-25T09:20:13.17Z</time></trkpt><trkpt lat="45.224348" lon="9.2996118"><ele>75.16666666666667</ele><time>2026-04-25T09:20:14.17Z</time></trkpt><trkpt lat="45.224266" lon="9.2995573"><ele>75.0</ele><time>2026-04-25T09:20:15.168Z</time></trkpt><trkpt lat="45.2241887" lon="9.299518"><ele>75.0</ele><time>2026-04-25T09:20:16.168Z</time></trkpt><trkpt lat="45.2241106" lon="9.299528"><ele>75.0</ele><time>2026-04-25T09:20:17.169Z</time></trkpt><trkpt lat="45.2240281" lon="9.2995688"><ele>75.0</ele><time>2026-04-25T09:20:18.17Z</time></trkpt><trkpt lat="45.2239159" lon="9.2996601"><ele>75.0</ele><time>2026-04-25T09:20:19.169Z</time></trkpt><trkpt lat="45.2238043" lon="9.2997605"><ele>75.0</ele><time>2026-04-25T09:20:20.168Z</time></trkpt><trkpt lat="45.2236803" lon="9.2998548"><ele>74.33333333333333</ele><time>2026-04-25T09:20:21.17Z</time></trkpt><trkpt lat="45.2235436" lon="9.2999664"><ele>73.66666666666666</ele><time>2026-04-25T09:20:22.17Z</time></trkpt><trkpt lat="45.2234035" lon="9.3000785"><ele>73.0</ele><time>2026-04-25T09:20:23.17Z</time></trkpt><trkpt lat="45.2232644" lon="9.3001845"><ele>73.33333333333333</ele><time>2026-04-25T09:20:24.169Z</time></trkpt><trkpt lat="45.2231248" lon="9.3002918"><ele>73.66666666666667</ele><time>2026-04-25T09:20:25.169Z</time></trkpt><trkpt lat="45.2229915" lon="9.3003906"><ele>74.0</ele><time>2026-04-25T09:20:26.169Z</time></trkpt><trkpt lat="45.22285" lon="9.3004833"><ele>74.0</ele><time>2026-04-25T09:20:27.168Z</time></trkpt><trkpt lat="45.2227257" lon="9.3005685"><ele>74.0</ele><time>2026-04-25T09:20:28.169Z</time></trkpt><trkpt lat="45.222581" lon="9.3006495"><ele>74.0</ele><time>2026-04-25T09:20:29.169Z</time></trkpt><trkpt lat="45.2224314" lon="9.3007106"><ele>74.0</ele><time>2026-04-25T09:20:30.169Z</time></trkpt><trkpt lat="45.2222757" lon="9.3007554"><ele>74.25</ele><time>2026-04-25T09:20:31.169Z</time></trkpt><trkpt lat="45.2221226" lon="9.3007946"><ele>74.5</ele><time>2026-04-25T09:20:32.17Z</time></trkpt><trkpt lat="45.2219566" lon="9.3008338"><ele>74.75</ele><time>2026-04-25T09:20:33.168Z</time></trkpt><trkpt lat="45.2218407" lon="9.3009003"><ele>75.0</ele><time>2026-04-25T09:20:34.169Z</time></trkpt><trkpt lat="45.2216942" lon="9.3010058"><ele>75.0</ele><time>2026-04-25T09:20:35.168Z</time></trkpt><trkpt lat="45.2215492" lon="9.3010976"><ele>75.0</ele><time>2026-04-25T09:20:36.169Z</time></trkpt><trkpt lat="45.2214054" lon="9.3012089"><ele>75.0</ele><time>2026-04-25T09:20:37.17Z</time></trkpt><trkpt lat="45.2212586" lon="9.3013291"><ele>74.66666666666667</ele><time>2026-04-25T09:20:38.168Z</time></trkpt><trkpt lat="45.2211095" lon="9.301451"><ele>74.33333333333334</ele><time>2026-04-25T09:20:39.169Z</time></trkpt><trkpt lat="45.2209529" lon="9.3015819"><ele>74.0</ele><time>2026-04-25T09:20:40.169Z</time></trkpt><trkpt lat="45.2207911" lon="9.3017218"><ele>73.66666666666667</ele><time>2026-04-25T09:20:41.168Z</time></trkpt><trkpt lat="45.2206388" lon="9.301851"><ele>73.33333333333333</ele><time>2026-04-25T09:20:42.17Z</time></trkpt><trkpt lat="45.2204869" lon="9.3019746"><ele>73.0</ele><time>2026-04-25T09:20:43.169Z</time></trkpt><trkpt lat="45.2203412" lon="9.3020972"><ele>73.0</ele><time>2026-04-25T09:20:44.168Z</time></trkpt><trkpt lat="45.2202085" lon="9.3021941"><ele>73.0</ele><time>2026-04-25T09:20:45.17Z</time></trkpt><trkpt lat="45.2201199" lon="9.3022538"><ele>73.0</ele><time>2026-04-25T09:20:46.168Z</time></trkpt><trkpt lat="45.2199995" lon="9.3023346"><ele>73.0</ele><time>2026-04-25T09:20:47.168Z</time></trkpt><trkpt lat="45.2199071" lon="9.3023995"><ele>73.2</ele><time>2026-04-25T09:20:48.169Z</time></trkpt><trkpt lat="45.2198199" lon="9.3024681"><ele>73.4</ele><time>2026-04-25T09:20:49.169Z</time></trkpt><trkpt lat="45.2197495" lon="9.3025241"><ele>73.60000000000001</ele><time>2026-04-25T09:20:50.168Z</time></trkpt><trkpt lat="45.219639" lon="9.3025569"><ele>73.8</ele><time>2026-04-25T09:20:52.168Z</time></trkpt><trkpt lat="45.2195779" lon="9.3025272"><ele>74.0</ele><time>2026-04-25T09:20:53.169Z</time></trkpt><trkpt lat="45.2194949" lon="9.3023727"><ele>74.0</ele><time>2026-04-25T09:20:55.169Z</time></trkpt><trkpt lat="45.219437" lon="9.3022419"><ele>74.0</ele><time>2026-04-25T09:20:56.168Z</time></trkpt><trkpt lat="45.2193615" lon="9.3020996"><ele>74.0</ele><time>2026-04-25T09:20:57.168Z</time></trkpt><trkpt lat="45.2192806" lon="9.3019491"><ele>74.0</ele><time>2026-04-25T09:20:58.17Z</time></trkpt><trkpt lat="45.2191971" lon="9.3017904"><ele>74.0</ele><time>2026-04-25T09:20:59.168Z</time></trkpt><trkpt lat="45.2190966" lon="9.3016417"><ele>74.0</ele><time>2026-04-25T09:21:00.169Z</time></trkpt><trkpt lat="45.2189994" lon="9.3015209"><ele>74.0</ele><time>2026-04-25T09:21:01.169Z</time></trkpt><trkpt lat="45.218895" lon="9.3013913"><ele>74.0</ele><time>2026-04-25T09:21:02.169Z</time></trkpt><trkpt lat="45.2187924" lon="9.301269"><ele>74.25</ele><time>2026-04-25T09:21:03.169Z</time></trkpt><trkpt lat="45.2186957" lon="9.3011597"><ele>74.5</ele><time>2026-04-25T09:21:04.168Z</time></trkpt><trkpt lat="45.2185977" lon="9.301066"><ele>74.75</ele><time>2026-04-25T09:21:05.169Z</time></trkpt><trkpt lat="45.2184938" lon="9.3009856"><ele>75.0</ele><time>2026-04-25T09:21:06.168Z</time></trkpt><trkpt lat="45.2183876" lon="9.300919"><ele>75.0</ele><time>2026-04-25T09:21:07.169Z</time></trkpt><trkpt lat="45.2183028" lon="9.3008631"><ele>75.0</ele><time>2026-04-25T09:21:08.168Z</time></trkpt><trkpt lat="45.2182324" lon="9.3008148"><ele>75.0</ele><time>2026-04-25T09:21:09.169Z</time></trkpt><trkpt lat="45.2181419" lon="9.3007192"><ele>75.0</ele><time>2026-04-25T09:21:11.169Z</time></trkpt><trkpt lat="45.2180878" lon="9.3006175"><ele>75.0</ele><time>2026-04-25T09:21:13.168Z</time></trkpt><trkpt lat="45.2180512" lon="9.300499"><ele>75.2</ele><time>2026-04-25T09:21:15.168Z</time></trkpt><trkpt lat="45.2180269" lon="9.3004066"><ele>75.4</ele><time>2026-04-25T09:21:18.17Z</time></trkpt><trkpt lat="45.2179804" lon="9.3001859"><ele>75.6</ele><time>2026-04-25T09:21:46.17Z</time></trkpt><trkpt lat="45.2179357" lon="9.3000616"><ele>75.8</ele><time>2026-04-25T09:21:47.168Z</time></trkpt><trkpt lat="45.2178939" lon="9.2999459"><ele>76.0</ele><time>2026-04-25T09:21:48.168Z</time></trkpt><trkpt lat="45.2178578" lon="9.2998448"><ele>76.0</ele><time>2026-04-25T09:21:49.169Z</time></trkpt><trkpt lat="45.21778" lon="9.2997459"><ele>76.0</ele><time>2026-04-25T09:21:51.17Z</time></trkpt><trkpt lat="45.2177063" lon="9.2997433"><ele>76.0</ele><time>2026-04-25T09:21:52.17Z</time></trkpt><trkpt lat="45.2176021" lon="9.2997784"><ele>76.0</ele><time>2026-04-25T09:21:53.17Z</time></trkpt><trkpt lat="45.2174701" lon="9.2998301"><ele>76.0</ele><time>2026-04-25T09:21:54.168Z</time></trkpt><trkpt lat="45.2173455" lon="9.2998942"><ele>76.0</ele><time>2026-04-25T09:21:55.168Z</time></trkpt><trkpt lat="45.2172237" lon="9.2999642"><ele>76.0</ele><time>2026-04-25T09:21:56.168Z</time></trkpt><trkpt lat="45.2170952" lon="9.3000209"><ele>76.0</ele><time>2026-04-25T09:21:57.169Z</time></trkpt><trkpt lat="45.2169743" lon="9.3000753"><ele>76.0</ele><time>2026-04-25T09:21:58.169Z</time></trkpt><trkpt lat="45.2168568" lon="9.300143"><ele>76.0</ele><time>2026-04-25T09:21:59.169Z</time></trkpt><trkpt lat="45.2167473" lon="9.3002165"><ele>76.0</ele><time>2026-04-25T09:22:00.169Z</time></trkpt><trkpt lat="45.2166382" lon="9.3002905"><ele>76.0</ele><time>2026-04-25T09:22:01.169Z</time></trkpt><trkpt lat="45.2165435" lon="9.3003671"><ele>76.0</ele><time>2026-04-25T09:22:02.168Z</time></trkpt><trkpt lat="45.2164524" lon="9.3004412"><ele>75.8</ele><time>2026-04-25T09:22:03.169Z</time></trkpt><trkpt lat="45.2163612" lon="9.3005186"><ele>75.6</ele><time>2026-04-25T09:22:04.168Z</time></trkpt><trkpt lat="45.2162669" lon="9.300611"><ele>75.4</ele><time>2026-04-25T09:22:05.169Z</time></trkpt><trkpt lat="45.2161758" lon="9.300616"><ele>75.2</ele><time>2026-04-25T09:22:06.17Z</time></trkpt><trkpt lat="45.2160831" lon="9.3006401"><ele>75.0</ele><time>2026-04-25T09:22:07.169Z</time></trkpt><trkpt lat="45.2159866" lon="9.300666"><ele>74.8</ele><time>2026-04-25T09:22:08.169Z</time></trkpt><trkpt lat="45.2158953" lon="9.3007082"><ele>74.6</ele><time>2026-04-25T09:22:09.168Z</time></trkpt><trkpt lat="45.2158096" lon="9.3007646"><ele>74.4</ele><time>2026-04-25T09:22:10.169Z</time></trkpt><trkpt lat="45.2157243" lon="9.3008116"><ele>74.2</ele><time>2026-04-25T09:22:11.169Z</time></trkpt><trkpt lat="45.2156398" lon="9.3009513"><ele>74.0</ele><time>2026-04-25T09:22:12.169Z</time></trkpt><trkpt lat="45.2155525" lon="9.3010575"><ele>73.75</ele><time>2026-04-25T09:22:13.169Z</time></trkpt><trkpt lat="45.2154619" lon="9.3011875"><ele>73.5</ele><time>2026-04-25T09:22:14.17Z</time></trkpt><trkpt lat="45.2153661" lon="9.3013181"><ele>73.25</ele><time>2026-04-25T09:22:15.168Z</time></trkpt><trkpt lat="45.2152696" lon="9.3014468"><ele>73.0</ele><time>2026-04-25T09:22:16.169Z</time></trkpt><trkpt lat="45.2151755" lon="9.3015726"><ele>73.0</ele><time>2026-04-25T09:22:17.169Z</time></trkpt><trkpt lat="45.2150752" lon="9.3017018"><ele>73.0</ele><time>2026-04-25T09:22:18.168Z</time></trkpt><trkpt lat="45.2149766" lon="9.3018307"><ele>73.0</ele><time>2026-04-25T09:22:19.169Z</time></trkpt><trkpt lat="45.214877" lon="9.3019583"><ele>73.0</ele><time>2026-04-25T09:22:20.169Z</time></trkpt><trkpt lat="45.2147764" lon="9.3020871"><ele>73.0</ele><time>2026-04-25T09:22:21.17Z</time></trkpt><trkpt lat="45.2146738" lon="9.302212"><ele>73.0</ele><time>2026-04-25T09:22:22.169Z</time></trkpt><trkpt lat="45.214566" lon="9.302341"><ele>73.0</ele><time>2026-04-25T09:22:23.168Z</time></trkpt><trkpt lat="45.2144607" lon="9.3024781"><ele>73.0</ele><time>2026-04-25T09:22:24.169Z</time></trkpt><trkpt lat="45.21436" lon="9.3026186"><ele>73.0</ele><time>2026-04-25T09:22:25.168Z</time></trkpt><trkpt lat="45.2142642" lon="9.3027648"><ele>73.0</ele><time>2026-04-25T09:22:26.169Z</time></trkpt><trkpt lat="45.2141698" lon="9.3029165"><ele>73.0</ele><time>2026-04-25T09:22:27.169Z</time></trkpt><trkpt lat="45.2140741" lon="9.3030689"><ele>73.0</ele><time>2026-04-25T09:22:28.169Z</time></trkpt><trkpt lat="45.2139794" lon="9.3032172"><ele>73.0</ele><time>2026-04-25T09:22:29.17Z</time></trkpt><trkpt lat="45.2138787" lon="9.3033678"><ele>73.0</ele><time>2026-04-25T09:22:30.17Z</time></trkpt><trkpt lat="45.2137836" lon="9.3035133"><ele>73.0</ele><time>2026-04-25T09:22:31.17Z</time></trkpt><trkpt lat="45.2136845" lon="9.3036572"><ele>73.0</ele><time>2026-04-25T09:22:32.168Z</time></trkpt><trkpt lat="45.2135793" lon="9.3037996"><ele>73.5</ele><time>2026-04-25T09:22:33.169Z</time></trkpt><trkpt lat="45.2134737" lon="9.3039397"><ele>74.0</ele><time>2026-04-25T09:22:34.168Z</time></trkpt><trkpt lat="45.2133638" lon="9.3040786"><ele>74.5</ele><time>2026-04-25T09:22:35.169Z</time></trkpt><trkpt lat="45.2132547" lon="9.3042199"><ele>75.0</ele><time>2026-04-25T09:22:36.169Z</time></trkpt><trkpt lat="45.2131521" lon="9.3043603"><ele>75.0</ele><time>2026-04-25T09:22:37.168Z</time></trkpt><trkpt lat="45.2130508" lon="9.3045039"><ele>75.0</ele><time>2026-04-25T09:22:38.168Z</time></trkpt><trkpt lat="45.2129521" lon="9.3046518"><ele>75.0</ele><time>2026-04-25T09:22:39.169Z</time></trkpt><trkpt lat="45.2128528" lon="9.3048041"><ele>75.0</ele><time>2026-04-25T09:22:40.168Z</time></trkpt><trkpt lat="45.2127576" lon="9.3049619"><ele>75.0</ele><time>2026-04-25T09:22:41.168Z</time></trkpt><trkpt lat="45.2126662" lon="9.3051194"><ele>75.0</ele><time>2026-04-25T09:22:42.169Z</time></trkpt><trkpt lat="45.212573" lon="9.3052806"><ele>75.0</ele><time>2026-04-25T09:22:43.168Z</time></trkpt><trkpt lat="45.2124831" lon="9.3054452"><ele>75.0</ele><time>2026-04-25T09:22:44.169Z</time></trkpt><trkpt lat="45.2123961" lon="9.305608"><ele>74.75</ele><time>2026-04-25T09:22:45.17Z</time></trkpt><trkpt lat="45.2123107" lon="9.3057669"><ele>74.5</ele><time>2026-04-25T09:22:46.169Z</time></trkpt><trkpt lat="45.2122157" lon="9.3059342"><ele>74.25</ele><time>2026-04-25T09:22:47.169Z</time></trkpt><trkpt lat="45.2121196" lon="9.3061015"><ele>74.0</ele><time>2026-04-25T09:22:48.168Z</time></trkpt><trkpt lat="45.2120286" lon="9.3062594"><ele>74.25</ele><time>2026-04-25T09:22:49.168Z</time></trkpt><trkpt lat="45.2119357" lon="9.3064193"><ele>74.5</ele><time>2026-04-25T09:22:50.17Z</time></trkpt><trkpt lat="45.211854" lon="9.3065818"><ele>74.75</ele><time>2026-04-25T09:22:51.168Z</time></trkpt><trkpt lat="45.2117699" lon="9.3067301"><ele>75.0</ele><time>2026-04-25T09:22:52.17Z</time></trkpt><trkpt lat="45.2116757" lon="9.3068682"><ele>75.0</ele><time>2026-04-25T09:22:53.169Z</time></trkpt><trkpt lat="45.2115725" lon="9.3069963"><ele>75.0</ele><time>2026-04-25T09:22:54.169Z</time></trkpt><trkpt lat="45.2114538" lon="9.3071151"><ele>75.0</ele><time>2026-04-25T09:22:55.17Z</time></trkpt><trkpt lat="45.2113341" lon="9.3072182"><ele>75.0</ele><time>2026-04-25T09:22:56.168Z</time></trkpt><trkpt lat="45.2112106" lon="9.307304"><ele>74.75</ele><time>2026-04-25T09:22:57.168Z</time></trkpt><trkpt lat="45.2110852" lon="9.3073749"><ele>74.5</ele><time>2026-04-25T09:22:58.169Z</time></trkpt><trkpt lat="45.2109582" lon="9.3074266"><ele>74.25</ele><time>2026-04-25T09:22:59.168Z</time></trkpt><trkpt lat="45.2108341" lon="9.3074608"><ele>74.0</ele><time>2026-04-25T09:23:00.168Z</time></trkpt><trkpt lat="45.2107112" lon="9.3074799"><ele>73.75</ele><time>2026-04-25T09:23:01.169Z</time></trkpt><trkpt lat="45.2105886" lon="9.3074822"><ele>73.5</ele><time>2026-04-25T09:23:02.169Z</time></trkpt><trkpt lat="45.210467" lon="9.3074711"><ele>73.25</ele><time>2026-04-25T09:23:03.169Z</time></trkpt><trkpt lat="45.2103398" lon="9.3074579"><ele>73.0</ele><time>2026-04-25T09:23:04.169Z</time></trkpt><trkpt lat="45.2102185" lon="9.3074455"><ele>73.0</ele><time>2026-04-25T09:23:05.168Z</time></trkpt><trkpt lat="45.2101008" lon="9.3074311"><ele>73.0</ele><time>2026-04-25T09:23:06.17Z</time></trkpt><trkpt lat="45.209987" lon="9.3074178"><ele>73.0</ele><time>2026-04-25T09:23:07.168Z</time></trkpt><trkpt lat="45.2098963" lon="9.3074032"><ele>73.0</ele><time>2026-04-25T09:23:08.17Z</time></trkpt><trkpt lat="45.2098084" lon="9.3073868"><ele>73.0</ele><time>2026-04-25T09:23:09.168Z</time></trkpt><trkpt lat="45.2097006" lon="9.3073647"><ele>72.83333333333333</ele><time>2026-04-25T09:23:11.169Z</time></trkpt><trkpt lat="45.2096283" lon="9.3073693"><ele>72.66666666666666</ele><time>2026-04-25T09:23:13.169Z</time></trkpt><trkpt lat="45.2095377" lon="9.3074765"><ele>72.5</ele><time>2026-04-25T09:23:15.169Z</time></trkpt><trkpt lat="45.2094929" lon="9.3075524"><ele>72.33333333333333</ele><time>2026-04-25T09:23:16.17Z</time></trkpt><trkpt lat="45.2094395" lon="9.307635"><ele>72.16666666666667</ele><time>2026-04-25T09:23:17.168Z</time></trkpt><trkpt lat="45.2093935" lon="9.307718"><ele>72.0</ele><time>2026-04-25T09:23:18.169Z</time></trkpt><trkpt lat="45.2093048" lon="9.3078658"><ele>72.0</ele><time>2026-04-25T09:23:19.168Z</time></trkpt><trkpt lat="45.2092113" lon="9.3079705"><ele>72.0</ele><time>2026-04-25T09:23:20.169Z</time></trkpt><trkpt lat="45.2091208" lon="9.3080416"><ele>72.0</ele><time>2026-04-25T09:23:21.17Z</time></trkpt><trkpt lat="45.2090178" lon="9.3080938"><ele>72.0</ele><time>2026-04-25T09:23:22.169Z</time></trkpt><trkpt lat="45.2089002" lon="9.3081266"><ele>72.16666666666667</ele><time>2026-04-25T09:23:23.169Z</time></trkpt><trkpt lat="45.2088092" lon="9.3081286"><ele>72.33333333333333</ele><time>2026-04-25T09:23:24.169Z</time></trkpt><trkpt lat="45.2087137" lon="9.3081563"><ele>72.5</ele><time>2026-04-25T09:23:25.169Z</time></trkpt><trkpt lat="45.2086485" lon="9.3082207"><ele>72.66666666666666</ele><time>2026-04-25T09:23:26.169Z</time></trkpt><trkpt lat="45.208584" lon="9.3082892"><ele>72.83333333333333</ele><time>2026-04-25T09:23:27.169Z</time></trkpt><trkpt lat="45.2085236" lon="9.3083464"><ele>73.0</ele><time>2026-04-25T09:23:28.169Z</time></trkpt><trkpt lat="45.2084359" lon="9.3084382"><ele>73.0</ele><time>2026-04-25T09:23:30.168Z</time></trkpt><trkpt lat="45.2083307" lon="9.3084281"><ele>73.0</ele><time>2026-04-25T09:23:32.169Z</time></trkpt><trkpt lat="45.2082681" lon="9.3083921"><ele>73.0</ele><time>2026-04-25T09:23:33.168Z</time></trkpt><trkpt lat="45.2081925" lon="9.3083599"><ele>73.0</ele><time>2026-04-25T09:23:34.168Z</time></trkpt><trkpt lat="45.2081096" lon="9.3083444"><ele>73.0</ele><time>2026-04-25T09:23:35.168Z</time></trkpt><trkpt lat="45.2080253" lon="9.3083388"><ele>73.0</ele><time>2026-04-25T09:23:36.17Z</time></trkpt><trkpt lat="45.2079386" lon="9.3083331"><ele>73.0</ele><time>2026-04-25T09:23:37.169Z</time></trkpt><trkpt lat="45.2078547" lon="9.3083218"><ele>73.0</ele><time>2026-04-25T09:23:38.169Z</time></trkpt><trkpt lat="45.2077647" lon="9.3083146"><ele>73.0</ele><time>2026-04-25T09:23:39.169Z</time></trkpt><trkpt lat="45.207685" lon="9.3083044"><ele>73.0</ele><time>2026-04-25T09:23:40.17Z</time></trkpt><trkpt lat="45.207598" lon="9.3082442"><ele>73.0</ele><time>2026-04-25T09:23:41.168Z</time></trkpt><trkpt lat="45.207518" lon="9.3081901"><ele>73.0</ele><time>2026-04-25T09:23:42.169Z</time></trkpt><trkpt lat="45.2074327" lon="9.3081638"><ele>73.0</ele><time>2026-04-25T09:23:43.168Z</time></trkpt><trkpt lat="45.2073673" lon="9.3080896"><ele>73.0</ele><time>2026-04-25T09:23:44.169Z</time></trkpt><trkpt lat="45.2072777" lon="9.308025"><ele>73.0</ele><time>2026-04-25T09:23:45.168Z</time></trkpt><trkpt lat="45.2071902" lon="9.3079511"><ele>73.0</ele><time>2026-04-25T09:23:46.168Z</time></trkpt><trkpt lat="45.2070983" lon="9.3078778"><ele>73.0</ele><time>2026-04-25T09:23:47.169Z</time></trkpt><trkpt lat="45.2070042" lon="9.3077963"><ele>71.75</ele><time>2026-04-25T09:23:48.17Z</time></trkpt><trkpt lat="45.2069172" lon="9.3076872"><ele>70.5</ele><time>2026-04-25T09:23:49.169Z</time></trkpt><trkpt lat="45.2068427" lon="9.3075604"><ele>69.25</ele><time>2026-04-25T09:23:50.168Z</time></trkpt><trkpt lat="45.2067663" lon="9.3074383"><ele>68.0</ele><time>2026-04-25T09:23:51.169Z</time></trkpt><trkpt lat="45.20669" lon="9.3072959"><ele>67.8</ele><time>2026-04-25T09:23:52.169Z</time></trkpt><trkpt lat="45.2066186" lon="9.3071742"><ele>67.6</ele><time>2026-04-25T09:23:53.169Z</time></trkpt><trkpt lat="45.2065578" lon="9.3070407"><ele>67.4</ele><time>2026-04-25T09:23:54.169Z</time></trkpt><trkpt lat="45.2064825" lon="9.3069263"><ele>67.2</ele><time>2026-04-25T09:23:55.168Z</time></trkpt><trkpt lat="45.2063898" lon="9.3068605"><ele>67.0</ele><time>2026-04-25T09:23:56.169Z</time></trkpt><trkpt lat="45.2063027" lon="9.3068413"><ele>66.83333333333333</ele><time>2026-04-25T09:23:57.17Z</time></trkpt><trkpt lat="45.2062185" lon="9.3068407"><ele>66.66666666666666</ele><time>2026-04-25T09:23:58.169Z</time></trkpt><trkpt lat="45.2061504" lon="9.3068468"><ele>66.5</ele><time>2026-04-25T09:23:59.169Z</time></trkpt><trkpt lat="45.2060863" lon="9.3068623"><ele>66.33333333333333</ele><time>2026-04-25T09:24:00.169Z</time></trkpt><trkpt lat="45.2060078" lon="9.3068712"><ele>66.16666666666667</ele><time>2026-04-25T09:24:01.17Z</time></trkpt><trkpt lat="45.2059089" lon="9.3068788"><ele>66.0</ele><time>2026-04-25T09:24:03.17Z</time></trkpt><trkpt lat="45.2057801" lon="9.3067996"><ele>66.0</ele><time>2026-04-25T09:24:05.169Z</time></trkpt><trkpt lat="45.2057128" lon="9.3067425"><ele>66.0</ele><time>2026-04-25T09:24:06.169Z</time></trkpt><trkpt lat="45.2056457" lon="9.3066857"><ele>66.0</ele><time>2026-04-25T09:24:07.168Z</time></trkpt><trkpt lat="45.2055746" lon="9.3066304"><ele>66.0</ele><time>2026-04-25T09:24:08.168Z</time></trkpt><trkpt lat="45.2054997" lon="9.306574"><ele>66.0</ele><time>2026-04-25T09:24:09.168Z</time></trkpt><trkpt lat="45.205428" lon="9.3065233"><ele>66.0</ele><time>2026-04-25T09:24:10.169Z</time></trkpt><trkpt lat="45.2053614" lon="9.3064706"><ele>66.0</ele><time>2026-04-25T09:24:11.169Z</time></trkpt><trkpt lat="45.2053049" lon="9.3064224"><ele>66.0</ele><time>2026-04-25T09:24:12.168Z</time></trkpt><trkpt lat="45.205248" lon="9.3063742"><ele>66.0</ele><time>2026-04-25T09:24:13.17Z</time></trkpt><trkpt lat="45.2051867" lon="9.3063173"><ele>66.0</ele><time>2026-04-25T09:24:14.168Z</time></trkpt><trkpt lat="45.2051293" lon="9.3062649"><ele>66.0</ele><time>2026-04-25T09:24:15.17Z</time></trkpt><trkpt lat="45.2050647" lon="9.3062341"><ele>66.0</ele><time>2026-04-25T09:24:16.169Z</time></trkpt><trkpt lat="45.2049378" lon="9.3062019"><ele>66.0</ele><time>2026-04-25T09:24:18.168Z</time></trkpt><trkpt lat="45.2048769" lon="9.3061555"><ele>66.0</ele><time>2026-04-25T09:24:19.168Z</time></trkpt><trkpt lat="45.2048236" lon="9.3060984"><ele>66.0</ele><time>2026-04-25T09:24:20.169Z</time></trkpt><trkpt lat="45.2047796" lon="9.3059897"><ele>66.0</ele><time>2026-04-25T09:24:21.17Z</time></trkpt><trkpt lat="45.204734" lon="9.3058876"><ele>66.0</ele><time>2026-04-25T09:24:22.169Z</time></trkpt><trkpt lat="45.2046899" lon="9.3057702"><ele>66.0</ele><time>2026-04-25T09:24:23.169Z</time></trkpt><trkpt lat="45.2046363" lon="9.3056489"><ele>66.0</ele><time>2026-04-25T09:24:24.17Z</time></trkpt><trkpt lat="45.20458" lon="9.3055253"><ele>66.0</ele><time>2026-04-25T09:24:25.169Z</time></trkpt><trkpt lat="45.2045208" lon="9.3054011"><ele>66.0</ele><time>2026-04-25T09:24:26.169Z</time></trkpt><trkpt lat="45.2044576" lon="9.3052739"><ele>66.0</ele><time>2026-04-25T09:24:27.17Z</time></trkpt><trkpt lat="45.2043937" lon="9.3051432"><ele>66.0</ele><time>2026-04-25T09:24:28.169Z</time></trkpt><trkpt lat="45.2043253" lon="9.3050098"><ele>66.0</ele><time>2026-04-25T09:24:29.168Z</time></trkpt><trkpt lat="45.2042587" lon="9.3048751"><ele>66.0</ele><time>2026-04-25T09:24:30.168Z</time></trkpt><trkpt lat="45.2041898" lon="9.3047406"><ele>66.0</ele><time>2026-04-25T09:24:31.169Z</time></trkpt><trkpt lat="45.2041251" lon="9.3046087"><ele>66.0</ele><time>2026-04-25T09:24:32.17Z</time></trkpt><trkpt lat="45.2040622" lon="9.3044796"><ele>66.0</ele><time>2026-04-25T09:24:33.168Z</time></trkpt><trkpt lat="45.2040034" lon="9.3043602"><ele>66.0</ele><time>2026-04-25T09:24:34.17Z</time></trkpt><trkpt lat="45.2039422" lon="9.3042402"><ele>66.0</ele><time>2026-04-25T09:24:35.168Z</time></trkpt><trkpt lat="45.2038863" lon="9.3041324"><ele>66.0</ele><time>2026-04-25T09:24:36.169Z</time></trkpt><trkpt lat="45.2038368" lon="9.3040352"><ele>66.0</ele><time>2026-04-25T09:24:37.168Z</time></trkpt><trkpt lat="45.2037814" lon="9.3039421"><ele>66.16666666666667</ele><time>2026-04-25T09:24:38.169Z</time></trkpt><trkpt lat="45.2037275" lon="9.303869"><ele>66.33333333333333</ele><time>2026-04-25T09:24:39.17Z</time></trkpt><trkpt lat="45.2036664" lon="9.3038111"><ele>66.5</ele><time>2026-04-25T09:24:40.169Z</time></trkpt><trkpt lat="45.2035938" lon="9.3037684"><ele>66.66666666666666</ele><time>2026-04-25T09:24:41.169Z</time></trkpt><trkpt lat="45.2035179" lon="9.3037309"><ele>66.83333333333333</ele><time>2026-04-25T09:24:42.169Z</time></trkpt><trkpt lat="45.2034391" lon="9.3036884"><ele>67.0</ele><time>2026-04-25T09:24:43.168Z</time></trkpt><trkpt lat="45.2033608" lon="9.3036422"><ele>67.0</ele><time>2026-04-25T09:24:44.169Z</time></trkpt><trkpt lat="45.2032843" lon="9.3035921"><ele>67.0</ele><time>2026-04-25T09:24:45.17Z</time></trkpt><trkpt lat="45.2032076" lon="9.3035407"><ele>67.0</ele><time>2026-04-25T09:24:46.168Z</time></trkpt><trkpt lat="45.2031287" lon="9.3034911"><ele>67.0</ele><time>2026-04-25T09:24:47.169Z</time></trkpt><trkpt lat="45.2030497" lon="9.3034409"><ele>67.0</ele><time>2026-04-25T09:24:48.169Z</time></trkpt><trkpt lat="45.2029673" lon="9.3033912"><ele>67.0</ele><time>2026-04-25T09:24:49.169Z</time></trkpt><trkpt lat="45.202901" lon="9.3033425"><ele>67.83333333333333</ele><time>2026-04-25T09:24:50.168Z</time></trkpt><trkpt lat="45.2028435" lon="9.3033044"><ele>68.66666666666666</ele><time>2026-04-25T09:24:51.169Z</time></trkpt><trkpt lat="45.2027547" lon="9.303257"><ele>69.5</ele><time>2026-04-25T09:24:53.169Z</time></trkpt><trkpt lat="45.202678" lon="9.3033829"><ele>70.33333333333333</ele><time>2026-04-25T09:24:56.169Z</time></trkpt><trkpt lat="45.202667" lon="9.3034824"><ele>71.16666666666667</ele><time>2026-04-25T09:24:57.168Z</time></trkpt><trkpt lat="45.2026555" lon="9.3035821"><ele>72.0</ele><time>2026-04-25T09:24:58.168Z</time></trkpt><trkpt lat="45.2026447" lon="9.3036856"><ele>72.0</ele><time>2026-04-25T09:24:59.169Z</time></trkpt><trkpt lat="45.2026238" lon="9.3037784"><ele>72.0</ele><time>2026-04-25T09:25:00.169Z</time></trkpt><trkpt lat="45.2025997" lon="9.3039137"><ele>72.0</ele><time>2026-04-25T09:25:01.169Z</time></trkpt><trkpt lat="45.202557" lon="9.3040417"><ele>72.0</ele><time>2026-04-25T09:25:02.169Z</time></trkpt><trkpt lat="45.2025122" lon="9.304153"><ele>72.0</ele><time>2026-04-25T09:25:03.168Z</time></trkpt><trkpt lat="45.2024912" lon="9.304282"><ele>71.8</ele><time>2026-04-25T09:25:04.168Z</time></trkpt><trkpt lat="45.2024486" lon="9.3044316"><ele>71.6</ele><time>2026-04-25T09:25:05.168Z</time></trkpt><trkpt lat="45.2024298" lon="9.30458"><ele>71.39999999999999</ele><time>2026-04-25T09:25:06.169Z</time></trkpt><trkpt lat="45.2024018" lon="9.3047334"><ele>71.2</ele><time>2026-04-25T09:25:07.169Z</time></trkpt><trkpt lat="45.2023751" lon="9.3048907"><ele>71.0</ele><time>2026-04-25T09:25:08.169Z</time></trkpt><trkpt lat="45.2023446" lon="9.305058"><ele>71.0</ele><time>2026-04-25T09:25:09.17Z</time></trkpt><trkpt lat="45.202329" lon="9.3052023"><ele>71.0</ele><time>2026-04-25T09:25:10.169Z</time></trkpt><trkpt lat="45.2023026" lon="9.3053681"><ele>71.0</ele><time>2026-04-25T09:25:11.169Z</time></trkpt><trkpt lat="45.2022782" lon="9.3055321"><ele>71.0</ele><time>2026-04-25T09:25:12.168Z</time></trkpt><trkpt lat="45.2022575" lon="9.3056942"><ele>71.0</ele><time>2026-04-25T09:25:13.17Z</time></trkpt><trkpt lat="45.2022325" lon="9.3058528"><ele>71.0</ele><time>2026-04-25T09:25:14.169Z</time></trkpt><trkpt lat="45.2022144" lon="9.3060123"><ele>71.0</ele><time>2026-04-25T09:25:15.169Z</time></trkpt><trkpt lat="45.2021969" lon="9.3061721"><ele>71.0</ele><time>2026-04-25T09:25:16.169Z</time></trkpt><trkpt lat="45.2021785" lon="9.3063179"><ele>71.0</ele><time>2026-04-25T09:25:17.168Z</time></trkpt><trkpt lat="45.2021564" lon="9.3064432"><ele>71.2</ele><time>2026-04-25T09:25:18.168Z</time></trkpt><trkpt lat="45.2021278" lon="9.3065546"><ele>71.39999999999999</ele><time>2026-04-25T09:25:19.169Z</time></trkpt><trkpt lat="45.2020957" lon="9.3066559"><ele>71.6</ele><time>2026-04-25T09:25:20.169Z</time></trkpt><trkpt lat="45.2019588" lon="9.3067493"><ele>71.8</ele><time>2026-04-25T09:25:22.168Z</time></trkpt><trkpt lat="45.2018981" lon="9.3068081"><ele>72.0</ele><time>2026-04-25T09:25:23.17Z</time></trkpt><trkpt lat="45.2017842" lon="9.3068204"><ele>72.0</ele><time>2026-04-25T09:25:24.169Z</time></trkpt><trkpt lat="45.2016756" lon="9.3068705"><ele>72.0</ele><time>2026-04-25T09:25:25.17Z</time></trkpt><trkpt lat="45.2015779" lon="9.3069118"><ele>72.0</ele><time>2026-04-25T09:25:26.169Z</time></trkpt><trkpt lat="45.201498" lon="9.3069448"><ele>72.0</ele><time>2026-04-25T09:25:27.169Z</time></trkpt><trkpt lat="45.2014181" lon="9.3069698"><ele>72.0</ele><time>2026-04-25T09:25:28.169Z</time></trkpt><trkpt lat="45.2013326" lon="9.306982"><ele>71.75</ele><time>2026-04-25T09:25:29.168Z</time></trkpt><trkpt lat="45.2012351" lon="9.3069853"><ele>71.5</ele><time>2026-04-25T09:25:30.169Z</time></trkpt><trkpt lat="45.2011178" lon="9.3070006"><ele>71.25</ele><time>2026-04-25T09:25:31.169Z</time></trkpt><trkpt lat="45.2009911" lon="9.3070263"><ele>71.0</ele><time>2026-04-25T09:25:32.169Z</time></trkpt><trkpt lat="45.2008583" lon="9.3070664"><ele>71.0</ele><time>2026-04-25T09:25:33.168Z</time></trkpt><trkpt lat="45.2007217" lon="9.3071141"><ele>71.0</ele><time>2026-04-25T09:25:34.168Z</time></trkpt><trkpt lat="45.2005833" lon="9.3071658"><ele>71.0</ele><time>2026-04-25T09:25:35.169Z</time></trkpt><trkpt lat="45.2004458" lon="9.3072217"><ele>71.0</ele><time>2026-04-25T09:25:36.168Z</time></trkpt><trkpt lat="45.2003106" lon="9.3072761"><ele>71.0</ele><time>2026-04-25T09:25:37.168Z</time></trkpt><trkpt lat="45.2001723" lon="9.3073315"><ele>71.0</ele><time>2026-04-25T09:25:38.168Z</time></trkpt><trkpt lat="45.2000337" lon="9.3073874"><ele>71.0</ele><time>2026-04-25T09:25:39.17Z</time></trkpt><trkpt lat="45.1999064" lon="9.3074404"><ele>71.0</ele><time>2026-04-25T09:25:40.168Z</time></trkpt><trkpt lat="45.1997935" lon="9.3074927"><ele>70.75</ele><time>2026-04-25T09:25:41.168Z</time></trkpt><trkpt lat="45.1996805" lon="9.3075392"><ele>70.5</ele><time>2026-04-25T09:25:42.169Z</time></trkpt><trkpt lat="45.1995603" lon="9.3075874"><ele>70.25</ele><time>2026-04-25T09:25:43.168Z</time></trkpt><trkpt lat="45.1994242" lon="9.3076387"><ele>70.0</ele><time>2026-04-25T09:25:44.169Z</time></trkpt><trkpt lat="45.1992762" lon="9.3076806"><ele>70.0</ele><time>2026-04-25T09:25:45.168Z</time></trkpt><trkpt lat="45.1991343" lon="9.307709"><ele>70.0</ele><time>2026-04-25T09:25:46.169Z</time></trkpt><trkpt lat="45.1989988" lon="9.3077371"><ele>70.0</ele><time>2026-04-25T09:25:47.168Z</time></trkpt><trkpt lat="45.1988737" lon="9.3077696"><ele>70.0</ele><time>2026-04-25T09:25:48.168Z</time></trkpt><trkpt lat="45.1987559" lon="9.3078009"><ele>69.8</ele><time>2026-04-25T09:25:49.169Z</time></trkpt><trkpt lat="45.1986542" lon="9.3078247"><ele>69.6</ele><time>2026-04-25T09:25:50.169Z</time></trkpt><trkpt lat="45.1985677" lon="9.307844"><ele>69.4</ele><time>2026-04-25T09:25:51.17Z</time></trkpt><trkpt lat="45.1984757" lon="9.3078737"><ele>69.2</ele><time>2026-04-25T09:25:52.169Z</time></trkpt><trkpt lat="45.1983683" lon="9.3078952"><ele>69.0</ele><time>2026-04-25T09:25:53.17Z</time></trkpt><trkpt lat="45.1982395" lon="9.3079171"><ele>69.25</ele><time>2026-04-25T09:25:54.168Z</time></trkpt><trkpt lat="45.1980922" lon="9.3079447"><ele>69.5</ele><time>2026-04-25T09:25:55.17Z</time></trkpt><trkpt lat="45.1979356" lon="9.3079755"><ele>69.75</ele><time>2026-04-25T09:25:56.169Z</time></trkpt><trkpt lat="45.1977979" lon="9.3080106"><ele>70.0</ele><time>2026-04-25T09:25:57.168Z</time></trkpt><trkpt lat="45.1976689" lon="9.3080367"><ele>70.0</ele><time>2026-04-25T09:25:58.17Z</time></trkpt><trkpt lat="45.197543" lon="9.3080573"><ele>70.0</ele><time>2026-04-25T09:25:59.168Z</time></trkpt><trkpt lat="45.1974221" lon="9.3080755"><ele>70.0</ele><time>2026-04-25T09:26:00.17Z</time></trkpt><trkpt lat="45.1973099" lon="9.3080989"><ele>70.0</ele><time>2026-04-25T09:26:01.169Z</time></trkpt><trkpt lat="45.1972048" lon="9.3081186"><ele>70.16666666666666</ele><time>2026-04-25T09:26:02.168Z</time></trkpt><trkpt lat="45.1971054" lon="9.3081453"><ele>70.33333333333333</ele><time>2026-04-25T09:26:03.17Z</time></trkpt><trkpt lat="45.1970158" lon="9.3081713"><ele>70.5</ele><time>2026-04-25T09:26:04.169Z</time></trkpt><trkpt lat="45.1969414" lon="9.3081967"><ele>70.66666666666667</ele><time>2026-04-25T09:26:05.169Z</time></trkpt><trkpt lat="45.1968698" lon="9.3082152"><ele>70.83333333333334</ele><time>2026-04-25T09:26:06.169Z</time></trkpt><trkpt lat="45.1967884" lon="9.3082232"><ele>71.0</ele><time>2026-04-25T09:26:07.168Z</time></trkpt><trkpt lat="45.1966951" lon="9.3082416"><ele>71.0</ele><time>2026-04-25T09:26:09.169Z</time></trkpt><trkpt lat="45.1966345" lon="9.3082934"><ele>71.0</ele><time>2026-04-25T09:26:26.168Z</time></trkpt><trkpt lat="45.1966161" lon="9.3084435"><ele>71.0</ele><time>2026-04-25T09:26:28.168Z</time></trkpt><trkpt lat="45.1966215" lon="9.3085768"><ele>71.0</ele><time>2026-04-25T09:26:29.169Z</time></trkpt><trkpt lat="45.1966387" lon="9.308758"><ele>71.0</ele><time>2026-04-25T09:26:30.168Z</time></trkpt><trkpt lat="45.1966665" lon="9.3089844"><ele>71.0</ele><time>2026-04-25T09:26:31.169Z</time></trkpt><trkpt lat="45.1966875" lon="9.3092524"><ele>71.0</ele><time>2026-04-25T09:26:32.169Z</time></trkpt><trkpt lat="45.1967363" lon="9.3096325"><ele>70.5</ele><time>2026-04-25T09:26:33.169Z</time></trkpt><trkpt lat="45.1967784" lon="9.3100005"><ele>70.0</ele><time>2026-04-25T09:26:34.17Z</time></trkpt><trkpt lat="45.1968248" lon="9.3104093"><ele>69.5</ele><time>2026-04-25T09:26:35.169Z</time></trkpt><trkpt lat="45.1968699" lon="9.3108318"><ele>69.0</ele><time>2026-04-25T09:26:36.168Z</time></trkpt><trkpt lat="45.196909" lon="9.311219"><ele>69.0</ele><time>2026-04-25T09:26:37.168Z</time></trkpt><trkpt lat="45.1969456" lon="9.3115678"><ele>69.0</ele><time>2026-04-25T09:26:38.169Z</time></trkpt><trkpt lat="45.1969775" lon="9.3118918"><ele>69.0</ele><time>2026-04-25T09:26:39.168Z</time></trkpt><trkpt lat="45.1970002" lon="9.3121943"><ele>69.0</ele><time>2026-04-25T09:26:40.168Z</time></trkpt><trkpt lat="45.1969992" lon="9.3124595"><ele>69.0</ele><time>2026-04-25T09:26:41.168Z</time></trkpt><trkpt lat="45.1969711" lon="9.3126939"><ele>69.0</ele><time>2026-04-25T09:26:42.17Z</time></trkpt><trkpt lat="45.1969051" lon="9.3129467"><ele>69.0</ele><time>2026-04-25T09:26:43.168Z</time></trkpt><trkpt lat="45.1968309" lon="9.3131945"><ele>69.0</ele><time>2026-04-25T09:26:44.169Z</time></trkpt><trkpt lat="45.1967527" lon="9.313444"><ele>69.0</ele><time>2026-04-25T09:26:45.169Z</time></trkpt><trkpt lat="45.1966875" lon="9.3136774"><ele>69.0</ele><time>2026-04-25T09:26:46.169Z</time></trkpt><trkpt lat="45.1966263" lon="9.3139105"><ele>69.0</ele><time>2026-04-25T09:26:47.17Z</time></trkpt><trkpt lat="45.1965614" lon="9.3141252"><ele>69.0</ele><time>2026-04-25T09:26:48.169Z</time></trkpt><trkpt lat="45.1964985" lon="9.3143492"><ele>69.0</ele><time>2026-04-25T09:26:49.17Z</time></trkpt><trkpt lat="45.196441" lon="9.3145732"><ele>69.0</ele><time>2026-04-25T09:26:50.168Z</time></trkpt><trkpt lat="45.1963939" lon="9.3147967"><ele>68.25</ele><time>2026-04-25T09:26:51.168Z</time></trkpt><trkpt lat="45.1963415" lon="9.3150225"><ele>67.5</ele><time>2026-04-25T09:26:52.168Z</time></trkpt><trkpt lat="45.1963055" lon="9.3152032"><ele>66.75</ele><time>2026-04-25T09:26:53.17Z</time></trkpt><trkpt lat="45.1963093" lon="9.3153633"><ele>66.0</ele><time>2026-04-25T09:26:54.17Z</time></trkpt><trkpt lat="45.1963301" lon="9.3155411"><ele>65.75</ele><time>2026-04-25T09:26:55.168Z</time></trkpt><trkpt lat="45.1963831" lon="9.3157099"><ele>65.5</ele><time>2026-04-25T09:26:56.168Z</time></trkpt><trkpt lat="45.1964454" lon="9.3158745"><ele>65.25</ele><time>2026-04-25T09:26:57.169Z</time></trkpt><trkpt lat="45.1965073" lon="9.3160282"><ele>65.0</ele><time>2026-04-25T09:26:58.17Z</time></trkpt><trkpt lat="45.1965554" lon="9.3161574"><ele>65.0</ele><time>2026-04-25T09:26:59.169Z</time></trkpt><trkpt lat="45.1965956" lon="9.3162974"><ele>65.0</ele><time>2026-04-25T09:27:00.168Z</time></trkpt><trkpt lat="45.1966098" lon="9.3163932"><ele>65.0</ele><time>2026-04-25T09:27:01.17Z</time></trkpt><trkpt lat="45.1966151" lon="9.3164965"><ele>65.0</ele><time>2026-04-25T09:27:02.169Z</time></trkpt><trkpt lat="45.1966249" lon="9.3166083"><ele>65.0</ele><time>2026-04-25T09:27:03.169Z</time></trkpt><trkpt lat="45.1966347" lon="9.3167089"><ele>65.0</ele><time>2026-04-25T09:27:04.169Z</time></trkpt><trkpt lat="45.1966403" lon="9.3168355"><ele>65.0</ele><time>2026-04-25T09:27:05.169Z</time></trkpt><trkpt lat="45.1966449" lon="9.3169747"><ele>65.0</ele><time>2026-04-25T09:27:06.168Z</time></trkpt><trkpt lat="45.1966549" lon="9.3171184"><ele>65.0</ele><time>2026-04-25T09:27:07.169Z</time></trkpt><trkpt lat="45.1966642" lon="9.3172673"><ele>65.0</ele><time>2026-04-25T09:27:08.169Z</time></trkpt><trkpt lat="45.1966768" lon="9.3174283"><ele>65.0</ele><time>2026-04-25T09:27:09.169Z</time></trkpt><trkpt lat="45.1966763" lon="9.317562"><ele>65.0</ele><time>2026-04-25T09:27:10.168Z</time></trkpt><trkpt lat="45.1966864" lon="9.3177537"><ele>65.0</ele><time>2026-04-25T09:27:11.169Z</time></trkpt><trkpt lat="45.1966928" lon="9.3179142"><ele>65.0</ele><time>2026-04-25T09:27:12.168Z</time></trkpt><trkpt lat="45.1966983" lon="9.3180421"><ele>65.0</ele><time>2026-04-25T09:27:13.17Z</time></trkpt><trkpt lat="45.1967288" lon="9.3181961"><ele>65.0</ele><time>2026-04-25T09:27:15.169Z</time></trkpt><trkpt lat="45.1968027" lon="9.3181463"><ele>65.0</ele><time>2026-04-25T09:27:17.17Z</time></trkpt><trkpt lat="45.1967365" lon="9.3181125"><ele>65.0</ele><time>2026-04-25T09:27:22.17Z</time></trkpt><trkpt lat="45.1966892" lon="9.3179709"><ele>65.0</ele><time>2026-04-25T09:27:25.17Z</time></trkpt><trkpt lat="45.1966943" lon="9.3178734"><ele>65.0</ele><time>2026-04-25T09:27:26.17Z</time></trkpt><trkpt lat="45.1966952" lon="9.3177675"><ele>65.0</ele><time>2026-04-25T09:27:27.169Z</time></trkpt><trkpt lat="45.1966909" lon="9.3176558"><ele>65.0</ele><time>2026-04-25T09:27:28.169Z</time></trkpt><trkpt lat="45.1966895" lon="9.3175375"><ele>65.0</ele><time>2026-04-25T09:27:29.169Z</time></trkpt><trkpt lat="45.1966848" lon="9.317417"><ele>65.0</ele><time>2026-04-25T09:27:30.168Z</time></trkpt><trkpt lat="45.1966813" lon="9.3172977"><ele>65.0</ele><time>2026-04-25T09:27:31.169Z</time></trkpt><trkpt lat="45.1966752" lon="9.3171705"><ele>65.0</ele><time>2026-04-25T09:27:32.169Z</time></trkpt><trkpt lat="45.1966703" lon="9.3170445"><ele>65.0</ele><time>2026-04-25T09:27:33.169Z</time></trkpt><trkpt lat="45.1966673" lon="9.3169224"><ele>65.0</ele><time>2026-04-25T09:27:34.17Z</time></trkpt><trkpt lat="45.1966637" lon="9.3168183"><ele>65.0</ele><time>2026-04-25T09:27:35.169Z</time></trkpt><trkpt lat="45.196655" lon="9.3166539"><ele>65.0</ele><time>2026-04-25T09:27:37.168Z</time></trkpt><trkpt lat="45.196654" lon="9.3165453"><ele>65.0</ele><time>2026-04-25T09:27:39.17Z</time></trkpt><trkpt lat="45.1966888" lon="9.316436"><ele>65.0</ele><time>2026-04-25T09:27:43.169Z</time></trkpt><trkpt lat="45.1966827" lon="9.3163098"><ele>65.0</ele><time>2026-04-25T09:27:45.17Z</time></trkpt><trkpt lat="45.1966338" lon="9.3162076"><ele>65.0</ele><time>2026-04-25T09:27:46.168Z</time></trkpt><trkpt lat="45.1965815" lon="9.3161041"><ele>65.0</ele><time>2026-04-25T09:27:47.169Z</time></trkpt><trkpt lat="45.1965216" lon="9.3159988"><ele>65.0</ele><time>2026-04-25T09:27:48.169Z</time></trkpt><trkpt lat="45.1964636" lon="9.3158727"><ele>65.0</ele><time>2026-04-25T09:27:49.168Z</time></trkpt><trkpt lat="45.1964079" lon="9.3157579"><ele>65.0</ele><time>2026-04-25T09:27:50.169Z</time></trkpt><trkpt lat="45.1963664" lon="9.3156125"><ele>65.16666666666667</ele><time>2026-04-25T09:27:51.169Z</time></trkpt><trkpt lat="45.196354" lon="9.3154734"><ele>65.33333333333334</ele><time>2026-04-25T09:27:52.168Z</time></trkpt><trkpt lat="45.1963422" lon="9.3153364"><ele>65.5</ele><time>2026-04-25T09:27:53.169Z</time></trkpt><trkpt lat="45.1963475" lon="9.3152115"><ele>65.66666666666667</ele><time>2026-04-25T09:27:54.168Z</time></trkpt><trkpt lat="45.196359" lon="9.3150988"><ele>65.83333333333333</ele><time>2026-04-25T09:27:55.168Z</time></trkpt><trkpt lat="45.1963691" lon="9.314998"><ele>66.0</ele><time>2026-04-25T09:27:56.169Z</time></trkpt><trkpt lat="45.196307" lon="9.3148536"><ele>66.0</ele><time>2026-04-25T09:27:58.168Z</time></trkpt><trkpt lat="45.1962207" lon="9.3147901"><ele>66.0</ele><time>2026-04-25T09:28:00.169Z</time></trkpt><trkpt lat="45.1961193" lon="9.3148304"><ele>66.0</ele><time>2026-04-25T09:28:01.169Z</time></trkpt><trkpt lat="45.1960373" lon="9.3148799"><ele>66.0</ele><time>2026-04-25T09:28:02.169Z</time></trkpt><trkpt lat="45.1959371" lon="9.3149505"><ele>66.0</ele><time>2026-04-25T09:28:03.168Z</time></trkpt><trkpt lat="45.1958236" lon="9.3150282"><ele>66.0</ele><time>2026-04-25T09:28:04.17Z</time></trkpt><trkpt lat="45.1957032" lon="9.3151137"><ele>66.0</ele><time>2026-04-25T09:28:05.17Z</time></trkpt><trkpt lat="45.1955796" lon="9.3152081"><ele>66.0</ele><time>2026-04-25T09:28:06.169Z</time></trkpt><trkpt lat="45.1954511" lon="9.3152988"><ele>66.0</ele><time>2026-04-25T09:28:07.169Z</time></trkpt><trkpt lat="45.1953236" lon="9.3153866"><ele>66.25</ele><time>2026-04-25T09:28:08.169Z</time></trkpt><trkpt lat="45.1951976" lon="9.3154927"><ele>66.5</ele><time>2026-04-25T09:28:09.169Z</time></trkpt><trkpt lat="45.1950816" lon="9.315635"><ele>66.75</ele><time>2026-04-25T09:28:10.169Z</time></trkpt><trkpt lat="45.1949641" lon="9.3157637"><ele>67.0</ele><time>2026-04-25T09:28:11.168Z</time></trkpt><trkpt lat="45.1948473" lon="9.3159102"><ele>67.25</ele><time>2026-04-25T09:28:12.169Z</time></trkpt><trkpt lat="45.1947312" lon="9.3160242"><ele>67.5</ele><time>2026-04-25T09:28:13.168Z</time></trkpt><trkpt lat="45.1946059" lon="9.3161122"><ele>67.75</ele><time>2026-04-25T09:28:14.169Z</time></trkpt><trkpt lat="45.1944787" lon="9.3161739"><ele>68.0</ele><time>2026-04-25T09:28:15.168Z</time></trkpt><trkpt lat="45.1943405" lon="9.3162155"><ele>68.0</ele><time>2026-04-25T09:28:16.169Z</time></trkpt><trkpt lat="45.1941899" lon="9.3162463"><ele>68.0</ele><time>2026-04-25T09:28:17.168Z</time></trkpt><trkpt lat="45.1940382" lon="9.3162739"><ele>68.0</ele><time>2026-04-25T09:28:18.168Z</time></trkpt><trkpt lat="45.1938962" lon="9.3163127"><ele>68.0</ele><time>2026-04-25T09:28:19.169Z</time></trkpt><trkpt lat="45.1937069" lon="9.3163337"><ele>68.0</ele><time>2026-04-25T09:28:20.169Z</time></trkpt><trkpt lat="45.1935431" lon="9.3163787"><ele>68.0</ele><time>2026-04-25T09:28:21.169Z</time></trkpt><trkpt lat="45.1933762" lon="9.3164305"><ele>68.0</ele><time>2026-04-25T09:28:22.169Z</time></trkpt><trkpt lat="45.1932066" lon="9.3164896"><ele>68.0</ele><time>2026-04-25T09:28:23.169Z</time></trkpt><trkpt lat="45.1930395" lon="9.3165492"><ele>68.0</ele><time>2026-04-25T09:28:24.169Z</time></trkpt><trkpt lat="45.1928702" lon="9.3166108"><ele>68.33333333333334</ele><time>2026-04-25T09:28:25.169Z</time></trkpt><trkpt lat="45.1926999" lon="9.3166716"><ele>68.66666666666667</ele><time>2026-04-25T09:28:26.169Z</time></trkpt><trkpt lat="45.1925256" lon="9.3167361"><ele>69.0</ele><time>2026-04-25T09:28:27.169Z</time></trkpt><trkpt lat="45.1923556" lon="9.3167998"><ele>69.33333333333333</ele><time>2026-04-25T09:28:28.168Z</time></trkpt><trkpt lat="45.1921851" lon="9.3168684"><ele>69.66666666666666</ele><time>2026-04-25T09:28:29.169Z</time></trkpt><trkpt lat="45.1920192" lon="9.316941"><ele>70.0</ele><time>2026-04-25T09:28:30.168Z</time></trkpt><trkpt lat="45.1918545" lon="9.3170247"><ele>70.0</ele><time>2026-04-25T09:28:31.17Z</time></trkpt><trkpt lat="45.1917028" lon="9.3171347"><ele>70.0</ele><time>2026-04-25T09:28:32.169Z</time></trkpt><trkpt lat="45.191562" lon="9.3172642"><ele>70.0</ele><time>2026-04-25T09:28:33.168Z</time></trkpt><trkpt lat="45.1914282" lon="9.3174127"><ele>69.0</ele><time>2026-04-25T09:28:34.17Z</time></trkpt><trkpt lat="45.1913067" lon="9.3175694"><ele>68.0</ele><time>2026-04-25T09:28:35.17Z</time></trkpt><trkpt lat="45.191187" lon="9.3177278"><ele>67.0</ele><time>2026-04-25T09:28:36.169Z</time></trkpt><trkpt lat="45.1910418" lon="9.3179012"><ele>67.0</ele><time>2026-04-25T09:28:37.169Z</time></trkpt><trkpt lat="45.1908955" lon="9.3180485"><ele>67.0</ele><time>2026-04-25T09:28:38.168Z</time></trkpt><trkpt lat="45.1907487" lon="9.3181676"><ele>67.0</ele><time>2026-04-25T09:28:39.168Z</time></trkpt><trkpt lat="45.1906066" lon="9.3182783"><ele>66.5</ele><time>2026-04-25T09:28:40.168Z</time></trkpt><trkpt lat="45.1904662" lon="9.3183861"><ele>66.0</ele><time>2026-04-25T09:28:41.168Z</time></trkpt><trkpt lat="45.190329" lon="9.3184661"><ele>65.5</ele><time>2026-04-25T09:28:42.169Z</time></trkpt><trkpt lat="45.190194" lon="9.3185197"><ele>65.0</ele><time>2026-04-25T09:28:43.168Z</time></trkpt><trkpt lat="45.190062" lon="9.3185558"><ele>65.0</ele><time>2026-04-25T09:28:44.17Z</time></trkpt><trkpt lat="45.1899322" lon="9.3185768"><ele>65.0</ele><time>2026-04-25T09:28:45.169Z</time></trkpt><trkpt lat="45.1897972" lon="9.3185905"><ele>65.0</ele><time>2026-04-25T09:28:46.168Z</time></trkpt><trkpt lat="45.1896585" lon="9.3185932"><ele>65.0</ele><time>2026-04-25T09:28:47.168Z</time></trkpt><trkpt lat="45.1895197" lon="9.3185808"><ele>65.0</ele><time>2026-04-25T09:28:48.169Z</time></trkpt><trkpt lat="45.1893856" lon="9.318556"><ele>65.0</ele><time>2026-04-25T09:28:49.168Z</time></trkpt><trkpt lat="45.1892517" lon="9.3185237"><ele>65.0</ele><time>2026-04-25T09:28:50.169Z</time></trkpt><trkpt lat="45.1891224" lon="9.3184807"><ele>65.0</ele><time>2026-04-25T09:28:51.169Z</time></trkpt><trkpt lat="45.1889945" lon="9.3184238"><ele>66.25</ele><time>2026-04-25T09:28:52.169Z</time></trkpt><trkpt lat="45.1888702" lon="9.3183582"><ele>67.5</ele><time>2026-04-25T09:28:53.169Z</time></trkpt><trkpt lat="45.1887461" lon="9.3182868"><ele>68.75</ele><time>2026-04-25T09:28:54.169Z</time></trkpt><trkpt lat="45.1886154" lon="9.3182201"><ele>70.0</ele><time>2026-04-25T09:28:55.168Z</time></trkpt><trkpt lat="45.1884833" lon="9.3181558"><ele>70.0</ele><time>2026-04-25T09:28:56.169Z</time></trkpt><trkpt lat="45.1883498" lon="9.3180886"><ele>70.0</ele><time>2026-04-25T09:28:57.169Z</time></trkpt><trkpt lat="45.1882115" lon="9.318021"><ele>70.0</ele><time>2026-04-25T09:28:58.169Z</time></trkpt><trkpt lat="45.1880662" lon="9.3179584"><ele>70.0</ele><time>2026-04-25T09:28:59.168Z</time></trkpt><trkpt lat="45.1879262" lon="9.3178873"><ele>69.33333333333333</ele><time>2026-04-25T09:29:00.168Z</time></trkpt><trkpt lat="45.187782" lon="9.3178101"><ele>68.66666666666667</ele><time>2026-04-25T09:29:01.168Z</time></trkpt><trkpt lat="45.1876349" lon="9.3177267"><ele>68.0</ele><time>2026-04-25T09:29:02.169Z</time></trkpt><trkpt lat="45.1874844" lon="9.3176463"><ele>68.0</ele><time>2026-04-25T09:29:03.17Z</time></trkpt><trkpt lat="45.1873277" lon="9.317568"><ele>68.0</ele><time>2026-04-25T09:29:04.17Z</time></trkpt><trkpt lat="45.1871698" lon="9.317487"><ele>68.0</ele><time>2026-04-25T09:29:05.169Z</time></trkpt><trkpt lat="45.1870077" lon="9.3174031"><ele>68.0</ele><time>2026-04-25T09:29:06.168Z</time></trkpt><trkpt lat="45.1868514" lon="9.3173239"><ele>68.0</ele><time>2026-04-25T09:29:07.169Z</time></trkpt><trkpt lat="45.1866829" lon="9.3172317"><ele>68.0</ele><time>2026-04-25T09:29:08.168Z</time></trkpt><trkpt lat="45.1865173" lon="9.3171369"><ele>68.66666666666667</ele><time>2026-04-25T09:29:09.169Z</time></trkpt><trkpt lat="45.186355" lon="9.3170437"><ele>69.33333333333333</ele><time>2026-04-25T09:29:10.168Z</time></trkpt><trkpt lat="45.186178" lon="9.3169514"><ele>70.0</ele><time>2026-04-25T09:29:11.169Z</time></trkpt><trkpt lat="45.1860123" lon="9.3168584"><ele>70.0</ele><time>2026-04-25T09:29:12.169Z</time></trkpt><trkpt lat="45.1858345" lon="9.3167687"><ele>70.0</ele><time>2026-04-25T09:29:13.169Z</time></trkpt><trkpt lat="45.1856593" lon="9.3166845"><ele>70.0</ele><time>2026-04-25T09:29:14.168Z</time></trkpt><trkpt lat="45.185483" lon="9.3165972"><ele>69.66666666666666</ele><time>2026-04-25T09:29:15.169Z</time></trkpt><trkpt lat="45.1853077" lon="9.3165017"><ele>69.33333333333333</ele><time>2026-04-25T09:29:16.168Z</time></trkpt><trkpt lat="45.1851269" lon="9.3164052"><ele>69.0</ele><time>2026-04-25T09:29:17.169Z</time></trkpt><trkpt lat="45.1849476" lon="9.3163105"><ele>69.33333333333333</ele><time>2026-04-25T09:29:18.169Z</time></trkpt><trkpt lat="45.1847641" lon="9.3162135"><ele>69.66666666666666</ele><time>2026-04-25T09:29:19.169Z</time></trkpt><trkpt lat="45.1845794" lon="9.3161144"><ele>70.0</ele><time>2026-04-25T09:29:20.168Z</time></trkpt><trkpt lat="45.1843936" lon="9.3160131"><ele>70.0</ele><time>2026-04-25T09:29:21.168Z</time></trkpt><trkpt lat="45.1842129" lon="9.3159162"><ele>70.0</ele><time>2026-04-25T09:29:22.169Z</time></trkpt><trkpt lat="45.1840196" lon="9.3158115"><ele>70.0</ele><time>2026-04-25T09:29:23.169Z</time></trkpt><trkpt lat="45.1838232" lon="9.3157056"><ele>70.0</ele><time>2026-04-25T09:29:24.169Z</time></trkpt><trkpt lat="45.1836297" lon="9.3155975"><ele>70.0</ele><time>2026-04-25T09:29:25.169Z</time></trkpt><trkpt lat="45.1834334" lon="9.3154914"><ele>70.0</ele><time>2026-04-25T09:29:26.17Z</time></trkpt><trkpt lat="45.1832391" lon="9.3153777"><ele>70.0</ele><time>2026-04-25T09:29:27.17Z</time></trkpt><trkpt lat="45.1830546" lon="9.315252"><ele>70.0</ele><time>2026-04-25T09:29:28.17Z</time></trkpt><trkpt lat="45.1828694" lon="9.3151249"><ele>70.0</ele><time>2026-04-25T09:29:29.169Z</time></trkpt><trkpt lat="45.1826808" lon="9.3149973"><ele>70.0</ele><time>2026-04-25T09:29:30.17Z</time></trkpt><trkpt lat="45.1824846" lon="9.3148654"><ele>70.0</ele><time>2026-04-25T09:29:31.169Z</time></trkpt><trkpt lat="45.1822767" lon="9.3147269"><ele>70.0</ele><time>2026-04-25T09:29:32.17Z</time></trkpt><trkpt lat="45.1820748" lon="9.3145858"><ele>70.0</ele><time>2026-04-25T09:29:33.168Z</time></trkpt><trkpt lat="45.1818776" lon="9.3144514"><ele>70.0</ele><time>2026-04-25T09:29:34.169Z</time></trkpt><trkpt lat="45.1816808" lon="9.3143212"><ele>70.0</ele><time>2026-04-25T09:29:35.169Z</time></trkpt><trkpt lat="45.181487" lon="9.3141987"><ele>70.0</ele><time>2026-04-25T09:29:36.168Z</time></trkpt><trkpt lat="45.1812884" lon="9.3140966"><ele>70.0</ele><time>2026-04-25T09:29:37.169Z</time></trkpt><trkpt lat="45.1810844" lon="9.3140119"><ele>70.0</ele><time>2026-04-25T09:29:38.169Z</time></trkpt><trkpt lat="45.1808736" lon="9.3139358"><ele>70.33333333333333</ele><time>2026-04-25T09:29:39.168Z</time></trkpt><trkpt lat="45.1806581" lon="9.3138667"><ele>70.66666666666667</ele><time>2026-04-25T09:29:40.169Z</time></trkpt><trkpt lat="45.1804474" lon="9.313797"><ele>71.0</ele><time>2026-04-25T09:29:41.17Z</time></trkpt><trkpt lat="45.1802415" lon="9.3137279"><ele>71.0</ele><time>2026-04-25T09:29:42.168Z</time></trkpt><trkpt lat="45.1800415" lon="9.3136611"><ele>71.0</ele><time>2026-04-25T09:29:43.169Z</time></trkpt><trkpt lat="45.1798496" lon="9.3135917"><ele>71.0</ele><time>2026-04-25T09:29:44.168Z</time></trkpt><trkpt lat="45.1796646" lon="9.3135243"><ele>71.66666666666667</ele><time>2026-04-25T09:29:45.169Z</time></trkpt><trkpt lat="45.1794788" lon="9.3134655"><ele>72.33333333333333</ele><time>2026-04-25T09:29:46.168Z</time></trkpt><trkpt lat="45.1792875" lon="9.3134068"><ele>73.0</ele><time>2026-04-25T09:29:47.17Z</time></trkpt><trkpt lat="45.1790974" lon="9.3133475"><ele>73.0</ele><time>2026-04-25T09:29:48.169Z</time></trkpt><trkpt lat="45.1789096" lon="9.3132859"><ele>73.0</ele><time>2026-04-25T09:29:49.17Z</time></trkpt><trkpt lat="45.1787292" lon="9.3132308"><ele>73.0</ele><time>2026-04-25T09:29:50.169Z</time></trkpt><trkpt lat="45.1785603" lon="9.3131764"><ele>73.0</ele><time>2026-04-25T09:29:51.168Z</time></trkpt><trkpt lat="45.1784062" lon="9.313127"><ele>73.0</ele><time>2026-04-25T09:29:52.17Z</time></trkpt><trkpt lat="45.178275" lon="9.3130834"><ele>73.0</ele><time>2026-04-25T09:29:53.168Z</time></trkpt><trkpt lat="45.1781655" lon="9.3130755"><ele>73.0</ele><time>2026-04-25T09:29:54.169Z</time></trkpt><trkpt lat="45.178073" lon="9.3131246"><ele>73.0</ele><time>2026-04-25T09:29:55.17Z</time></trkpt><trkpt lat="45.1779834" lon="9.3131947"><ele>73.0</ele><time>2026-04-25T09:29:56.168Z</time></trkpt><trkpt lat="45.177915" lon="9.3133228"><ele>73.0</ele><time>2026-04-25T09:29:57.17Z</time></trkpt><trkpt lat="45.1778774" lon="9.3134647"><ele>73.0</ele><time>2026-04-25T09:29:58.169Z</time></trkpt><trkpt lat="45.1778409" lon="9.3137262"><ele>73.25</ele><time>2026-04-25T09:29:59.169Z</time></trkpt><trkpt lat="45.1778021" lon="9.3139536"><ele>73.5</ele><time>2026-04-25T09:30:00.168Z</time></trkpt><trkpt lat="45.1777668" lon="9.3141397"><ele>73.75</ele><time>2026-04-25T09:30:01.169Z</time></trkpt><trkpt lat="45.1777431" lon="9.3143081"><ele>74.0</ele><time>2026-04-25T09:30:02.169Z</time></trkpt><trkpt lat="45.1777012" lon="9.3144576"><ele>74.0</ele><time>2026-04-25T09:30:03.168Z</time></trkpt><trkpt lat="45.1776539" lon="9.3145632"><ele>74.0</ele><time>2026-04-25T09:30:04.169Z</time></trkpt><trkpt lat="45.1776056" lon="9.314662"><ele>74.0</ele><time>2026-04-25T09:30:05.169Z</time></trkpt><trkpt lat="45.1775035" lon="9.3146643"><ele>74.0</ele><time>2026-04-25T09:30:08.169Z</time></trkpt><trkpt lat="45.1774275" lon="9.3145845"><ele>74.0</ele><time>2026-04-25T09:30:09.169Z</time></trkpt><trkpt lat="45.1773512" lon="9.3145058"><ele>74.0</ele><time>2026-04-25T09:30:10.169Z</time></trkpt><trkpt lat="45.1772716" lon="9.3144288"><ele>74.0</ele><time>2026-04-25T09:30:11.17Z</time></trkpt><trkpt lat="45.1770854" lon="9.3143098"><ele>74.0</ele><time>2026-04-25T09:30:12.169Z</time></trkpt><trkpt lat="45.1769672" lon="9.314218"><ele>74.0</ele><time>2026-04-25T09:30:13.169Z</time></trkpt><trkpt lat="45.1768592" lon="9.3141641"><ele>74.0</ele><time>2026-04-25T09:30:14.169Z</time></trkpt><trkpt lat="45.1767687" lon="9.3141387"><ele>74.0</ele><time>2026-04-25T09:30:15.168Z</time></trkpt><trkpt lat="45.1766962" lon="9.3142287"><ele>74.0</ele><time>2026-04-25T09:30:16.169Z</time></trkpt><trkpt lat="45.1766435" lon="9.3143547"><ele>74.0</ele><time>2026-04-25T09:30:17.169Z</time></trkpt><trkpt lat="45.1765978" lon="9.314543"><ele>74.0</ele><time>2026-04-25T09:30:18.169Z</time></trkpt><trkpt lat="45.1765603" lon="9.314762"><ele>74.0</ele><time>2026-04-25T09:30:19.169Z</time></trkpt><trkpt lat="45.176516" lon="9.3149756"><ele>74.0</ele><time>2026-04-25T09:30:20.168Z</time></trkpt><trkpt lat="45.176475" lon="9.3151958"><ele>74.0</ele><time>2026-04-25T09:30:21.169Z</time></trkpt><trkpt lat="45.1764383" lon="9.315416"><ele>74.0</ele><time>2026-04-25T09:30:22.169Z</time></trkpt><trkpt lat="45.1764019" lon="9.3156287"><ele>74.0</ele><time>2026-04-25T09:30:23.169Z</time></trkpt><trkpt lat="45.1763668" lon="9.3158277"><ele>74.0</ele><time>2026-04-25T09:30:24.169Z</time></trkpt><trkpt lat="45.1763355" lon="9.3160164"><ele>74.0</ele><time>2026-04-25T09:30:25.168Z</time></trkpt><trkpt lat="45.1763117" lon="9.316192"><ele>74.0</ele><time>2026-04-25T09:30:26.169Z</time></trkpt><trkpt lat="45.1762913" lon="9.3163539"><ele>74.0</ele><time>2026-04-25T09:30:27.169Z</time></trkpt><trkpt lat="45.1762719" lon="9.3164919"><ele>74.0</ele><time>2026-04-25T09:30:28.169Z</time></trkpt><trkpt lat="45.176254" lon="9.316615"><ele>74.0</ele><time>2026-04-25T09:30:29.168Z</time></trkpt><trkpt lat="45.1762356" lon="9.3167157"><ele>74.0</ele><time>2026-04-25T09:30:30.169Z</time></trkpt><trkpt lat="45.1761899" lon="9.3167923"><ele>74.0</ele><time>2026-04-25T09:30:31.169Z</time></trkpt><trkpt lat="45.1761181" lon="9.3168553"><ele>74.0</ele><time>2026-04-25T09:30:32.17Z</time></trkpt><trkpt lat="45.1760561" lon="9.3169248"><ele>74.0</ele><time>2026-04-25T09:30:33.169Z</time></trkpt><trkpt lat="45.1759794" lon="9.3169703"><ele>74.0</ele><time>2026-04-25T09:30:34.169Z</time></trkpt><trkpt lat="45.175884" lon="9.3169772"><ele>74.0</ele><time>2026-04-25T09:30:35.168Z</time></trkpt><trkpt lat="45.1757722" lon="9.3169344"><ele>74.0</ele><time>2026-04-25T09:30:36.168Z</time></trkpt><trkpt lat="45.1756595" lon="9.3168811"><ele>73.75</ele><time>2026-04-25T09:30:37.168Z</time></trkpt><trkpt lat="45.175549" lon="9.3168702"><ele>73.5</ele><time>2026-04-25T09:30:38.17Z</time></trkpt><trkpt lat="45.1754279" lon="9.3168543"><ele>73.25</ele><time>2026-04-25T09:30:39.168Z</time></trkpt><trkpt lat="45.1753012" lon="9.3168354"><ele>73.0</ele><time>2026-04-25T09:30:40.168Z</time></trkpt><trkpt lat="45.1751628" lon="9.3168143"><ele>73.0</ele><time>2026-04-25T09:30:41.169Z</time></trkpt><trkpt lat="45.1749828" lon="9.3167863"><ele>73.0</ele><time>2026-04-25T09:30:42.168Z</time></trkpt><trkpt lat="45.1748424" lon="9.3167597"><ele>73.0</ele><time>2026-04-25T09:30:43.169Z</time></trkpt><trkpt lat="45.1747325" lon="9.3167319"><ele>73.0</ele><time>2026-04-25T09:30:44.168Z</time></trkpt><trkpt lat="45.1746555" lon="9.31671"><ele>73.0</ele><time>2026-04-25T09:30:45.169Z</time></trkpt><trkpt lat="45.1745559" lon="9.3167133"><ele>73.0</ele><time>2026-04-25T09:30:47.169Z</time></trkpt><trkpt lat="45.1744987" lon="9.3169051"><ele>73.0</ele><time>2026-04-25T09:30:50.168Z</time></trkpt><trkpt lat="45.1744582" lon="9.3170987"><ele>73.0</ele><time>2026-04-25T09:30:51.169Z</time></trkpt><trkpt lat="45.1744564" lon="9.3173191"><ele>73.0</ele><time>2026-04-25T09:30:52.168Z</time></trkpt><trkpt lat="45.1744141" lon="9.3174917"><ele>73.0</ele><time>2026-04-25T09:30:53.168Z</time></trkpt><trkpt lat="45.174383" lon="9.3176609"><ele>73.0</ele><time>2026-04-25T09:30:54.169Z</time></trkpt><trkpt lat="45.1743505" lon="9.3178537"><ele>73.0</ele><time>2026-04-25T09:30:55.169Z</time></trkpt><trkpt lat="45.1743193" lon="9.3180379"><ele>72.75</ele><time>2026-04-25T09:30:56.169Z</time></trkpt><trkpt lat="45.174286" lon="9.3182061"><ele>72.5</ele><time>2026-04-25T09:30:57.168Z</time></trkpt><trkpt lat="45.1742512" lon="9.3183902"><ele>72.25</ele><time>2026-04-25T09:30:58.168Z</time></trkpt><trkpt lat="45.1742158" lon="9.3185702"><ele>72.0</ele><time>2026-04-25T09:30:59.169Z</time></trkpt><trkpt lat="45.1741859" lon="9.3187388"><ele>71.5</ele><time>2026-04-25T09:31:00.168Z</time></trkpt><trkpt lat="45.1741536" lon="9.3189295"><ele>71.0</ele><time>2026-04-25T09:31:01.168Z</time></trkpt><trkpt lat="45.1741134" lon="9.3191103"><ele>70.5</ele><time>2026-04-25T09:31:02.17Z</time></trkpt><trkpt lat="45.1740814" lon="9.3193018"><ele>70.0</ele><time>2026-04-25T09:31:03.169Z</time></trkpt><trkpt lat="45.174047" lon="9.3194978"><ele>70.25</ele><time>2026-04-25T09:31:04.168Z</time></trkpt><trkpt lat="45.1740098" lon="9.3196934"><ele>70.5</ele><time>2026-04-25T09:31:05.168Z</time></trkpt><trkpt lat="45.1739727" lon="9.3198834"><ele>70.75</ele><time>2026-04-25T09:31:06.17Z</time></trkpt><trkpt lat="45.1739344" lon="9.3200782"><ele>71.0</ele><time>2026-04-25T09:31:07.17Z</time></trkpt><trkpt lat="45.1739003" lon="9.3202713"><ele>71.0</ele><time>2026-04-25T09:31:08.169Z</time></trkpt><trkpt lat="45.1738639" lon="9.3204672"><ele>71.0</ele><time>2026-04-25T09:31:09.169Z</time></trkpt><trkpt lat="45.1738324" lon="9.3206655"><ele>71.0</ele><time>2026-04-25T09:31:10.169Z</time></trkpt><trkpt lat="45.1737952" lon="9.3208653"><ele>71.0</ele><time>2026-04-25T09:31:11.169Z</time></trkpt><trkpt lat="45.1737581" lon="9.3210671"><ele>71.0</ele><time>2026-04-25T09:31:12.168Z</time></trkpt><trkpt lat="45.1737247" lon="9.3212668"><ele>71.0</ele><time>2026-04-25T09:31:13.169Z</time></trkpt><trkpt lat="45.1736882" lon="9.3214656"><ele>71.0</ele><time>2026-04-25T09:31:14.168Z</time></trkpt><trkpt lat="45.1736562" lon="9.3216601"><ele>71.0</ele><time>2026-04-25T09:31:15.169Z</time></trkpt><trkpt lat="45.173631" lon="9.3218526"><ele>71.0</ele><time>2026-04-25T09:31:16.169Z</time></trkpt><trkpt lat="45.1735872" lon="9.3220523"><ele>71.0</ele><time>2026-04-25T09:31:17.169Z</time></trkpt><trkpt lat="45.1735565" lon="9.3222416"><ele>71.0</ele><time>2026-04-25T09:31:18.17Z</time></trkpt><trkpt lat="45.1735288" lon="9.3224337"><ele>71.0</ele><time>2026-04-25T09:31:19.169Z</time></trkpt><trkpt lat="45.1734904" lon="9.3226257"><ele>71.0</ele><time>2026-04-25T09:31:20.169Z</time></trkpt><trkpt lat="45.1734433" lon="9.3228338"><ele>71.0</ele><time>2026-04-25T09:31:21.168Z</time></trkpt><trkpt lat="45.1733839" lon="9.3230397"><ele>71.0</ele><time>2026-04-25T09:31:22.168Z</time></trkpt><trkpt lat="45.1733187" lon="9.3232547"><ele>71.0</ele><time>2026-04-25T09:31:23.17Z</time></trkpt><trkpt lat="45.1732456" lon="9.3234755"><ele>71.0</ele><time>2026-04-25T09:31:24.168Z</time></trkpt><trkpt lat="45.1731818" lon="9.3236781"><ele>71.0</ele><time>2026-04-25T09:31:25.17Z</time></trkpt><trkpt lat="45.1731199" lon="9.323891"><ele>71.0</ele><time>2026-04-25T09:31:26.17Z</time></trkpt><trkpt lat="45.1730529" lon="9.3240972"><ele>71.0</ele><time>2026-04-25T09:31:27.168Z</time></trkpt><trkpt lat="45.1729813" lon="9.3243161"><ele>71.0</ele><time>2026-04-25T09:31:28.168Z</time></trkpt><trkpt lat="45.1729172" lon="9.3245269"><ele>71.0</ele><time>2026-04-25T09:31:29.169Z</time></trkpt><trkpt lat="45.1728585" lon="9.3247216"><ele>71.0</ele><time>2026-04-25T09:31:30.17Z</time></trkpt><trkpt lat="45.1728017" lon="9.3249237"><ele>71.0</ele><time>2026-04-25T09:31:31.17Z</time></trkpt><trkpt lat="45.1727366" lon="9.32513"><ele>71.0</ele><time>2026-04-25T09:31:32.17Z</time></trkpt><trkpt lat="45.1726752" lon="9.3253419"><ele>71.0</ele><time>2026-04-25T09:31:33.169Z</time></trkpt><trkpt lat="45.1726181" lon="9.3255548"><ele>71.0</ele><time>2026-04-25T09:31:34.168Z</time></trkpt><trkpt lat="45.172562" lon="9.325777"><ele>71.0</ele><time>2026-04-25T09:31:35.168Z</time></trkpt><trkpt lat="45.172507" lon="9.3260071"><ele>71.0</ele><time>2026-04-25T09:31:36.169Z</time></trkpt><trkpt lat="45.1724511" lon="9.3262439"><ele>71.0</ele><time>2026-04-25T09:31:37.169Z</time></trkpt><trkpt lat="45.1723974" lon="9.3264749"><ele>70.66666666666667</ele><time>2026-04-25T09:31:38.169Z</time></trkpt><trkpt lat="45.1723435" lon="9.3266958"><ele>70.33333333333333</ele><time>2026-04-25T09:31:39.169Z</time></trkpt><trkpt lat="45.1722807" lon="9.3269303"><ele>70.0</ele><time>2026-04-25T09:31:40.169Z</time></trkpt><trkpt lat="45.1722241" lon="9.3271583"><ele>70.0</ele><time>2026-04-25T09:31:41.169Z</time></trkpt><trkpt lat="45.1721683" lon="9.3273799"><ele>70.0</ele><time>2026-04-25T09:31:42.17Z</time></trkpt><trkpt lat="45.1721174" lon="9.3275979"><ele>70.0</ele><time>2026-04-25T09:31:43.169Z</time></trkpt><trkpt lat="45.1720644" lon="9.3278215"><ele>70.0</ele><time>2026-04-25T09:31:44.169Z</time></trkpt><trkpt lat="45.1720139" lon="9.3280198"><ele>70.0</ele><time>2026-04-25T09:31:45.17Z</time></trkpt><trkpt lat="45.171962" lon="9.3282116"><ele>70.0</ele><time>2026-04-25T09:31:46.169Z</time></trkpt><trkpt lat="45.1718978" lon="9.3284054"><ele>70.0</ele><time>2026-04-25T09:31:47.169Z</time></trkpt><trkpt lat="45.1718287" lon="9.3285899"><ele>70.0</ele><time>2026-04-25T09:31:48.169Z</time></trkpt><trkpt lat="45.1717261" lon="9.3287872"><ele>70.0</ele><time>2026-04-25T09:31:49.17Z</time></trkpt><trkpt lat="45.1716106" lon="9.3289858"><ele>70.0</ele><time>2026-04-25T09:31:50.169Z</time></trkpt><trkpt lat="45.1714982" lon="9.3291825"><ele>70.0</ele><time>2026-04-25T09:31:51.169Z</time></trkpt><trkpt lat="45.1713791" lon="9.3293747"><ele>70.0</ele><time>2026-04-25T09:31:52.169Z</time></trkpt><trkpt lat="45.1712658" lon="9.3295604"><ele>70.0</ele><time>2026-04-25T09:31:53.168Z</time></trkpt><trkpt lat="45.1711553" lon="9.3297499"><ele>70.0</ele><time>2026-04-25T09:31:54.168Z</time></trkpt><trkpt lat="45.1710477" lon="9.3299384"><ele>70.0</ele><time>2026-04-25T09:31:55.168Z</time></trkpt><trkpt lat="45.1709499" lon="9.3301168"><ele>70.0</ele><time>2026-04-25T09:31:56.17Z</time></trkpt><trkpt lat="45.1708451" lon="9.3302952"><ele>70.0</ele><time>2026-04-25T09:31:57.169Z</time></trkpt><trkpt lat="45.1707391" lon="9.3304882"><ele>70.0</ele><time>2026-04-25T09:31:58.168Z</time></trkpt><trkpt lat="45.1706393" lon="9.3306593"><ele>70.0</ele><time>2026-04-25T09:31:59.169Z</time></trkpt><trkpt lat="45.1705254" lon="9.330854"><ele>69.66666666666666</ele><time>2026-04-25T09:32:00.169Z</time></trkpt><trkpt lat="45.1704204" lon="9.331036"><ele>69.33333333333333</ele><time>2026-04-25T09:32:01.168Z</time></trkpt><trkpt lat="45.1703088" lon="9.3312282"><ele>69.0</ele><time>2026-04-25T09:32:02.169Z</time></trkpt><trkpt lat="45.1701992" lon="9.3314163"><ele>69.0</ele><time>2026-04-25T09:32:03.169Z</time></trkpt><trkpt lat="45.1700904" lon="9.3316068"><ele>69.0</ele><time>2026-04-25T09:32:04.168Z</time></trkpt><trkpt lat="45.1699861" lon="9.3317909"><ele>69.0</ele><time>2026-04-25T09:32:05.17Z</time></trkpt><trkpt lat="45.1698905" lon="9.3319685"><ele>69.33333333333333</ele><time>2026-04-25T09:32:06.168Z</time></trkpt><trkpt lat="45.169789" lon="9.3321478"><ele>69.66666666666666</ele><time>2026-04-25T09:32:07.168Z</time></trkpt><trkpt lat="45.1696808" lon="9.3323311"><ele>70.0</ele><time>2026-04-25T09:32:08.168Z</time></trkpt><trkpt lat="45.169576" lon="9.332508"><ele>70.66666666666666</ele><time>2026-04-25T09:32:09.169Z</time></trkpt><trkpt lat="45.169458" lon="9.3327201"><ele>71.33333333333333</ele><time>2026-04-25T09:32:10.168Z</time></trkpt><trkpt lat="45.1693329" lon="9.3329411"><ele>72.0</ele><time>2026-04-25T09:32:11.169Z</time></trkpt><trkpt lat="45.1692014" lon="9.3331603"><ele>72.0</ele><time>2026-04-25T09:32:12.169Z</time></trkpt><trkpt lat="45.1690825" lon="9.3333603"><ele>72.0</ele><time>2026-04-25T09:32:13.169Z</time></trkpt><trkpt lat="45.1689575" lon="9.3335607"><ele>72.0</ele><time>2026-04-25T09:32:14.169Z</time></trkpt><trkpt lat="45.1688463" lon="9.3337532"><ele>71.66666666666667</ele><time>2026-04-25T09:32:15.168Z</time></trkpt><trkpt lat="45.1687311" lon="9.3339519"><ele>71.33333333333334</ele><time>2026-04-25T09:32:16.168Z</time></trkpt><trkpt lat="45.1686215" lon="9.3341413"><ele>71.0</ele><time>2026-04-25T09:32:17.168Z</time></trkpt><trkpt lat="45.1685184" lon="9.3343236"><ele>71.0</ele><time>2026-04-25T09:32:18.169Z</time></trkpt><trkpt lat="45.1684147" lon="9.3345046"><ele>71.0</ele><time>2026-04-25T09:32:19.168Z</time></trkpt><trkpt lat="45.1683187" lon="9.3346787"><ele>71.0</ele><time>2026-04-25T09:32:20.169Z</time></trkpt><trkpt lat="45.1682182" lon="9.3348397"><ele>71.0</ele><time>2026-04-25T09:32:21.168Z</time></trkpt><trkpt lat="45.1681202" lon="9.334998"><ele>71.0</ele><time>2026-04-25T09:32:22.169Z</time></trkpt><trkpt lat="45.1680206" lon="9.3351486"><ele>71.0</ele><time>2026-04-25T09:32:23.169Z</time></trkpt><trkpt lat="45.1679276" lon="9.3352978"><ele>71.0</ele><time>2026-04-25T09:32:24.17Z</time></trkpt><trkpt lat="45.1678505" lon="9.3354438"><ele>71.5</ele><time>2026-04-25T09:32:25.169Z</time></trkpt><trkpt lat="45.1677737" lon="9.3356015"><ele>72.0</ele><time>2026-04-25T09:32:26.168Z</time></trkpt><trkpt lat="45.1677041" lon="9.3357675"><ele>72.5</ele><time>2026-04-25T09:32:27.169Z</time></trkpt><trkpt lat="45.1676406" lon="9.3359605"><ele>73.0</ele><time>2026-04-25T09:32:28.169Z</time></trkpt><trkpt lat="45.1675804" lon="9.3361797"><ele>72.66666666666666</ele><time>2026-04-25T09:32:29.168Z</time></trkpt><trkpt lat="45.1675246" lon="9.3364134"><ele>72.33333333333333</ele><time>2026-04-25T09:32:30.169Z</time></trkpt><trkpt lat="45.1674775" lon="9.3366323"><ele>72.0</ele><time>2026-04-25T09:32:31.168Z</time></trkpt><trkpt lat="45.1674416" lon="9.3368221"><ele>72.0</ele><time>2026-04-25T09:32:32.17Z</time></trkpt><trkpt lat="45.1674015" lon="9.337002"><ele>72.0</ele><time>2026-04-25T09:32:33.169Z</time></trkpt><trkpt lat="45.1673579" lon="9.3371645"><ele>72.0</ele><time>2026-04-25T09:32:34.17Z</time></trkpt><trkpt lat="45.1673037" lon="9.3373195"><ele>72.0</ele><time>2026-04-25T09:32:35.169Z</time></trkpt><trkpt lat="45.1672222" lon="9.3374677"><ele>71.6</ele><time>2026-04-25T09:32:36.168Z</time></trkpt><trkpt lat="45.1671359" lon="9.3375965"><ele>71.2</ele><time>2026-04-25T09:32:37.169Z</time></trkpt><trkpt lat="45.1670573" lon="9.3377114"><ele>70.8</ele><time>2026-04-25T09:32:38.169Z</time></trkpt><trkpt lat="45.1669875" lon="9.3378162"><ele>70.4</ele><time>2026-04-25T09:32:39.169Z</time></trkpt><trkpt lat="45.1669251" lon="9.337897"><ele>70.0</ele><time>2026-04-25T09:32:40.169Z</time></trkpt><trkpt lat="45.1668712" lon="9.3379457"><ele>70.0</ele><time>2026-04-25T09:32:41.169Z</time></trkpt><trkpt lat="45.1668097" lon="9.3379664"><ele>70.0</ele><time>2026-04-25T09:32:42.17Z</time></trkpt><trkpt lat="45.1667244" lon="9.3379504"><ele>70.0</ele><time>2026-04-25T09:32:43.168Z</time></trkpt><trkpt lat="45.1666216" lon="9.3378928"><ele>70.0</ele><time>2026-04-25T09:32:44.169Z</time></trkpt><trkpt lat="45.1665003" lon="9.3378024"><ele>70.0</ele><time>2026-04-25T09:32:45.168Z</time></trkpt><trkpt lat="45.1663585" lon="9.3376925"><ele>70.0</ele><time>2026-04-25T09:32:46.169Z</time></trkpt><trkpt lat="45.1662126" lon="9.3375847"><ele>70.0</ele><time>2026-04-25T09:32:47.169Z</time></trkpt><trkpt lat="45.1660606" lon="9.3374771"><ele>70.0</ele><time>2026-04-25T09:32:48.169Z</time></trkpt><trkpt lat="45.1659037" lon="9.3373774"><ele>70.0</ele><time>2026-04-25T09:32:49.168Z</time></trkpt><trkpt lat="45.1657462" lon="9.3372705"><ele>70.0</ele><time>2026-04-25T09:32:50.17Z</time></trkpt><trkpt lat="45.1655855" lon="9.337155"><ele>70.0</ele><time>2026-04-25T09:32:51.169Z</time></trkpt><trkpt lat="45.1654255" lon="9.3370422"><ele>69.66666666666666</ele><time>2026-04-25T09:32:52.169Z</time></trkpt><trkpt lat="45.1652595" lon="9.3369259"><ele>69.33333333333333</ele><time>2026-04-25T09:32:53.169Z</time></trkpt><trkpt lat="45.165099" lon="9.3368085"><ele>69.0</ele><time>2026-04-25T09:32:54.168Z</time></trkpt><trkpt lat="45.164935" lon="9.3366929"><ele>69.33333333333333</ele><time>2026-04-25T09:32:55.17Z</time></trkpt><trkpt lat="45.1647582" lon="9.3365727"><ele>69.66666666666666</ele><time>2026-04-25T09:32:56.168Z</time></trkpt><trkpt lat="45.1646407" lon="9.3364764"><ele>70.0</ele><time>2026-04-25T09:32:57.169Z</time></trkpt><trkpt lat="45.1645288" lon="9.3364116"><ele>70.0</ele><time>2026-04-25T09:32:58.168Z</time></trkpt><trkpt lat="45.1644298" lon="9.3363402"><ele>70.0</ele><time>2026-04-25T09:32:59.168Z</time></trkpt><trkpt lat="45.1643454" lon="9.3362866"><ele>70.0</ele><time>2026-04-25T09:33:00.169Z</time></trkpt><trkpt lat="45.1642822" lon="9.3362449"><ele>70.0</ele><time>2026-04-25T09:33:01.169Z</time></trkpt><trkpt lat="45.1642007" lon="9.3361746"><ele>70.0</ele><time>2026-04-25T09:33:03.169Z</time></trkpt><trkpt lat="45.1642093" lon="9.3360542"><ele>70.0</ele><time>2026-04-25T09:33:06.169Z</time></trkpt><trkpt lat="45.1642361" lon="9.3359245"><ele>70.0</ele><time>2026-04-25T09:33:09.169Z</time></trkpt><trkpt lat="45.1642575" lon="9.3357885"><ele>70.0</ele><time>2026-04-25T09:33:12.169Z</time></trkpt><trkpt lat="45.164278" lon="9.335659"><ele>70.0</ele><time>2026-04-25T09:33:15.17Z</time></trkpt><trkpt lat="45.1642944" lon="9.3355396"><ele>70.0</ele><time>2026-04-25T09:33:18.169Z</time></trkpt><trkpt lat="45.1643116" lon="9.3354321"><ele>70.0</ele><time>2026-04-25T09:33:21.169Z</time></trkpt><trkpt lat="45.1643279" lon="9.3353447"><ele>70.0</ele><time>2026-04-25T09:33:24.17Z</time></trkpt><trkpt lat="45.1643419" lon="9.3352409"><ele>70.0</ele><time>2026-04-25T09:33:27.169Z</time></trkpt><trkpt lat="45.1643619" lon="9.3351269"><ele>70.0</ele><time>2026-04-25T09:33:30.169Z</time></trkpt><trkpt lat="45.1643734" lon="9.3350382"><ele>70.0</ele><time>2026-04-25T09:33:31.168Z</time></trkpt><trkpt lat="45.1643941" lon="9.3349427"><ele>70.0</ele><time>2026-04-25T09:33:32.169Z</time></trkpt><trkpt lat="45.1644156" lon="9.3348233"><ele>70.0</ele><time>2026-04-25T09:33:33.169Z</time></trkpt><trkpt lat="45.1644377" lon="9.3346988"><ele>70.25</ele><time>2026-04-25T09:33:34.169Z</time></trkpt><trkpt lat="45.1644613" lon="9.3345406"><ele>70.5</ele><time>2026-04-25T09:33:35.169Z</time></trkpt><trkpt lat="45.1644859" lon="9.3343975"><ele>70.75</ele><time>2026-04-25T09:33:36.168Z</time></trkpt><trkpt lat="45.1645193" lon="9.334227"><ele>71.0</ele><time>2026-04-25T09:33:37.169Z</time></trkpt><trkpt lat="45.1645466" lon="9.3340568"><ele>71.0</ele><time>2026-04-25T09:33:38.168Z</time></trkpt><trkpt lat="45.1645711" lon="9.3338969"><ele>71.0</ele><time>2026-04-25T09:33:39.169Z</time></trkpt><trkpt lat="45.1645995" lon="9.3337223"><ele>71.0</ele><time>2026-04-25T09:33:40.169Z</time></trkpt><trkpt lat="45.1646343" lon="9.333517"><ele>71.0</ele><time>2026-04-25T09:33:41.169Z</time></trkpt><trkpt lat="45.1646646" lon="9.3333262"><ele>71.0</ele><time>2026-04-25T09:33:42.168Z</time></trkpt><trkpt lat="45.1647008" lon="9.3331308"><ele>71.0</ele><time>2026-04-25T09:33:43.168Z</time></trkpt><trkpt lat="45.1647345" lon="9.3329315"><ele>71.0</ele><time>2026-04-25T09:33:44.168Z</time></trkpt><trkpt lat="45.1647662" lon="9.3327412"><ele>71.0</ele><time>2026-04-25T09:33:45.169Z</time></trkpt><trkpt lat="45.1648076" lon="9.3325584"><ele>71.0</ele><time>2026-04-25T09:33:46.169Z</time></trkpt><trkpt lat="45.1648598" lon="9.3323686"><ele>71.0</ele><time>2026-04-25T09:33:47.169Z</time></trkpt><trkpt lat="45.1649327" lon="9.3321901"><ele>71.0</ele><time>2026-04-25T09:33:48.17Z</time></trkpt><trkpt lat="45.1650276" lon="9.3320065"><ele>71.0</ele><time>2026-04-25T09:33:49.17Z</time></trkpt><trkpt lat="45.1651207" lon="9.3318255"><ele>71.0</ele><time>2026-04-25T09:33:50.17Z</time></trkpt><trkpt lat="45.1652237" lon="9.3316589"><ele>71.0</ele><time>2026-04-25T09:33:51.169Z</time></trkpt><trkpt lat="45.1653537" lon="9.3314373"><ele>71.0</ele><time>2026-04-25T09:33:52.168Z</time></trkpt><trkpt lat="45.1654797" lon="9.3312089"><ele>71.0</ele><time>2026-04-25T09:33:53.17Z</time></trkpt><trkpt lat="45.1656097" lon="9.3309919"><ele>71.0</ele><time>2026-04-25T09:33:54.169Z</time></trkpt><trkpt lat="45.1657252" lon="9.3307886"><ele>71.0</ele><time>2026-04-25T09:33:55.168Z</time></trkpt><trkpt lat="45.1658326" lon="9.3305978"><ele>71.0</ele><time>2026-04-25T09:33:56.169Z</time></trkpt><trkpt lat="45.165936" lon="9.3304232"><ele>71.0</ele><time>2026-04-25T09:33:57.168Z</time></trkpt><trkpt lat="45.1660231" lon="9.3302623"><ele>71.0</ele><time>2026-04-25T09:33:58.169Z</time></trkpt><trkpt lat="45.1661097" lon="9.3301"><ele>71.0</ele><time>2026-04-25T09:33:59.169Z</time></trkpt><trkpt lat="45.166178" lon="9.3299798"><ele>71.0</ele><time>2026-04-25T09:34:00.168Z</time></trkpt><trkpt lat="45.1662473" lon="9.3298645"><ele>71.0</ele><time>2026-04-25T09:34:01.169Z</time></trkpt><trkpt lat="45.1663081" lon="9.3297684"><ele>71.0</ele><time>2026-04-25T09:34:02.168Z</time></trkpt><trkpt lat="45.166363" lon="9.3296759"><ele>71.0</ele><time>2026-04-25T09:34:03.17Z</time></trkpt><trkpt lat="45.1664155" lon="9.3295912"><ele>71.0</ele><time>2026-04-25T09:34:04.169Z</time></trkpt><trkpt lat="45.1664667" lon="9.3295212"><ele>71.0</ele><time>2026-04-25T09:34:05.169Z</time></trkpt><trkpt lat="45.1665303" lon="9.3294558"><ele>71.0</ele><time>2026-04-25T09:34:06.169Z</time></trkpt><trkpt lat="45.166608" lon="9.3294"><ele>71.0</ele><time>2026-04-25T09:34:07.169Z</time></trkpt><trkpt lat="45.1667109" lon="9.3293275"><ele>71.0</ele><time>2026-04-25T09:34:08.169Z</time></trkpt><trkpt lat="45.1668284" lon="9.3292076"><ele>71.0</ele><time>2026-04-25T09:34:09.169Z</time></trkpt><trkpt lat="45.1669291" lon="9.3290996"><ele>71.0</ele><time>2026-04-25T09:34:10.168Z</time></trkpt><trkpt lat="45.167022" lon="9.3289952"><ele>71.0</ele><time>2026-04-25T09:34:11.169Z</time></trkpt><trkpt lat="45.1671099" lon="9.3289037"><ele>70.8</ele><time>2026-04-25T09:34:12.169Z</time></trkpt><trkpt lat="45.1671828" lon="9.3288242"><ele>70.6</ele><time>2026-04-25T09:34:13.168Z</time></trkpt><trkpt lat="45.1672634" lon="9.3287339"><ele>70.4</ele><time>2026-04-25T09:34:14.169Z</time></trkpt><trkpt lat="45.1673433" lon="9.3286532"><ele>70.2</ele><time>2026-04-25T09:34:16.169Z</time></trkpt><trkpt lat="45.1673962" lon="9.3285534"><ele>70.0</ele><time>2026-04-25T09:34:18.17Z</time></trkpt><trkpt lat="45.1674361" lon="9.3284357"><ele>69.75</ele><time>2026-04-25T09:34:20.17Z</time></trkpt><trkpt lat="45.1673425" lon="9.3283043"><ele>69.5</ele><time>2026-04-25T09:34:21.169Z</time></trkpt><trkpt lat="45.1672557" lon="9.3281733"><ele>69.25</ele><time>2026-04-25T09:34:22.17Z</time></trkpt><trkpt lat="45.1671938" lon="9.3280441"><ele>69.0</ele><time>2026-04-25T09:34:23.169Z</time></trkpt><trkpt lat="45.1671211" lon="9.3279005"><ele>68.5</ele><time>2026-04-25T09:34:24.169Z</time></trkpt><trkpt lat="45.1670443" lon="9.3277534"><ele>68.0</ele><time>2026-04-25T09:34:25.17Z</time></trkpt><trkpt lat="45.1669649" lon="9.3276036"><ele>67.5</ele><time>2026-04-25T09:34:26.168Z</time></trkpt><trkpt lat="45.1668848" lon="9.3274509"><ele>67.0</ele><time>2026-04-25T09:34:27.169Z</time></trkpt><trkpt lat="45.1668052" lon="9.327298"><ele>67.25</ele><time>2026-04-25T09:34:28.168Z</time></trkpt><trkpt lat="45.1667287" lon="9.3271443"><ele>67.5</ele><time>2026-04-25T09:34:29.169Z</time></trkpt><trkpt lat="45.1666369" lon="9.326972"><ele>67.75</ele><time>2026-04-25T09:34:30.169Z</time></trkpt><trkpt lat="45.1665521" lon="9.326805"><ele>68.0</ele><time>2026-04-25T09:34:31.169Z</time></trkpt><trkpt lat="45.1664663" lon="9.3266406"><ele>68.5</ele><time>2026-04-25T09:34:32.169Z</time></trkpt><trkpt lat="45.1663806" lon="9.3264741"><ele>69.0</ele><time>2026-04-25T09:34:33.17Z</time></trkpt><trkpt lat="45.1662988" lon="9.3263192"><ele>69.5</ele><time>2026-04-25T09:34:34.168Z</time></trkpt><trkpt lat="45.1662108" lon="9.3261605"><ele>70.0</ele><time>2026-04-25T09:34:35.17Z</time></trkpt><trkpt lat="45.1661271" lon="9.3259944"><ele>70.5</ele><time>2026-04-25T09:34:36.17Z</time></trkpt><trkpt lat="45.1660424" lon="9.3258287"><ele>71.0</ele><time>2026-04-25T09:34:37.168Z</time></trkpt><trkpt lat="45.1659588" lon="9.3256711"><ele>71.5</ele><time>2026-04-25T09:34:38.168Z</time></trkpt><trkpt lat="45.1658744" lon="9.3255149"><ele>72.0</ele><time>2026-04-25T09:34:39.169Z</time></trkpt><trkpt lat="45.1657909" lon="9.3253532"><ele>72.0</ele><time>2026-04-25T09:34:40.169Z</time></trkpt><trkpt lat="45.1657114" lon="9.3251868"><ele>72.0</ele><time>2026-04-25T09:34:41.169Z</time></trkpt><trkpt lat="45.16565" lon="9.3250686"><ele>72.0</ele><time>2026-04-25T09:34:42.169Z</time></trkpt><trkpt lat="45.1655798" lon="9.3249336"><ele>72.0</ele><time>2026-04-25T09:34:43.169Z</time></trkpt><trkpt lat="45.1655134" lon="9.3248111"><ele>72.33333333333333</ele><time>2026-04-25T09:34:44.17Z</time></trkpt><trkpt lat="45.1654475" lon="9.3246981"><ele>72.66666666666667</ele><time>2026-04-25T09:34:45.169Z</time></trkpt><trkpt lat="45.1653937" lon="9.3245893"><ele>73.0</ele><time>2026-04-25T09:34:46.169Z</time></trkpt><trkpt lat="45.1653426" lon="9.3244915"><ele>73.33333333333334</ele><time>2026-04-25T09:34:47.168Z</time></trkpt><trkpt lat="45.1652874" lon="9.3244175"><ele>73.66666666666667</ele><time>2026-04-25T09:34:48.168Z</time></trkpt><trkpt lat="45.1652364" lon="9.324336"><ele>74.0</ele><time>2026-04-25T09:34:49.168Z</time></trkpt><trkpt lat="45.165181" lon="9.3242389"><ele>74.0</ele><time>2026-04-25T09:34:50.168Z</time></trkpt><trkpt lat="45.1651282" lon="9.3241381"><ele>74.0</ele><time>2026-04-25T09:34:51.169Z</time></trkpt><trkpt lat="45.1650746" lon="9.324033"><ele>74.0</ele><time>2026-04-25T09:34:52.17Z</time></trkpt><trkpt lat="45.1650183" lon="9.3239319"><ele>74.0</ele><time>2026-04-25T09:34:53.169Z</time></trkpt><trkpt lat="45.1649558" lon="9.3238188"><ele>74.0</ele><time>2026-04-25T09:34:54.169Z</time></trkpt><trkpt lat="45.1648949" lon="9.3237086"><ele>73.5</ele><time>2026-04-25T09:34:55.169Z</time></trkpt><trkpt lat="45.1648365" lon="9.3236067"><ele>73.0</ele><time>2026-04-25T09:34:56.169Z</time></trkpt><trkpt lat="45.1647797" lon="9.3235143"><ele>72.5</ele><time>2026-04-25T09:34:57.17Z</time></trkpt><trkpt lat="45.1647174" lon="9.3234206"><ele>72.0</ele><time>2026-04-25T09:34:58.17Z</time></trkpt><trkpt lat="45.1646548" lon="9.3233315"><ele>71.5</ele><time>2026-04-25T09:34:59.17Z</time></trkpt><trkpt lat="45.1645972" lon="9.3232358"><ele>71.0</ele><time>2026-04-25T09:35:00.168Z</time></trkpt><trkpt lat="45.1645368" lon="9.3231281"><ele>71.2</ele><time>2026-04-25T09:35:01.168Z</time></trkpt><trkpt lat="45.1644763" lon="9.3230089"><ele>71.39999999999999</ele><time>2026-04-25T09:35:02.168Z</time></trkpt><trkpt lat="45.1644189" lon="9.3228803"><ele>71.6</ele><time>2026-04-25T09:35:03.169Z</time></trkpt><trkpt lat="45.1643604" lon="9.3227428"><ele>71.8</ele><time>2026-04-25T09:35:04.169Z</time></trkpt><trkpt lat="45.1643093" lon="9.3225941"><ele>72.0</ele><time>2026-04-25T09:35:05.169Z</time></trkpt><trkpt lat="45.1642681" lon="9.3224394"><ele>72.0</ele><time>2026-04-25T09:35:06.168Z</time></trkpt><trkpt lat="45.164233" lon="9.3222851"><ele>72.0</ele><time>2026-04-25T09:35:07.169Z</time></trkpt><trkpt lat="45.1642083" lon="9.3221478"><ele>72.0</ele><time>2026-04-25T09:35:08.168Z</time></trkpt><trkpt lat="45.1641851" lon="9.322026"><ele>72.0</ele><time>2026-04-25T09:35:09.169Z</time></trkpt><trkpt lat="45.1641632" lon="9.3219308"><ele>72.0</ele><time>2026-04-25T09:35:10.168Z</time></trkpt><trkpt lat="45.1641188" lon="9.3218079"><ele>71.6</ele><time>2026-04-25T09:35:12.17Z</time></trkpt><trkpt lat="45.1640681" lon="9.321714"><ele>71.2</ele><time>2026-04-25T09:35:14.169Z</time></trkpt><trkpt lat="45.1639407" lon="9.3216102"><ele>70.8</ele><time>2026-04-25T09:35:16.169Z</time></trkpt><trkpt lat="45.1638648" lon="9.3215393"><ele>70.4</ele><time>2026-04-25T09:35:17.169Z</time></trkpt><trkpt lat="45.1637926" lon="9.3214894"><ele>70.0</ele><time>2026-04-25T09:35:18.168Z</time></trkpt><trkpt lat="45.1637151" lon="9.3214273"><ele>70.4</ele><time>2026-04-25T09:35:19.17Z</time></trkpt><trkpt lat="45.1636442" lon="9.3213729"><ele>70.8</ele><time>2026-04-25T09:35:20.169Z</time></trkpt><trkpt lat="45.1635549" lon="9.3213275"><ele>71.2</ele><time>2026-04-25T09:35:21.169Z</time></trkpt><trkpt lat="45.1634437" lon="9.3213102"><ele>71.6</ele><time>2026-04-25T09:35:22.169Z</time></trkpt><trkpt lat="45.1633428" lon="9.3213081"><ele>72.0</ele><time>2026-04-25T09:35:23.168Z</time></trkpt><trkpt lat="45.1632531" lon="9.3212691"><ele>72.0</ele><time>2026-04-25T09:35:24.168Z</time></trkpt><trkpt lat="45.1631473" lon="9.3212297"><ele>72.0</ele><time>2026-04-25T09:35:25.17Z</time></trkpt><trkpt lat="45.1630482" lon="9.3212104"><ele>72.0</ele><time>2026-04-25T09:35:26.168Z</time></trkpt><trkpt lat="45.1629455" lon="9.3211876"><ele>72.0</ele><time>2026-04-25T09:35:27.168Z</time></trkpt><trkpt lat="45.1628574" lon="9.3211592"><ele>72.0</ele><time>2026-04-25T09:35:28.169Z</time></trkpt><trkpt lat="45.1627549" lon="9.3211306"><ele>72.0</ele><time>2026-04-25T09:35:29.168Z</time></trkpt><trkpt lat="45.16266" lon="9.321102"><ele>72.0</ele><time>2026-04-25T09:35:30.17Z</time></trkpt><trkpt lat="45.1625621" lon="9.3210764"><ele>72.0</ele><time>2026-04-25T09:35:31.168Z</time></trkpt><trkpt lat="45.1624689" lon="9.3210523"><ele>72.0</ele><time>2026-04-25T09:35:32.168Z</time></trkpt><trkpt lat="45.1623686" lon="9.3210186"><ele>72.0</ele><time>2026-04-25T09:35:33.168Z</time></trkpt><trkpt lat="45.1622773" lon="9.3209954"><ele>72.0</ele><time>2026-04-25T09:35:34.169Z</time></trkpt><trkpt lat="45.1621768" lon="9.3209739"><ele>72.0</ele><time>2026-04-25T09:35:35.168Z</time></trkpt><trkpt lat="45.162077" lon="9.3209466"><ele>72.0</ele><time>2026-04-25T09:35:36.17Z</time></trkpt><trkpt lat="45.1619742" lon="9.3209238"><ele>72.0</ele><time>2026-04-25T09:35:37.17Z</time></trkpt><trkpt lat="45.161869" lon="9.3209013"><ele>72.0</ele><time>2026-04-25T09:35:38.169Z</time></trkpt><trkpt lat="45.1617596" lon="9.3208694"><ele>72.0</ele><time>2026-04-25T09:35:39.169Z</time></trkpt><trkpt lat="45.1616424" lon="9.3208329"><ele>72.0</ele><time>2026-04-25T09:35:40.17Z</time></trkpt><trkpt lat="45.1615144" lon="9.320801"><ele>72.0</ele><time>2026-04-25T09:35:41.168Z</time></trkpt><trkpt lat="45.1613631" lon="9.3207705"><ele>72.0</ele><time>2026-04-25T09:35:42.169Z</time></trkpt><trkpt lat="45.161231" lon="9.3207491"><ele>72.33333333333333</ele><time>2026-04-25T09:35:43.169Z</time></trkpt><trkpt lat="45.1610828" lon="9.3207488"><ele>72.66666666666666</ele><time>2026-04-25T09:35:44.168Z</time></trkpt><trkpt lat="45.1609019" lon="9.3207341"><ele>73.0</ele><time>2026-04-25T09:35:45.169Z</time></trkpt><trkpt lat="45.1607436" lon="9.3206952"><ele>73.25</ele><time>2026-04-25T09:35:46.169Z</time></trkpt><trkpt lat="45.1605934" lon="9.3206592"><ele>73.5</ele><time>2026-04-25T09:35:47.168Z</time></trkpt><trkpt lat="45.1604519" lon="9.3206258"><ele>73.75</ele><time>2026-04-25T09:35:48.17Z</time></trkpt><trkpt lat="45.1603189" lon="9.3205905"><ele>74.0</ele><time>2026-04-25T09:35:49.169Z</time></trkpt><trkpt lat="45.1601985" lon="9.3205582"><ele>74.0</ele><time>2026-04-25T09:35:50.17Z</time></trkpt><trkpt lat="45.1600893" lon="9.32053"><ele>74.0</ele><time>2026-04-25T09:35:51.168Z</time></trkpt><trkpt lat="45.159988" lon="9.3205054"><ele>74.0</ele><time>2026-04-25T09:35:52.168Z</time></trkpt><trkpt lat="45.1598969" lon="9.3204858"><ele>74.0</ele><time>2026-04-25T09:35:53.169Z</time></trkpt><trkpt lat="45.1598104" lon="9.3204618"><ele>74.0</ele><time>2026-04-25T09:35:54.169Z</time></trkpt><trkpt lat="45.1597332" lon="9.3204363"><ele>74.0</ele><time>2026-04-25T09:35:55.168Z</time></trkpt><trkpt lat="45.159644" lon="9.3204264"><ele>74.0</ele><time>2026-04-25T09:35:57.169Z</time></trkpt><trkpt lat="45.1595686" lon="9.3205522"><ele>74.0</ele><time>2026-04-25T09:35:59.169Z</time></trkpt><trkpt lat="45.1595488" lon="9.3206586"><ele>74.0</ele><time>2026-04-25T09:36:00.168Z</time></trkpt><trkpt lat="45.1595417" lon="9.3207609"><ele>74.0</ele><time>2026-04-25T09:36:01.169Z</time></trkpt><trkpt lat="45.159474" lon="9.3208877"><ele>74.2</ele><time>2026-04-25T09:36:03.17Z</time></trkpt><trkpt lat="45.1594213" lon="9.3209385"><ele>74.4</ele><time>2026-04-25T09:36:04.169Z</time></trkpt><trkpt lat="45.159343" lon="9.320915"><ele>74.6</ele><time>2026-04-25T09:36:05.17Z</time></trkpt><trkpt lat="45.1592427" lon="9.3208712"><ele>74.8</ele><time>2026-04-25T09:36:06.168Z</time></trkpt><trkpt lat="45.1591117" lon="9.3208172"><ele>75.0</ele><time>2026-04-25T09:36:07.168Z</time></trkpt><trkpt lat="45.1590067" lon="9.3207831"><ele>74.66666666666667</ele><time>2026-04-25T09:36:08.169Z</time></trkpt><trkpt lat="45.1589211" lon="9.3207471"><ele>74.33333333333333</ele><time>2026-04-25T09:36:09.169Z</time></trkpt><trkpt lat="45.1588504" lon="9.320714"><ele>74.0</ele><time>2026-04-25T09:36:11.17Z</time></trkpt><trkpt lat="45.1587848" lon="9.3207182"><ele>73.66666666666666</ele><time>2026-04-25T09:37:09.168Z</time></trkpt><trkpt lat="45.1586598" lon="9.3207791"><ele>73.33333333333333</ele><time>2026-04-25T09:37:11.169Z</time></trkpt><trkpt lat="45.1585997" lon="9.3208433"><ele>73.0</ele><time>2026-04-25T09:37:12.168Z</time></trkpt><trkpt lat="45.1585834" lon="9.3210367"><ele>73.0</ele><time>2026-04-25T09:37:13.168Z</time></trkpt><trkpt lat="45.158564" lon="9.3212242"><ele>73.0</ele><time>2026-04-25T09:37:14.168Z</time></trkpt><trkpt lat="45.1585341" lon="9.3214246"><ele>73.0</ele><time>2026-04-25T09:37:15.169Z</time></trkpt><trkpt lat="45.1585039" lon="9.3216584"><ele>73.0</ele><time>2026-04-25T09:37:16.17Z</time></trkpt><trkpt lat="45.1584651" lon="9.3219033"><ele>73.33333333333333</ele><time>2026-04-25T09:37:17.169Z</time></trkpt><trkpt lat="45.158427" lon="9.3221625"><ele>73.66666666666667</ele><time>2026-04-25T09:37:18.169Z</time></trkpt><trkpt lat="45.1583922" lon="9.3224282"><ele>74.0</ele><time>2026-04-25T09:37:19.17Z</time></trkpt><trkpt lat="45.1583555" lon="9.3226996"><ele>74.0</ele><time>2026-04-25T09:37:20.168Z</time></trkpt><trkpt lat="45.1583156" lon="9.3229766"><ele>74.0</ele><time>2026-04-25T09:37:21.169Z</time></trkpt><trkpt lat="45.1582759" lon="9.3232441"><ele>74.0</ele><time>2026-04-25T09:37:22.169Z</time></trkpt><trkpt lat="45.1582369" lon="9.3235102"><ele>73.33333333333334</ele><time>2026-04-25T09:37:23.169Z</time></trkpt><trkpt lat="45.1581978" lon="9.3237759"><ele>72.66666666666667</ele><time>2026-04-25T09:37:24.169Z</time></trkpt><trkpt lat="45.1581587" lon="9.3240444"><ele>72.0</ele><time>2026-04-25T09:37:25.168Z</time></trkpt><trkpt lat="45.1581232" lon="9.3243123"><ele>72.0</ele><time>2026-04-25T09:37:26.169Z</time></trkpt><trkpt lat="45.1581031" lon="9.3245866"><ele>72.0</ele><time>2026-04-25T09:37:27.168Z</time></trkpt><trkpt lat="45.1581073" lon="9.3248551"><ele>72.0</ele><time>2026-04-25T09:37:28.169Z</time></trkpt><trkpt lat="45.1581297" lon="9.3251184"><ele>71.66666666666667</ele><time>2026-04-25T09:37:29.168Z</time></trkpt><trkpt lat="45.1581671" lon="9.3253791"><ele>71.33333333333334</ele><time>2026-04-25T09:37:30.168Z</time></trkpt><trkpt lat="45.1582093" lon="9.3256429"><ele>71.0</ele><time>2026-04-25T09:37:31.17Z</time></trkpt><trkpt lat="45.1582505" lon="9.3259091"><ele>71.0</ele><time>2026-04-25T09:37:32.168Z</time></trkpt><trkpt lat="45.1582992" lon="9.3261788"><ele>71.0</ele><time>2026-04-25T09:37:33.17Z</time></trkpt><trkpt lat="45.1583458" lon="9.3264443"><ele>71.0</ele><time>2026-04-25T09:37:34.17Z</time></trkpt><trkpt lat="45.1583982" lon="9.326703"><ele>71.0</ele><time>2026-04-25T09:37:35.168Z</time></trkpt><trkpt lat="45.1584554" lon="9.3269737"><ele>71.0</ele><time>2026-04-25T09:37:36.169Z</time></trkpt><trkpt lat="45.1584894" lon="9.3272797"><ele>71.0</ele><time>2026-04-25T09:37:37.168Z</time></trkpt><trkpt lat="45.1585335" lon="9.3275577"><ele>71.0</ele><time>2026-04-25T09:37:38.169Z</time></trkpt><trkpt lat="45.1585748" lon="9.3278379"><ele>71.0</ele><time>2026-04-25T09:37:39.168Z</time></trkpt><trkpt lat="45.1586047" lon="9.3281267"><ele>71.0</ele><time>2026-04-25T09:37:40.169Z</time></trkpt><trkpt lat="45.1586284" lon="9.3284163"><ele>70.66666666666667</ele><time>2026-04-25T09:37:41.169Z</time></trkpt><trkpt lat="45.1586436" lon="9.3287084"><ele>70.33333333333333</ele><time>2026-04-25T09:37:42.169Z</time></trkpt><trkpt lat="45.1586417" lon="9.3290017"><ele>70.0</ele><time>2026-04-25T09:37:43.168Z</time></trkpt><trkpt lat="45.1586245" lon="9.3292938"><ele>70.0</ele><time>2026-04-25T09:37:44.169Z</time></trkpt><trkpt lat="45.1586023" lon="9.329584"><ele>70.0</ele><time>2026-04-25T09:37:45.168Z</time></trkpt><trkpt lat="45.1585795" lon="9.3298724"><ele>70.0</ele><time>2026-04-25T09:37:46.168Z</time></trkpt><trkpt lat="45.1585544" lon="9.3301612"><ele>70.0</ele><time>2026-04-25T09:37:47.168Z</time></trkpt><trkpt lat="45.1585293" lon="9.3304496"><ele>70.0</ele><time>2026-04-25T09:37:48.169Z</time></trkpt><trkpt lat="45.1585063" lon="9.3307453"><ele>70.0</ele><time>2026-04-25T09:37:49.169Z</time></trkpt><trkpt lat="45.1584786" lon="9.3310412"><ele>70.0</ele><time>2026-04-25T09:37:50.169Z</time></trkpt><trkpt lat="45.1584524" lon="9.3313407"><ele>70.0</ele><time>2026-04-25T09:37:51.169Z</time></trkpt><trkpt lat="45.1584315" lon="9.3316435"><ele>70.0</ele><time>2026-04-25T09:37:52.169Z</time></trkpt><trkpt lat="45.1584075" lon="9.3319499"><ele>70.0</ele><time>2026-04-25T09:37:53.169Z</time></trkpt><trkpt lat="45.1583809" lon="9.3322595"><ele>70.0</ele><time>2026-04-25T09:37:54.17Z</time></trkpt><trkpt lat="45.1583506" lon="9.3325592"><ele>70.0</ele><time>2026-04-25T09:37:55.169Z</time></trkpt><trkpt lat="45.1583231" lon="9.3328791"><ele>69.66666666666666</ele><time>2026-04-25T09:37:56.169Z</time></trkpt><trkpt lat="45.1582959" lon="9.3331822"><ele>69.33333333333333</ele><time>2026-04-25T09:37:57.168Z</time></trkpt><trkpt lat="45.1582696" lon="9.3334907"><ele>69.0</ele><time>2026-04-25T09:37:58.17Z</time></trkpt><trkpt lat="45.1582394" lon="9.333812"><ele>69.33333333333333</ele><time>2026-04-25T09:37:59.168Z</time></trkpt><trkpt lat="45.1582116" lon="9.3341213"><ele>69.66666666666666</ele><time>2026-04-25T09:38:00.17Z</time></trkpt><trkpt lat="45.1581827" lon="9.3344301"><ele>70.0</ele><time>2026-04-25T09:38:01.168Z</time></trkpt><trkpt lat="45.1581553" lon="9.3347467"><ele>70.33333333333333</ele><time>2026-04-25T09:38:02.169Z</time></trkpt><trkpt lat="45.1581272" lon="9.3350569"><ele>70.66666666666667</ele><time>2026-04-25T09:38:03.168Z</time></trkpt><trkpt lat="45.1580989" lon="9.335373"><ele>71.0</ele><time>2026-04-25T09:38:04.169Z</time></trkpt><trkpt lat="45.1580702" lon="9.3356908"><ele>71.0</ele><time>2026-04-25T09:38:05.169Z</time></trkpt><trkpt lat="45.158041" lon="9.3360009"><ele>71.0</ele><time>2026-04-25T09:38:06.169Z</time></trkpt><trkpt lat="45.1580162" lon="9.3363087"><ele>71.0</ele><time>2026-04-25T09:38:07.169Z</time></trkpt><trkpt lat="45.1579921" lon="9.3366216"><ele>70.66666666666667</ele><time>2026-04-25T09:38:08.169Z</time></trkpt><trkpt lat="45.157963" lon="9.3369363"><ele>70.33333333333333</ele><time>2026-04-25T09:38:09.168Z</time></trkpt><trkpt lat="45.1579363" lon="9.3372519"><ele>70.0</ele><time>2026-04-25T09:38:10.168Z</time></trkpt><trkpt lat="45.1579089" lon="9.3375663"><ele>70.66666666666666</ele><time>2026-04-25T09:38:11.169Z</time></trkpt><trkpt lat="45.1578799" lon="9.3378794"><ele>71.33333333333333</ele><time>2026-04-25T09:38:12.168Z</time></trkpt><trkpt lat="45.1578514" lon="9.3381846"><ele>72.0</ele><time>2026-04-25T09:38:13.17Z</time></trkpt><trkpt lat="45.1578208" lon="9.3385064"><ele>70.5</ele><time>2026-04-25T09:38:14.168Z</time></trkpt><trkpt lat="45.1577955" lon="9.3388335"><ele>69.0</ele><time>2026-04-25T09:38:15.169Z</time></trkpt><trkpt lat="45.1577678" lon="9.339155"><ele>69.0</ele><time>2026-04-25T09:38:16.17Z</time></trkpt><trkpt lat="45.1577451" lon="9.3394776"><ele>69.0</ele><time>2026-04-25T09:38:17.17Z</time></trkpt><trkpt lat="45.1577145" lon="9.3397965"><ele>69.33333333333333</ele><time>2026-04-25T09:38:18.169Z</time></trkpt><trkpt lat="45.1576856" lon="9.3401035"><ele>69.66666666666666</ele><time>2026-04-25T09:38:19.169Z</time></trkpt><trkpt lat="45.1576542" lon="9.3404226"><ele>70.0</ele><time>2026-04-25T09:38:20.169Z</time></trkpt><trkpt lat="45.1576231" lon="9.3407351"><ele>70.33333333333333</ele><time>2026-04-25T09:38:21.169Z</time></trkpt><trkpt lat="45.1575958" lon="9.3410495"><ele>70.66666666666667</ele><time>2026-04-25T09:38:22.169Z</time></trkpt><trkpt lat="45.1575702" lon="9.3413569"><ele>71.0</ele><time>2026-04-25T09:38:23.169Z</time></trkpt><trkpt lat="45.1575412" lon="9.3416666"><ele>71.0</ele><time>2026-04-25T09:38:24.168Z</time></trkpt><trkpt lat="45.157523" lon="9.3419702"><ele>71.0</ele><time>2026-04-25T09:38:25.168Z</time></trkpt><trkpt lat="45.1574884" lon="9.3422536"><ele>71.0</ele><time>2026-04-25T09:38:26.169Z</time></trkpt><trkpt lat="45.1574726" lon="9.3425581"><ele>71.0</ele><time>2026-04-25T09:38:27.169Z</time></trkpt><trkpt lat="45.1574527" lon="9.3428309"><ele>71.0</ele><time>2026-04-25T09:38:28.169Z</time></trkpt><trkpt lat="45.1574001" lon="9.3431288"><ele>71.0</ele><time>2026-04-25T09:38:29.169Z</time></trkpt><trkpt lat="45.1573658" lon="9.3434202"><ele>70.66666666666667</ele><time>2026-04-25T09:38:30.169Z</time></trkpt><trkpt lat="45.1573397" lon="9.3437127"><ele>70.33333333333333</ele><time>2026-04-25T09:38:31.168Z</time></trkpt><trkpt lat="45.1573095" lon="9.3440106"><ele>70.0</ele><time>2026-04-25T09:38:32.169Z</time></trkpt><trkpt lat="45.1572805" lon="9.344301"><ele>70.0</ele><time>2026-04-25T09:38:33.168Z</time></trkpt><trkpt lat="45.1572506" lon="9.3445902"><ele>70.0</ele><time>2026-04-25T09:38:34.169Z</time></trkpt><trkpt lat="45.1572196" lon="9.3448774"><ele>70.0</ele><time>2026-04-25T09:38:35.168Z</time></trkpt><trkpt lat="45.157187" lon="9.3451553"><ele>70.0</ele><time>2026-04-25T09:38:36.17Z</time></trkpt><trkpt lat="45.1571574" lon="9.3454371"><ele>70.0</ele><time>2026-04-25T09:38:37.169Z</time></trkpt><trkpt lat="45.1571181" lon="9.3457154"><ele>70.0</ele><time>2026-04-25T09:38:38.169Z</time></trkpt><trkpt lat="45.1570928" lon="9.3459606"><ele>70.0</ele><time>2026-04-25T09:38:39.169Z</time></trkpt><trkpt lat="45.1570618" lon="9.3461934"><ele>70.0</ele><time>2026-04-25T09:38:40.169Z</time></trkpt><trkpt lat="45.1570194" lon="9.3463873"><ele>70.0</ele><time>2026-04-25T09:38:41.169Z</time></trkpt><trkpt lat="45.1569781" lon="9.3465325"><ele>70.0</ele><time>2026-04-25T09:38:42.168Z</time></trkpt><trkpt lat="45.1569323" lon="9.3467005"><ele>70.2</ele><time>2026-04-25T09:38:43.168Z</time></trkpt><trkpt lat="45.1568584" lon="9.3468403"><ele>70.4</ele><time>2026-04-25T09:38:45.169Z</time></trkpt><trkpt lat="45.1567896" lon="9.3469151"><ele>70.6</ele><time>2026-04-25T09:38:47.169Z</time></trkpt><trkpt lat="45.1566779" lon="9.3470314"><ele>70.8</ele><time>2026-04-25T09:38:49.169Z</time></trkpt><trkpt lat="45.1566048" lon="9.3471042"><ele>71.0</ele><time>2026-04-25T09:38:50.169Z</time></trkpt><trkpt lat="45.1565285" lon="9.3471888"><ele>71.0</ele><time>2026-04-25T09:38:51.17Z</time></trkpt><trkpt lat="45.1564418" lon="9.3472847"><ele>71.0</ele><time>2026-04-25T09:38:52.168Z</time></trkpt><trkpt lat="45.1563591" lon="9.34738"><ele>71.0</ele><time>2026-04-25T09:38:53.169Z</time></trkpt><trkpt lat="45.1562663" lon="9.3474939"><ele>71.0</ele><time>2026-04-25T09:38:54.169Z</time></trkpt><trkpt lat="45.1561644" lon="9.3476166"><ele>71.0</ele><time>2026-04-25T09:38:55.168Z</time></trkpt><trkpt lat="45.1560004" lon="9.3477397"><ele>71.0</ele><time>2026-04-25T09:38:56.168Z</time></trkpt><trkpt lat="45.1558961" lon="9.3478549"><ele>71.0</ele><time>2026-04-25T09:38:57.168Z</time></trkpt><trkpt lat="45.155783" lon="9.3479727"><ele>70.33333333333334</ele><time>2026-04-25T09:38:58.169Z</time></trkpt><trkpt lat="45.1556575" lon="9.3481267"><ele>69.66666666666667</ele><time>2026-04-25T09:38:59.168Z</time></trkpt><trkpt lat="45.1555378" lon="9.3482628"><ele>69.0</ele><time>2026-04-25T09:39:00.17Z</time></trkpt><trkpt lat="45.1554127" lon="9.3484103"><ele>69.0</ele><time>2026-04-25T09:39:01.168Z</time></trkpt><trkpt lat="45.1552975" lon="9.348553"><ele>69.0</ele><time>2026-04-25T09:39:02.169Z</time></trkpt><trkpt lat="45.1551688" lon="9.3486992"><ele>69.0</ele><time>2026-04-25T09:39:03.169Z</time></trkpt><trkpt lat="45.1550558" lon="9.3488267"><ele>69.33333333333333</ele><time>2026-04-25T09:39:04.168Z</time></trkpt><trkpt lat="45.1549261" lon="9.3489602"><ele>69.66666666666666</ele><time>2026-04-25T09:39:05.168Z</time></trkpt><trkpt lat="45.154808" lon="9.3490895"><ele>70.0</ele><time>2026-04-25T09:39:06.169Z</time></trkpt><trkpt lat="45.1546908" lon="9.3492075"><ele>70.0</ele><time>2026-04-25T09:39:07.169Z</time></trkpt><trkpt lat="45.1545788" lon="9.3493482"><ele>70.0</ele><time>2026-04-25T09:39:08.168Z</time></trkpt><trkpt lat="45.1544748" lon="9.3494438"><ele>70.0</ele><time>2026-04-25T09:39:09.168Z</time></trkpt><trkpt lat="45.1543707" lon="9.3495493"><ele>70.0</ele><time>2026-04-25T09:39:10.169Z</time></trkpt><trkpt lat="45.1543138" lon="9.3496277"><ele>70.0</ele><time>2026-04-25T09:39:11.169Z</time></trkpt><trkpt lat="45.1542477" lon="9.3497004"><ele>70.0</ele><time>2026-04-25T09:39:12.169Z</time></trkpt><trkpt lat="45.1541891" lon="9.3497687"><ele>70.0</ele><time>2026-04-25T09:39:13.168Z</time></trkpt><trkpt lat="45.1540994" lon="9.3498493"><ele>70.0</ele><time>2026-04-25T09:39:15.168Z</time></trkpt><trkpt lat="45.1540205" lon="9.3498596"><ele>70.0</ele><time>2026-04-25T09:39:17.168Z</time></trkpt><trkpt lat="45.153955" lon="9.3498418"><ele>70.0</ele><time>2026-04-25T09:40:00.169Z</time></trkpt><trkpt lat="45.1538645" lon="9.3498832"><ele>70.5</ele><time>2026-04-25T09:40:02.169Z</time></trkpt><trkpt lat="45.1536861" lon="9.3499506"><ele>71.0</ele><time>2026-04-25T09:40:04.169Z</time></trkpt><trkpt lat="45.1535802" lon="9.3499832"><ele>71.5</ele><time>2026-04-25T09:40:05.169Z</time></trkpt><trkpt lat="45.1534751" lon="9.3500167"><ele>72.0</ele><time>2026-04-25T09:40:06.169Z</time></trkpt><trkpt lat="45.1533576" lon="9.350058"><ele>72.0</ele><time>2026-04-25T09:40:07.168Z</time></trkpt><trkpt lat="45.1532245" lon="9.3501071"><ele>72.0</ele><time>2026-04-25T09:40:08.17Z</time></trkpt><trkpt lat="45.1530863" lon="9.3501622"><ele>72.0</ele><time>2026-04-25T09:40:09.17Z</time></trkpt><trkpt lat="45.1529528" lon="9.3502103"><ele>72.0</ele><time>2026-04-25T09:40:10.169Z</time></trkpt><trkpt lat="45.1528235" lon="9.3502557"><ele>71.75</ele><time>2026-04-25T09:40:11.169Z</time></trkpt><trkpt lat="45.1526957" lon="9.3503001"><ele>71.5</ele><time>2026-04-25T09:40:12.168Z</time></trkpt><trkpt lat="45.1525733" lon="9.350343"><ele>71.25</ele><time>2026-04-25T09:40:13.168Z</time></trkpt><trkpt lat="45.1524559" lon="9.3503822"><ele>71.0</ele><time>2026-04-25T09:40:14.169Z</time></trkpt><trkpt lat="45.1523403" lon="9.3504284"><ele>71.2</ele><time>2026-04-25T09:40:15.169Z</time></trkpt><trkpt lat="45.15223" lon="9.3504729"><ele>71.39999999999999</ele><time>2026-04-25T09:40:16.168Z</time></trkpt><trkpt lat="45.152127" lon="9.3505154"><ele>71.6</ele><time>2026-04-25T09:40:17.168Z</time></trkpt><trkpt lat="45.1520414" lon="9.3505479"><ele>71.8</ele><time>2026-04-25T09:40:18.169Z</time></trkpt><trkpt lat="45.1519681" lon="9.3505695"><ele>72.0</ele><time>2026-04-25T09:40:19.169Z</time></trkpt><trkpt lat="45.1518824" lon="9.3505939"><ele>71.4</ele><time>2026-04-25T09:40:20.168Z</time></trkpt><trkpt lat="45.1518036" lon="9.3505272"><ele>70.80000000000001</ele><time>2026-04-25T09:40:22.168Z</time></trkpt><trkpt lat="45.1517181" lon="9.3503692"><ele>70.2</ele><time>2026-04-25T09:40:24.169Z</time></trkpt><trkpt lat="45.1516685" lon="9.3502796"><ele>69.60000000000001</ele><time>2026-04-25T09:40:25.17Z</time></trkpt><trkpt lat="45.151627" lon="9.3501803"><ele>69.0</ele><time>2026-04-25T09:40:26.168Z</time></trkpt><trkpt lat="45.1515785" lon="9.3500359"><ele>69.2</ele><time>2026-04-25T09:40:27.169Z</time></trkpt><trkpt lat="45.1515262" lon="9.3499134"><ele>69.4</ele><time>2026-04-25T09:40:28.168Z</time></trkpt><trkpt lat="45.151479" lon="9.3497894"><ele>69.6</ele><time>2026-04-25T09:40:29.168Z</time></trkpt><trkpt lat="45.1514289" lon="9.3496613"><ele>69.8</ele><time>2026-04-25T09:40:30.169Z</time></trkpt><trkpt lat="45.1513754" lon="9.3495444"><ele>70.0</ele><time>2026-04-25T09:40:31.169Z</time></trkpt><trkpt lat="45.1513235" lon="9.3494233"><ele>70.0</ele><time>2026-04-25T09:40:32.169Z</time></trkpt><trkpt lat="45.1512457" lon="9.3493059"><ele>70.0</ele><time>2026-04-25T09:40:33.17Z</time></trkpt><trkpt lat="45.1511744" lon="9.3491951"><ele>70.0</ele><time>2026-04-25T09:40:34.169Z</time></trkpt><trkpt lat="45.1511099" lon="9.3490976"><ele>70.0</ele><time>2026-04-25T09:40:35.169Z</time></trkpt><trkpt lat="45.1510554" lon="9.3489982"><ele>70.0</ele><time>2026-04-25T09:40:36.169Z</time></trkpt><trkpt lat="45.1509707" lon="9.3488595"><ele>70.2</ele><time>2026-04-25T09:40:37.169Z</time></trkpt><trkpt lat="45.1509032" lon="9.3487495"><ele>70.4</ele><time>2026-04-25T09:40:38.169Z</time></trkpt><trkpt lat="45.1508329" lon="9.3486327"><ele>70.6</ele><time>2026-04-25T09:40:39.168Z</time></trkpt><trkpt lat="45.1507674" lon="9.3485395"><ele>70.8</ele><time>2026-04-25T09:40:40.169Z</time></trkpt><trkpt lat="45.1507082" lon="9.348432"><ele>71.0</ele><time>2026-04-25T09:40:41.168Z</time></trkpt><trkpt lat="45.1506526" lon="9.3483098"><ele>71.2</ele><time>2026-04-25T09:40:42.168Z</time></trkpt><trkpt lat="45.1506014" lon="9.3481754"><ele>71.39999999999999</ele><time>2026-04-25T09:40:43.168Z</time></trkpt><trkpt lat="45.1505505" lon="9.3480334"><ele>71.6</ele><time>2026-04-25T09:40:44.168Z</time></trkpt><trkpt lat="45.1505058" lon="9.3478949"><ele>71.8</ele><time>2026-04-25T09:40:45.169Z</time></trkpt><trkpt lat="45.1504629" lon="9.3477554"><ele>72.0</ele><time>2026-04-25T09:40:46.168Z</time></trkpt><trkpt lat="45.1504209" lon="9.3476339"><ele>72.0</ele><time>2026-04-25T09:40:47.169Z</time></trkpt><trkpt lat="45.1503808" lon="9.3474964"><ele>72.0</ele><time>2026-04-25T09:40:48.168Z</time></trkpt><trkpt lat="45.1503322" lon="9.3473474"><ele>72.0</ele><time>2026-04-25T09:40:49.168Z</time></trkpt><trkpt lat="45.1502759" lon="9.3471971"><ele>72.0</ele><time>2026-04-25T09:40:50.17Z</time></trkpt><trkpt lat="45.1502199" lon="9.3470372"><ele>72.5</ele><time>2026-04-25T09:40:51.168Z</time></trkpt><trkpt lat="45.1501589" lon="9.3468728"><ele>73.0</ele><time>2026-04-25T09:40:52.17Z</time></trkpt><trkpt lat="45.1501054" lon="9.3467212"><ele>73.5</ele><time>2026-04-25T09:40:53.17Z</time></trkpt><trkpt lat="45.1500494" lon="9.3465636"><ele>74.0</ele><time>2026-04-25T09:40:54.169Z</time></trkpt><trkpt lat="45.1499938" lon="9.3464174"><ele>73.5</ele><time>2026-04-25T09:40:55.169Z</time></trkpt><trkpt lat="45.1499418" lon="9.3462695"><ele>73.0</ele><time>2026-04-25T09:40:56.169Z</time></trkpt><trkpt lat="45.1498854" lon="9.346127"><ele>72.5</ele><time>2026-04-25T09:40:57.169Z</time></trkpt><trkpt lat="45.149825" lon="9.3459833"><ele>72.0</ele><time>2026-04-25T09:40:58.169Z</time></trkpt><trkpt lat="45.1497646" lon="9.3458466"><ele>71.5</ele><time>2026-04-25T09:40:59.17Z</time></trkpt><trkpt lat="45.1497222" lon="9.345699"><ele>71.0</ele><time>2026-04-25T09:41:00.168Z</time></trkpt><trkpt lat="45.149679" lon="9.3455501"><ele>70.5</ele><time>2026-04-25T09:41:01.169Z</time></trkpt><trkpt lat="45.1496311" lon="9.3453942"><ele>70.0</ele><time>2026-04-25T09:41:02.169Z</time></trkpt><trkpt lat="45.1495813" lon="9.3452337"><ele>70.0</ele><time>2026-04-25T09:41:03.169Z</time></trkpt><trkpt lat="45.149537" lon="9.3450862"><ele>70.0</ele><time>2026-04-25T09:41:04.169Z</time></trkpt><trkpt lat="45.1494927" lon="9.3449413"><ele>70.0</ele><time>2026-04-25T09:41:05.168Z</time></trkpt><trkpt lat="45.1494343" lon="9.3448001"><ele>70.0</ele><time>2026-04-25T09:41:06.169Z</time></trkpt><trkpt lat="45.1493871" lon="9.3446527"><ele>70.0</ele><time>2026-04-25T09:41:07.168Z</time></trkpt><trkpt lat="45.1493493" lon="9.3445179"><ele>70.0</ele><time>2026-04-25T09:41:08.168Z</time></trkpt><trkpt lat="45.1493025" lon="9.3443727"><ele>70.0</ele><time>2026-04-25T09:41:09.169Z</time></trkpt><trkpt lat="45.1492595" lon="9.3442205"><ele>70.0</ele><time>2026-04-25T09:41:10.169Z</time></trkpt><trkpt lat="45.1492238" lon="9.3440761"><ele>70.0</ele><time>2026-04-25T09:41:11.168Z</time></trkpt><trkpt lat="45.1491888" lon="9.3439148"><ele>70.2</ele><time>2026-04-25T09:41:12.169Z</time></trkpt><trkpt lat="45.1491637" lon="9.343769"><ele>70.4</ele><time>2026-04-25T09:41:13.169Z</time></trkpt><trkpt lat="45.1491312" lon="9.3436121"><ele>70.6</ele><time>2026-04-25T09:41:14.169Z</time></trkpt><trkpt lat="45.14909" lon="9.343508"><ele>70.8</ele><time>2026-04-25T09:41:15.169Z</time></trkpt><trkpt lat="45.1490598" lon="9.3433916"><ele>71.0</ele><time>2026-04-25T09:41:16.169Z</time></trkpt><trkpt lat="45.1490332" lon="9.3432615"><ele>70.8</ele><time>2026-04-25T09:41:17.168Z</time></trkpt><trkpt lat="45.1490199" lon="9.3431291"><ele>70.6</ele><time>2026-04-25T09:41:18.168Z</time></trkpt><trkpt lat="45.1490099" lon="9.3429851"><ele>70.4</ele><time>2026-04-25T09:41:19.168Z</time></trkpt><trkpt lat="45.1490008" lon="9.3428412"><ele>70.2</ele><time>2026-04-25T09:41:20.169Z</time></trkpt><trkpt lat="45.1489909" lon="9.3426865"><ele>70.0</ele><time>2026-04-25T09:41:21.169Z</time></trkpt><trkpt lat="45.1489738" lon="9.34254"><ele>70.0</ele><time>2026-04-25T09:41:22.169Z</time></trkpt><trkpt lat="45.1489617" lon="9.3423932"><ele>70.0</ele><time>2026-04-25T09:41:23.168Z</time></trkpt><trkpt lat="45.1489438" lon="9.342244"><ele>70.0</ele><time>2026-04-25T09:41:24.168Z</time></trkpt><trkpt lat="45.1489354" lon="9.3420845"><ele>70.0</ele><time>2026-04-25T09:41:25.169Z</time></trkpt><trkpt lat="45.148929" lon="9.3419501"><ele>70.0</ele><time>2026-04-25T09:41:26.169Z</time></trkpt><trkpt lat="45.1489228" lon="9.3418048"><ele>70.2</ele><time>2026-04-25T09:41:27.17Z</time></trkpt><trkpt lat="45.1489119" lon="9.34167"><ele>70.4</ele><time>2026-04-25T09:41:28.169Z</time></trkpt><trkpt lat="45.1489089" lon="9.3415536"><ele>70.6</ele><time>2026-04-25T09:41:29.168Z</time></trkpt><trkpt lat="45.1489053" lon="9.3414478"><ele>70.8</ele><time>2026-04-25T09:41:30.168Z</time></trkpt><trkpt lat="45.1488883" lon="9.3412556"><ele>71.0</ele><time>2026-04-25T09:41:32.169Z</time></trkpt><trkpt lat="45.1488829" lon="9.3411572"><ele>71.0</ele><time>2026-04-25T09:41:33.168Z</time></trkpt><trkpt lat="45.1488597" lon="9.340989"><ele>71.0</ele><time>2026-04-25T09:41:35.17Z</time></trkpt><trkpt lat="45.1487682" lon="9.3409321"><ele>71.0</ele><time>2026-04-25T09:41:38.169Z</time></trkpt><trkpt lat="45.1486386" lon="9.3409031"><ele>71.0</ele><time>2026-04-25T09:41:40.169Z</time></trkpt><trkpt lat="45.1485481" lon="9.3408661"><ele>71.0</ele><time>2026-04-25T09:41:41.169Z</time></trkpt><trkpt lat="45.1484559" lon="9.3408398"><ele>71.0</ele><time>2026-04-25T09:41:42.169Z</time></trkpt><trkpt lat="45.1483403" lon="9.340798"><ele>71.0</ele><time>2026-04-25T09:41:43.169Z</time></trkpt><trkpt lat="45.1482307" lon="9.3407604"><ele>71.0</ele><time>2026-04-25T09:41:44.169Z</time></trkpt><trkpt lat="45.1481198" lon="9.3407339"><ele>71.0</ele><time>2026-04-25T09:41:45.169Z</time></trkpt><trkpt lat="45.1480095" lon="9.3406983"><ele>71.0</ele><time>2026-04-25T09:41:46.169Z</time></trkpt><trkpt lat="45.147892" lon="9.3406577"><ele>71.0</ele><time>2026-04-25T09:41:47.169Z</time></trkpt><trkpt lat="45.1477738" lon="9.3406128"><ele>71.0</ele><time>2026-04-25T09:41:48.169Z</time></trkpt><trkpt lat="45.1476367" lon="9.3405706"><ele>71.0</ele><time>2026-04-25T09:41:49.168Z</time></trkpt><trkpt lat="45.1475104" lon="9.3405307"><ele>71.0</ele><time>2026-04-25T09:41:50.169Z</time></trkpt><trkpt lat="45.1473852" lon="9.3404899"><ele>71.0</ele><time>2026-04-25T09:41:51.169Z</time></trkpt><trkpt lat="45.1472598" lon="9.3404517"><ele>71.0</ele><time>2026-04-25T09:41:52.168Z</time></trkpt><trkpt lat="45.1471294" lon="9.3404094"><ele>71.0</ele><time>2026-04-25T09:41:53.169Z</time></trkpt><trkpt lat="45.1470064" lon="9.3403669"><ele>70.75</ele><time>2026-04-25T09:41:54.17Z</time></trkpt><trkpt lat="45.1468828" lon="9.3403311"><ele>70.5</ele><time>2026-04-25T09:41:55.17Z</time></trkpt><trkpt lat="45.1467576" lon="9.3402911"><ele>70.25</ele><time>2026-04-25T09:41:56.169Z</time></trkpt><trkpt lat="45.1466213" lon="9.3402583"><ele>70.0</ele><time>2026-04-25T09:41:57.169Z</time></trkpt><trkpt lat="45.1464979" lon="9.3402187"><ele>69.25</ele><time>2026-04-25T09:41:58.169Z</time></trkpt><trkpt lat="45.1463702" lon="9.3401984"><ele>68.5</ele><time>2026-04-25T09:41:59.169Z</time></trkpt><trkpt lat="45.1462461" lon="9.3402108"><ele>67.75</ele><time>2026-04-25T09:42:00.17Z</time></trkpt><trkpt lat="45.1461306" lon="9.3402717"><ele>67.0</ele><time>2026-04-25T09:42:01.168Z</time></trkpt><trkpt lat="45.146031" lon="9.3403733"><ele>67.0</ele><time>2026-04-25T09:42:02.17Z</time></trkpt><trkpt lat="45.1459393" lon="9.3404783"><ele>67.0</ele><time>2026-04-25T09:42:03.169Z</time></trkpt><trkpt lat="45.145853" lon="9.3405964"><ele>67.0</ele><time>2026-04-25T09:42:04.169Z</time></trkpt><trkpt lat="45.1457799" lon="9.3407183"><ele>67.0</ele><time>2026-04-25T09:42:05.168Z</time></trkpt><trkpt lat="45.145701" lon="9.3408493"><ele>67.25</ele><time>2026-04-25T09:42:06.169Z</time></trkpt><trkpt lat="45.1456083" lon="9.340974"><ele>67.5</ele><time>2026-04-25T09:42:07.17Z</time></trkpt><trkpt lat="45.1455086" lon="9.3410866"><ele>67.75</ele><time>2026-04-25T09:42:08.169Z</time></trkpt><trkpt lat="45.1453978" lon="9.3411806"><ele>68.0</ele><time>2026-04-25T09:42:09.168Z</time></trkpt><trkpt lat="45.1452747" lon="9.3412262"><ele>68.0</ele><time>2026-04-25T09:42:10.17Z</time></trkpt><trkpt lat="45.1451619" lon="9.3412468"><ele>68.0</ele><time>2026-04-25T09:42:11.17Z</time></trkpt><trkpt lat="45.1450405" lon="9.3412393"><ele>68.0</ele><time>2026-04-25T09:42:12.17Z</time></trkpt><trkpt lat="45.1449023" lon="9.3412113"><ele>68.0</ele><time>2026-04-25T09:42:13.17Z</time></trkpt><trkpt lat="45.144768" lon="9.3411833"><ele>66.75</ele><time>2026-04-25T09:42:14.17Z</time></trkpt><trkpt lat="45.1446171" lon="9.3412029"><ele>65.5</ele><time>2026-04-25T09:42:15.169Z</time></trkpt><trkpt lat="45.1444768" lon="9.341236"><ele>64.25</ele><time>2026-04-25T09:42:16.169Z</time></trkpt><trkpt lat="45.1443274" lon="9.3412753"><ele>63.0</ele><time>2026-04-25T09:42:17.169Z</time></trkpt><trkpt lat="45.1441668" lon="9.3413114"><ele>62.66666666666667</ele><time>2026-04-25T09:42:18.168Z</time></trkpt><trkpt lat="45.1440129" lon="9.341356"><ele>62.333333333333336</ele><time>2026-04-25T09:42:19.169Z</time></trkpt><trkpt lat="45.1438629" lon="9.3413757"><ele>62.0</ele><time>2026-04-25T09:42:20.168Z</time></trkpt><trkpt lat="45.1437116" lon="9.3414087"><ele>63.25</ele><time>2026-04-25T09:42:21.169Z</time></trkpt><trkpt lat="45.1435738" lon="9.3414252"><ele>64.5</ele><time>2026-04-25T09:42:22.169Z</time></trkpt><trkpt lat="45.1434408" lon="9.3414424"><ele>65.75</ele><time>2026-04-25T09:42:23.168Z</time></trkpt><trkpt lat="45.1433183" lon="9.3415007"><ele>67.0</ele><time>2026-04-25T09:42:24.17Z</time></trkpt><trkpt lat="45.1431944" lon="9.3415504"><ele>67.66666666666666</ele><time>2026-04-25T09:42:25.168Z</time></trkpt><trkpt lat="45.1431005" lon="9.3416154"><ele>68.33333333333333</ele><time>2026-04-25T09:42:26.168Z</time></trkpt><trkpt lat="45.1430761" lon="9.3418792"><ele>69.0</ele><time>2026-04-25T09:42:27.169Z</time></trkpt><trkpt lat="45.1430371" lon="9.3421038"><ele>69.25</ele><time>2026-04-25T09:42:28.169Z</time></trkpt><trkpt lat="45.1429821" lon="9.3422746"><ele>69.5</ele><time>2026-04-25T09:42:29.169Z</time></trkpt><trkpt lat="45.1429295" lon="9.3424594"><ele>69.75</ele><time>2026-04-25T09:42:30.169Z</time></trkpt><trkpt lat="45.1428768" lon="9.3426149"><ele>70.0</ele><time>2026-04-25T09:42:31.169Z</time></trkpt><trkpt lat="45.1427804" lon="9.342576"><ele>70.0</ele><time>2026-04-25T09:42:32.168Z</time></trkpt><trkpt lat="45.1427006" lon="9.3426404"><ele>70.0</ele><time>2026-04-25T09:42:33.169Z</time></trkpt><trkpt lat="45.1426127" lon="9.3426224"><ele>70.0</ele><time>2026-04-25T09:42:34.168Z</time></trkpt><trkpt lat="45.1424473" lon="9.3424902"><ele>70.0</ele><time>2026-04-25T09:42:35.168Z</time></trkpt><trkpt lat="45.1423168" lon="9.3424444"><ele>70.25</ele><time>2026-04-25T09:42:36.168Z</time></trkpt><trkpt lat="45.1421829" lon="9.342383"><ele>70.5</ele><time>2026-04-25T09:42:37.168Z</time></trkpt><trkpt lat="45.1420485" lon="9.3423211"><ele>70.75</ele><time>2026-04-25T09:42:38.169Z</time></trkpt><trkpt lat="45.1419308" lon="9.3422698"><ele>71.0</ele><time>2026-04-25T09:42:39.169Z</time></trkpt><trkpt lat="45.14181" lon="9.3422218"><ele>70.83333333333334</ele><time>2026-04-25T09:42:40.169Z</time></trkpt><trkpt lat="45.1417339" lon="9.3421788"><ele>70.66666666666667</ele><time>2026-04-25T09:42:41.168Z</time></trkpt><trkpt lat="45.1416427" lon="9.3421406"><ele>70.5</ele><time>2026-04-25T09:42:42.169Z</time></trkpt><trkpt lat="45.1415382" lon="9.3421095"><ele>70.33333333333333</ele><time>2026-04-25T09:42:43.169Z</time></trkpt><trkpt lat="45.1414713" lon="9.3420359"><ele>70.16666666666666</ele><time>2026-04-25T09:42:46.169Z</time></trkpt><trkpt lat="45.1415191" lon="9.3419519"><ele>70.0</ele><time>2026-04-25T09:42:48.17Z</time></trkpt><trkpt lat="45.1415932" lon="9.3418957"><ele>70.0</ele><time>2026-04-25T09:42:49.168Z</time></trkpt><trkpt lat="45.1417543" lon="9.3418239"><ele>70.0</ele><time>2026-04-25T09:42:51.169Z</time></trkpt><trkpt lat="45.1418282" lon="9.3417759"><ele>70.0</ele><time>2026-04-25T09:42:52.168Z</time></trkpt><trkpt lat="45.1419001" lon="9.3417204"><ele>70.0</ele><time>2026-04-25T09:42:53.17Z</time></trkpt><trkpt lat="45.1419733" lon="9.3416593"><ele>70.0</ele><time>2026-04-25T09:42:54.168Z</time></trkpt><trkpt lat="45.1420555" lon="9.3415895"><ele>70.0</ele><time>2026-04-25T09:42:55.169Z</time></trkpt><trkpt lat="45.1421203" lon="9.3415242"><ele>70.0</ele><time>2026-04-25T09:42:56.169Z</time></trkpt><trkpt lat="45.1421665" lon="9.3414592"><ele>70.0</ele><time>2026-04-25T09:42:57.169Z</time></trkpt><trkpt lat="45.1422226" lon="9.341358"><ele>70.0</ele><time>2026-04-25T09:42:59.17Z</time></trkpt><trkpt lat="45.1422087" lon="9.3412547"><ele>70.0</ele><time>2026-04-25T09:43:01.169Z</time></trkpt><trkpt lat="45.1421056" lon="9.3412027"><ele>70.0</ele><time>2026-04-25T09:43:03.169Z</time></trkpt><trkpt lat="45.1419381" lon="9.3412005"><ele>69.33333333333333</ele><time>2026-04-25T09:43:05.17Z</time></trkpt><trkpt lat="45.1418437" lon="9.3412131"><ele>68.66666666666666</ele><time>2026-04-25T09:43:06.168Z</time></trkpt><trkpt lat="45.14176" lon="9.3412064"><ele>68.0</ele><time>2026-04-25T09:43:07.169Z</time></trkpt><trkpt lat="45.1416749" lon="9.3411884"><ele>67.33333333333333</ele><time>2026-04-25T09:43:08.169Z</time></trkpt><trkpt lat="45.1415926" lon="9.3411558"><ele>66.66666666666667</ele><time>2026-04-25T09:43:09.168Z</time></trkpt><trkpt lat="45.1414993" lon="9.3411111"><ele>66.0</ele><time>2026-04-25T09:43:10.169Z</time></trkpt><trkpt lat="45.1414191" lon="9.3410755"><ele>66.0</ele><time>2026-04-25T09:43:11.17Z</time></trkpt><trkpt lat="45.1413365" lon="9.3410352"><ele>66.0</ele><time>2026-04-25T09:43:12.168Z</time></trkpt><trkpt lat="45.1412558" lon="9.3409937"><ele>66.0</ele><time>2026-04-25T09:43:13.169Z</time></trkpt><trkpt lat="45.1411851" lon="9.3409434"><ele>66.0</ele><time>2026-04-25T09:43:14.169Z</time></trkpt><trkpt lat="45.1411095" lon="9.3408938"><ele>66.0</ele><time>2026-04-25T09:43:15.169Z</time></trkpt><trkpt lat="45.1410352" lon="9.3408538"><ele>66.0</ele><time>2026-04-25T09:43:16.168Z</time></trkpt><trkpt lat="45.1409097" lon="9.3407887"><ele>66.0</ele><time>2026-04-25T09:43:18.169Z</time></trkpt><trkpt lat="45.1408396" lon="9.3407243"><ele>66.0</ele><time>2026-04-25T09:43:19.168Z</time></trkpt><trkpt lat="45.1407739" lon="9.340681"><ele>66.0</ele><time>2026-04-25T09:43:20.168Z</time></trkpt><trkpt lat="45.1407224" lon="9.3405846"><ele>66.0</ele><time>2026-04-25T09:43:21.168Z</time></trkpt><trkpt lat="45.1406506" lon="9.3405193"><ele>66.0</ele><time>2026-04-25T09:43:22.169Z</time></trkpt><trkpt lat="45.1405803" lon="9.3404314"><ele>66.0</ele><time>2026-04-25T09:43:23.168Z</time></trkpt><trkpt lat="45.140518" lon="9.3403517"><ele>65.16666666666667</ele><time>2026-04-25T09:43:24.168Z</time></trkpt><trkpt lat="45.1404618" lon="9.3402307"><ele>64.33333333333333</ele><time>2026-04-25T09:43:25.17Z</time></trkpt><trkpt lat="45.1404075" lon="9.3401599"><ele>63.5</ele><time>2026-04-25T09:43:26.168Z</time></trkpt><trkpt lat="45.1403572" lon="9.3400824"><ele>62.666666666666664</ele><time>2026-04-25T09:43:27.168Z</time></trkpt><trkpt lat="45.1403062" lon="9.3400108"><ele>61.83333333333333</ele><time>2026-04-25T09:43:28.168Z</time></trkpt><trkpt lat="45.1402475" lon="9.3399409"><ele>61.0</ele><time>2026-04-25T09:43:29.17Z</time></trkpt><trkpt lat="45.1402132" lon="9.3398593"><ele>61.0</ele><time>2026-04-25T09:43:30.168Z</time></trkpt><trkpt lat="45.1401199" lon="9.3397834"><ele>60.99999999999999</ele><time>2026-04-25T09:43:32.169Z</time></trkpt><trkpt lat="45.1400551" lon="9.3397412"><ele>60.99999999999999</ele><time>2026-04-25T09:43:33.169Z</time></trkpt><trkpt lat="45.1399943" lon="9.3397138"><ele>61.0</ele><time>2026-04-25T09:43:34.169Z</time></trkpt><trkpt lat="45.1398397" lon="9.3396528"><ele>61.0</ele><time>2026-04-25T09:43:36.17Z</time></trkpt><trkpt lat="45.1397531" lon="9.3396019"><ele>60.666666666666664</ele><time>2026-04-25T09:43:37.169Z</time></trkpt><trkpt lat="45.13968" lon="9.3395223"><ele>60.33333333333333</ele><time>2026-04-25T09:43:38.168Z</time></trkpt><trkpt lat="45.1396156" lon="9.3394612"><ele>60.0</ele><time>2026-04-25T09:43:39.169Z</time></trkpt><trkpt lat="45.1395567" lon="9.33942"><ele>59.66666666666667</ele><time>2026-04-25T09:43:40.169Z</time></trkpt><trkpt lat="45.1394976" lon="9.3393689"><ele>59.333333333333336</ele><time>2026-04-25T09:43:41.168Z</time></trkpt><trkpt lat="45.1393925" lon="9.3393314"><ele>59.0</ele><time>2026-04-25T09:43:43.168Z</time></trkpt><trkpt lat="45.1392972" lon="9.3393849"><ele>59.00000000000001</ele><time>2026-04-25T09:43:44.169Z</time></trkpt><trkpt lat="45.1392299" lon="9.3394149"><ele>59.0</ele><time>2026-04-25T09:43:45.17Z</time></trkpt><trkpt lat="45.1391565" lon="9.339444"><ele>59.0</ele><time>2026-04-25T09:43:46.168Z</time></trkpt><trkpt lat="45.1390222" lon="9.3395255"><ele>59.0</ele><time>2026-04-25T09:43:48.17Z</time></trkpt><trkpt lat="45.1389524" lon="9.3395854"><ele>59.00000000000001</ele><time>2026-04-25T09:43:49.169Z</time></trkpt><trkpt lat="45.1388902" lon="9.3396308"><ele>59.0</ele><time>2026-04-25T09:43:50.169Z</time></trkpt><trkpt lat="45.1388189" lon="9.3396801"><ele>58.50000000000001</ele><time>2026-04-25T09:43:51.169Z</time></trkpt><trkpt lat="45.1387509" lon="9.3397129"><ele>58.0</ele><time>2026-04-25T09:43:52.17Z</time></trkpt><trkpt lat="45.1386848" lon="9.3397503"><ele>57.5</ele><time>2026-04-25T09:43:53.17Z</time></trkpt><trkpt lat="45.1386069" lon="9.339788"><ele>57.0</ele><time>2026-04-25T09:43:54.17Z</time></trkpt><trkpt lat="45.138525" lon="9.3398087"><ele>56.50000000000001</ele><time>2026-04-25T09:43:55.169Z</time></trkpt><trkpt lat="45.1384388" lon="9.339833"><ele>56.0</ele><time>2026-04-25T09:43:56.168Z</time></trkpt><trkpt lat="45.1383566" lon="9.3398674"><ele>56.0</ele><time>2026-04-25T09:43:57.169Z</time></trkpt><trkpt lat="45.1382645" lon="9.3398931"><ele>55.99999999999999</ele><time>2026-04-25T09:43:58.169Z</time></trkpt><trkpt lat="45.1381507" lon="9.3399315"><ele>55.99999999999999</ele><time>2026-04-25T09:43:59.17Z</time></trkpt><trkpt lat="45.1380474" lon="9.3400522"><ele>56.0</ele><time>2026-04-25T09:44:01.169Z</time></trkpt><trkpt lat="45.1380033" lon="9.3401558"><ele>56.0</ele><time>2026-04-25T09:44:02.169Z</time></trkpt><trkpt lat="45.1379597" lon="9.3402509"><ele>57.00000000000001</ele><time>2026-04-25T09:44:03.169Z</time></trkpt><trkpt lat="45.1379119" lon="9.3403478"><ele>58.0</ele><time>2026-04-25T09:44:04.169Z</time></trkpt><trkpt lat="45.1378623" lon="9.3404409"><ele>59.0</ele><time>2026-04-25T09:44:05.169Z</time></trkpt><trkpt lat="45.1378229" lon="9.3405337"><ele>60.0</ele><time>2026-04-25T09:44:06.168Z</time></trkpt><trkpt lat="45.1377852" lon="9.340629"><ele>61.00000000000001</ele><time>2026-04-25T09:44:07.169Z</time></trkpt><trkpt lat="45.1377028" lon="9.3407359"><ele>62.0</ele><time>2026-04-25T09:44:09.168Z</time></trkpt><trkpt lat="45.1376255" lon="9.3408261"><ele>62.6</ele><time>2026-04-25T09:44:11.168Z</time></trkpt><trkpt lat="45.1375543" lon="9.3408206"><ele>63.2</ele><time>2026-04-25T09:44:12.168Z</time></trkpt><trkpt lat="45.1374735" lon="9.3407871"><ele>63.8</ele><time>2026-04-25T09:44:13.168Z</time></trkpt><trkpt lat="45.1373814" lon="9.3407567"><ele>64.4</ele><time>2026-04-25T09:44:14.168Z</time></trkpt><trkpt lat="45.1372663" lon="9.3407583"><ele>65.0</ele><time>2026-04-25T09:44:15.169Z</time></trkpt><trkpt lat="45.1371618" lon="9.3407474"><ele>65.75</ele><time>2026-04-25T09:44:16.168Z</time></trkpt><trkpt lat="45.1370496" lon="9.340741"><ele>66.5</ele><time>2026-04-25T09:44:17.169Z</time></trkpt><trkpt lat="45.1369328" lon="9.340749"><ele>67.25</ele><time>2026-04-25T09:44:18.169Z</time></trkpt><trkpt lat="45.136816" lon="9.3407419"><ele>68.0</ele><time>2026-04-25T09:44:19.168Z</time></trkpt><trkpt lat="45.136688" lon="9.3407345"><ele>68.0</ele><time>2026-04-25T09:44:20.168Z</time></trkpt><trkpt lat="45.1366178" lon="9.3407739"><ele>68.0</ele><time>2026-04-25T09:44:21.169Z</time></trkpt><trkpt lat="45.136518" lon="9.3407884"><ele>68.0</ele><time>2026-04-25T09:44:22.168Z</time></trkpt><trkpt lat="45.1364523" lon="9.3408495"><ele>68.0</ele><time>2026-04-25T09:44:23.17Z</time></trkpt><trkpt lat="45.1363748" lon="9.3408733"><ele>68.0</ele><time>2026-04-25T09:44:25.169Z</time></trkpt><trkpt lat="45.1362655" lon="9.3409633"><ele>68.75</ele><time>2026-04-25T09:45:26.169Z</time></trkpt><trkpt lat="45.1361767" lon="9.3410198"><ele>69.5</ele><time>2026-04-25T09:45:28.168Z</time></trkpt><trkpt lat="45.1360974" lon="9.3410848"><ele>70.25</ele><time>2026-04-25T09:45:30.17Z</time></trkpt><trkpt lat="45.1360829" lon="9.3412045"><ele>71.0</ele><time>2026-04-25T09:45:51.169Z</time></trkpt><trkpt lat="45.1360432" lon="9.3414847"><ele>71.0</ele><time>2026-04-25T09:45:53.168Z</time></trkpt><trkpt lat="45.1360462" lon="9.3416031"><ele>71.0</ele><time>2026-04-25T09:45:54.169Z</time></trkpt><trkpt lat="45.1360944" lon="9.3417457"><ele>71.0</ele><time>2026-04-25T09:45:56.17Z</time></trkpt><trkpt lat="45.136187" lon="9.3418524"><ele>71.0</ele><time>2026-04-25T09:45:58.168Z</time></trkpt><trkpt lat="45.1362657" lon="9.3419456"><ele>71.0</ele><time>2026-04-25T09:45:59.169Z</time></trkpt><trkpt lat="45.1363265" lon="9.3420156"><ele>71.0</ele><time>2026-04-25T09:46:00.168Z</time></trkpt><trkpt lat="45.1364389" lon="9.3421368"><ele>71.0</ele><time>2026-04-25T09:46:02.169Z</time></trkpt><trkpt lat="45.1364998" lon="9.3421958"><ele>71.0</ele><time>2026-04-25T09:46:03.169Z</time></trkpt><trkpt lat="45.1365503" lon="9.3422671"><ele>71.0</ele><time>2026-04-25T09:46:04.169Z</time></trkpt><trkpt lat="45.1365994" lon="9.342337"><ele>71.0</ele><time>2026-04-25T09:46:05.169Z</time></trkpt><trkpt lat="45.1366343" lon="9.3424382"><ele>71.0</ele><time>2026-04-25T09:46:06.17Z</time></trkpt><trkpt lat="45.1366621" lon="9.342542"><ele>71.0</ele><time>2026-04-25T09:46:07.168Z</time></trkpt><trkpt lat="45.1366957" lon="9.3426323"><ele>71.0</ele><time>2026-04-25T09:46:08.168Z</time></trkpt><trkpt lat="45.1367335" lon="9.3427183"><ele>71.0</ele><time>2026-04-25T09:46:09.169Z</time></trkpt><trkpt lat="45.1367914" lon="9.3427858"><ele>71.0</ele><time>2026-04-25T09:46:10.169Z</time></trkpt><trkpt lat="45.1368533" lon="9.3428366"><ele>71.0</ele><time>2026-04-25T09:46:11.168Z</time></trkpt><trkpt lat="45.1369106" lon="9.3428853"><ele>71.0</ele><time>2026-04-25T09:46:12.17Z</time></trkpt><trkpt lat="45.1369835" lon="9.3429157"><ele>71.0</ele><time>2026-04-25T09:46:13.169Z</time></trkpt><trkpt lat="45.1370519" lon="9.342944"><ele>71.0</ele><time>2026-04-25T09:46:14.169Z</time></trkpt><trkpt lat="45.137172" lon="9.3429845"><ele>71.0</ele><time>2026-04-25T09:46:16.168Z</time></trkpt><trkpt lat="45.1372384" lon="9.3429803"><ele>71.0</ele><time>2026-04-25T09:46:17.17Z</time></trkpt><trkpt lat="45.137318" lon="9.3429813"><ele>71.0</ele><time>2026-04-25T09:46:18.169Z</time></trkpt><trkpt lat="45.13741" lon="9.3429859"><ele>71.0</ele><time>2026-04-25T09:46:19.168Z</time></trkpt><trkpt lat="45.1375053" lon="9.3429903"><ele>70.2</ele><time>2026-04-25T09:46:20.169Z</time></trkpt><trkpt lat="45.137594" lon="9.3429947"><ele>69.39999999999999</ele><time>2026-04-25T09:46:21.168Z</time></trkpt><trkpt lat="45.1376833" lon="9.3429975"><ele>68.6</ele><time>2026-04-25T09:46:22.17Z</time></trkpt><trkpt lat="45.1377694" lon="9.3430089"><ele>67.8</ele><time>2026-04-25T09:46:23.168Z</time></trkpt><trkpt lat="45.1378687" lon="9.3430093"><ele>67.0</ele><time>2026-04-25T09:46:24.169Z</time></trkpt><trkpt lat="45.1379612" lon="9.3430077"><ele>67.0</ele><time>2026-04-25T09:46:25.169Z</time></trkpt><trkpt lat="45.1380483" lon="9.3430033"><ele>67.0</ele><time>2026-04-25T09:46:26.168Z</time></trkpt><trkpt lat="45.1381415" lon="9.3429961"><ele>67.0</ele><time>2026-04-25T09:46:27.168Z</time></trkpt><trkpt lat="45.1382314" lon="9.3429778"><ele>67.0</ele><time>2026-04-25T09:46:28.169Z</time></trkpt><trkpt lat="45.1383217" lon="9.3429604"><ele>67.0</ele><time>2026-04-25T09:46:29.169Z</time></trkpt><trkpt lat="45.1384086" lon="9.3429397"><ele>67.0</ele><time>2026-04-25T09:46:30.169Z</time></trkpt><trkpt lat="45.1385309" lon="9.342909"><ele>67.0</ele><time>2026-04-25T09:46:32.168Z</time></trkpt><trkpt lat="45.1386237" lon="9.3428624"><ele>67.0</ele><time>2026-04-25T09:46:34.169Z</time></trkpt><trkpt lat="45.1386866" lon="9.3428291"><ele>67.0</ele><time>2026-04-25T09:47:02.168Z</time></trkpt><trkpt lat="45.1387097" lon="9.3427361"><ele>67.0</ele><time>2026-04-25T09:47:05.168Z</time></trkpt><trkpt lat="45.1387179" lon="9.3426433"><ele>67.0</ele><time>2026-04-25T09:47:06.169Z</time></trkpt><trkpt lat="45.1386974" lon="9.342552"><ele>67.0</ele><time>2026-04-25T09:47:07.17Z</time></trkpt><trkpt lat="45.1386678" lon="9.3424651"><ele>67.0</ele><time>2026-04-25T09:47:08.168Z</time></trkpt><trkpt lat="45.1386179" lon="9.3423772"><ele>67.0</ele><time>2026-04-25T09:47:09.169Z</time></trkpt><trkpt lat="45.1385577" lon="9.3422794"><ele>67.0</ele><time>2026-04-25T09:47:10.17Z</time></trkpt><trkpt lat="45.1384865" lon="9.3421363"><ele>67.0</ele><time>2026-04-25T09:47:11.168Z</time></trkpt><trkpt lat="45.1384272" lon="9.3420126"><ele>67.25</ele><time>2026-04-25T09:47:12.169Z</time></trkpt><trkpt lat="45.1383555" lon="9.341894"><ele>67.5</ele><time>2026-04-25T09:47:13.169Z</time></trkpt><trkpt lat="45.1382829" lon="9.3417414"><ele>67.75</ele><time>2026-04-25T09:47:14.168Z</time></trkpt><trkpt lat="45.1382108" lon="9.3415858"><ele>68.0</ele><time>2026-04-25T09:47:15.169Z</time></trkpt><trkpt lat="45.1381697" lon="9.3414466"><ele>67.4</ele><time>2026-04-25T09:47:16.168Z</time></trkpt><trkpt lat="45.1381241" lon="9.3413151"><ele>66.8</ele><time>2026-04-25T09:47:17.168Z</time></trkpt><trkpt lat="45.1380693" lon="9.3411963"><ele>66.2</ele><time>2026-04-25T09:47:18.168Z</time></trkpt><trkpt lat="45.1380186" lon="9.3410826"><ele>65.6</ele><time>2026-04-25T09:47:19.168Z</time></trkpt><trkpt lat="45.1379652" lon="9.3409727"><ele>65.0</ele><time>2026-04-25T09:47:20.169Z</time></trkpt><trkpt lat="45.1378568" lon="9.3408799"><ele>65.0</ele><time>2026-04-25T09:47:22.17Z</time></trkpt><trkpt lat="45.13778" lon="9.3408447"><ele>65.0</ele><time>2026-04-25T09:47:23.17Z</time></trkpt><trkpt lat="45.1376974" lon="9.3408191"><ele>65.0</ele><time>2026-04-25T09:47:24.169Z</time></trkpt><trkpt lat="45.1376118" lon="9.34079"><ele>65.0</ele><time>2026-04-25T09:47:25.17Z</time></trkpt><trkpt lat="45.1375048" lon="9.3407712"><ele>65.0</ele><time>2026-04-25T09:47:26.168Z</time></trkpt><trkpt lat="45.1373939" lon="9.340746"><ele>65.6</ele><time>2026-04-25T09:47:27.169Z</time></trkpt><trkpt lat="45.1373008" lon="9.3407515"><ele>66.2</ele><time>2026-04-25T09:47:28.169Z</time></trkpt><trkpt lat="45.1371977" lon="9.3407458"><ele>66.8</ele><time>2026-04-25T09:47:29.169Z</time></trkpt><trkpt lat="45.1370935" lon="9.3407449"><ele>67.4</ele><time>2026-04-25T09:47:30.17Z</time></trkpt><trkpt lat="45.1369889" lon="9.3407428"><ele>68.0</ele><time>2026-04-25T09:47:31.17Z</time></trkpt><trkpt lat="45.136871" lon="9.3407485"><ele>68.0</ele><time>2026-04-25T09:47:32.169Z</time></trkpt><trkpt lat="45.1367812" lon="9.340773"><ele>68.0</ele><time>2026-04-25T09:47:33.168Z</time></trkpt><trkpt lat="45.1366493" lon="9.3407862"><ele>68.0</ele><time>2026-04-25T09:47:34.168Z</time></trkpt><trkpt lat="45.1365302" lon="9.3407949"><ele>68.0</ele><time>2026-04-25T09:47:35.168Z</time></trkpt><trkpt lat="45.1364537" lon="9.3408093"><ele>68.0</ele><time>2026-04-25T09:47:36.169Z</time></trkpt><trkpt lat="45.1363569" lon="9.3409393"><ele>68.5</ele><time>2026-04-25T09:47:38.169Z</time></trkpt><trkpt lat="45.1363177" lon="9.3410314"><ele>69.0</ele><time>2026-04-25T09:47:39.169Z</time></trkpt><trkpt lat="45.1363001" lon="9.3411342"><ele>69.5</ele><time>2026-04-25T09:47:40.168Z</time></trkpt><trkpt lat="45.1362876" lon="9.3412392"><ele>70.0</ele><time>2026-04-25T09:47:41.169Z</time></trkpt><trkpt lat="45.1363057" lon="9.3413578"><ele>70.5</ele><time>2026-04-25T09:47:42.168Z</time></trkpt><trkpt lat="45.1363315" lon="9.3414954"><ele>71.0</ele><time>2026-04-25T09:47:43.169Z</time></trkpt><trkpt lat="45.1363792" lon="9.3416382"><ele>71.0</ele><time>2026-04-25T09:47:44.168Z</time></trkpt><trkpt lat="45.1364381" lon="9.3418186"><ele>71.0</ele><time>2026-04-25T09:47:45.169Z</time></trkpt><trkpt lat="45.1364909" lon="9.3419964"><ele>71.0</ele><time>2026-04-25T09:47:46.168Z</time></trkpt><trkpt lat="45.1365404" lon="9.3421443"><ele>71.0</ele><time>2026-04-25T09:47:47.169Z</time></trkpt><trkpt lat="45.1365841" lon="9.3423024"><ele>71.0</ele><time>2026-04-25T09:47:48.169Z</time></trkpt><trkpt lat="45.1366299" lon="9.3424325"><ele>71.0</ele><time>2026-04-25T09:47:49.168Z</time></trkpt><trkpt lat="45.1366682" lon="9.3425534"><ele>71.0</ele><time>2026-04-25T09:47:50.168Z</time></trkpt><trkpt lat="45.1367136" lon="9.3426662"><ele>71.0</ele><time>2026-04-25T09:47:51.168Z</time></trkpt><trkpt lat="45.1367575" lon="9.3427705"><ele>71.0</ele><time>2026-04-25T09:47:52.17Z</time></trkpt><trkpt lat="45.1368307" lon="9.3428583"><ele>71.0</ele><time>2026-04-25T09:47:53.169Z</time></trkpt><trkpt lat="45.1369076" lon="9.3429139"><ele>71.0</ele><time>2026-04-25T09:47:54.169Z</time></trkpt><trkpt lat="45.1370172" lon="9.3429628"><ele>71.0</ele><time>2026-04-25T09:47:55.168Z</time></trkpt><trkpt lat="45.1371553" lon="9.3429908"><ele>71.0</ele><time>2026-04-25T09:47:56.169Z</time></trkpt><trkpt lat="45.1372806" lon="9.3430021"><ele>71.0</ele><time>2026-04-25T09:47:57.169Z</time></trkpt><trkpt lat="45.1373837" lon="9.3430095"><ele>71.0</ele><time>2026-04-25T09:47:58.17Z</time></trkpt><trkpt lat="45.1375046" lon="9.3430024"><ele>71.0</ele><time>2026-04-25T09:47:59.169Z</time></trkpt><trkpt lat="45.1376389" lon="9.3429999"><ele>71.0</ele><time>2026-04-25T09:48:00.168Z</time></trkpt><trkpt lat="45.1377678" lon="9.3430046"><ele>70.0</ele><time>2026-04-25T09:48:01.168Z</time></trkpt><trkpt lat="45.137912" lon="9.3429985"><ele>69.0</ele><time>2026-04-25T09:48:02.169Z</time></trkpt><trkpt lat="45.1380379" lon="9.3429929"><ele>68.0</ele><time>2026-04-25T09:48:03.169Z</time></trkpt><trkpt lat="45.1381592" lon="9.3429757"><ele>67.0</ele><time>2026-04-25T09:48:04.169Z</time></trkpt><trkpt lat="45.1382801" lon="9.3429526"><ele>67.0</ele><time>2026-04-25T09:48:05.17Z</time></trkpt><trkpt lat="45.1383974" lon="9.3429317"><ele>67.0</ele><time>2026-04-25T09:48:06.17Z</time></trkpt><trkpt lat="45.1384809" lon="9.3429022"><ele>67.0</ele><time>2026-04-25T09:48:07.169Z</time></trkpt><trkpt lat="45.1385597" lon="9.342878"><ele>67.0</ele><time>2026-04-25T09:48:08.168Z</time></trkpt><trkpt lat="45.1386203" lon="9.3428431"><ele>67.0</ele><time>2026-04-25T09:48:09.17Z</time></trkpt><trkpt lat="45.1386797" lon="9.3427866"><ele>67.0</ele><time>2026-04-25T09:48:11.168Z</time></trkpt><trkpt lat="45.1387085" lon="9.3426902"><ele>67.0</ele><time>2026-04-25T09:48:14.168Z</time></trkpt><trkpt lat="45.138693" lon="9.3425965"><ele>67.0</ele><time>2026-04-25T09:48:16.168Z</time></trkpt><trkpt lat="45.138642" lon="9.3424784"><ele>67.0</ele><time>2026-04-25T09:48:18.169Z</time></trkpt><trkpt lat="45.1385803" lon="9.342361"><ele>67.0</ele><time>2026-04-25T09:48:20.168Z</time></trkpt><trkpt lat="45.1384975" lon="9.3421997"><ele>67.0</ele><time>2026-04-25T09:48:22.168Z</time></trkpt><trkpt lat="45.1384609" lon="9.3421091"><ele>67.25</ele><time>2026-04-25T09:48:23.169Z</time></trkpt><trkpt lat="45.1384126" lon="9.3419818"><ele>67.5</ele><time>2026-04-25T09:48:24.169Z</time></trkpt><trkpt lat="45.1383399" lon="9.3418199"><ele>67.75</ele><time>2026-04-25T09:48:25.169Z</time></trkpt><trkpt lat="45.1382738" lon="9.3416605"><ele>68.0</ele><time>2026-04-25T09:48:26.168Z</time></trkpt><trkpt lat="45.1382122" lon="9.3415083"><ele>67.5</ele><time>2026-04-25T09:48:27.169Z</time></trkpt><trkpt lat="45.1381553" lon="9.3413774"><ele>67.0</ele><time>2026-04-25T09:48:28.168Z</time></trkpt><trkpt lat="45.1381074" lon="9.3412665"><ele>66.5</ele><time>2026-04-25T09:48:29.168Z</time></trkpt><trkpt lat="45.138064" lon="9.3411622"><ele>66.0</ele><time>2026-04-25T09:48:30.17Z</time></trkpt><trkpt lat="45.1380125" lon="9.3410563"><ele>65.5</ele><time>2026-04-25T09:48:31.17Z</time></trkpt><trkpt lat="45.1379723" lon="9.3409764"><ele>65.0</ele><time>2026-04-25T09:48:32.169Z</time></trkpt><trkpt lat="45.1378738" lon="9.3408737"><ele>65.0</ele><time>2026-04-25T09:48:34.169Z</time></trkpt><trkpt lat="45.1377928" lon="9.3408369"><ele>65.0</ele><time>2026-04-25T09:48:35.168Z</time></trkpt><trkpt lat="45.137692" lon="9.3408029"><ele>65.0</ele><time>2026-04-25T09:48:36.17Z</time></trkpt><trkpt lat="45.1375859" lon="9.3407685"><ele>65.0</ele><time>2026-04-25T09:48:37.169Z</time></trkpt><trkpt lat="45.1374503" lon="9.3407606"><ele>65.0</ele><time>2026-04-25T09:48:38.168Z</time></trkpt><trkpt lat="45.1373215" lon="9.3407526"><ele>65.75</ele><time>2026-04-25T09:48:39.169Z</time></trkpt><trkpt lat="45.1371962" lon="9.3407492"><ele>66.5</ele><time>2026-04-25T09:48:40.168Z</time></trkpt><trkpt lat="45.1370824" lon="9.3407394"><ele>67.25</ele><time>2026-04-25T09:48:41.169Z</time></trkpt><trkpt lat="45.1369603" lon="9.3407453"><ele>68.0</ele><time>2026-04-25T09:48:42.169Z</time></trkpt><trkpt lat="45.1368385" lon="9.3407547"><ele>68.0</ele><time>2026-04-25T09:48:43.168Z</time></trkpt><trkpt lat="45.1367197" lon="9.3407667"><ele>68.0</ele><time>2026-04-25T09:48:44.168Z</time></trkpt><trkpt lat="45.1366132" lon="9.3407834"><ele>68.0</ele><time>2026-04-25T09:48:45.169Z</time></trkpt><trkpt lat="45.1365199" lon="9.3407956"><ele>68.0</ele><time>2026-04-25T09:48:46.169Z</time></trkpt><trkpt lat="45.136449" lon="9.3408326"><ele>68.0</ele><time>2026-04-25T09:48:47.169Z</time></trkpt><trkpt lat="45.1363876" lon="9.3408986"><ele>68.5</ele><time>2026-04-25T09:48:48.169Z</time></trkpt><trkpt lat="45.1363367" lon="9.3409797"><ele>69.0</ele><time>2026-04-25T09:48:49.168Z</time></trkpt><trkpt lat="45.1362925" lon="9.3410557"><ele>69.5</ele><time>2026-04-25T09:48:50.169Z</time></trkpt><trkpt lat="45.1362785" lon="9.3411684"><ele>70.0</ele><time>2026-04-25T09:48:51.168Z</time></trkpt><trkpt lat="45.1363091" lon="9.3413169"><ele>70.5</ele><time>2026-04-25T09:48:52.169Z</time></trkpt><trkpt lat="45.1363266" lon="9.3414643"><ele>71.0</ele><time>2026-04-25T09:48:53.17Z</time></trkpt><trkpt lat="45.1363737" lon="9.3415986"><ele>71.0</ele><time>2026-04-25T09:48:54.169Z</time></trkpt><trkpt lat="45.1364175" lon="9.3417287"><ele>71.0</ele><time>2026-04-25T09:48:55.169Z</time></trkpt><trkpt lat="45.1364672" lon="9.3418692"><ele>71.0</ele><time>2026-04-25T09:48:56.169Z</time></trkpt><trkpt lat="45.1365084" lon="9.3420098"><ele>71.0</ele><time>2026-04-25T09:48:57.168Z</time></trkpt><trkpt lat="45.1365462" lon="9.3421974"><ele>71.0</ele><time>2026-04-25T09:48:58.17Z</time></trkpt><trkpt lat="45.1366079" lon="9.342382"><ele>71.0</ele><time>2026-04-25T09:48:59.168Z</time></trkpt><trkpt lat="45.1366604" lon="9.3425582"><ele>71.0</ele><time>2026-04-25T09:49:00.169Z</time></trkpt><trkpt lat="45.1367061" lon="9.3426624"><ele>71.0</ele><time>2026-04-25T09:49:01.169Z</time></trkpt><trkpt lat="45.1367715" lon="9.3427607"><ele>71.0</ele><time>2026-04-25T09:49:02.168Z</time></trkpt><trkpt lat="45.1368476" lon="9.3428367"><ele>71.0</ele><time>2026-04-25T09:49:03.17Z</time></trkpt><trkpt lat="45.1369311" lon="9.3429014"><ele>71.0</ele><time>2026-04-25T09:49:04.168Z</time></trkpt><trkpt lat="45.137022" lon="9.3429428"><ele>71.0</ele><time>2026-04-25T09:49:05.169Z</time></trkpt><trkpt lat="45.1371354" lon="9.3429786"><ele>71.0</ele><time>2026-04-25T09:49:06.168Z</time></trkpt><trkpt lat="45.1372744" lon="9.3429839"><ele>70.0</ele><time>2026-04-25T09:49:07.169Z</time></trkpt><trkpt lat="45.1373986" lon="9.3429903"><ele>69.0</ele><time>2026-04-25T09:49:08.169Z</time></trkpt><trkpt lat="45.1375311" lon="9.3429934"><ele>68.0</ele><time>2026-04-25T09:49:09.169Z</time></trkpt><trkpt lat="45.1376815" lon="9.3429936"><ele>67.0</ele><time>2026-04-25T09:49:10.169Z</time></trkpt><trkpt lat="45.1378346" lon="9.3429801"><ele>67.0</ele><time>2026-04-25T09:49:11.169Z</time></trkpt><trkpt lat="45.1379639" lon="9.3429773"><ele>67.0</ele><time>2026-04-25T09:49:12.17Z</time></trkpt><trkpt lat="45.1381311" lon="9.3429796"><ele>67.0</ele><time>2026-04-25T09:49:13.169Z</time></trkpt><trkpt lat="45.138237" lon="9.3429671"><ele>67.0</ele><time>2026-04-25T09:49:14.169Z</time></trkpt><trkpt lat="45.1383586" lon="9.3429433"><ele>67.0</ele><time>2026-04-25T09:49:15.169Z</time></trkpt><trkpt lat="45.1384732" lon="9.3429128"><ele>67.0</ele><time>2026-04-25T09:49:16.169Z</time></trkpt><trkpt lat="45.1385604" lon="9.3428853"><ele>67.0</ele><time>2026-04-25T09:49:17.168Z</time></trkpt><trkpt lat="45.1386303" lon="9.342851"><ele>67.0</ele><time>2026-04-25T09:49:18.169Z</time></trkpt><trkpt lat="45.1387084" lon="9.342782"><ele>67.0</ele><time>2026-04-25T09:49:20.169Z</time></trkpt><trkpt lat="45.1387371" lon="9.3426896"><ele>67.0</ele><time>2026-04-25T09:49:22.169Z</time></trkpt><trkpt lat="45.1387207" lon="9.3425936"><ele>67.0</ele><time>2026-04-25T09:49:26.169Z</time></trkpt><trkpt lat="45.1386445" lon="9.342437"><ele>67.0</ele><time>2026-04-25T09:49:43.169Z</time></trkpt><trkpt lat="45.138581" lon="9.3423184"><ele>67.0</ele><time>2026-04-25T09:49:44.169Z</time></trkpt><trkpt lat="45.1384996" lon="9.3421623"><ele>67.0</ele><time>2026-04-25T09:49:45.169Z</time></trkpt><trkpt lat="45.1384036" lon="9.3419645"><ele>67.25</ele><time>2026-04-25T09:49:46.169Z</time></trkpt><trkpt lat="45.1383197" lon="9.3417735"><ele>67.5</ele><time>2026-04-25T09:49:47.169Z</time></trkpt><trkpt lat="45.1382469" lon="9.3415982"><ele>67.75</ele><time>2026-04-25T09:49:48.169Z</time></trkpt><trkpt lat="45.138183" lon="9.3414398"><ele>68.0</ele><time>2026-04-25T09:49:49.169Z</time></trkpt><trkpt lat="45.1381261" lon="9.3412964"><ele>67.4</ele><time>2026-04-25T09:49:50.168Z</time></trkpt><trkpt lat="45.1380638" lon="9.3411582"><ele>66.8</ele><time>2026-04-25T09:49:51.168Z</time></trkpt><trkpt lat="45.1380074" lon="9.3410446"><ele>66.2</ele><time>2026-04-25T09:49:52.169Z</time></trkpt><trkpt lat="45.1379657" lon="9.3409363"><ele>65.6</ele><time>2026-04-25T09:49:53.17Z</time></trkpt><trkpt lat="45.1379472" lon="9.340826"><ele>65.0</ele><time>2026-04-25T09:49:54.168Z</time></trkpt><trkpt lat="45.1379402" lon="9.3407007"><ele>65.0</ele><time>2026-04-25T09:49:55.169Z</time></trkpt><trkpt lat="45.1379281" lon="9.3405924"><ele>65.0</ele><time>2026-04-25T09:49:56.169Z</time></trkpt><trkpt lat="45.137895" lon="9.3404805"><ele>65.0</ele><time>2026-04-25T09:49:58.168Z</time></trkpt><trkpt lat="45.137823" lon="9.3404569"><ele>65.0</ele><time>2026-04-25T09:50:00.168Z</time></trkpt><trkpt lat="45.137758" lon="9.3405053"><ele>65.0</ele><time>2026-04-25T09:50:03.168Z</time></trkpt><trkpt lat="45.1378376" lon="9.3405242"><ele>65.0</ele><time>2026-04-25T10:08:43.168Z</time></trkpt><trkpt lat="45.1378995" lon="9.3405481"><ele>65.0</ele><time>2026-04-25T10:08:45.167Z</time></trkpt><trkpt lat="45.1379546" lon="9.3406823"><ele>65.0</ele><time>2026-04-25T10:08:47.168Z</time></trkpt><trkpt lat="45.1379564" lon="9.340847"><ele>65.0</ele><time>2026-04-25T10:08:49.168Z</time></trkpt><trkpt lat="45.1379891" lon="9.3409538"><ele>65.0</ele><time>2026-04-25T10:08:50.167Z</time></trkpt><trkpt lat="45.1380133" lon="9.3410558"><ele>65.0</ele><time>2026-04-25T10:08:51.169Z</time></trkpt><trkpt lat="45.1380619" lon="9.3411669"><ele>65.0</ele><time>2026-04-25T10:08:52.168Z</time></trkpt><trkpt lat="45.1381075" lon="9.341277"><ele>65.0</ele><time>2026-04-25T10:08:53.167Z</time></trkpt><trkpt lat="45.1381566" lon="9.3413786"><ele>65.0</ele><time>2026-04-25T10:08:54.167Z</time></trkpt><trkpt lat="45.1382031" lon="9.3414877"><ele>65.0</ele><time>2026-04-25T10:08:55.168Z</time></trkpt><trkpt lat="45.1382472" lon="9.3415963"><ele>65.0</ele><time>2026-04-25T10:08:56.167Z</time></trkpt><trkpt lat="45.1382926" lon="9.3417054"><ele>65.0</ele><time>2026-04-25T10:08:57.169Z</time></trkpt><trkpt lat="45.1383367" lon="9.3418139"><ele>64.83333333333334</ele><time>2026-04-25T10:08:58.168Z</time></trkpt><trkpt lat="45.1383831" lon="9.3419152"><ele>64.66666666666667</ele><time>2026-04-25T10:08:59.167Z</time></trkpt><trkpt lat="45.138428" lon="9.3420218"><ele>64.5</ele><time>2026-04-25T10:09:00.169Z</time></trkpt><trkpt lat="45.138468" lon="9.3421271"><ele>64.33333333333333</ele><time>2026-04-25T10:09:01.168Z</time></trkpt><trkpt lat="45.1385204" lon="9.3422387"><ele>64.16666666666666</ele><time>2026-04-25T10:09:02.167Z</time></trkpt><trkpt lat="45.1385698" lon="9.342333"><ele>64.0</ele><time>2026-04-25T10:09:03.169Z</time></trkpt><trkpt lat="45.1386199" lon="9.3424248"><ele>64.5</ele><time>2026-04-25T10:09:04.167Z</time></trkpt><trkpt lat="45.1386696" lon="9.3425246"><ele>65.0</ele><time>2026-04-25T10:09:05.167Z</time></trkpt><trkpt lat="45.1387125" lon="9.3426303"><ele>65.5</ele><time>2026-04-25T10:09:06.168Z</time></trkpt><trkpt lat="45.1387573" lon="9.342731"><ele>66.0</ele><time>2026-04-25T10:09:07.168Z</time></trkpt><trkpt lat="45.1388063" lon="9.3428325"><ele>66.5</ele><time>2026-04-25T10:09:08.168Z</time></trkpt><trkpt lat="45.13885" lon="9.3429416"><ele>67.0</ele><time>2026-04-25T10:09:09.167Z</time></trkpt><trkpt lat="45.1388852" lon="9.3430812"><ele>67.16666666666666</ele><time>2026-04-25T10:09:11.169Z</time></trkpt><trkpt lat="45.1388368" lon="9.343211"><ele>67.33333333333333</ele><time>2026-04-25T10:09:13.169Z</time></trkpt><trkpt lat="45.1387642" lon="9.3433283"><ele>67.5</ele><time>2026-04-25T10:09:15.168Z</time></trkpt><trkpt lat="45.1386923" lon="9.3433281"><ele>67.66666666666667</ele><time>2026-04-25T10:09:16.168Z</time></trkpt><trkpt lat="45.1386099" lon="9.3433511"><ele>67.83333333333334</ele><time>2026-04-25T10:09:17.168Z</time></trkpt><trkpt lat="45.1385346" lon="9.3433839"><ele>68.0</ele><time>2026-04-25T10:09:18.169Z</time></trkpt><trkpt lat="45.1384555" lon="9.3434097"><ele>68.0</ele><time>2026-04-25T10:09:19.167Z</time></trkpt><trkpt lat="45.1383725" lon="9.3434372"><ele>68.0</ele><time>2026-04-25T10:09:20.168Z</time></trkpt><trkpt lat="45.1382884" lon="9.3435048"><ele>68.0</ele><time>2026-04-25T10:09:21.168Z</time></trkpt><trkpt lat="45.1382186" lon="9.3435489"><ele>68.0</ele><time>2026-04-25T10:09:22.168Z</time></trkpt><trkpt lat="45.1381438" lon="9.343581"><ele>68.0</ele><time>2026-04-25T10:09:23.168Z</time></trkpt><trkpt lat="45.1380719" lon="9.3436015"><ele>68.0</ele><time>2026-04-25T10:09:24.167Z</time></trkpt><trkpt lat="45.1379981" lon="9.3436177"><ele>67.83333333333334</ele><time>2026-04-25T10:09:25.167Z</time></trkpt><trkpt lat="45.1379286" lon="9.3436016"><ele>67.66666666666667</ele><time>2026-04-25T10:09:26.167Z</time></trkpt><trkpt lat="45.1378521" lon="9.3435311"><ele>67.5</ele><time>2026-04-25T10:09:28.168Z</time></trkpt><trkpt lat="45.1377811" lon="9.3434967"><ele>67.33333333333333</ele><time>2026-04-25T10:09:30.168Z</time></trkpt><trkpt lat="45.1377173" lon="9.3434785"><ele>67.16666666666666</ele><time>2026-04-25T10:09:33.168Z</time></trkpt><trkpt lat="45.1376078" lon="9.3434515"><ele>67.0</ele><time>2026-04-25T10:10:06.167Z</time></trkpt><trkpt lat="45.1374782" lon="9.3434262"><ele>67.0</ele><time>2026-04-25T10:10:08.168Z</time></trkpt><trkpt lat="45.1374014" lon="9.3434173"><ele>67.0</ele><time>2026-04-25T10:10:09.168Z</time></trkpt><trkpt lat="45.1373184" lon="9.3434002"><ele>67.0</ele><time>2026-04-25T10:10:10.168Z</time></trkpt><trkpt lat="45.1372313" lon="9.3433913"><ele>67.0</ele><time>2026-04-25T10:10:11.167Z</time></trkpt><trkpt lat="45.1371441" lon="9.3433796"><ele>67.0</ele><time>2026-04-25T10:10:12.167Z</time></trkpt><trkpt lat="45.1370595" lon="9.3433587"><ele>67.0</ele><time>2026-04-25T10:10:13.168Z</time></trkpt><trkpt lat="45.1369733" lon="9.3433265"><ele>66.83333333333333</ele><time>2026-04-25T10:10:14.168Z</time></trkpt><trkpt lat="45.1368905" lon="9.3433111"><ele>66.66666666666666</ele><time>2026-04-25T10:10:15.168Z</time></trkpt><trkpt lat="45.1368064" lon="9.3432812"><ele>66.5</ele><time>2026-04-25T10:10:16.168Z</time></trkpt><trkpt lat="45.1367217" lon="9.3432506"><ele>66.33333333333333</ele><time>2026-04-25T10:10:17.168Z</time></trkpt><trkpt lat="45.136644" lon="9.3432048"><ele>66.16666666666667</ele><time>2026-04-25T10:10:18.167Z</time></trkpt><trkpt lat="45.1365663" lon="9.3431564"><ele>66.0</ele><time>2026-04-25T10:10:19.168Z</time></trkpt><trkpt lat="45.1365057" lon="9.3430977"><ele>66.39999999999999</ele><time>2026-04-25T10:10:20.168Z</time></trkpt><trkpt lat="45.1364296" lon="9.3430225"><ele>66.8</ele><time>2026-04-25T10:10:21.168Z</time></trkpt><trkpt lat="45.1363564" lon="9.3429572"><ele>67.19999999999999</ele><time>2026-04-25T10:10:22.168Z</time></trkpt><trkpt lat="45.1362817" lon="9.3428905"><ele>67.6</ele><time>2026-04-25T10:10:23.168Z</time></trkpt><trkpt lat="45.1361916" lon="9.3428234"><ele>68.0</ele><time>2026-04-25T10:10:24.168Z</time></trkpt><trkpt lat="45.1361128" lon="9.3427731"><ele>68.0</ele><time>2026-04-25T10:10:25.167Z</time></trkpt><trkpt lat="45.1360314" lon="9.3427012"><ele>68.0</ele><time>2026-04-25T10:10:26.168Z</time></trkpt><trkpt lat="45.1359525" lon="9.3426313"><ele>68.0</ele><time>2026-04-25T10:10:27.167Z</time></trkpt><trkpt lat="45.1358946" lon="9.3425718"><ele>68.0</ele><time>2026-04-25T10:10:28.168Z</time></trkpt><trkpt lat="45.1358284" lon="9.3425072"><ele>68.0</ele><time>2026-04-25T10:10:29.168Z</time></trkpt><trkpt lat="45.1357631" lon="9.3424458"><ele>68.0</ele><time>2026-04-25T10:10:30.167Z</time></trkpt><trkpt lat="45.1357082" lon="9.3423905"><ele>68.5</ele><time>2026-04-25T10:10:31.169Z</time></trkpt><trkpt lat="45.1356533" lon="9.3423317"><ele>69.0</ele><time>2026-04-25T10:10:32.167Z</time></trkpt><trkpt lat="45.135599" lon="9.3422819"><ele>69.5</ele><time>2026-04-25T10:10:33.169Z</time></trkpt><trkpt lat="45.1355867" lon="9.3421669"><ele>70.0</ele><time>2026-04-25T10:10:36.167Z</time></trkpt><trkpt lat="45.1356511" lon="9.3420731"><ele>70.5</ele><time>2026-04-25T10:10:38.168Z</time></trkpt><trkpt lat="45.1357173" lon="9.3420389"><ele>71.0</ele><time>2026-04-25T10:10:39.168Z</time></trkpt><trkpt lat="45.1357907" lon="9.3418864"><ele>71.0</ele><time>2026-04-25T10:10:41.168Z</time></trkpt><trkpt lat="45.1358126" lon="9.3418018"><ele>71.0</ele><time>2026-04-25T10:10:42.169Z</time></trkpt><trkpt lat="45.1358349" lon="9.3417089"><ele>71.0</ele><time>2026-04-25T10:10:43.169Z</time></trkpt><trkpt lat="45.1358406" lon="9.3416153"><ele>71.0</ele><time>2026-04-25T10:10:44.167Z</time></trkpt><trkpt lat="45.1358464" lon="9.3415153"><ele>71.0</ele><time>2026-04-25T10:10:45.167Z</time></trkpt><trkpt lat="45.1358535" lon="9.3414029"><ele>71.0</ele><time>2026-04-25T10:10:46.169Z</time></trkpt><trkpt lat="45.1358596" lon="9.3412949"><ele>71.0</ele><time>2026-04-25T10:10:47.168Z</time></trkpt><trkpt lat="45.1358617" lon="9.3411855"><ele>71.33333333333334</ele><time>2026-04-25T10:10:48.167Z</time></trkpt><trkpt lat="45.1358568" lon="9.3410754"><ele>71.66666666666667</ele><time>2026-04-25T10:10:49.169Z</time></trkpt><trkpt lat="45.1358529" lon="9.3409753"><ele>72.0</ele><time>2026-04-25T10:10:50.167Z</time></trkpt><trkpt lat="45.1358471" lon="9.3408724"><ele>72.33333333333333</ele><time>2026-04-25T10:10:51.167Z</time></trkpt><trkpt lat="45.1358465" lon="9.3407658"><ele>72.66666666666666</ele><time>2026-04-25T10:10:52.167Z</time></trkpt><trkpt lat="45.1358488" lon="9.3406613"><ele>73.0</ele><time>2026-04-25T10:10:53.168Z</time></trkpt><trkpt lat="45.1358528" lon="9.3404897"><ele>73.0</ele><time>2026-04-25T10:10:55.168Z</time></trkpt><trkpt lat="45.1357711" lon="9.3404927"><ele>73.0</ele><time>2026-04-25T10:11:00.169Z</time></trkpt><trkpt lat="45.1356956" lon="9.3405648"><ele>73.0</ele><time>2026-04-25T10:11:02.168Z</time></trkpt><trkpt lat="45.1356603" lon="9.3406605"><ele>73.0</ele><time>2026-04-25T10:11:04.168Z</time></trkpt><trkpt lat="45.1356071" lon="9.3407209"><ele>73.0</ele><time>2026-04-25T10:11:06.169Z</time></trkpt><trkpt lat="45.1355283" lon="9.3407698"><ele>73.0</ele><time>2026-04-25T10:11:08.167Z</time></trkpt><trkpt lat="45.1354361" lon="9.3407003"><ele>73.0</ele><time>2026-04-25T10:11:11.167Z</time></trkpt><trkpt lat="45.1353794" lon="9.3406241"><ele>73.0</ele><time>2026-04-25T10:11:13.168Z</time></trkpt><trkpt lat="45.1352616" lon="9.3406303"><ele>73.0</ele><time>2026-04-25T10:11:15.167Z</time></trkpt><trkpt lat="45.1351491" lon="9.3406063"><ele>73.0</ele><time>2026-04-25T10:11:17.168Z</time></trkpt><trkpt lat="45.1350366" lon="9.3405866"><ele>73.0</ele><time>2026-04-25T10:11:19.168Z</time></trkpt><trkpt lat="45.1349222" lon="9.3405687"><ele>72.33333333333333</ele><time>2026-04-25T10:11:21.168Z</time></trkpt><trkpt lat="45.1348283" lon="9.3405609"><ele>71.66666666666666</ele><time>2026-04-25T10:11:23.167Z</time></trkpt><trkpt lat="45.1347631" lon="9.3405296"><ele>71.0</ele><time>2026-04-25T10:11:25.168Z</time></trkpt><trkpt lat="45.1347278" lon="9.3404296"><ele>70.33333333333333</ele><time>2026-04-25T10:11:29.168Z</time></trkpt><trkpt lat="45.1347474" lon="9.3403421"><ele>69.66666666666667</ele><time>2026-04-25T10:11:32.169Z</time></trkpt><trkpt lat="45.1347428" lon="9.3402506"><ele>69.0</ele><time>2026-04-25T10:13:55.167Z</time></trkpt><trkpt lat="45.1347095" lon="9.3401375"><ele>68.4</ele><time>2026-04-25T10:13:58.168Z</time></trkpt><trkpt lat="45.1346997" lon="9.3400368"><ele>67.80000000000001</ele><time>2026-04-25T10:14:00.167Z</time></trkpt><trkpt lat="45.1346498" lon="9.3398847"><ele>67.19999999999999</ele><time>2026-04-25T10:14:02.169Z</time></trkpt><trkpt lat="45.1346206" lon="9.3397669"><ele>66.6</ele><time>2026-04-25T10:14:06.167Z</time></trkpt><trkpt lat="45.1345329" lon="9.3397117"><ele>66.0</ele><time>2026-04-25T10:14:08.167Z</time></trkpt><trkpt lat="45.1344485" lon="9.3396366"><ele>64.2</ele><time>2026-04-25T10:14:10.168Z</time></trkpt><trkpt lat="45.1343705" lon="9.3395661"><ele>62.39999999999999</ele><time>2026-04-25T10:14:13.168Z</time></trkpt><trkpt lat="45.1342809" lon="9.3395521"><ele>60.6</ele><time>2026-04-25T10:14:16.168Z</time></trkpt><trkpt lat="45.134188" lon="9.3395643"><ele>58.8</ele><time>2026-04-25T10:14:18.167Z</time></trkpt><trkpt lat="45.1340642" lon="9.3395663"><ele>57.0</ele><time>2026-04-25T10:14:20.168Z</time></trkpt><trkpt lat="45.1339892" lon="9.3395933"><ele>57.0</ele><time>2026-04-25T10:14:21.169Z</time></trkpt><trkpt lat="45.1339165" lon="9.3396111"><ele>56.99999999999999</ele><time>2026-04-25T10:14:22.168Z</time></trkpt><trkpt lat="45.1338505" lon="9.3396262"><ele>57.0</ele><time>2026-04-25T10:14:23.168Z</time></trkpt><trkpt lat="45.1337863" lon="9.3396228"><ele>57.0</ele><time>2026-04-25T10:14:24.168Z</time></trkpt><trkpt lat="45.1337151" lon="9.3396394"><ele>56.99999999999999</ele><time>2026-04-25T10:14:25.168Z</time></trkpt><trkpt lat="45.1336311" lon="9.3396531"><ele>57.0</ele><time>2026-04-25T10:14:26.167Z</time></trkpt><trkpt lat="45.1335639" lon="9.3396688"><ele>57.0</ele><time>2026-04-25T10:14:27.168Z</time></trkpt><trkpt lat="45.1334785" lon="9.3396822"><ele>57.0</ele><time>2026-04-25T10:14:28.168Z</time></trkpt><trkpt lat="45.1334125" lon="9.3396831"><ele>57.0</ele><time>2026-04-25T10:14:29.169Z</time></trkpt><trkpt lat="45.1333077" lon="9.3396843"><ele>57.0</ele><time>2026-04-25T10:14:30.168Z</time></trkpt><trkpt lat="45.1332202" lon="9.339687"><ele>57.0</ele><time>2026-04-25T10:14:31.169Z</time></trkpt><trkpt lat="45.1331287" lon="9.339685"><ele>57.0</ele><time>2026-04-25T10:14:32.168Z</time></trkpt><trkpt lat="45.1330429" lon="9.339691"><ele>57.0</ele><time>2026-04-25T10:14:33.167Z</time></trkpt><trkpt lat="45.1329527" lon="9.3396898"><ele>56.833333333333336</ele><time>2026-04-25T10:14:34.168Z</time></trkpt><trkpt lat="45.1328768" lon="9.3396956"><ele>56.66666666666667</ele><time>2026-04-25T10:14:35.168Z</time></trkpt><trkpt lat="45.1327832" lon="9.3396972"><ele>56.5</ele><time>2026-04-25T10:14:36.167Z</time></trkpt><trkpt lat="45.1326996" lon="9.3396976"><ele>56.333333333333336</ele><time>2026-04-25T10:14:37.168Z</time></trkpt><trkpt lat="45.1326271" lon="9.339695"><ele>56.16666666666667</ele><time>2026-04-25T10:14:38.168Z</time></trkpt><trkpt lat="45.1325544" lon="9.339704"><ele>56.0</ele><time>2026-04-25T10:14:39.169Z</time></trkpt><trkpt lat="45.1324799" lon="9.3396974"><ele>56.0</ele><time>2026-04-25T10:14:40.167Z</time></trkpt><trkpt lat="45.1323931" lon="9.3396898"><ele>55.99999999999999</ele><time>2026-04-25T10:14:41.168Z</time></trkpt><trkpt lat="45.1323053" lon="9.33968"><ele>55.99999999999999</ele><time>2026-04-25T10:14:42.167Z</time></trkpt><trkpt lat="45.1322164" lon="9.3396686"><ele>56.0</ele><time>2026-04-25T10:14:43.168Z</time></trkpt><trkpt lat="45.1321087" lon="9.3396573"><ele>56.0</ele><time>2026-04-25T10:14:44.167Z</time></trkpt><trkpt lat="45.1320114" lon="9.3396416"><ele>56.0</ele><time>2026-04-25T10:14:45.168Z</time></trkpt><trkpt lat="45.1319091" lon="9.3396327"><ele>55.99999999999999</ele><time>2026-04-25T10:14:46.167Z</time></trkpt><trkpt lat="45.1318114" lon="9.3396219"><ele>55.99999999999999</ele><time>2026-04-25T10:14:47.167Z</time></trkpt><trkpt lat="45.1317226" lon="9.3396109"><ele>56.0</ele><time>2026-04-25T10:14:48.168Z</time></trkpt><trkpt lat="45.131628" lon="9.3396022"><ele>56.0</ele><time>2026-04-25T10:14:49.168Z</time></trkpt><trkpt lat="45.1315322" lon="9.3395889"><ele>56.4</ele><time>2026-04-25T10:14:50.169Z</time></trkpt><trkpt lat="45.131437" lon="9.3395769"><ele>56.8</ele><time>2026-04-25T10:14:51.167Z</time></trkpt><trkpt lat="45.1313443" lon="9.339563"><ele>57.199999999999996</ele><time>2026-04-25T10:14:52.169Z</time></trkpt><trkpt lat="45.1312521" lon="9.3395463"><ele>57.599999999999994</ele><time>2026-04-25T10:14:53.169Z</time></trkpt><trkpt lat="45.1311662" lon="9.3395321"><ele>58.0</ele><time>2026-04-25T10:14:54.167Z</time></trkpt><trkpt lat="45.1310835" lon="9.3395161"><ele>57.99999999999999</ele><time>2026-04-25T10:14:55.168Z</time></trkpt><trkpt lat="45.1310065" lon="9.3395009"><ele>58.0</ele><time>2026-04-25T10:14:56.168Z</time></trkpt><trkpt lat="45.1308856" lon="9.3395224"><ele>58.0</ele><time>2026-04-25T10:14:58.167Z</time></trkpt><trkpt lat="45.13082" lon="9.339533"><ele>58.0</ele><time>2026-04-25T10:14:59.168Z</time></trkpt><trkpt lat="45.1307609" lon="9.33958"><ele>57.99999999999999</ele><time>2026-04-25T10:15:02.167Z</time></trkpt><trkpt lat="45.1307411" lon="9.339672"><ele>58.0</ele><time>2026-04-25T10:15:11.167Z</time></trkpt><trkpt lat="45.1307272" lon="9.3395824"><ele>57.99999999999999</ele><time>2026-04-25T10:15:31.168Z</time></trkpt><trkpt lat="45.13074" lon="9.3397016"><ele>58.0</ele><time>2026-04-25T10:15:46.168Z</time></trkpt><trkpt lat="45.1307387" lon="9.3397951"><ele>58.0</ele><time>2026-04-25T10:15:48.168Z</time></trkpt><trkpt lat="45.1307452" lon="9.3396977"><ele>58.0</ele><time>2026-04-25T10:16:00.167Z</time></trkpt><trkpt lat="45.1307904" lon="9.3397937"><ele>57.99999999999999</ele><time>2026-04-25T10:16:30.167Z</time></trkpt><trkpt lat="45.1308488" lon="9.3399648"><ele>58.0</ele><time>2026-04-25T10:16:31.167Z</time></trkpt><trkpt lat="45.130886" lon="9.3400735"><ele>59.4</ele><time>2026-04-25T10:16:32.168Z</time></trkpt><trkpt lat="45.1309247" lon="9.3401793"><ele>60.8</ele><time>2026-04-25T10:16:33.167Z</time></trkpt><trkpt lat="45.1309737" lon="9.3403008"><ele>62.2</ele><time>2026-04-25T10:16:34.167Z</time></trkpt><trkpt lat="45.1310232" lon="9.3404231"><ele>63.6</ele><time>2026-04-25T10:16:35.168Z</time></trkpt><trkpt lat="45.131071" lon="9.3405482"><ele>65.0</ele><time>2026-04-25T10:16:36.168Z</time></trkpt><trkpt lat="45.1311195" lon="9.3406776"><ele>65.4</ele><time>2026-04-25T10:16:37.167Z</time></trkpt><trkpt lat="45.1311685" lon="9.3408064"><ele>65.8</ele><time>2026-04-25T10:16:38.169Z</time></trkpt><trkpt lat="45.1312176" lon="9.3409344"><ele>66.2</ele><time>2026-04-25T10:16:39.168Z</time></trkpt><trkpt lat="45.1312676" lon="9.3410662"><ele>66.6</ele><time>2026-04-25T10:16:40.168Z</time></trkpt><trkpt lat="45.1313188" lon="9.3412027"><ele>67.0</ele><time>2026-04-25T10:16:41.168Z</time></trkpt><trkpt lat="45.1313688" lon="9.3413374"><ele>67.0</ele><time>2026-04-25T10:16:42.167Z</time></trkpt><trkpt lat="45.1314195" lon="9.3414743"><ele>67.0</ele><time>2026-04-25T10:16:43.167Z</time></trkpt><trkpt lat="45.1314693" lon="9.3416155"><ele>67.0</ele><time>2026-04-25T10:16:44.168Z</time></trkpt><trkpt lat="45.1315232" lon="9.3417573"><ele>67.0</ele><time>2026-04-25T10:16:45.167Z</time></trkpt><trkpt lat="45.1315785" lon="9.3419015"><ele>67.0</ele><time>2026-04-25T10:16:46.168Z</time></trkpt><trkpt lat="45.1316226" lon="9.3420266"><ele>67.0</ele><time>2026-04-25T10:16:47.169Z</time></trkpt><trkpt lat="45.1316729" lon="9.3421758"><ele>67.0</ele><time>2026-04-25T10:16:48.168Z</time></trkpt><trkpt lat="45.1317272" lon="9.3423261"><ele>67.0</ele><time>2026-04-25T10:16:49.168Z</time></trkpt><trkpt lat="45.1317831" lon="9.3424751"><ele>67.0</ele><time>2026-04-25T10:16:50.168Z</time></trkpt><trkpt lat="45.1318399" lon="9.3426189"><ele>67.0</ele><time>2026-04-25T10:16:51.169Z</time></trkpt><trkpt lat="45.1318889" lon="9.3427589"><ele>67.0</ele><time>2026-04-25T10:16:52.168Z</time></trkpt><trkpt lat="45.1319374" lon="9.3429189"><ele>67.0</ele><time>2026-04-25T10:16:53.167Z</time></trkpt><trkpt lat="45.1319885" lon="9.3430612"><ele>67.0</ele><time>2026-04-25T10:16:54.168Z</time></trkpt><trkpt lat="45.132044" lon="9.3431936"><ele>67.0</ele><time>2026-04-25T10:16:55.167Z</time></trkpt><trkpt lat="45.132105" lon="9.3433454"><ele>67.0</ele><time>2026-04-25T10:16:56.167Z</time></trkpt><trkpt lat="45.1321597" lon="9.3434838"><ele>67.0</ele><time>2026-04-25T10:16:57.168Z</time></trkpt><trkpt lat="45.1322131" lon="9.3436336"><ele>67.0</ele><time>2026-04-25T10:16:58.168Z</time></trkpt><trkpt lat="45.1322695" lon="9.3437821"><ele>67.0</ele><time>2026-04-25T10:16:59.168Z</time></trkpt><trkpt lat="45.1323236" lon="9.3439347"><ele>67.0</ele><time>2026-04-25T10:17:00.167Z</time></trkpt><trkpt lat="45.1323818" lon="9.3440902"><ele>67.0</ele><time>2026-04-25T10:17:01.169Z</time></trkpt><trkpt lat="45.1324393" lon="9.3442404"><ele>67.75</ele><time>2026-04-25T10:17:02.168Z</time></trkpt><trkpt lat="45.1324919" lon="9.344391"><ele>68.5</ele><time>2026-04-25T10:17:03.168Z</time></trkpt><trkpt lat="45.1325436" lon="9.3445391"><ele>69.25</ele><time>2026-04-25T10:17:04.168Z</time></trkpt><trkpt lat="45.132598" lon="9.3446873"><ele>70.0</ele><time>2026-04-25T10:17:05.167Z</time></trkpt><trkpt lat="45.1326491" lon="9.3448385"><ele>70.0</ele><time>2026-04-25T10:17:06.169Z</time></trkpt><trkpt lat="45.1327017" lon="9.3449866"><ele>70.0</ele><time>2026-04-25T10:17:07.169Z</time></trkpt><trkpt lat="45.1327531" lon="9.3451346"><ele>70.0</ele><time>2026-04-25T10:17:08.168Z</time></trkpt><trkpt lat="45.1328022" lon="9.3452853"><ele>70.0</ele><time>2026-04-25T10:17:09.167Z</time></trkpt><trkpt lat="45.1328548" lon="9.3454326"><ele>70.0</ele><time>2026-04-25T10:17:10.168Z</time></trkpt><trkpt lat="45.132907" lon="9.3455822"><ele>70.0</ele><time>2026-04-25T10:17:11.168Z</time></trkpt><trkpt lat="45.1329601" lon="9.3457286"><ele>70.0</ele><time>2026-04-25T10:17:12.168Z</time></trkpt><trkpt lat="45.1330116" lon="9.3458755"><ele>70.0</ele><time>2026-04-25T10:17:13.169Z</time></trkpt><trkpt lat="45.133064" lon="9.3460217"><ele>70.0</ele><time>2026-04-25T10:17:14.169Z</time></trkpt><trkpt lat="45.1331171" lon="9.3461623"><ele>70.0</ele><time>2026-04-25T10:17:15.167Z</time></trkpt><trkpt lat="45.133165" lon="9.3462952"><ele>70.0</ele><time>2026-04-25T10:17:16.168Z</time></trkpt><trkpt lat="45.1332079" lon="9.3464151"><ele>70.0</ele><time>2026-04-25T10:17:17.168Z</time></trkpt><trkpt lat="45.1332492" lon="9.3465272"><ele>70.0</ele><time>2026-04-25T10:17:18.168Z</time></trkpt><trkpt lat="45.1332978" lon="9.346648"><ele>69.8</ele><time>2026-04-25T10:17:20.169Z</time></trkpt><trkpt lat="45.133349" lon="9.3467522"><ele>69.6</ele><time>2026-04-25T10:17:24.169Z</time></trkpt><trkpt lat="45.133461" lon="9.3468289"><ele>69.4</ele><time>2026-04-25T10:17:26.167Z</time></trkpt><trkpt lat="45.1335454" lon="9.3468821"><ele>69.2</ele><time>2026-04-25T10:17:27.167Z</time></trkpt><trkpt lat="45.1336248" lon="9.3469384"><ele>69.0</ele><time>2026-04-25T10:17:28.168Z</time></trkpt><trkpt lat="45.1337226" lon="9.346997"><ele>69.0</ele><time>2026-04-25T10:17:29.168Z</time></trkpt><trkpt lat="45.133818" lon="9.3470556"><ele>69.0</ele><time>2026-04-25T10:17:30.167Z</time></trkpt><trkpt lat="45.13394" lon="9.3471189"><ele>69.0</ele><time>2026-04-25T10:17:31.169Z</time></trkpt><trkpt lat="45.1340462" lon="9.347183"><ele>69.0</ele><time>2026-04-25T10:17:32.169Z</time></trkpt><trkpt lat="45.1341744" lon="9.3472535"><ele>68.75</ele><time>2026-04-25T10:17:33.169Z</time></trkpt><trkpt lat="45.1342927" lon="9.3473177"><ele>68.5</ele><time>2026-04-25T10:17:34.168Z</time></trkpt><trkpt lat="45.1344168" lon="9.3473865"><ele>68.25</ele><time>2026-04-25T10:17:35.167Z</time></trkpt><trkpt lat="45.1345365" lon="9.3474554"><ele>68.0</ele><time>2026-04-25T10:17:36.168Z</time></trkpt><trkpt lat="45.1346548" lon="9.3475232"><ele>68.0</ele><time>2026-04-25T10:17:37.168Z</time></trkpt><trkpt lat="45.1347721" lon="9.3475922"><ele>68.0</ele><time>2026-04-25T10:17:38.168Z</time></trkpt><trkpt lat="45.1348978" lon="9.3476594"><ele>68.0</ele><time>2026-04-25T10:17:39.169Z</time></trkpt><trkpt lat="45.1350197" lon="9.3477309"><ele>68.0</ele><time>2026-04-25T10:17:40.167Z</time></trkpt><trkpt lat="45.1351388" lon="9.3478007"><ele>68.0</ele><time>2026-04-25T10:17:41.167Z</time></trkpt><trkpt lat="45.1352548" lon="9.3478704"><ele>68.0</ele><time>2026-04-25T10:17:42.168Z</time></trkpt><trkpt lat="45.1353698" lon="9.3479381"><ele>68.0</ele><time>2026-04-25T10:17:43.169Z</time></trkpt><trkpt lat="45.1354852" lon="9.3480035"><ele>68.0</ele><time>2026-04-25T10:17:44.167Z</time></trkpt><trkpt lat="45.1355983" lon="9.3480664"><ele>68.0</ele><time>2026-04-25T10:17:45.168Z</time></trkpt><trkpt lat="45.1357031" lon="9.348127"><ele>68.0</ele><time>2026-04-25T10:17:46.168Z</time></trkpt><trkpt lat="45.1358044" lon="9.3481919"><ele>68.0</ele><time>2026-04-25T10:17:47.166Z</time></trkpt><trkpt lat="45.1359015" lon="9.3482532"><ele>68.0</ele><time>2026-04-25T10:17:48.166Z</time></trkpt><trkpt lat="45.1359712" lon="9.3483323"><ele>68.0</ele><time>2026-04-25T10:17:49.167Z</time></trkpt><trkpt lat="45.1360261" lon="9.3484228"><ele>68.33333333333334</ele><time>2026-04-25T10:17:50.166Z</time></trkpt><trkpt lat="45.1360644" lon="9.3485178"><ele>68.66666666666667</ele><time>2026-04-25T10:17:51.167Z</time></trkpt><trkpt lat="45.1361122" lon="9.3486593"><ele>69.0</ele><time>2026-04-25T10:17:53.166Z</time></trkpt><trkpt lat="45.136145" lon="9.3487395"><ele>69.33333333333333</ele><time>2026-04-25T10:17:56.166Z</time></trkpt><trkpt lat="45.1361957" lon="9.3488071"><ele>69.66666666666666</ele><time>2026-04-25T10:17:58.167Z</time></trkpt><trkpt lat="45.1362628" lon="9.3488165"><ele>70.0</ele><time>2026-04-25T10:17:59.167Z</time></trkpt><trkpt lat="45.1363616" lon="9.3488128"><ele>70.0</ele><time>2026-04-25T10:18:00.167Z</time></trkpt><trkpt lat="45.1364623" lon="9.3488088"><ele>70.0</ele><time>2026-04-25T10:18:01.167Z</time></trkpt><trkpt lat="45.136586" lon="9.348819"><ele>70.0</ele><time>2026-04-25T10:18:02.167Z</time></trkpt><trkpt lat="45.1366953" lon="9.3488241"><ele>70.0</ele><time>2026-04-25T10:18:03.166Z</time></trkpt><trkpt lat="45.1368149" lon="9.3488639"><ele>69.75</ele><time>2026-04-25T10:18:04.166Z</time></trkpt><trkpt lat="45.136943" lon="9.3489056"><ele>69.5</ele><time>2026-04-25T10:18:05.168Z</time></trkpt><trkpt lat="45.1370653" lon="9.3489617"><ele>69.25</ele><time>2026-04-25T10:18:06.166Z</time></trkpt><trkpt lat="45.1371896" lon="9.3490054"><ele>69.0</ele><time>2026-04-25T10:18:07.167Z</time></trkpt><trkpt lat="45.1373228" lon="9.3491094"><ele>68.75</ele><time>2026-04-25T10:18:08.168Z</time></trkpt><trkpt lat="45.1374535" lon="9.3491817"><ele>68.5</ele><time>2026-04-25T10:18:09.168Z</time></trkpt><trkpt lat="45.1375838" lon="9.3492573"><ele>68.25</ele><time>2026-04-25T10:18:10.167Z</time></trkpt><trkpt lat="45.1377114" lon="9.3493359"><ele>68.0</ele><time>2026-04-25T10:18:11.166Z</time></trkpt><trkpt lat="45.1378303" lon="9.3494137"><ele>68.0</ele><time>2026-04-25T10:18:12.167Z</time></trkpt><trkpt lat="45.1379582" lon="9.3494716"><ele>68.0</ele><time>2026-04-25T10:18:13.167Z</time></trkpt><trkpt lat="45.1381064" lon="9.3495487"><ele>68.0</ele><time>2026-04-25T10:18:14.166Z</time></trkpt><trkpt lat="45.1382218" lon="9.3496192"><ele>68.0</ele><time>2026-04-25T10:18:15.166Z</time></trkpt><trkpt lat="45.1383443" lon="9.3496941"><ele>68.0</ele><time>2026-04-25T10:18:16.167Z</time></trkpt><trkpt lat="45.1384702" lon="9.3497723"><ele>68.0</ele><time>2026-04-25T10:18:17.167Z</time></trkpt><trkpt lat="45.1385942" lon="9.3498384"><ele>68.0</ele><time>2026-04-25T10:18:18.166Z</time></trkpt><trkpt lat="45.1387234" lon="9.3499134"><ele>68.0</ele><time>2026-04-25T10:18:19.167Z</time></trkpt><trkpt lat="45.1388533" lon="9.3499873"><ele>68.0</ele><time>2026-04-25T10:18:20.168Z</time></trkpt><trkpt lat="45.1389854" lon="9.3500659"><ele>68.0</ele><time>2026-04-25T10:18:21.167Z</time></trkpt><trkpt lat="45.1391144" lon="9.3501417"><ele>68.0</ele><time>2026-04-25T10:18:22.167Z</time></trkpt><trkpt lat="45.1392454" lon="9.3502194"><ele>68.0</ele><time>2026-04-25T10:18:23.166Z</time></trkpt><trkpt lat="45.1393773" lon="9.3502984"><ele>68.25</ele><time>2026-04-25T10:18:24.166Z</time></trkpt><trkpt lat="45.1395114" lon="9.3503782"><ele>68.5</ele><time>2026-04-25T10:18:25.168Z</time></trkpt><trkpt lat="45.1396434" lon="9.3504523"><ele>68.75</ele><time>2026-04-25T10:18:26.167Z</time></trkpt><trkpt lat="45.139776" lon="9.3505279"><ele>69.0</ele><time>2026-04-25T10:18:27.166Z</time></trkpt><trkpt lat="45.1399028" lon="9.350604"><ele>68.5</ele><time>2026-04-25T10:18:28.166Z</time></trkpt><trkpt lat="45.1400344" lon="9.3506822"><ele>68.0</ele><time>2026-04-25T10:18:29.168Z</time></trkpt><trkpt lat="45.1401501" lon="9.3507528"><ele>67.5</ele><time>2026-04-25T10:18:30.166Z</time></trkpt><trkpt lat="45.1402635" lon="9.3508154"><ele>67.0</ele><time>2026-04-25T10:18:31.166Z</time></trkpt><trkpt lat="45.1403436" lon="9.3508589"><ele>67.0</ele><time>2026-04-25T10:18:32.167Z</time></trkpt><trkpt lat="45.1404271" lon="9.3509111"><ele>67.0</ele><time>2026-04-25T10:18:33.167Z</time></trkpt><trkpt lat="45.1404832" lon="9.3509667"><ele>67.0</ele><time>2026-04-25T10:18:34.168Z</time></trkpt><trkpt lat="45.1404832" lon="9.35109"><ele>67.0</ele><time>2026-04-25T10:18:35.167Z</time></trkpt><trkpt lat="45.1404798" lon="9.3512223"><ele>67.0</ele><time>2026-04-25T10:18:36.168Z</time></trkpt><trkpt lat="45.1404545" lon="9.3513643"><ele>67.0</ele><time>2026-04-25T10:18:37.166Z</time></trkpt><trkpt lat="45.1404286" lon="9.3514964"><ele>66.8</ele><time>2026-04-25T10:18:38.168Z</time></trkpt><trkpt lat="45.1403865" lon="9.3516451"><ele>66.6</ele><time>2026-04-25T10:18:39.168Z</time></trkpt><trkpt lat="45.1403467" lon="9.3517867"><ele>66.39999999999999</ele><time>2026-04-25T10:18:40.167Z</time></trkpt><trkpt lat="45.1403052" lon="9.351924"><ele>66.2</ele><time>2026-04-25T10:18:41.167Z</time></trkpt><trkpt lat="45.140262" lon="9.3520594"><ele>66.0</ele><time>2026-04-25T10:18:42.167Z</time></trkpt><trkpt lat="45.1402259" lon="9.3521942"><ele>66.0</ele><time>2026-04-25T10:18:43.167Z</time></trkpt><trkpt lat="45.1401885" lon="9.3523462"><ele>66.0</ele><time>2026-04-25T10:18:44.167Z</time></trkpt><trkpt lat="45.1401381" lon="9.3525367"><ele>66.0</ele><time>2026-04-25T10:18:45.167Z</time></trkpt><trkpt lat="45.1400816" lon="9.3527515"><ele>66.0</ele><time>2026-04-25T10:18:46.168Z</time></trkpt><trkpt lat="45.1400317" lon="9.3529438"><ele>66.0</ele><time>2026-04-25T10:18:47.167Z</time></trkpt><trkpt lat="45.139976" lon="9.3531377"><ele>66.0</ele><time>2026-04-25T10:18:48.167Z</time></trkpt><trkpt lat="45.1399302" lon="9.3532952"><ele>66.0</ele><time>2026-04-25T10:18:49.166Z</time></trkpt><trkpt lat="45.1398993" lon="9.3534079"><ele>66.0</ele><time>2026-04-25T10:18:50.166Z</time></trkpt><trkpt lat="45.1398605" lon="9.353522"><ele>66.0</ele><time>2026-04-25T10:18:51.167Z</time></trkpt><trkpt lat="45.139826" lon="9.3536105"><ele>66.0</ele><time>2026-04-25T10:18:52.166Z</time></trkpt><trkpt lat="45.1397948" lon="9.3537475"><ele>66.0</ele><time>2026-04-25T10:18:54.167Z</time></trkpt><trkpt lat="45.1398031" lon="9.3538508"><ele>66.0</ele><time>2026-04-25T10:18:56.167Z</time></trkpt><trkpt lat="45.1399046" lon="9.3538628"><ele>66.0</ele><time>2026-04-25T10:18:58.166Z</time></trkpt><trkpt lat="45.139969" lon="9.353809"><ele>66.0</ele><time>2026-04-25T10:18:59.167Z</time></trkpt><trkpt lat="45.1400359" lon="9.3537516"><ele>66.0</ele><time>2026-04-25T10:19:00.168Z</time></trkpt><trkpt lat="45.1401123" lon="9.3536872"><ele>66.6</ele><time>2026-04-25T10:19:01.166Z</time></trkpt><trkpt lat="45.1401984" lon="9.3536203"><ele>67.19999999999999</ele><time>2026-04-25T10:19:02.167Z</time></trkpt><trkpt lat="45.1402878" lon="9.3535611"><ele>67.80000000000001</ele><time>2026-04-25T10:19:03.166Z</time></trkpt><trkpt lat="45.1403742" lon="9.3534984"><ele>68.4</ele><time>2026-04-25T10:19:04.166Z</time></trkpt><trkpt lat="45.1404716" lon="9.3534234"><ele>69.0</ele><time>2026-04-25T10:19:05.167Z</time></trkpt><trkpt lat="45.1405594" lon="9.3533562"><ele>69.0</ele><time>2026-04-25T10:19:06.166Z</time></trkpt><trkpt lat="45.1406362" lon="9.3532949"><ele>69.0</ele><time>2026-04-25T10:19:07.167Z</time></trkpt><trkpt lat="45.1407241" lon="9.3532181"><ele>69.0</ele><time>2026-04-25T10:19:08.167Z</time></trkpt><trkpt lat="45.1408104" lon="9.353141"><ele>69.0</ele><time>2026-04-25T10:19:09.167Z</time></trkpt><trkpt lat="45.1408982" lon="9.3530624"><ele>69.0</ele><time>2026-04-25T10:19:10.167Z</time></trkpt><trkpt lat="45.1409877" lon="9.3529936"><ele>68.4</ele><time>2026-04-25T10:19:11.168Z</time></trkpt><trkpt lat="45.1410826" lon="9.3529383"><ele>67.80000000000001</ele><time>2026-04-25T10:19:12.168Z</time></trkpt><trkpt lat="45.141181" lon="9.3529064"><ele>67.19999999999999</ele><time>2026-04-25T10:19:13.167Z</time></trkpt><trkpt lat="45.1412804" lon="9.3528941"><ele>66.6</ele><time>2026-04-25T10:19:14.166Z</time></trkpt><trkpt lat="45.141381" lon="9.3528937"><ele>66.0</ele><time>2026-04-25T10:19:15.167Z</time></trkpt><trkpt lat="45.1414774" lon="9.3528959"><ele>66.33333333333333</ele><time>2026-04-25T10:19:16.168Z</time></trkpt><trkpt lat="45.1415817" lon="9.3529024"><ele>66.66666666666667</ele><time>2026-04-25T10:19:17.167Z</time></trkpt><trkpt lat="45.1416777" lon="9.3529187"><ele>67.0</ele><time>2026-04-25T10:19:18.166Z</time></trkpt><trkpt lat="45.1417635" lon="9.3529478"><ele>67.33333333333334</ele><time>2026-04-25T10:19:19.167Z</time></trkpt><trkpt lat="45.1418394" lon="9.3529827"><ele>67.66666666666667</ele><time>2026-04-25T10:19:20.167Z</time></trkpt><trkpt lat="45.1419038" lon="9.353029"><ele>68.0</ele><time>2026-04-25T10:19:21.166Z</time></trkpt><trkpt lat="45.1419688" lon="9.3531373"><ele>68.0</ele><time>2026-04-25T10:19:22.166Z</time></trkpt><trkpt lat="45.142015" lon="9.3532553"><ele>68.0</ele><time>2026-04-25T10:19:23.167Z</time></trkpt><trkpt lat="45.1420681" lon="9.353385"><ele>68.0</ele><time>2026-04-25T10:19:24.166Z</time></trkpt><trkpt lat="45.1421202" lon="9.3535099"><ele>68.0</ele><time>2026-04-25T10:19:25.167Z</time></trkpt><trkpt lat="45.1421726" lon="9.3536458"><ele>68.0</ele><time>2026-04-25T10:19:26.167Z</time></trkpt><trkpt lat="45.1422181" lon="9.353792"><ele>68.2</ele><time>2026-04-25T10:19:27.166Z</time></trkpt><trkpt lat="45.1422592" lon="9.3539066"><ele>68.4</ele><time>2026-04-25T10:19:28.168Z</time></trkpt><trkpt lat="45.1422841" lon="9.3540534"><ele>68.60000000000001</ele><time>2026-04-25T10:19:29.167Z</time></trkpt><trkpt lat="45.1422974" lon="9.3542054"><ele>68.8</ele><time>2026-04-25T10:19:30.167Z</time></trkpt><trkpt lat="45.1423025" lon="9.3543566"><ele>69.0</ele><time>2026-04-25T10:19:31.168Z</time></trkpt><trkpt lat="45.1423025" lon="9.3545395"><ele>68.75</ele><time>2026-04-25T10:19:32.166Z</time></trkpt><trkpt lat="45.1423017" lon="9.3547317"><ele>68.5</ele><time>2026-04-25T10:19:33.166Z</time></trkpt><trkpt lat="45.142298" lon="9.3549219"><ele>68.25</ele><time>2026-04-25T10:19:34.168Z</time></trkpt><trkpt lat="45.1422978" lon="9.3551073"><ele>68.0</ele><time>2026-04-25T10:19:35.167Z</time></trkpt><trkpt lat="45.1423025" lon="9.3552725"><ele>68.0</ele><time>2026-04-25T10:19:36.167Z</time></trkpt><trkpt lat="45.1423088" lon="9.3554464"><ele>68.0</ele><time>2026-04-25T10:19:37.166Z</time></trkpt><trkpt lat="45.142321" lon="9.3556156"><ele>68.0</ele><time>2026-04-25T10:19:38.167Z</time></trkpt><trkpt lat="45.1423256" lon="9.3557795"><ele>68.0</ele><time>2026-04-25T10:19:39.168Z</time></trkpt><trkpt lat="45.1423282" lon="9.3559442"><ele>68.2</ele><time>2026-04-25T10:19:40.167Z</time></trkpt><trkpt lat="45.142332" lon="9.3561016"><ele>68.4</ele><time>2026-04-25T10:19:41.166Z</time></trkpt><trkpt lat="45.1423297" lon="9.3562532"><ele>68.60000000000001</ele><time>2026-04-25T10:19:42.166Z</time></trkpt><trkpt lat="45.1423208" lon="9.3564076"><ele>68.8</ele><time>2026-04-25T10:19:43.168Z</time></trkpt><trkpt lat="45.1423033" lon="9.356564"><ele>69.0</ele><time>2026-04-25T10:19:44.167Z</time></trkpt><trkpt lat="45.1422796" lon="9.3567287"><ele>69.25</ele><time>2026-04-25T10:19:45.168Z</time></trkpt><trkpt lat="45.1422593" lon="9.3568953"><ele>69.5</ele><time>2026-04-25T10:19:46.167Z</time></trkpt><trkpt lat="45.142235" lon="9.3570684"><ele>69.75</ele><time>2026-04-25T10:19:47.166Z</time></trkpt><trkpt lat="45.1422088" lon="9.3572551"><ele>70.0</ele><time>2026-04-25T10:19:48.166Z</time></trkpt><trkpt lat="45.1421837" lon="9.3574435"><ele>69.5</ele><time>2026-04-25T10:19:49.168Z</time></trkpt><trkpt lat="45.1421577" lon="9.3576315"><ele>69.0</ele><time>2026-04-25T10:19:50.167Z</time></trkpt><trkpt lat="45.1421329" lon="9.3578128"><ele>68.5</ele><time>2026-04-25T10:19:51.167Z</time></trkpt><trkpt lat="45.1421025" lon="9.3579993"><ele>68.0</ele><time>2026-04-25T10:19:52.166Z</time></trkpt><trkpt lat="45.1420676" lon="9.358184"><ele>68.0</ele><time>2026-04-25T10:19:53.166Z</time></trkpt><trkpt lat="45.1420286" lon="9.3583773"><ele>68.0</ele><time>2026-04-25T10:19:54.167Z</time></trkpt><trkpt lat="45.1419893" lon="9.358564"><ele>68.0</ele><time>2026-04-25T10:19:55.167Z</time></trkpt><trkpt lat="45.1419517" lon="9.3587473"><ele>68.0</ele><time>2026-04-25T10:19:56.166Z</time></trkpt><trkpt lat="45.141909" lon="9.3589294"><ele>68.0</ele><time>2026-04-25T10:19:57.166Z</time></trkpt><trkpt lat="45.1418814" lon="9.3590937"><ele>68.0</ele><time>2026-04-25T10:19:58.167Z</time></trkpt><trkpt lat="45.141851" lon="9.3592521"><ele>68.0</ele><time>2026-04-25T10:19:59.167Z</time></trkpt><trkpt lat="45.1418234" lon="9.3593903"><ele>68.0</ele><time>2026-04-25T10:20:00.168Z</time></trkpt><trkpt lat="45.1417949" lon="9.3595108"><ele>68.0</ele><time>2026-04-25T10:20:01.167Z</time></trkpt><trkpt lat="45.1417738" lon="9.3596267"><ele>68.0</ele><time>2026-04-25T10:20:02.167Z</time></trkpt><trkpt lat="45.1417556" lon="9.3597354"><ele>68.0</ele><time>2026-04-25T10:20:03.168Z</time></trkpt><trkpt lat="45.1417434" lon="9.3598309"><ele>68.0</ele><time>2026-04-25T10:20:04.167Z</time></trkpt><trkpt lat="45.1417102" lon="9.3599331"><ele>68.0</ele><time>2026-04-25T10:20:05.166Z</time></trkpt><trkpt lat="45.14166" lon="9.3600263"><ele>68.0</ele><time>2026-04-25T10:20:07.166Z</time></trkpt><trkpt lat="45.1415597" lon="9.3600626"><ele>68.0</ele><time>2026-04-25T10:20:09.167Z</time></trkpt><trkpt lat="45.1415013" lon="9.360024"><ele>68.0</ele><time>2026-04-25T10:20:10.167Z</time></trkpt><trkpt lat="45.1414207" lon="9.3599763"><ele>68.0</ele><time>2026-04-25T10:20:11.168Z</time></trkpt><trkpt lat="45.1413474" lon="9.3599452"><ele>68.0</ele><time>2026-04-25T10:20:12.167Z</time></trkpt><trkpt lat="45.141279" lon="9.3599197"><ele>68.0</ele><time>2026-04-25T10:20:13.168Z</time></trkpt><trkpt lat="45.1412063" lon="9.3598848"><ele>68.0</ele><time>2026-04-25T10:20:14.166Z</time></trkpt><trkpt lat="45.1411162" lon="9.3598842"><ele>68.0</ele><time>2026-04-25T10:20:16.168Z</time></trkpt><trkpt lat="45.1410603" lon="9.3599938"><ele>68.0</ele><time>2026-04-25T10:20:18.167Z</time></trkpt><trkpt lat="45.1410106" lon="9.360143"><ele>68.0</ele><time>2026-04-25T10:20:20.167Z</time></trkpt><trkpt lat="45.1410079" lon="9.3602722"><ele>68.0</ele><time>2026-04-25T10:20:21.168Z</time></trkpt><trkpt lat="45.1409771" lon="9.3604074"><ele>68.0</ele><time>2026-04-25T10:20:22.167Z</time></trkpt><trkpt lat="45.1409561" lon="9.3605344"><ele>68.0</ele><time>2026-04-25T10:20:23.167Z</time></trkpt><trkpt lat="45.1409324" lon="9.3606546"><ele>68.0</ele><time>2026-04-25T10:20:24.166Z</time></trkpt><trkpt lat="45.1409061" lon="9.3607738"><ele>68.0</ele><time>2026-04-25T10:20:25.167Z</time></trkpt><trkpt lat="45.1408826" lon="9.3608879"><ele>68.0</ele><time>2026-04-25T10:20:26.167Z</time></trkpt><trkpt lat="45.140858" lon="9.3609827"><ele>68.0</ele><time>2026-04-25T10:20:27.166Z</time></trkpt><trkpt lat="45.1408372" lon="9.3610744"><ele>68.0</ele><time>2026-04-25T10:20:28.166Z</time></trkpt><trkpt lat="45.1407811" lon="9.3611529"><ele>68.0</ele><time>2026-04-25T10:20:30.168Z</time></trkpt><trkpt lat="45.1406423" lon="9.3611771"><ele>67.8</ele><time>2026-04-25T10:20:32.168Z</time></trkpt><trkpt lat="45.1405788" lon="9.361173"><ele>67.6</ele><time>2026-04-25T10:20:33.167Z</time></trkpt><trkpt lat="45.1405083" lon="9.3611271"><ele>67.4</ele><time>2026-04-25T10:20:34.167Z</time></trkpt><trkpt lat="45.1404064" lon="9.3610881"><ele>67.2</ele><time>2026-04-25T10:20:35.168Z</time></trkpt><trkpt lat="45.1402868" lon="9.3610219"><ele>67.0</ele><time>2026-04-25T10:20:36.167Z</time></trkpt><trkpt lat="45.140147" lon="9.3609463"><ele>67.0</ele><time>2026-04-25T10:20:37.168Z</time></trkpt><trkpt lat="45.1400677" lon="9.3609129"><ele>67.0</ele><time>2026-04-25T10:20:38.167Z</time></trkpt><trkpt lat="45.1399722" lon="9.3608627"><ele>67.0</ele><time>2026-04-25T10:20:39.166Z</time></trkpt><trkpt lat="45.139886" lon="9.3608167"><ele>67.0</ele><time>2026-04-25T10:20:40.166Z</time></trkpt><trkpt lat="45.139801" lon="9.360765"><ele>67.0</ele><time>2026-04-25T10:20:41.168Z</time></trkpt><trkpt lat="45.1396973" lon="9.360727"><ele>67.16666666666666</ele><time>2026-04-25T10:20:42.168Z</time></trkpt><trkpt lat="45.1395992" lon="9.3606914"><ele>67.33333333333333</ele><time>2026-04-25T10:20:43.166Z</time></trkpt><trkpt lat="45.1395071" lon="9.3606596"><ele>67.5</ele><time>2026-04-25T10:20:44.166Z</time></trkpt><trkpt lat="45.1394254" lon="9.3606193"><ele>67.66666666666667</ele><time>2026-04-25T10:20:45.167Z</time></trkpt><trkpt lat="45.1393465" lon="9.3605992"><ele>67.83333333333334</ele><time>2026-04-25T10:20:46.167Z</time></trkpt><trkpt lat="45.1392789" lon="9.3605916"><ele>68.0</ele><time>2026-04-25T10:20:47.167Z</time></trkpt><trkpt lat="45.1392138" lon="9.3606053"><ele>68.0</ele><time>2026-04-25T10:20:48.168Z</time></trkpt><trkpt lat="45.1391518" lon="9.3606382"><ele>68.0</ele><time>2026-04-25T10:20:49.167Z</time></trkpt><trkpt lat="45.1391031" lon="9.360733"><ele>68.0</ele><time>2026-04-25T10:20:50.166Z</time></trkpt><trkpt lat="45.1390554" lon="9.3608313"><ele>68.0</ele><time>2026-04-25T10:20:51.168Z</time></trkpt><trkpt lat="45.1390233" lon="9.3609693"><ele>68.0</ele><time>2026-04-25T10:20:52.167Z</time></trkpt><trkpt lat="45.1389962" lon="9.3611075"><ele>68.0</ele><time>2026-04-25T10:20:53.166Z</time></trkpt><trkpt lat="45.1389647" lon="9.3612567"><ele>67.8</ele><time>2026-04-25T10:20:54.166Z</time></trkpt><trkpt lat="45.1389293" lon="9.3614049"><ele>67.6</ele><time>2026-04-25T10:20:55.166Z</time></trkpt><trkpt lat="45.1389037" lon="9.3615575"><ele>67.4</ele><time>2026-04-25T10:20:56.167Z</time></trkpt><trkpt lat="45.1388753" lon="9.3617096"><ele>67.2</ele><time>2026-04-25T10:20:57.168Z</time></trkpt><trkpt lat="45.1388483" lon="9.361866"><ele>67.0</ele><time>2026-04-25T10:20:58.168Z</time></trkpt><trkpt lat="45.1388224" lon="9.3620143"><ele>67.0</ele><time>2026-04-25T10:20:59.166Z</time></trkpt><trkpt lat="45.1388014" lon="9.362156"><ele>67.0</ele><time>2026-04-25T10:21:00.167Z</time></trkpt><trkpt lat="45.1387728" lon="9.3622631"><ele>67.0</ele><time>2026-04-25T10:21:01.167Z</time></trkpt><trkpt lat="45.1387396" lon="9.3623866"><ele>67.0</ele><time>2026-04-25T10:21:02.168Z</time></trkpt><trkpt lat="45.1387002" lon="9.3625034"><ele>67.0</ele><time>2026-04-25T10:21:03.167Z</time></trkpt><trkpt lat="45.1386456" lon="9.3626025"><ele>67.4</ele><time>2026-04-25T10:21:04.168Z</time></trkpt><trkpt lat="45.1385915" lon="9.3626931"><ele>67.80000000000001</ele><time>2026-04-25T10:21:05.168Z</time></trkpt><trkpt lat="45.1385219" lon="9.362759"><ele>68.2</ele><time>2026-04-25T10:21:06.167Z</time></trkpt><trkpt lat="45.1384311" lon="9.3627915"><ele>68.60000000000001</ele><time>2026-04-25T10:21:07.168Z</time></trkpt><trkpt lat="45.1383304" lon="9.3627973"><ele>69.0</ele><time>2026-04-25T10:21:08.166Z</time></trkpt><trkpt lat="45.1382268" lon="9.3627924"><ele>68.75</ele><time>2026-04-25T10:21:09.166Z</time></trkpt><trkpt lat="45.1381138" lon="9.3627792"><ele>68.5</ele><time>2026-04-25T10:21:10.167Z</time></trkpt><trkpt lat="45.1380036" lon="9.3627679"><ele>68.25</ele><time>2026-04-25T10:21:11.166Z</time></trkpt><trkpt lat="45.1379035" lon="9.3627621"><ele>68.0</ele><time>2026-04-25T10:21:12.167Z</time></trkpt><trkpt lat="45.1377723" lon="9.3627874"><ele>68.0</ele><time>2026-04-25T10:21:14.166Z</time></trkpt><trkpt lat="45.1376774" lon="9.3628844"><ele>68.0</ele><time>2026-04-25T10:21:16.168Z</time></trkpt><trkpt lat="45.1376148" lon="9.3631175"><ele>68.0</ele><time>2026-04-25T10:21:18.167Z</time></trkpt><trkpt lat="45.1375828" lon="9.3632289"><ele>68.0</ele><time>2026-04-25T10:21:19.166Z</time></trkpt><trkpt lat="45.1375497" lon="9.3633232"><ele>68.2</ele><time>2026-04-25T10:21:20.168Z</time></trkpt><trkpt lat="45.1375035" lon="9.3634753"><ele>68.4</ele><time>2026-04-25T10:21:22.167Z</time></trkpt><trkpt lat="45.1375108" lon="9.3635718"><ele>68.60000000000001</ele><time>2026-04-25T10:21:24.168Z</time></trkpt><trkpt lat="45.1375573" lon="9.3636968"><ele>68.8</ele><time>2026-04-25T10:21:27.166Z</time></trkpt><trkpt lat="45.1376284" lon="9.3637253"><ele>69.0</ele><time>2026-04-25T10:22:00.166Z</time></trkpt><trkpt lat="45.1377279" lon="9.3637506"><ele>69.0</ele><time>2026-04-25T10:22:02.168Z</time></trkpt><trkpt lat="45.13776" lon="9.36384"><ele>69.0</ele><time>2026-04-25T10:22:03.167Z</time></trkpt><trkpt lat="45.1378292" lon="9.3638034"><ele>69.0</ele><time>2026-04-25T10:22:04.167Z</time></trkpt><trkpt lat="45.1379247" lon="9.3637951"><ele>69.0</ele><time>2026-04-25T10:22:05.167Z</time></trkpt><trkpt lat="45.1380362" lon="9.363781"><ele>69.0</ele><time>2026-04-25T10:22:06.166Z</time></trkpt><trkpt lat="45.1381335" lon="9.3638018"><ele>69.0</ele><time>2026-04-25T10:22:07.167Z</time></trkpt><trkpt lat="45.1382159" lon="9.3638205"><ele>69.0</ele><time>2026-04-25T10:22:08.167Z</time></trkpt><trkpt lat="45.1383261" lon="9.3638313"><ele>69.0</ele><time>2026-04-25T10:22:09.167Z</time></trkpt><trkpt lat="45.1384293" lon="9.3638511"><ele>69.0</ele><time>2026-04-25T10:22:10.166Z</time></trkpt><trkpt lat="45.1385304" lon="9.3638688"><ele>69.0</ele><time>2026-04-25T10:22:11.168Z</time></trkpt><trkpt lat="45.1386348" lon="9.3638841"><ele>68.8</ele><time>2026-04-25T10:22:12.167Z</time></trkpt><trkpt lat="45.1387265" lon="9.3639015"><ele>68.60000000000001</ele><time>2026-04-25T10:22:13.167Z</time></trkpt><trkpt lat="45.1388263" lon="9.3639157"><ele>68.4</ele><time>2026-04-25T10:22:14.166Z</time></trkpt><trkpt lat="45.1389277" lon="9.3639494"><ele>68.2</ele><time>2026-04-25T10:22:15.167Z</time></trkpt><trkpt lat="45.1390426" lon="9.3639525"><ele>68.0</ele><time>2026-04-25T10:22:16.167Z</time></trkpt><trkpt lat="45.1391417" lon="9.3639604"><ele>68.0</ele><time>2026-04-25T10:22:17.166Z</time></trkpt><trkpt lat="45.1392408" lon="9.3639797"><ele>68.0</ele><time>2026-04-25T10:22:18.166Z</time></trkpt><trkpt lat="45.1393485" lon="9.3639729"><ele>68.0</ele><time>2026-04-25T10:22:19.166Z</time></trkpt><trkpt lat="45.1394484" lon="9.3639704"><ele>68.0</ele><time>2026-04-25T10:22:20.167Z</time></trkpt><trkpt lat="45.1395486" lon="9.3639636"><ele>68.0</ele><time>2026-04-25T10:22:21.166Z</time></trkpt><trkpt lat="45.1396385" lon="9.3639638"><ele>68.0</ele><time>2026-04-25T10:22:22.167Z</time></trkpt><trkpt lat="45.1397206" lon="9.3639696"><ele>68.0</ele><time>2026-04-25T10:22:23.166Z</time></trkpt><trkpt lat="45.1398085" lon="9.3639784"><ele>68.0</ele><time>2026-04-25T10:22:24.167Z</time></trkpt><trkpt lat="45.1398994" lon="9.3639918"><ele>68.0</ele><time>2026-04-25T10:22:25.167Z</time></trkpt><trkpt lat="45.1399804" lon="9.3640055"><ele>68.0</ele><time>2026-04-25T10:22:26.167Z</time></trkpt><trkpt lat="45.140052" lon="9.3640171"><ele>68.0</ele><time>2026-04-25T10:22:27.167Z</time></trkpt><trkpt lat="45.1401283" lon="9.3640275"><ele>68.2</ele><time>2026-04-25T10:22:28.167Z</time></trkpt><trkpt lat="45.1402148" lon="9.3640415"><ele>68.4</ele><time>2026-04-25T10:22:29.166Z</time></trkpt><trkpt lat="45.1403435" lon="9.3640788"><ele>68.60000000000001</ele><time>2026-04-25T10:22:31.166Z</time></trkpt><trkpt lat="45.1404177" lon="9.3640434"><ele>68.8</ele><time>2026-04-25T10:22:32.166Z</time></trkpt><trkpt lat="45.1405026" lon="9.3640538"><ele>69.0</ele><time>2026-04-25T10:22:33.167Z</time></trkpt><trkpt lat="45.1405945" lon="9.3641555"><ele>69.0</ele><time>2026-04-25T10:22:35.168Z</time></trkpt><trkpt lat="45.1406273" lon="9.3642416"><ele>69.0</ele><time>2026-04-25T10:22:36.166Z</time></trkpt><trkpt lat="45.1406529" lon="9.3643554"><ele>69.0</ele><time>2026-04-25T10:22:37.166Z</time></trkpt><trkpt lat="45.1406562" lon="9.3644999"><ele>69.0</ele><time>2026-04-25T10:22:38.167Z</time></trkpt><trkpt lat="45.140661" lon="9.364636"><ele>69.0</ele><time>2026-04-25T10:22:39.166Z</time></trkpt><trkpt lat="45.140655" lon="9.3647692"><ele>69.0</ele><time>2026-04-25T10:22:40.167Z</time></trkpt><trkpt lat="45.1406502" lon="9.3649135"><ele>68.8</ele><time>2026-04-25T10:22:41.167Z</time></trkpt><trkpt lat="45.1406434" lon="9.3650139"><ele>68.60000000000001</ele><time>2026-04-25T10:22:42.166Z</time></trkpt><trkpt lat="45.1406407" lon="9.3651506"><ele>68.4</ele><time>2026-04-25T10:22:44.167Z</time></trkpt><trkpt lat="45.1406225" lon="9.3653241"><ele>68.2</ele><time>2026-04-25T10:22:46.167Z</time></trkpt><trkpt lat="45.1405797" lon="9.3654378"><ele>68.0</ele><time>2026-04-25T10:22:47.166Z</time></trkpt><trkpt lat="45.1405514" lon="9.3655418"><ele>67.4</ele><time>2026-04-25T10:22:48.167Z</time></trkpt><trkpt lat="45.1405477" lon="9.3656851"><ele>66.8</ele><time>2026-04-25T10:22:49.166Z</time></trkpt><trkpt lat="45.1405423" lon="9.3658269"><ele>66.2</ele><time>2026-04-25T10:22:50.167Z</time></trkpt><trkpt lat="45.1405336" lon="9.3659611"><ele>65.6</ele><time>2026-04-25T10:22:51.167Z</time></trkpt><trkpt lat="45.140529" lon="9.3661278"><ele>65.0</ele><time>2026-04-25T10:22:52.167Z</time></trkpt><trkpt lat="45.1405328" lon="9.3662738"><ele>64.0</ele><time>2026-04-25T10:22:53.167Z</time></trkpt><trkpt lat="45.1405187" lon="9.3664257"><ele>63.0</ele><time>2026-04-25T10:22:54.166Z</time></trkpt><trkpt lat="45.1404938" lon="9.3665911"><ele>62.0</ele><time>2026-04-25T10:22:55.167Z</time></trkpt><trkpt lat="45.1404791" lon="9.3667398"><ele>61.0</ele><time>2026-04-25T10:22:56.168Z</time></trkpt><trkpt lat="45.1404806" lon="9.3668603"><ele>60.0</ele><time>2026-04-25T10:22:57.167Z</time></trkpt><trkpt lat="45.1404819" lon="9.3669904"><ele>60.0</ele><time>2026-04-25T10:22:58.166Z</time></trkpt><trkpt lat="45.1404818" lon="9.3671024"><ele>60.0</ele><time>2026-04-25T10:22:59.167Z</time></trkpt><trkpt lat="45.1404871" lon="9.3672185"><ele>60.0</ele><time>2026-04-25T10:23:00.166Z</time></trkpt><trkpt lat="45.1404634" lon="9.3674141"><ele>60.0</ele><time>2026-04-25T10:23:02.166Z</time></trkpt><trkpt lat="45.1404496" lon="9.3675255"><ele>60.0</ele><time>2026-04-25T10:23:03.167Z</time></trkpt><trkpt lat="45.1404246" lon="9.3676373"><ele>59.8</ele><time>2026-04-25T10:23:04.167Z</time></trkpt><trkpt lat="45.1403904" lon="9.3677893"><ele>59.6</ele><time>2026-04-25T10:23:05.166Z</time></trkpt><trkpt lat="45.1403557" lon="9.3679375"><ele>59.400000000000006</ele><time>2026-04-25T10:23:06.167Z</time></trkpt><trkpt lat="45.1403249" lon="9.3680734"><ele>59.2</ele><time>2026-04-25T10:23:07.166Z</time></trkpt><trkpt lat="45.1403041" lon="9.3682173"><ele>59.0</ele><time>2026-04-25T10:23:08.168Z</time></trkpt><trkpt lat="45.1402846" lon="9.3683644"><ele>58.400000000000006</ele><time>2026-04-25T10:23:09.167Z</time></trkpt><trkpt lat="45.1402732" lon="9.3684992"><ele>57.800000000000004</ele><time>2026-04-25T10:23:10.166Z</time></trkpt><trkpt lat="45.1402561" lon="9.3686333"><ele>57.199999999999996</ele><time>2026-04-25T10:23:11.167Z</time></trkpt><trkpt lat="45.1402317" lon="9.3687927"><ele>56.599999999999994</ele><time>2026-04-25T10:23:12.168Z</time></trkpt><trkpt lat="45.1402174" lon="9.3689357"><ele>56.0</ele><time>2026-04-25T10:23:13.167Z</time></trkpt><trkpt lat="45.1402039" lon="9.3690305"><ele>56.00000000000001</ele><time>2026-04-25T10:23:14.167Z</time></trkpt><trkpt lat="45.1401933" lon="9.3691295"><ele>56.0</ele><time>2026-04-25T10:23:15.168Z</time></trkpt><trkpt lat="45.1401931" lon="9.3692928"><ele>56.0</ele><time>2026-04-25T10:23:17.167Z</time></trkpt><trkpt lat="45.1402076" lon="9.3694626"><ele>56.0</ele><time>2026-04-25T10:23:19.167Z</time></trkpt><trkpt lat="45.1402228" lon="9.3695515"><ele>56.00000000000001</ele><time>2026-04-25T10:23:20.166Z</time></trkpt><trkpt lat="45.1402129" lon="9.3696521"><ele>56.0</ele><time>2026-04-25T10:23:21.168Z</time></trkpt><trkpt lat="45.1401938" lon="9.3697499"><ele>56.333333333333336</ele><time>2026-04-25T10:23:22.167Z</time></trkpt><trkpt lat="45.1401636" lon="9.3698504"><ele>56.66666666666667</ele><time>2026-04-25T10:23:23.166Z</time></trkpt><trkpt lat="45.140135" lon="9.3699539"><ele>57.0</ele><time>2026-04-25T10:23:24.166Z</time></trkpt><trkpt lat="45.1401155" lon="9.3700691"><ele>57.33333333333333</ele><time>2026-04-25T10:23:25.167Z</time></trkpt><trkpt lat="45.1400963" lon="9.370194"><ele>57.666666666666664</ele><time>2026-04-25T10:23:26.167Z</time></trkpt><trkpt lat="45.1400819" lon="9.3703293"><ele>58.0</ele><time>2026-04-25T10:23:27.167Z</time></trkpt><trkpt lat="45.1400712" lon="9.370473"><ele>57.4</ele><time>2026-04-25T10:23:28.166Z</time></trkpt><trkpt lat="45.1400587" lon="9.3706109"><ele>56.8</ele><time>2026-04-25T10:23:29.167Z</time></trkpt><trkpt lat="45.1400377" lon="9.3707506"><ele>56.2</ele><time>2026-04-25T10:23:30.167Z</time></trkpt><trkpt lat="45.140008" lon="9.3708845"><ele>55.6</ele><time>2026-04-25T10:23:31.166Z</time></trkpt><trkpt lat="45.1399651" lon="9.3710033"><ele>55.0</ele><time>2026-04-25T10:23:32.166Z</time></trkpt><trkpt lat="45.1398866" lon="9.371137"><ele>55.2</ele><time>2026-04-25T10:23:33.167Z</time></trkpt><trkpt lat="45.1398145" lon="9.3712465"><ele>55.4</ele><time>2026-04-25T10:23:34.167Z</time></trkpt><trkpt lat="45.1397515" lon="9.371344"><ele>55.599999999999994</ele><time>2026-04-25T10:23:35.166Z</time></trkpt><trkpt lat="45.139698" lon="9.3714555"><ele>55.8</ele><time>2026-04-25T10:23:36.167Z</time></trkpt><trkpt lat="45.1396605" lon="9.3715879"><ele>56.0</ele><time>2026-04-25T10:23:37.166Z</time></trkpt><trkpt lat="45.1396307" lon="9.3717319"><ele>56.199999999999996</ele><time>2026-04-25T10:23:38.167Z</time></trkpt><trkpt lat="45.1396001" lon="9.3718775"><ele>56.39999999999999</ele><time>2026-04-25T10:23:39.166Z</time></trkpt><trkpt lat="45.1395638" lon="9.3720199"><ele>56.6</ele><time>2026-04-25T10:23:40.167Z</time></trkpt><trkpt lat="45.1395185" lon="9.3721531"><ele>56.8</ele><time>2026-04-25T10:23:41.166Z</time></trkpt><trkpt lat="45.1394713" lon="9.3722841"><ele>57.0</ele><time>2026-04-25T10:23:42.167Z</time></trkpt><trkpt lat="45.1393987" lon="9.3724244"><ele>57.0</ele><time>2026-04-25T10:23:43.166Z</time></trkpt><trkpt lat="45.1393411" lon="9.3725564"><ele>57.0</ele><time>2026-04-25T10:23:44.168Z</time></trkpt><trkpt lat="45.139256" lon="9.3726901"><ele>57.0</ele><time>2026-04-25T10:23:45.167Z</time></trkpt><trkpt lat="45.1391733" lon="9.3728114"><ele>57.0</ele><time>2026-04-25T10:23:46.167Z</time></trkpt><trkpt lat="45.1390886" lon="9.3729308"><ele>56.75</ele><time>2026-04-25T10:23:47.166Z</time></trkpt><trkpt lat="45.1389998" lon="9.3730545"><ele>56.5</ele><time>2026-04-25T10:23:48.167Z</time></trkpt><trkpt lat="45.1389117" lon="9.3731684"><ele>56.25</ele><time>2026-04-25T10:23:49.167Z</time></trkpt><trkpt lat="45.1388136" lon="9.3732959"><ele>56.0</ele><time>2026-04-25T10:23:50.167Z</time></trkpt><trkpt lat="45.1387231" lon="9.3734183"><ele>56.0</ele><time>2026-04-25T10:23:51.167Z</time></trkpt><trkpt lat="45.1386265" lon="9.3735375"><ele>56.0</ele><time>2026-04-25T10:23:52.167Z</time></trkpt><trkpt lat="45.1385306" lon="9.3736658"><ele>56.0</ele><time>2026-04-25T10:23:53.167Z</time></trkpt><trkpt lat="45.1384334" lon="9.3737972"><ele>56.0</ele><time>2026-04-25T10:23:54.167Z</time></trkpt><trkpt lat="45.1383466" lon="9.3739172"><ele>55.5</ele><time>2026-04-25T10:23:55.166Z</time></trkpt><trkpt lat="45.138257" lon="9.3740401"><ele>55.0</ele><time>2026-04-25T10:23:56.167Z</time></trkpt><trkpt lat="45.1381714" lon="9.3741602"><ele>54.5</ele><time>2026-04-25T10:23:57.167Z</time></trkpt><trkpt lat="45.1380896" lon="9.3742712"><ele>54.0</ele><time>2026-04-25T10:23:58.166Z</time></trkpt><trkpt lat="45.1380009" lon="9.3743636"><ele>54.0</ele><time>2026-04-25T10:23:59.168Z</time></trkpt><trkpt lat="45.137913" lon="9.3744472"><ele>54.0</ele><time>2026-04-25T10:24:00.167Z</time></trkpt><trkpt lat="45.1378131" lon="9.3745063"><ele>54.0</ele><time>2026-04-25T10:24:01.168Z</time></trkpt><trkpt lat="45.1376615" lon="9.3745265"><ele>54.0</ele><time>2026-04-25T10:24:02.167Z</time></trkpt><trkpt lat="45.1375311" lon="9.374542"><ele>54.0</ele><time>2026-04-25T10:24:03.167Z</time></trkpt><trkpt lat="45.137405" lon="9.3745483"><ele>54.0</ele><time>2026-04-25T10:24:04.166Z</time></trkpt><trkpt lat="45.1372853" lon="9.3745613"><ele>54.0</ele><time>2026-04-25T10:24:05.167Z</time></trkpt><trkpt lat="45.137168" lon="9.3746103"><ele>54.0</ele><time>2026-04-25T10:24:06.168Z</time></trkpt><trkpt lat="45.137045" lon="9.3746787"><ele>54.75</ele><time>2026-04-25T10:24:07.167Z</time></trkpt><trkpt lat="45.1369276" lon="9.3747422"><ele>55.5</ele><time>2026-04-25T10:24:08.167Z</time></trkpt><trkpt lat="45.1367954" lon="9.3748121"><ele>56.25</ele><time>2026-04-25T10:24:09.167Z</time></trkpt><trkpt lat="45.1366467" lon="9.37491"><ele>57.0</ele><time>2026-04-25T10:24:10.167Z</time></trkpt><trkpt lat="45.136506" lon="9.37499"><ele>57.0</ele><time>2026-04-25T10:24:11.166Z</time></trkpt><trkpt lat="45.1363665" lon="9.3750907"><ele>57.0</ele><time>2026-04-25T10:24:12.166Z</time></trkpt><trkpt lat="45.1362159" lon="9.3751137"><ele>57.0</ele><time>2026-04-25T10:24:13.166Z</time></trkpt><trkpt lat="45.1360573" lon="9.3751806"><ele>57.0</ele><time>2026-04-25T10:24:14.167Z</time></trkpt><trkpt lat="45.1359058" lon="9.3752408"><ele>57.0</ele><time>2026-04-25T10:24:15.168Z</time></trkpt><trkpt lat="45.1357367" lon="9.3752898"><ele>57.0</ele><time>2026-04-25T10:24:16.168Z</time></trkpt><trkpt lat="45.1355583" lon="9.3753693"><ele>57.0</ele><time>2026-04-25T10:24:17.166Z</time></trkpt><trkpt lat="45.1353991" lon="9.3754358"><ele>57.0</ele><time>2026-04-25T10:24:18.167Z</time></trkpt><trkpt lat="45.1352768" lon="9.3754814"><ele>57.0</ele><time>2026-04-25T10:24:19.166Z</time></trkpt><trkpt lat="45.1351417" lon="9.3755393"><ele>57.0</ele><time>2026-04-25T10:24:20.167Z</time></trkpt><trkpt lat="45.1350084" lon="9.37559"><ele>57.0</ele><time>2026-04-25T10:24:21.167Z</time></trkpt><trkpt lat="45.1348814" lon="9.3756428"><ele>57.0</ele><time>2026-04-25T10:24:22.167Z</time></trkpt><trkpt lat="45.1347239" lon="9.3757096"><ele>57.0</ele><time>2026-04-25T10:24:24.167Z</time></trkpt><trkpt lat="45.1346349" lon="9.3757382"><ele>57.0</ele><time>2026-04-25T10:24:25.167Z</time></trkpt><trkpt lat="45.1345323" lon="9.3757736"><ele>57.0</ele><time>2026-04-25T10:24:26.166Z</time></trkpt><trkpt lat="45.1343887" lon="9.3757873"><ele>57.0</ele><time>2026-04-25T10:24:27.167Z</time></trkpt><trkpt lat="45.1342322" lon="9.3757301"><ele>57.0</ele><time>2026-04-25T10:24:28.166Z</time></trkpt><trkpt lat="45.1341193" lon="9.3757287"><ele>57.0</ele><time>2026-04-25T10:24:29.166Z</time></trkpt><trkpt lat="45.1340213" lon="9.37571"><ele>57.0</ele><time>2026-04-25T10:24:30.167Z</time></trkpt><trkpt lat="45.133954" lon="9.3757021"><ele>57.0</ele><time>2026-04-25T10:24:31.167Z</time></trkpt><trkpt lat="45.1338507" lon="9.3757345"><ele>57.0</ele><time>2026-04-25T10:24:33.167Z</time></trkpt><trkpt lat="45.1337782" lon="9.3758256"><ele>57.0</ele><time>2026-04-25T10:24:35.167Z</time></trkpt><trkpt lat="45.1337813" lon="9.3759794"><ele>57.0</ele><time>2026-04-25T10:24:36.167Z</time></trkpt><trkpt lat="45.1337619" lon="9.3760876"><ele>57.0</ele><time>2026-04-25T10:24:37.167Z</time></trkpt><trkpt lat="45.1337456" lon="9.3762067"><ele>57.0</ele><time>2026-04-25T10:24:38.168Z</time></trkpt><trkpt lat="45.1337321" lon="9.3763639"><ele>57.0</ele><time>2026-04-25T10:24:39.166Z</time></trkpt><trkpt lat="45.1336988" lon="9.3765208"><ele>57.0</ele><time>2026-04-25T10:24:40.167Z</time></trkpt><trkpt lat="45.133702" lon="9.3766575"><ele>57.0</ele><time>2026-04-25T10:24:41.168Z</time></trkpt><trkpt lat="45.1336868" lon="9.376803"><ele>58.2</ele><time>2026-04-25T10:24:42.167Z</time></trkpt><trkpt lat="45.1336076" lon="9.3769222"><ele>59.400000000000006</ele><time>2026-04-25T10:24:43.167Z</time></trkpt><trkpt lat="45.1335782" lon="9.3770385"><ele>60.599999999999994</ele><time>2026-04-25T10:24:44.167Z</time></trkpt><trkpt lat="45.1335505" lon="9.3771762"><ele>61.8</ele><time>2026-04-25T10:24:45.167Z</time></trkpt><trkpt lat="45.1335137" lon="9.3773632"><ele>63.0</ele><time>2026-04-25T10:24:46.168Z</time></trkpt><trkpt lat="45.133482" lon="9.3775235"><ele>63.599999999999994</ele><time>2026-04-25T10:24:47.167Z</time></trkpt><trkpt lat="45.133452" lon="9.3776705"><ele>64.19999999999999</ele><time>2026-04-25T10:24:48.167Z</time></trkpt><trkpt lat="45.13343" lon="9.3777951"><ele>64.8</ele><time>2026-04-25T10:24:49.166Z</time></trkpt><trkpt lat="45.133413" lon="9.3779165"><ele>65.39999999999999</ele><time>2026-04-25T10:24:50.167Z</time></trkpt><trkpt lat="45.133365" lon="9.3780804"><ele>66.0</ele><time>2026-04-25T10:24:52.167Z</time></trkpt><trkpt lat="45.1333257" lon="9.3782506"><ele>66.0</ele><time>2026-04-25T10:24:54.166Z</time></trkpt><trkpt lat="45.133316" lon="9.3783761"><ele>66.0</ele><time>2026-04-25T10:24:55.167Z</time></trkpt><trkpt lat="45.1332905" lon="9.3785035"><ele>66.0</ele><time>2026-04-25T10:24:56.167Z</time></trkpt><trkpt lat="45.1332658" lon="9.3786016"><ele>66.0</ele><time>2026-04-25T10:24:57.167Z</time></trkpt><trkpt lat="45.1332427" lon="9.3786885"><ele>66.0</ele><time>2026-04-25T10:24:58.168Z</time></trkpt><trkpt lat="45.1332029" lon="9.3787913"><ele>66.0</ele><time>2026-04-25T10:25:00.167Z</time></trkpt><trkpt lat="45.1331631" lon="9.3788871"><ele>65.6</ele><time>2026-04-25T10:25:32.168Z</time></trkpt><trkpt lat="45.1330903" lon="9.3789132"><ele>65.19999999999999</ele><time>2026-04-25T10:25:35.166Z</time></trkpt><trkpt lat="45.1329867" lon="9.3789595"><ele>64.80000000000001</ele><time>2026-04-25T10:25:37.168Z</time></trkpt><trkpt lat="45.1328707" lon="9.3789761"><ele>64.4</ele><time>2026-04-25T10:25:39.166Z</time></trkpt><trkpt lat="45.1327494" lon="9.3789962"><ele>64.0</ele><time>2026-04-25T10:25:41.167Z</time></trkpt><trkpt lat="45.1326296" lon="9.3790148"><ele>64.0</ele><time>2026-04-25T10:25:43.166Z</time></trkpt><trkpt lat="45.1325237" lon="9.3790465"><ele>64.0</ele><time>2026-04-25T10:25:45.166Z</time></trkpt><trkpt lat="45.1324141" lon="9.3790806"><ele>64.0</ele><time>2026-04-25T10:25:47.168Z</time></trkpt><trkpt lat="45.1323018" lon="9.379119"><ele>64.0</ele><time>2026-04-25T10:25:49.168Z</time></trkpt><trkpt lat="45.1321891" lon="9.379153"><ele>64.5</ele><time>2026-04-25T10:25:51.167Z</time></trkpt><trkpt lat="45.1320798" lon="9.3791785"><ele>65.0</ele><time>2026-04-25T10:25:53.166Z</time></trkpt><trkpt lat="45.1319722" lon="9.3792073"><ele>65.5</ele><time>2026-04-25T10:25:55.168Z</time></trkpt><trkpt lat="45.1318496" lon="9.3792348"><ele>66.0</ele><time>2026-04-25T10:25:57.167Z</time></trkpt><trkpt lat="45.1317134" lon="9.3792737"><ele>66.0</ele><time>2026-04-25T10:25:59.166Z</time></trkpt><trkpt lat="45.1316287" lon="9.3792856"><ele>66.0</ele><time>2026-04-25T10:26:00.166Z</time></trkpt><trkpt lat="45.131538" lon="9.3793036"><ele>66.0</ele><time>2026-04-25T10:26:01.168Z</time></trkpt><trkpt lat="45.131447" lon="9.3793208"><ele>66.0</ele><time>2026-04-25T10:26:02.167Z</time></trkpt><trkpt lat="45.1313645" lon="9.3793364"><ele>66.0</ele><time>2026-04-25T10:26:03.168Z</time></trkpt><trkpt lat="45.1312882" lon="9.3793266"><ele>66.0</ele><time>2026-04-25T10:26:04.168Z</time></trkpt><trkpt lat="45.1312187" lon="9.3793094"><ele>65.66666666666667</ele><time>2026-04-25T10:26:05.168Z</time></trkpt><trkpt lat="45.1311537" lon="9.379294"><ele>65.33333333333333</ele><time>2026-04-25T10:26:06.167Z</time></trkpt><trkpt lat="45.1310416" lon="9.379261"><ele>65.0</ele><time>2026-04-25T10:26:08.167Z</time></trkpt><trkpt lat="45.1309477" lon="9.3792125"><ele>64.66666666666666</ele><time>2026-04-25T10:26:10.167Z</time></trkpt><trkpt lat="45.1308836" lon="9.3791899"><ele>64.33333333333333</ele><time>2026-04-25T10:26:12.166Z</time></trkpt><trkpt lat="45.1307997" lon="9.3791417"><ele>64.0</ele><time>2026-04-25T10:26:14.166Z</time></trkpt><trkpt lat="45.1307354" lon="9.37915"><ele>64.0</ele><time>2026-04-25T10:26:16.166Z</time></trkpt><trkpt lat="45.1308123" lon="9.3791828"><ele>63.99999999999999</ele><time>2026-04-25T10:26:28.166Z</time></trkpt><trkpt lat="45.1308634" lon="9.3792494"><ele>64.0</ele><time>2026-04-25T10:27:01.166Z</time></trkpt><trkpt lat="45.1309117" lon="9.3793206"><ele>64.0</ele><time>2026-04-25T10:27:07.167Z</time></trkpt><trkpt lat="45.1308525" lon="9.3792816"><ele>63.99999999999999</ele><time>2026-04-25T10:27:22.166Z</time></trkpt><trkpt lat="45.1308162" lon="9.3791963"><ele>64.0</ele><time>2026-04-25T10:27:28.167Z</time></trkpt><trkpt lat="45.1308722" lon="9.3792589"><ele>64.0</ele><time>2026-04-25T10:28:37.168Z</time></trkpt><trkpt lat="45.1308589" lon="9.3791693"><ele>64.0</ele><time>2026-04-25T10:36:27.166Z</time></trkpt><trkpt lat="45.1308994" lon="9.3792618"><ele>63.99999999999999</ele><time>2026-04-25T10:36:36.166Z</time></trkpt><trkpt lat="45.1308719" lon="9.3793757"><ele>64.0</ele><time>2026-04-25T11:10:07.163Z</time></trkpt><trkpt lat="45.1308694" lon="9.3792756"><ele>64.0</ele><time>2026-04-25T11:25:45.162Z</time></trkpt><trkpt lat="45.1307979" lon="9.3792689"><ele>63.99999999999999</ele><time>2026-04-25T11:25:51.095Z</time></trkpt><trkpt lat="45.1307684" lon="9.3791833"><ele>64.0</ele><time>2026-04-25T11:25:56.094Z</time></trkpt><trkpt lat="45.1307674" lon="9.3790804"><ele>64.0</ele><time>2026-04-25T11:26:11.162Z</time></trkpt><trkpt lat="45.1308011" lon="9.3789706"><ele>64.5</ele><time>2026-04-25T11:30:03.162Z</time></trkpt><trkpt lat="45.1308203" lon="9.3788314"><ele>65.0</ele><time>2026-04-25T11:30:05.161Z</time></trkpt><trkpt lat="45.1307923" lon="9.3786222"><ele>65.5</ele><time>2026-04-25T11:30:07.162Z</time></trkpt><trkpt lat="45.1308031" lon="9.3784403"><ele>66.0</ele><time>2026-04-25T11:30:09.161Z</time></trkpt><trkpt lat="45.1307576" lon="9.3783413"><ele>66.0</ele><time>2026-04-25T11:30:10.163Z</time></trkpt><trkpt lat="45.130774" lon="9.3781935"><ele>66.0</ele><time>2026-04-25T11:30:12.161Z</time></trkpt><trkpt lat="45.1307645" lon="9.3780789"><ele>66.0</ele><time>2026-04-25T11:30:13.161Z</time></trkpt><trkpt lat="45.130766" lon="9.3779869"><ele>66.0</ele><time>2026-04-25T11:30:14.163Z</time></trkpt><trkpt lat="45.1307689" lon="9.3778864"><ele>66.0</ele><time>2026-04-25T11:30:15.162Z</time></trkpt><trkpt lat="45.1307662" lon="9.3777875"><ele>66.0</ele><time>2026-04-25T11:30:16.162Z</time></trkpt><trkpt lat="45.1307593" lon="9.377684"><ele>65.83333333333333</ele><time>2026-04-25T11:30:17.162Z</time></trkpt><trkpt lat="45.1307454" lon="9.3775788"><ele>65.66666666666667</ele><time>2026-04-25T11:30:18.163Z</time></trkpt><trkpt lat="45.1307207" lon="9.3774738"><ele>65.5</ele><time>2026-04-25T11:30:19.161Z</time></trkpt><trkpt lat="45.1306712" lon="9.3773954"><ele>65.33333333333334</ele><time>2026-04-25T11:30:20.162Z</time></trkpt><trkpt lat="45.1306258" lon="9.3773102"><ele>65.16666666666667</ele><time>2026-04-25T11:30:21.162Z</time></trkpt><trkpt lat="45.1305669" lon="9.3771958"><ele>65.0</ele><time>2026-04-25T11:30:22.161Z</time></trkpt><trkpt lat="45.1304878" lon="9.3770439"><ele>64.4</ele><time>2026-04-25T11:30:23.163Z</time></trkpt><trkpt lat="45.1303249" lon="9.3771547"><ele>63.8</ele><time>2026-04-25T11:30:25.161Z</time></trkpt><trkpt lat="45.1302388" lon="9.3771709"><ele>63.2</ele><time>2026-04-25T11:30:26.163Z</time></trkpt><trkpt lat="45.1301642" lon="9.3771318"><ele>62.6</ele><time>2026-04-25T11:30:27.161Z</time></trkpt><trkpt lat="45.1301184" lon="9.3770357"><ele>62.0</ele><time>2026-04-25T11:30:28.161Z</time></trkpt><trkpt lat="45.1300612" lon="9.376987"><ele>62.0</ele><time>2026-04-25T11:30:29.161Z</time></trkpt><trkpt lat="45.1300297" lon="9.3768227"><ele>62.0</ele><time>2026-04-25T11:30:30.162Z</time></trkpt><trkpt lat="45.1299795" lon="9.3766993"><ele>62.0</ele><time>2026-04-25T11:30:31.163Z</time></trkpt><trkpt lat="45.1299224" lon="9.3765836"><ele>62.0</ele><time>2026-04-25T11:30:32.161Z</time></trkpt><trkpt lat="45.1298567" lon="9.3764734"><ele>62.0</ele><time>2026-04-25T11:30:33.161Z</time></trkpt><trkpt lat="45.1297915" lon="9.3763824"><ele>61.0</ele><time>2026-04-25T11:30:34.161Z</time></trkpt><trkpt lat="45.1297318" lon="9.3763031"><ele>60.00000000000001</ele><time>2026-04-25T11:30:35.162Z</time></trkpt><trkpt lat="45.1296845" lon="9.3762342"><ele>59.0</ele><time>2026-04-25T11:30:36.162Z</time></trkpt><trkpt lat="45.1296357" lon="9.3761758"><ele>58.0</ele><time>2026-04-25T11:30:37.161Z</time></trkpt><trkpt lat="45.1295629" lon="9.3761026"><ele>57.0</ele><time>2026-04-25T11:30:39.161Z</time></trkpt><trkpt lat="45.1295127" lon="9.3760272"><ele>56.0</ele><time>2026-04-25T11:30:44.161Z</time></trkpt><trkpt lat="45.1294727" lon="9.3759431"><ele>55.0</ele><time>2026-04-25T11:30:46.161Z</time></trkpt><trkpt lat="45.129414" lon="9.37588"><ele>54.99999999999999</ele><time>2026-04-25T11:30:47.162Z</time></trkpt><trkpt lat="45.1293628" lon="9.3758247"><ele>55.0</ele><time>2026-04-25T11:30:48.161Z</time></trkpt><trkpt lat="45.1293087" lon="9.3757686"><ele>55.0</ele><time>2026-04-25T11:30:49.162Z</time></trkpt><trkpt lat="45.1292502" lon="9.3757078"><ele>55.0</ele><time>2026-04-25T11:30:50.162Z</time></trkpt><trkpt lat="45.1291763" lon="9.3756418"><ele>54.99999999999999</ele><time>2026-04-25T11:30:51.161Z</time></trkpt><trkpt lat="45.1291014" lon="9.3755787"><ele>55.0</ele><time>2026-04-25T11:30:52.163Z</time></trkpt><trkpt lat="45.129007" lon="9.3755082"><ele>55.0</ele><time>2026-04-25T11:30:53.161Z</time></trkpt><trkpt lat="45.1289164" lon="9.3754451"><ele>55.0</ele><time>2026-04-25T11:30:54.162Z</time></trkpt><trkpt lat="45.128833" lon="9.3753973"><ele>55.0</ele><time>2026-04-25T11:30:55.161Z</time></trkpt><trkpt lat="45.128724" lon="9.3753562"><ele>55.0</ele><time>2026-04-25T11:30:56.161Z</time></trkpt><trkpt lat="45.1286267" lon="9.3753233"><ele>55.0</ele><time>2026-04-25T11:30:57.162Z</time></trkpt><trkpt lat="45.1285242" lon="9.3752937"><ele>55.0</ele><time>2026-04-25T11:30:58.162Z</time></trkpt><trkpt lat="45.1284205" lon="9.3752678"><ele>55.0</ele><time>2026-04-25T11:30:59.162Z</time></trkpt><trkpt lat="45.1283207" lon="9.3752367"><ele>55.0</ele><time>2026-04-25T11:31:00.162Z</time></trkpt><trkpt lat="45.128222" lon="9.3752096"><ele>55.0</ele><time>2026-04-25T11:31:01.161Z</time></trkpt><trkpt lat="45.1281245" lon="9.3751749"><ele>55.0</ele><time>2026-04-25T11:31:02.162Z</time></trkpt><trkpt lat="45.128027" lon="9.375137"><ele>55.0</ele><time>2026-04-25T11:31:03.163Z</time></trkpt><trkpt lat="45.1279301" lon="9.3751001"><ele>55.0</ele><time>2026-04-25T11:31:04.162Z</time></trkpt><trkpt lat="45.1278331" lon="9.3750707"><ele>55.0</ele><time>2026-04-25T11:31:05.162Z</time></trkpt><trkpt lat="45.1277375" lon="9.3750385"><ele>55.0</ele><time>2026-04-25T11:31:06.162Z</time></trkpt><trkpt lat="45.127636" lon="9.375013"><ele>55.0</ele><time>2026-04-25T11:31:07.162Z</time></trkpt><trkpt lat="45.1275426" lon="9.3749853"><ele>55.0</ele><time>2026-04-25T11:31:08.162Z</time></trkpt><trkpt lat="45.1274547" lon="9.374958"><ele>55.0</ele><time>2026-04-25T11:31:09.163Z</time></trkpt><trkpt lat="45.1273638" lon="9.374926"><ele>55.0</ele><time>2026-04-25T11:31:10.162Z</time></trkpt><trkpt lat="45.1272739" lon="9.374899"><ele>55.0</ele><time>2026-04-25T11:31:11.163Z</time></trkpt><trkpt lat="45.1271815" lon="9.374873"><ele>55.0</ele><time>2026-04-25T11:31:12.163Z</time></trkpt><trkpt lat="45.1270938" lon="9.3748399"><ele>55.0</ele><time>2026-04-25T11:31:13.162Z</time></trkpt><trkpt lat="45.1270005" lon="9.3748136"><ele>55.0</ele><time>2026-04-25T11:31:14.162Z</time></trkpt><trkpt lat="45.1269042" lon="9.3747801"><ele>55.0</ele><time>2026-04-25T11:31:15.162Z</time></trkpt><trkpt lat="45.1268084" lon="9.3747592"><ele>55.0</ele><time>2026-04-25T11:31:16.161Z</time></trkpt><trkpt lat="45.1267141" lon="9.3747295"><ele>55.0</ele><time>2026-04-25T11:31:17.161Z</time></trkpt><trkpt lat="45.1266201" lon="9.3747014"><ele>55.2</ele><time>2026-04-25T11:31:18.161Z</time></trkpt><trkpt lat="45.1265235" lon="9.3746738"><ele>55.4</ele><time>2026-04-25T11:31:19.162Z</time></trkpt><trkpt lat="45.1264251" lon="9.3746447"><ele>55.599999999999994</ele><time>2026-04-25T11:31:20.161Z</time></trkpt><trkpt lat="45.126324" lon="9.3746174"><ele>55.8</ele><time>2026-04-25T11:31:21.161Z</time></trkpt><trkpt lat="45.1262302" lon="9.3745936"><ele>56.0</ele><time>2026-04-25T11:31:22.162Z</time></trkpt><trkpt lat="45.1261489" lon="9.374577"><ele>56.0</ele><time>2026-04-25T11:31:23.161Z</time></trkpt><trkpt lat="45.1260412" lon="9.3745292"><ele>55.99999999999999</ele><time>2026-04-25T11:31:24.162Z</time></trkpt><trkpt lat="45.1259401" lon="9.3744919"><ele>55.99999999999999</ele><time>2026-04-25T11:31:25.162Z</time></trkpt><trkpt lat="45.125837" lon="9.3744579"><ele>56.0</ele><time>2026-04-25T11:31:26.162Z</time></trkpt><trkpt lat="45.1257319" lon="9.3744247"><ele>56.0</ele><time>2026-04-25T11:31:27.161Z</time></trkpt><trkpt lat="45.1256094" lon="9.3743932"><ele>56.25</ele><time>2026-04-25T11:31:28.161Z</time></trkpt><trkpt lat="45.1254911" lon="9.3743561"><ele>56.5</ele><time>2026-04-25T11:31:29.163Z</time></trkpt><trkpt lat="45.1253703" lon="9.3743197"><ele>56.75</ele><time>2026-04-25T11:31:30.162Z</time></trkpt><trkpt lat="45.1252533" lon="9.3742865"><ele>57.0</ele><time>2026-04-25T11:31:31.161Z</time></trkpt><trkpt lat="45.1251374" lon="9.3742497"><ele>57.0</ele><time>2026-04-25T11:31:32.161Z</time></trkpt><trkpt lat="45.1250254" lon="9.3742151"><ele>57.0</ele><time>2026-04-25T11:31:33.162Z</time></trkpt><trkpt lat="45.1249179" lon="9.3741844"><ele>57.0</ele><time>2026-04-25T11:31:34.161Z</time></trkpt><trkpt lat="45.1248102" lon="9.3741549"><ele>57.0</ele><time>2026-04-25T11:31:35.162Z</time></trkpt><trkpt lat="45.1246976" lon="9.3741101"><ele>56.8</ele><time>2026-04-25T11:31:36.162Z</time></trkpt><trkpt lat="45.1245992" lon="9.3740859"><ele>56.6</ele><time>2026-04-25T11:31:37.162Z</time></trkpt><trkpt lat="45.1244905" lon="9.3740581"><ele>56.39999999999999</ele><time>2026-04-25T11:31:38.163Z</time></trkpt><trkpt lat="45.124387" lon="9.3740325"><ele>56.199999999999996</ele><time>2026-04-25T11:31:39.162Z</time></trkpt><trkpt lat="45.1242742" lon="9.3740012"><ele>56.0</ele><time>2026-04-25T11:31:40.161Z</time></trkpt><trkpt lat="45.1241649" lon="9.3739676"><ele>55.75</ele><time>2026-04-25T11:31:41.161Z</time></trkpt><trkpt lat="45.1240538" lon="9.3739339"><ele>55.5</ele><time>2026-04-25T11:31:42.161Z</time></trkpt><trkpt lat="45.1239423" lon="9.3738998"><ele>55.25</ele><time>2026-04-25T11:31:43.161Z</time></trkpt><trkpt lat="45.1238313" lon="9.373867"><ele>55.0</ele><time>2026-04-25T11:31:44.162Z</time></trkpt><trkpt lat="45.1237072" lon="9.3738198"><ele>55.0</ele><time>2026-04-25T11:31:45.162Z</time></trkpt><trkpt lat="45.1236132" lon="9.3738037"><ele>55.0</ele><time>2026-04-25T11:31:46.162Z</time></trkpt><trkpt lat="45.1235036" lon="9.3737734"><ele>55.0</ele><time>2026-04-25T11:31:47.163Z</time></trkpt><trkpt lat="45.1233818" lon="9.3737492"><ele>55.0</ele><time>2026-04-25T11:31:48.161Z</time></trkpt><trkpt lat="45.1232707" lon="9.3737282"><ele>55.0</ele><time>2026-04-25T11:31:49.161Z</time></trkpt><trkpt lat="45.1231552" lon="9.3737057"><ele>55.0</ele><time>2026-04-25T11:31:50.161Z</time></trkpt><trkpt lat="45.1230396" lon="9.3736911"><ele>55.0</ele><time>2026-04-25T11:31:51.162Z</time></trkpt><trkpt lat="45.1229265" lon="9.3736795"><ele>55.0</ele><time>2026-04-25T11:31:52.162Z</time></trkpt><trkpt lat="45.12281" lon="9.3736682"><ele>55.0</ele><time>2026-04-25T11:31:53.163Z</time></trkpt><trkpt lat="45.1226948" lon="9.3736674"><ele>55.0</ele><time>2026-04-25T11:31:54.162Z</time></trkpt><trkpt lat="45.1225802" lon="9.3736805"><ele>55.0</ele><time>2026-04-25T11:31:55.161Z</time></trkpt><trkpt lat="45.1224676" lon="9.3736908"><ele>55.0</ele><time>2026-04-25T11:31:56.162Z</time></trkpt><trkpt lat="45.1223544" lon="9.3737218"><ele>55.0</ele><time>2026-04-25T11:31:57.162Z</time></trkpt><trkpt lat="45.1222362" lon="9.3737466"><ele>54.75</ele><time>2026-04-25T11:31:58.162Z</time></trkpt><trkpt lat="45.1221045" lon="9.3737749"><ele>54.5</ele><time>2026-04-25T11:31:59.163Z</time></trkpt><trkpt lat="45.1219665" lon="9.3738109"><ele>54.25</ele><time>2026-04-25T11:32:00.162Z</time></trkpt><trkpt lat="45.1218177" lon="9.3738407"><ele>54.0</ele><time>2026-04-25T11:32:01.163Z</time></trkpt><trkpt lat="45.1216667" lon="9.373872"><ele>54.0</ele><time>2026-04-25T11:32:02.163Z</time></trkpt><trkpt lat="45.1215168" lon="9.3739062"><ele>54.0</ele><time>2026-04-25T11:32:03.162Z</time></trkpt><trkpt lat="45.1213639" lon="9.3739374"><ele>54.0</ele><time>2026-04-25T11:32:04.163Z</time></trkpt><trkpt lat="45.1212116" lon="9.3739707"><ele>54.0</ele><time>2026-04-25T11:32:05.163Z</time></trkpt><trkpt lat="45.1210503" lon="9.3740078"><ele>54.0</ele><time>2026-04-25T11:32:06.163Z</time></trkpt><trkpt lat="45.120893" lon="9.3740402"><ele>54.0</ele><time>2026-04-25T11:32:07.161Z</time></trkpt><trkpt lat="45.1207369" lon="9.3740775"><ele>54.33333333333333</ele><time>2026-04-25T11:32:08.161Z</time></trkpt><trkpt lat="45.1205792" lon="9.3741086"><ele>54.666666666666664</ele><time>2026-04-25T11:32:09.163Z</time></trkpt><trkpt lat="45.120423" lon="9.3741382"><ele>55.0</ele><time>2026-04-25T11:32:10.162Z</time></trkpt><trkpt lat="45.120267" lon="9.374173"><ele>55.0</ele><time>2026-04-25T11:32:11.162Z</time></trkpt><trkpt lat="45.1201162" lon="9.3742151"><ele>55.0</ele><time>2026-04-25T11:32:12.162Z</time></trkpt><trkpt lat="45.1199606" lon="9.3742472"><ele>55.0</ele><time>2026-04-25T11:32:13.161Z</time></trkpt><trkpt lat="45.1198099" lon="9.3742837"><ele>55.0</ele><time>2026-04-25T11:32:14.161Z</time></trkpt><trkpt lat="45.1196525" lon="9.374317"><ele>55.0</ele><time>2026-04-25T11:32:15.162Z</time></trkpt><trkpt lat="45.1194919" lon="9.3743558"><ele>55.0</ele><time>2026-04-25T11:32:16.162Z</time></trkpt><trkpt lat="45.1193284" lon="9.3743938"><ele>55.0</ele><time>2026-04-25T11:32:17.162Z</time></trkpt><trkpt lat="45.1191661" lon="9.3744355"><ele>55.0</ele><time>2026-04-25T11:32:18.162Z</time></trkpt><trkpt lat="45.1190072" lon="9.3744788"><ele>55.0</ele><time>2026-04-25T11:32:19.161Z</time></trkpt><trkpt lat="45.1188307" lon="9.3745105"><ele>54.666666666666664</ele><time>2026-04-25T11:32:20.161Z</time></trkpt><trkpt lat="45.1186724" lon="9.3745422"><ele>54.33333333333333</ele><time>2026-04-25T11:32:21.161Z</time></trkpt><trkpt lat="45.1185098" lon="9.3745808"><ele>54.0</ele><time>2026-04-25T11:32:22.162Z</time></trkpt><trkpt lat="45.1183467" lon="9.3746079"><ele>54.0</ele><time>2026-04-25T11:32:23.161Z</time></trkpt><trkpt lat="45.1181902" lon="9.374647"><ele>54.0</ele><time>2026-04-25T11:32:24.161Z</time></trkpt><trkpt lat="45.1180307" lon="9.3746876"><ele>54.0</ele><time>2026-04-25T11:32:25.161Z</time></trkpt><trkpt lat="45.1178743" lon="9.3747351"><ele>54.25</ele><time>2026-04-25T11:32:26.162Z</time></trkpt><trkpt lat="45.1177256" lon="9.3747631"><ele>54.5</ele><time>2026-04-25T11:32:27.162Z</time></trkpt><trkpt lat="45.1175789" lon="9.3747997"><ele>54.75</ele><time>2026-04-25T11:32:28.162Z</time></trkpt><trkpt lat="45.117431" lon="9.3748274"><ele>55.0</ele><time>2026-04-25T11:32:29.162Z</time></trkpt><trkpt lat="45.117284" lon="9.3748596"><ele>55.25</ele><time>2026-04-25T11:32:30.162Z</time></trkpt><trkpt lat="45.1171399" lon="9.3748884"><ele>55.5</ele><time>2026-04-25T11:32:31.162Z</time></trkpt><trkpt lat="45.1169906" lon="9.3749053"><ele>55.75</ele><time>2026-04-25T11:32:32.163Z</time></trkpt><trkpt lat="45.1168392" lon="9.3749133"><ele>56.0</ele><time>2026-04-25T11:32:33.16Z</time></trkpt><trkpt lat="45.116685" lon="9.3749092"><ele>56.0</ele><time>2026-04-25T11:32:34.16Z</time></trkpt><trkpt lat="45.1165295" lon="9.3748849"><ele>56.0</ele><time>2026-04-25T11:32:35.161Z</time></trkpt><trkpt lat="45.1163754" lon="9.3748457"><ele>56.0</ele><time>2026-04-25T11:32:36.161Z</time></trkpt><trkpt lat="45.1162212" lon="9.3747942"><ele>56.0</ele><time>2026-04-25T11:32:37.161Z</time></trkpt><trkpt lat="45.1160699" lon="9.3747388"><ele>56.0</ele><time>2026-04-25T11:32:38.161Z</time></trkpt><trkpt lat="45.115919" lon="9.3746779"><ele>56.0</ele><time>2026-04-25T11:32:39.161Z</time></trkpt><trkpt lat="45.1157712" lon="9.3746156"><ele>55.66666666666667</ele><time>2026-04-25T11:32:40.161Z</time></trkpt><trkpt lat="45.1156226" lon="9.3745518"><ele>55.33333333333333</ele><time>2026-04-25T11:32:41.161Z</time></trkpt><trkpt lat="45.1154733" lon="9.3744911"><ele>55.0</ele><time>2026-04-25T11:32:42.161Z</time></trkpt><trkpt lat="45.1153239" lon="9.3744326"><ele>55.0</ele><time>2026-04-25T11:32:43.161Z</time></trkpt><trkpt lat="45.1151771" lon="9.3743765"><ele>55.0</ele><time>2026-04-25T11:32:44.161Z</time></trkpt><trkpt lat="45.1150326" lon="9.3743175"><ele>55.0</ele><time>2026-04-25T11:32:45.16Z</time></trkpt><trkpt lat="45.1148898" lon="9.3742601"><ele>55.0</ele><time>2026-04-25T11:32:46.16Z</time></trkpt><trkpt lat="45.1147438" lon="9.3742013"><ele>55.0</ele><time>2026-04-25T11:32:47.161Z</time></trkpt><trkpt lat="45.1145925" lon="9.3741412"><ele>55.0</ele><time>2026-04-25T11:32:48.161Z</time></trkpt><trkpt lat="45.1144226" lon="9.3740743"><ele>55.0</ele><time>2026-04-25T11:32:49.161Z</time></trkpt><trkpt lat="45.1142481" lon="9.3739985"><ele>55.0</ele><time>2026-04-25T11:32:50.161Z</time></trkpt><trkpt lat="45.1140665" lon="9.3739374"><ele>55.0</ele><time>2026-04-25T11:32:51.16Z</time></trkpt><trkpt lat="45.1138984" lon="9.3738674"><ele>55.33333333333333</ele><time>2026-04-25T11:32:52.161Z</time></trkpt><trkpt lat="45.1137284" lon="9.3738026"><ele>55.66666666666667</ele><time>2026-04-25T11:32:53.162Z</time></trkpt><trkpt lat="45.11358" lon="9.3737462"><ele>56.0</ele><time>2026-04-25T11:32:54.162Z</time></trkpt><trkpt lat="45.113432" lon="9.3736851"><ele>56.0</ele><time>2026-04-25T11:32:55.161Z</time></trkpt><trkpt lat="45.113285" lon="9.3736242"><ele>56.0</ele><time>2026-04-25T11:32:56.161Z</time></trkpt><trkpt lat="45.1131474" lon="9.3735586"><ele>56.0</ele><time>2026-04-25T11:32:57.161Z</time></trkpt><trkpt lat="45.1130113" lon="9.3734911"><ele>56.0</ele><time>2026-04-25T11:32:58.161Z</time></trkpt><trkpt lat="45.1128769" lon="9.3734173"><ele>55.75</ele><time>2026-04-25T11:32:59.161Z</time></trkpt><trkpt lat="45.112749" lon="9.3733415"><ele>55.5</ele><time>2026-04-25T11:33:00.16Z</time></trkpt><trkpt lat="45.1126255" lon="9.3732587"><ele>55.25</ele><time>2026-04-25T11:33:01.161Z</time></trkpt><trkpt lat="45.1125037" lon="9.3731751"><ele>55.0</ele><time>2026-04-25T11:33:02.161Z</time></trkpt><trkpt lat="45.1123877" lon="9.3730926"><ele>54.75</ele><time>2026-04-25T11:33:03.16Z</time></trkpt><trkpt lat="45.1122739" lon="9.3730116"><ele>54.5</ele><time>2026-04-25T11:33:04.161Z</time></trkpt><trkpt lat="45.1121532" lon="9.3729286"><ele>54.25</ele><time>2026-04-25T11:33:05.161Z</time></trkpt><trkpt lat="45.1120615" lon="9.3728669"><ele>54.0</ele><time>2026-04-25T11:33:06.161Z</time></trkpt><trkpt lat="45.1119704" lon="9.3728016"><ele>54.0</ele><time>2026-04-25T11:33:07.161Z</time></trkpt><trkpt lat="45.1118822" lon="9.3727409"><ele>54.00000000000001</ele><time>2026-04-25T11:33:08.161Z</time></trkpt><trkpt lat="45.1117965" lon="9.3726772"><ele>54.00000000000001</ele><time>2026-04-25T11:33:09.16Z</time></trkpt><trkpt lat="45.1117157" lon="9.3725841"><ele>54.0</ele><time>2026-04-25T11:33:10.161Z</time></trkpt><trkpt lat="45.111632" lon="9.3725025"><ele>54.0</ele><time>2026-04-25T11:33:11.161Z</time></trkpt><trkpt lat="45.111552" lon="9.3724115"><ele>54.0</ele><time>2026-04-25T11:33:12.161Z</time></trkpt><trkpt lat="45.111483" lon="9.3723316"><ele>54.0</ele><time>2026-04-25T11:33:13.161Z</time></trkpt><trkpt lat="45.1114158" lon="9.3722645"><ele>54.0</ele><time>2026-04-25T11:33:14.16Z</time></trkpt><trkpt lat="45.111359" lon="9.3722093"><ele>54.0</ele><time>2026-04-25T11:33:15.161Z</time></trkpt><trkpt lat="45.1113015" lon="9.3721542"><ele>54.0</ele><time>2026-04-25T11:33:16.16Z</time></trkpt><trkpt lat="45.111233" lon="9.3720771"><ele>54.0</ele><time>2026-04-25T11:33:17.16Z</time></trkpt><trkpt lat="45.1111497" lon="9.37199"><ele>54.25</ele><time>2026-04-25T11:33:18.161Z</time></trkpt><trkpt lat="45.1110659" lon="9.3719066"><ele>54.5</ele><time>2026-04-25T11:33:19.161Z</time></trkpt><trkpt lat="45.1109569" lon="9.3718249"><ele>54.75</ele><time>2026-04-25T11:33:20.161Z</time></trkpt><trkpt lat="45.1108509" lon="9.3717432"><ele>55.0</ele><time>2026-04-25T11:33:21.162Z</time></trkpt><trkpt lat="45.1107392" lon="9.3716649"><ele>54.5</ele><time>2026-04-25T11:33:22.161Z</time></trkpt><trkpt lat="45.1106287" lon="9.3715853"><ele>54.0</ele><time>2026-04-25T11:33:23.161Z</time></trkpt><trkpt lat="45.110517" lon="9.3715082"><ele>53.5</ele><time>2026-04-25T11:33:24.161Z</time></trkpt><trkpt lat="45.1104086" lon="9.3714393"><ele>53.0</ele><time>2026-04-25T11:33:25.161Z</time></trkpt><trkpt lat="45.1102926" lon="9.3713572"><ele>53.0</ele><time>2026-04-25T11:33:26.161Z</time></trkpt><trkpt lat="45.1101891" lon="9.3712877"><ele>53.0</ele><time>2026-04-25T11:33:27.161Z</time></trkpt><trkpt lat="45.1100833" lon="9.3712163"><ele>53.0</ele><time>2026-04-25T11:33:28.16Z</time></trkpt><trkpt lat="45.1099786" lon="9.3711431"><ele>53.0</ele><time>2026-04-25T11:33:29.161Z</time></trkpt><trkpt lat="45.1098762" lon="9.3710745"><ele>54.0</ele><time>2026-04-25T11:33:30.162Z</time></trkpt><trkpt lat="45.1097728" lon="9.3710003"><ele>55.0</ele><time>2026-04-25T11:33:31.162Z</time></trkpt><trkpt lat="45.1096632" lon="9.3709309"><ele>56.0</ele><time>2026-04-25T11:33:32.162Z</time></trkpt><trkpt lat="45.1095535" lon="9.3708585"><ele>57.0</ele><time>2026-04-25T11:33:33.161Z</time></trkpt><trkpt lat="45.1094493" lon="9.3707841"><ele>57.0</ele><time>2026-04-25T11:33:34.16Z</time></trkpt><trkpt lat="45.1093517" lon="9.3707085"><ele>57.0</ele><time>2026-04-25T11:33:35.16Z</time></trkpt><trkpt lat="45.1092703" lon="9.3706138"><ele>57.0</ele><time>2026-04-25T11:33:36.161Z</time></trkpt><trkpt lat="45.1091901" lon="9.3705007"><ele>57.0</ele><time>2026-04-25T11:33:37.161Z</time></trkpt><trkpt lat="45.1091105" lon="9.3703711"><ele>56.8</ele><time>2026-04-25T11:33:38.161Z</time></trkpt><trkpt lat="45.1090329" lon="9.3702364"><ele>56.6</ele><time>2026-04-25T11:33:39.161Z</time></trkpt><trkpt lat="45.108993" lon="9.370091"><ele>56.39999999999999</ele><time>2026-04-25T11:33:40.16Z</time></trkpt><trkpt lat="45.1089582" lon="9.3699507"><ele>56.199999999999996</ele><time>2026-04-25T11:33:41.16Z</time></trkpt><trkpt lat="45.108932" lon="9.3698119"><ele>56.0</ele><time>2026-04-25T11:33:42.161Z</time></trkpt><trkpt lat="45.1089198" lon="9.369663"><ele>56.00000000000001</ele><time>2026-04-25T11:33:43.16Z</time></trkpt><trkpt lat="45.1089136" lon="9.3695396"><ele>56.0</ele><time>2026-04-25T11:33:44.161Z</time></trkpt><trkpt lat="45.1089308" lon="9.3694234"><ele>56.0</ele><time>2026-04-25T11:33:45.161Z</time></trkpt><trkpt lat="45.1089345" lon="9.3693139"><ele>56.0</ele><time>2026-04-25T11:33:46.16Z</time></trkpt><trkpt lat="45.1089405" lon="9.3692087"><ele>56.00000000000001</ele><time>2026-04-25T11:33:47.161Z</time></trkpt><trkpt lat="45.1089401" lon="9.3691022"><ele>56.0</ele><time>2026-04-25T11:33:49.162Z</time></trkpt><trkpt lat="45.1088949" lon="9.3691933"><ele>56.0</ele><time>2026-04-25T11:33:52.161Z</time></trkpt><trkpt lat="45.1089072" lon="9.3693843"><ele>55.99999999999999</ele><time>2026-04-25T11:33:54.16Z</time></trkpt><trkpt lat="45.108899" lon="9.3694947"><ele>55.99999999999999</ele><time>2026-04-25T11:33:55.16Z</time></trkpt><trkpt lat="45.1088921" lon="9.3696172"><ele>56.0</ele><time>2026-04-25T11:33:56.162Z</time></trkpt><trkpt lat="45.1088993" lon="9.3697406"><ele>56.0</ele><time>2026-04-25T11:33:57.16Z</time></trkpt><trkpt lat="45.1089115" lon="9.3698659"><ele>56.0</ele><time>2026-04-25T11:33:58.161Z</time></trkpt><trkpt lat="45.1089355" lon="9.3699888"><ele>55.99999999999999</ele><time>2026-04-25T11:33:59.16Z</time></trkpt><trkpt lat="45.1089706" lon="9.3701097"><ele>55.99999999999999</ele><time>2026-04-25T11:34:00.161Z</time></trkpt><trkpt lat="45.1090092" lon="9.3702282"><ele>56.0</ele><time>2026-04-25T11:34:01.16Z</time></trkpt><trkpt lat="45.109051" lon="9.3703499"><ele>56.0</ele><time>2026-04-25T11:34:02.161Z</time></trkpt><trkpt lat="45.1091154" lon="9.3704492"><ele>56.16666666666667</ele><time>2026-04-25T11:34:03.161Z</time></trkpt><trkpt lat="45.109171" lon="9.3705544"><ele>56.333333333333336</ele><time>2026-04-25T11:34:04.161Z</time></trkpt><trkpt lat="45.1092349" lon="9.3706178"><ele>56.5</ele><time>2026-04-25T11:34:05.162Z</time></trkpt><trkpt lat="45.109263" lon="9.3707295"><ele>56.66666666666667</ele><time>2026-04-25T11:34:07.16Z</time></trkpt><trkpt lat="45.1092023" lon="9.3707618"><ele>56.833333333333336</ele><time>2026-04-25T11:34:10.161Z</time></trkpt><trkpt lat="45.1091008" lon="9.3707652"><ele>57.0</ele><time>2026-04-25T11:34:13.161Z</time></trkpt><trkpt lat="45.1089867" lon="9.3708008"><ele>57.0</ele><time>2026-04-25T11:34:15.162Z</time></trkpt><trkpt lat="45.1089232" lon="9.3707999"><ele>57.0</ele><time>2026-04-25T11:34:16.161Z</time></trkpt><trkpt lat="45.1088476" lon="9.370771"><ele>57.0</ele><time>2026-04-25T11:34:17.162Z</time></trkpt><trkpt lat="45.1087804" lon="9.3707414"><ele>57.0</ele><time>2026-04-25T11:34:18.161Z</time></trkpt><trkpt lat="45.1086896" lon="9.370697"><ele>57.0</ele><time>2026-04-25T11:34:19.16Z</time></trkpt><trkpt lat="45.1086039" lon="9.3706235"><ele>57.0</ele><time>2026-04-25T11:34:20.16Z</time></trkpt><trkpt lat="45.1085225" lon="9.3705692"><ele>56.8</ele><time>2026-04-25T11:34:21.161Z</time></trkpt><trkpt lat="45.1084429" lon="9.3705119"><ele>56.6</ele><time>2026-04-25T11:34:22.16Z</time></trkpt><trkpt lat="45.1083636" lon="9.3704522"><ele>56.39999999999999</ele><time>2026-04-25T11:34:23.162Z</time></trkpt><trkpt lat="45.1082877" lon="9.3703993"><ele>56.199999999999996</ele><time>2026-04-25T11:34:24.161Z</time></trkpt><trkpt lat="45.1081953" lon="9.3703356"><ele>56.0</ele><time>2026-04-25T11:34:25.161Z</time></trkpt><trkpt lat="45.1080951" lon="9.3702751"><ele>55.5</ele><time>2026-04-25T11:34:26.161Z</time></trkpt><trkpt lat="45.1079849" lon="9.370215"><ele>55.0</ele><time>2026-04-25T11:34:27.16Z</time></trkpt><trkpt lat="45.107872" lon="9.3701622"><ele>54.5</ele><time>2026-04-25T11:34:28.16Z</time></trkpt><trkpt lat="45.1077478" lon="9.3701237"><ele>54.0</ele><time>2026-04-25T11:34:29.16Z</time></trkpt><trkpt lat="45.1076206" lon="9.370089"><ele>54.0</ele><time>2026-04-25T11:34:30.161Z</time></trkpt><trkpt lat="45.107485" lon="9.3700649"><ele>54.0</ele><time>2026-04-25T11:34:31.161Z</time></trkpt><trkpt lat="45.1073521" lon="9.3700295"><ele>54.0</ele><time>2026-04-25T11:34:32.16Z</time></trkpt><trkpt lat="45.1072196" lon="9.3699898"><ele>54.0</ele><time>2026-04-25T11:34:33.161Z</time></trkpt><trkpt lat="45.1070912" lon="9.3699437"><ele>54.0</ele><time>2026-04-25T11:34:34.161Z</time></trkpt><trkpt lat="45.1069817" lon="9.3698616"><ele>54.0</ele><time>2026-04-25T11:34:35.161Z</time></trkpt><trkpt lat="45.1068825" lon="9.3697713"><ele>54.0</ele><time>2026-04-25T11:34:36.161Z</time></trkpt><trkpt lat="45.1068407" lon="9.369584"><ele>54.0</ele><time>2026-04-25T11:34:37.161Z</time></trkpt><trkpt lat="45.1068091" lon="9.3693944"><ele>54.0</ele><time>2026-04-25T11:34:38.16Z</time></trkpt><trkpt lat="45.1067959" lon="9.3691961"><ele>54.0</ele><time>2026-04-25T11:34:39.162Z</time></trkpt><trkpt lat="45.1067952" lon="9.3689917"><ele>54.0</ele><time>2026-04-25T11:34:40.161Z</time></trkpt><trkpt lat="45.1067876" lon="9.3687848"><ele>54.0</ele><time>2026-04-25T11:34:41.16Z</time></trkpt><trkpt lat="45.1067996" lon="9.3685835"><ele>54.25</ele><time>2026-04-25T11:34:42.16Z</time></trkpt><trkpt lat="45.1067961" lon="9.3683763"><ele>54.5</ele><time>2026-04-25T11:34:43.161Z</time></trkpt><trkpt lat="45.1067939" lon="9.3681699"><ele>54.75</ele><time>2026-04-25T11:34:44.16Z</time></trkpt><trkpt lat="45.1067837" lon="9.3679666"><ele>55.0</ele><time>2026-04-25T11:34:45.161Z</time></trkpt><trkpt lat="45.1067607" lon="9.3677393"><ele>54.33333333333333</ele><time>2026-04-25T11:34:46.162Z</time></trkpt><trkpt lat="45.1067427" lon="9.367515"><ele>53.66666666666667</ele><time>2026-04-25T11:34:47.161Z</time></trkpt><trkpt lat="45.1067091" lon="9.3672942"><ele>53.0</ele><time>2026-04-25T11:34:48.162Z</time></trkpt><trkpt lat="45.1066806" lon="9.3670792"><ele>53.0</ele><time>2026-04-25T11:34:49.162Z</time></trkpt><trkpt lat="45.1066497" lon="9.3668609"><ele>53.0</ele><time>2026-04-25T11:34:50.162Z</time></trkpt><trkpt lat="45.1066202" lon="9.36668"><ele>53.0</ele><time>2026-04-25T11:34:51.162Z</time></trkpt><trkpt lat="45.1065882" lon="9.3664954"><ele>53.0</ele><time>2026-04-25T11:34:52.161Z</time></trkpt><trkpt lat="45.1065607" lon="9.3663237"><ele>53.8</ele><time>2026-04-25T11:34:53.162Z</time></trkpt><trkpt lat="45.1065345" lon="9.3661609"><ele>54.599999999999994</ele><time>2026-04-25T11:34:54.161Z</time></trkpt><trkpt lat="45.1065069" lon="9.3660066"><ele>55.400000000000006</ele><time>2026-04-25T11:34:55.16Z</time></trkpt><trkpt lat="45.1064808" lon="9.3658592"><ele>56.2</ele><time>2026-04-25T11:34:56.16Z</time></trkpt><trkpt lat="45.106456" lon="9.3657198"><ele>57.0</ele><time>2026-04-25T11:34:57.16Z</time></trkpt><trkpt lat="45.1064347" lon="9.3656003"><ele>56.8</ele><time>2026-04-25T11:34:58.16Z</time></trkpt><trkpt lat="45.1064118" lon="9.3654769"><ele>56.6</ele><time>2026-04-25T11:34:59.161Z</time></trkpt><trkpt lat="45.1063902" lon="9.3653563"><ele>56.39999999999999</ele><time>2026-04-25T11:35:00.16Z</time></trkpt><trkpt lat="45.1063655" lon="9.3652201"><ele>56.199999999999996</ele><time>2026-04-25T11:35:01.161Z</time></trkpt><trkpt lat="45.1063389" lon="9.3650701"><ele>56.0</ele><time>2026-04-25T11:35:02.161Z</time></trkpt><trkpt lat="45.1063123" lon="9.3649199"><ele>56.0</ele><time>2026-04-25T11:35:03.161Z</time></trkpt><trkpt lat="45.1062855" lon="9.3647599"><ele>56.0</ele><time>2026-04-25T11:35:04.16Z</time></trkpt><trkpt lat="45.1062537" lon="9.364565"><ele>56.0</ele><time>2026-04-25T11:35:05.161Z</time></trkpt><trkpt lat="45.1062059" lon="9.3643572"><ele>56.0</ele><time>2026-04-25T11:35:06.161Z</time></trkpt><trkpt lat="45.1061815" lon="9.3641439"><ele>55.25</ele><time>2026-04-25T11:35:07.16Z</time></trkpt><trkpt lat="45.1061614" lon="9.3639274"><ele>54.5</ele><time>2026-04-25T11:35:08.16Z</time></trkpt><trkpt lat="45.1061592" lon="9.3637252"><ele>53.75</ele><time>2026-04-25T11:35:09.16Z</time></trkpt><trkpt lat="45.1061672" lon="9.3635538"><ele>53.0</ele><time>2026-04-25T11:35:10.16Z</time></trkpt><trkpt lat="45.1061723" lon="9.3633718"><ele>53.00000000000001</ele><time>2026-04-25T11:35:11.161Z</time></trkpt><trkpt lat="45.1061774" lon="9.3632237"><ele>53.0</ele><time>2026-04-25T11:35:12.16Z</time></trkpt><trkpt lat="45.1061585" lon="9.3631162"><ele>53.0</ele><time>2026-04-25T11:35:16.16Z</time></trkpt><trkpt lat="45.1061265" lon="9.3629414"><ele>53.0</ele><time>2026-04-25T11:35:18.161Z</time></trkpt><trkpt lat="45.1061212" lon="9.3628499"><ele>53.00000000000001</ele><time>2026-04-25T11:35:19.16Z</time></trkpt><trkpt lat="45.1061122" lon="9.3627566"><ele>53.0</ele><time>2026-04-25T11:35:20.161Z</time></trkpt><trkpt lat="45.1060786" lon="9.3626335"><ele>52.4</ele><time>2026-04-25T11:35:22.16Z</time></trkpt><trkpt lat="45.1059638" lon="9.362609"><ele>51.8</ele><time>2026-04-25T11:35:25.161Z</time></trkpt><trkpt lat="45.1058785" lon="9.3625956"><ele>51.2</ele><time>2026-04-25T11:35:27.161Z</time></trkpt><trkpt lat="45.1058048" lon="9.3626011"><ele>50.6</ele><time>2026-04-25T11:35:28.16Z</time></trkpt><trkpt lat="45.1057085" lon="9.3626477"><ele>50.0</ele><time>2026-04-25T11:35:29.162Z</time></trkpt><trkpt lat="45.1055995" lon="9.3626749"><ele>49.833333333333336</ele><time>2026-04-25T11:35:30.162Z</time></trkpt><trkpt lat="45.1055281" lon="9.362713"><ele>49.66666666666667</ele><time>2026-04-25T11:35:31.161Z</time></trkpt><trkpt lat="45.1054919" lon="9.3627864"><ele>49.5</ele><time>2026-04-25T11:35:32.161Z</time></trkpt><trkpt lat="45.1054782" lon="9.3629142"><ele>49.33333333333333</ele><time>2026-04-25T11:35:34.161Z</time></trkpt><trkpt lat="45.1054586" lon="9.3630196"><ele>49.166666666666664</ele><time>2026-04-25T11:35:35.161Z</time></trkpt><trkpt lat="45.1054542" lon="9.3631267"><ele>49.0</ele><time>2026-04-25T11:35:36.161Z</time></trkpt><trkpt lat="45.1054214" lon="9.3632857"><ele>48.99999999999999</ele><time>2026-04-25T11:35:37.161Z</time></trkpt><trkpt lat="45.1054316" lon="9.3634032"><ele>49.0</ele><time>2026-04-25T11:35:38.161Z</time></trkpt><trkpt lat="45.1054169" lon="9.3635179"><ele>49.0</ele><time>2026-04-25T11:35:39.16Z</time></trkpt><trkpt lat="45.1054121" lon="9.3636411"><ele>49.0</ele><time>2026-04-25T11:35:40.16Z</time></trkpt><trkpt lat="45.1054104" lon="9.3637605"><ele>48.99999999999999</ele><time>2026-04-25T11:35:41.16Z</time></trkpt><trkpt lat="45.1054128" lon="9.3638899"><ele>49.0</ele><time>2026-04-25T11:35:42.16Z</time></trkpt><trkpt lat="45.1053729" lon="9.3640668"><ele>49.49999999999999</ele><time>2026-04-25T11:35:44.16Z</time></trkpt><trkpt lat="45.1053699" lon="9.3641606"><ele>50.0</ele><time>2026-04-25T11:35:45.16Z</time></trkpt><trkpt lat="45.1053441" lon="9.3642572"><ele>50.5</ele><time>2026-04-25T11:35:46.161Z</time></trkpt><trkpt lat="45.1053321" lon="9.3643982"><ele>51.0</ele><time>2026-04-25T11:35:47.161Z</time></trkpt><trkpt lat="45.1053144" lon="9.3645366"><ele>51.49999999999999</ele><time>2026-04-25T11:35:48.161Z</time></trkpt><trkpt lat="45.1052954" lon="9.3646775"><ele>52.0</ele><time>2026-04-25T11:35:49.16Z</time></trkpt><trkpt lat="45.1052746" lon="9.3648324"><ele>52.0</ele><time>2026-04-25T11:35:50.16Z</time></trkpt><trkpt lat="45.1052512" lon="9.3649639"><ele>52.0</ele><time>2026-04-25T11:35:51.162Z</time></trkpt><trkpt lat="45.10523" lon="9.3650615"><ele>52.0</ele><time>2026-04-25T11:35:52.161Z</time></trkpt><trkpt lat="45.1052122" lon="9.3652031"><ele>52.0</ele><time>2026-04-25T11:35:53.161Z</time></trkpt><trkpt lat="45.1051918" lon="9.3653646"><ele>52.0</ele><time>2026-04-25T11:35:54.162Z</time></trkpt><trkpt lat="45.1051767" lon="9.3655014"><ele>51.83333333333333</ele><time>2026-04-25T11:35:55.16Z</time></trkpt><trkpt lat="45.1051593" lon="9.3656319"><ele>51.666666666666664</ele><time>2026-04-25T11:35:56.161Z</time></trkpt><trkpt lat="45.105145" lon="9.3657554"><ele>51.5</ele><time>2026-04-25T11:35:57.16Z</time></trkpt><trkpt lat="45.1051257" lon="9.3658865"><ele>51.33333333333333</ele><time>2026-04-25T11:35:58.161Z</time></trkpt><trkpt lat="45.1051054" lon="9.3659992"><ele>51.166666666666664</ele><time>2026-04-25T11:35:59.161Z</time></trkpt><trkpt lat="45.10508" lon="9.3661171"><ele>51.0</ele><time>2026-04-25T11:36:00.161Z</time></trkpt><trkpt lat="45.1050559" lon="9.3662565"><ele>51.0</ele><time>2026-04-25T11:36:01.161Z</time></trkpt><trkpt lat="45.1050431" lon="9.3663925"><ele>51.0</ele><time>2026-04-25T11:36:03.162Z</time></trkpt><trkpt lat="45.1050513" lon="9.3665281"><ele>51.0</ele><time>2026-04-25T11:36:04.16Z</time></trkpt><trkpt lat="45.1050715" lon="9.3667163"><ele>51.0</ele><time>2026-04-25T11:36:06.162Z</time></trkpt><trkpt lat="45.1050512" lon="9.3668287"><ele>51.0</ele><time>2026-04-25T11:36:07.161Z</time></trkpt><trkpt lat="45.1050348" lon="9.3669393"><ele>51.0</ele><time>2026-04-25T11:36:08.161Z</time></trkpt><trkpt lat="45.1050163" lon="9.3670659"><ele>51.0</ele><time>2026-04-25T11:36:09.16Z</time></trkpt><trkpt lat="45.1050035" lon="9.3672741"><ele>51.0</ele><time>2026-04-25T11:36:11.161Z</time></trkpt><trkpt lat="45.1050069" lon="9.3673981"><ele>51.0</ele><time>2026-04-25T11:36:12.161Z</time></trkpt><trkpt lat="45.1050078" lon="9.3675151"><ele>51.0</ele><time>2026-04-25T11:36:13.162Z</time></trkpt><trkpt lat="45.1050146" lon="9.3676395"><ele>51.199999999999996</ele><time>2026-04-25T11:36:14.161Z</time></trkpt><trkpt lat="45.1050203" lon="9.3677676"><ele>51.4</ele><time>2026-04-25T11:36:15.16Z</time></trkpt><trkpt lat="45.1050352" lon="9.3678951"><ele>51.6</ele><time>2026-04-25T11:36:17.16Z</time></trkpt><trkpt lat="45.1050586" lon="9.3680353"><ele>51.8</ele><time>2026-04-25T11:36:19.16Z</time></trkpt><trkpt lat="45.1050398" lon="9.3681978"><ele>52.0</ele><time>2026-04-25T11:36:21.16Z</time></trkpt><trkpt lat="45.1050235" lon="9.3683753"><ele>52.0</ele><time>2026-04-25T11:36:23.16Z</time></trkpt><trkpt lat="45.1050207" lon="9.3684674"><ele>52.0</ele><time>2026-04-25T11:36:24.161Z</time></trkpt><trkpt lat="45.1050138" lon="9.3685689"><ele>52.0</ele><time>2026-04-25T11:36:25.16Z</time></trkpt><trkpt lat="45.1049984" lon="9.3686709"><ele>52.0</ele><time>2026-04-25T11:36:26.162Z</time></trkpt><trkpt lat="45.1049863" lon="9.3687738"><ele>52.0</ele><time>2026-04-25T11:36:27.16Z</time></trkpt><trkpt lat="45.1049777" lon="9.3688839"><ele>52.0</ele><time>2026-04-25T11:36:28.161Z</time></trkpt><trkpt lat="45.1049601" lon="9.3689966"><ele>52.0</ele><time>2026-04-25T11:36:29.16Z</time></trkpt><trkpt lat="45.1049472" lon="9.3691142"><ele>51.99999999999999</ele><time>2026-04-25T11:36:30.162Z</time></trkpt><trkpt lat="45.1049374" lon="9.3692305"><ele>52.0</ele><time>2026-04-25T11:36:31.161Z</time></trkpt><trkpt lat="45.1049252" lon="9.3693548"><ele>52.0</ele><time>2026-04-25T11:36:32.161Z</time></trkpt><trkpt lat="45.1049178" lon="9.369481"><ele>52.0</ele><time>2026-04-25T11:36:33.161Z</time></trkpt><trkpt lat="45.1049105" lon="9.3696069"><ele>51.99999999999999</ele><time>2026-04-25T11:36:34.16Z</time></trkpt><trkpt lat="45.1048984" lon="9.3697366"><ele>52.0</ele><time>2026-04-25T11:36:35.161Z</time></trkpt><trkpt lat="45.1048871" lon="9.3698693"><ele>51.2</ele><time>2026-04-25T11:36:36.161Z</time></trkpt><trkpt lat="45.104876" lon="9.3700006"><ele>50.400000000000006</ele><time>2026-04-25T11:36:37.161Z</time></trkpt><trkpt lat="45.1048652" lon="9.3701301"><ele>49.599999999999994</ele><time>2026-04-25T11:36:38.16Z</time></trkpt><trkpt lat="45.1048549" lon="9.3702585"><ele>48.8</ele><time>2026-04-25T11:36:39.16Z</time></trkpt><trkpt lat="45.1048443" lon="9.3703932"><ele>48.0</ele><time>2026-04-25T11:36:40.16Z</time></trkpt><trkpt lat="45.1048299" lon="9.3705371"><ele>48.0</ele><time>2026-04-25T11:36:41.161Z</time></trkpt><trkpt lat="45.1048142" lon="9.3706839"><ele>48.0</ele><time>2026-04-25T11:36:42.16Z</time></trkpt><trkpt lat="45.1047995" lon="9.3708422"><ele>48.0</ele><time>2026-04-25T11:36:43.162Z</time></trkpt><trkpt lat="45.104783" lon="9.3710011"><ele>48.0</ele><time>2026-04-25T11:36:44.162Z</time></trkpt><trkpt lat="45.1047676" lon="9.3711526"><ele>48.0</ele><time>2026-04-25T11:36:45.16Z</time></trkpt><trkpt lat="45.1047486" lon="9.371306"><ele>48.0</ele><time>2026-04-25T11:36:46.16Z</time></trkpt><trkpt lat="45.1047268" lon="9.3714522"><ele>48.0</ele><time>2026-04-25T11:36:47.161Z</time></trkpt><trkpt lat="45.1047086" lon="9.371579"><ele>48.0</ele><time>2026-04-25T11:36:48.162Z</time></trkpt><trkpt lat="45.1046781" lon="9.371731"><ele>48.0</ele><time>2026-04-25T11:36:49.16Z</time></trkpt><trkpt lat="45.1046528" lon="9.3718788"><ele>48.0</ele><time>2026-04-25T11:36:50.161Z</time></trkpt><trkpt lat="45.1046277" lon="9.3720209"><ele>48.0</ele><time>2026-04-25T11:36:51.16Z</time></trkpt><trkpt lat="45.1046002" lon="9.372158"><ele>48.0</ele><time>2026-04-25T11:36:52.162Z</time></trkpt><trkpt lat="45.1045771" lon="9.3722952"><ele>48.0</ele><time>2026-04-25T11:36:53.161Z</time></trkpt><trkpt lat="45.1045664" lon="9.3724084"><ele>48.0</ele><time>2026-04-25T11:36:54.161Z</time></trkpt><trkpt lat="45.1045266" lon="9.3725819"><ele>48.0</ele><time>2026-04-25T11:36:55.161Z</time></trkpt><trkpt lat="45.104503" lon="9.3727381"><ele>48.2</ele><time>2026-04-25T11:36:56.16Z</time></trkpt><trkpt lat="45.1044688" lon="9.3728797"><ele>48.4</ele><time>2026-04-25T11:36:57.161Z</time></trkpt><trkpt lat="45.1044397" lon="9.3730404"><ele>48.6</ele><time>2026-04-25T11:36:59.161Z</time></trkpt><trkpt lat="45.1044373" lon="9.3731788"><ele>48.800000000000004</ele><time>2026-04-25T11:37:01.161Z</time></trkpt><trkpt lat="45.1045455" lon="9.3732277"><ele>49.0</ele><time>2026-04-25T11:37:03.16Z</time></trkpt><trkpt lat="45.1046149" lon="9.3732034"><ele>49.33333333333333</ele><time>2026-04-25T11:37:04.161Z</time></trkpt><trkpt lat="45.1047236" lon="9.3731644"><ele>49.66666666666667</ele><time>2026-04-25T11:37:05.161Z</time></trkpt><trkpt lat="45.1048384" lon="9.3731627"><ele>50.0</ele><time>2026-04-25T11:37:06.16Z</time></trkpt><trkpt lat="45.1050803" lon="9.3731036"><ele>51.66666666666667</ele><time>2026-04-25T11:37:07.161Z</time></trkpt><trkpt lat="45.1052787" lon="9.3730642"><ele>53.33333333333333</ele><time>2026-04-25T11:37:08.161Z</time></trkpt><trkpt lat="45.1054405" lon="9.3729823"><ele>55.0</ele><time>2026-04-25T11:37:09.16Z</time></trkpt><trkpt lat="45.1055921" lon="9.3729283"><ele>55.25</ele><time>2026-04-25T11:37:10.16Z</time></trkpt><trkpt lat="45.1057242" lon="9.3728966"><ele>55.5</ele><time>2026-04-25T11:37:11.162Z</time></trkpt><trkpt lat="45.1058862" lon="9.3728706"><ele>55.75</ele><time>2026-04-25T11:37:12.161Z</time></trkpt><trkpt lat="45.106011" lon="9.3728408"><ele>56.0</ele><time>2026-04-25T11:37:13.161Z</time></trkpt><trkpt lat="45.1061361" lon="9.3728072"><ele>55.599999999999994</ele><time>2026-04-25T11:37:14.162Z</time></trkpt><trkpt lat="45.1062495" lon="9.3727885"><ele>55.199999999999996</ele><time>2026-04-25T11:37:15.16Z</time></trkpt><trkpt lat="45.1063303" lon="9.3727525"><ele>54.800000000000004</ele><time>2026-04-25T11:37:16.16Z</time></trkpt><trkpt lat="45.1064058" lon="9.3727107"><ele>54.400000000000006</ele><time>2026-04-25T11:37:17.162Z</time></trkpt><trkpt lat="45.106484" lon="9.3726666"><ele>54.0</ele><time>2026-04-25T11:37:18.161Z</time></trkpt><trkpt lat="45.1065747" lon="9.3726132"><ele>54.0</ele><time>2026-04-25T11:37:20.161Z</time></trkpt><trkpt lat="45.1066338" lon="9.3726682"><ele>54.0</ele><time>2026-04-25T11:37:22.161Z</time></trkpt><trkpt lat="45.1066502" lon="9.3728186"><ele>54.0</ele><time>2026-04-25T11:37:24.16Z</time></trkpt><trkpt lat="45.1066635" lon="9.3729287"><ele>54.0</ele><time>2026-04-25T11:37:25.16Z</time></trkpt><trkpt lat="45.1066727" lon="9.3730444"><ele>54.0</ele><time>2026-04-25T11:37:26.162Z</time></trkpt><trkpt lat="45.1066749" lon="9.3731899"><ele>54.0</ele><time>2026-04-25T11:37:27.161Z</time></trkpt><trkpt lat="45.1066714" lon="9.37333"><ele>54.0</ele><time>2026-04-25T11:37:28.162Z</time></trkpt><trkpt lat="45.1066672" lon="9.3734719"><ele>54.0</ele><time>2026-04-25T11:37:29.162Z</time></trkpt><trkpt lat="45.1066295" lon="9.3737527"><ele>54.0</ele><time>2026-04-25T11:37:30.16Z</time></trkpt><trkpt lat="45.1065985" lon="9.3739914"><ele>54.66666666666667</ele><time>2026-04-25T11:37:31.161Z</time></trkpt><trkpt lat="45.1065766" lon="9.3742216"><ele>55.333333333333336</ele><time>2026-04-25T11:37:32.161Z</time></trkpt><trkpt lat="45.1065634" lon="9.3744437"><ele>56.0</ele><time>2026-04-25T11:37:33.161Z</time></trkpt><trkpt lat="45.1065437" lon="9.3746697"><ele>57.0</ele><time>2026-04-25T11:37:34.161Z</time></trkpt><trkpt lat="45.1065235" lon="9.3749029"><ele>58.0</ele><time>2026-04-25T11:37:35.162Z</time></trkpt><trkpt lat="45.1065008" lon="9.375141"><ele>59.0</ele><time>2026-04-25T11:37:36.16Z</time></trkpt><trkpt lat="45.106478" lon="9.375364"><ele>59.333333333333336</ele><time>2026-04-25T11:37:37.161Z</time></trkpt><trkpt lat="45.1064514" lon="9.3755898"><ele>59.66666666666667</ele><time>2026-04-25T11:37:38.161Z</time></trkpt><trkpt lat="45.1064132" lon="9.3758089"><ele>60.0</ele><time>2026-04-25T11:37:39.161Z</time></trkpt><trkpt lat="45.1063771" lon="9.3760006"><ele>60.0</ele><time>2026-04-25T11:37:40.16Z</time></trkpt><trkpt lat="45.1063349" lon="9.376182"><ele>60.0</ele><time>2026-04-25T11:37:41.16Z</time></trkpt><trkpt lat="45.1062996" lon="9.3763624"><ele>60.0</ele><time>2026-04-25T11:37:42.161Z</time></trkpt><trkpt lat="45.1062575" lon="9.3765679"><ele>60.0</ele><time>2026-04-25T11:37:43.16Z</time></trkpt><trkpt lat="45.1062145" lon="9.3767743"><ele>59.0</ele><time>2026-04-25T11:37:44.161Z</time></trkpt><trkpt lat="45.106177" lon="9.3769597"><ele>58.0</ele><time>2026-04-25T11:37:45.161Z</time></trkpt><trkpt lat="45.106127" lon="9.377163"><ele>57.0</ele><time>2026-04-25T11:37:46.161Z</time></trkpt><trkpt lat="45.1060789" lon="9.3773568"><ele>56.0</ele><time>2026-04-25T11:37:47.161Z</time></trkpt><trkpt lat="45.1060275" lon="9.377534"><ele>55.5</ele><time>2026-04-25T11:37:48.161Z</time></trkpt><trkpt lat="45.1059835" lon="9.3776973"><ele>55.0</ele><time>2026-04-25T11:37:49.162Z</time></trkpt><trkpt lat="45.1059442" lon="9.3778532"><ele>54.5</ele><time>2026-04-25T11:37:50.161Z</time></trkpt><trkpt lat="45.1059083" lon="9.3780038"><ele>54.0</ele><time>2026-04-25T11:37:51.162Z</time></trkpt><trkpt lat="45.1058652" lon="9.3781602"><ele>54.0</ele><time>2026-04-25T11:37:52.16Z</time></trkpt><trkpt lat="45.1058224" lon="9.3783108"><ele>54.0</ele><time>2026-04-25T11:37:53.162Z</time></trkpt><trkpt lat="45.1057894" lon="9.3784689"><ele>54.0</ele><time>2026-04-25T11:37:54.162Z</time></trkpt><trkpt lat="45.105745" lon="9.37864"><ele>54.0</ele><time>2026-04-25T11:37:55.16Z</time></trkpt><trkpt lat="45.1057054" lon="9.378794"><ele>54.0</ele><time>2026-04-25T11:37:56.161Z</time></trkpt><trkpt lat="45.1056665" lon="9.3789513"><ele>54.00000000000001</ele><time>2026-04-25T11:37:57.161Z</time></trkpt><trkpt lat="45.1056356" lon="9.3790743"><ele>54.00000000000001</ele><time>2026-04-25T11:37:58.161Z</time></trkpt><trkpt lat="45.1055999" lon="9.3792103"><ele>54.0</ele><time>2026-04-25T11:37:59.161Z</time></trkpt><trkpt lat="45.105561" lon="9.3793497"><ele>54.0</ele><time>2026-04-25T11:38:00.16Z</time></trkpt><trkpt lat="45.1055247" lon="9.3794796"><ele>54.0</ele><time>2026-04-25T11:38:01.16Z</time></trkpt><trkpt lat="45.1054946" lon="9.3796151"><ele>54.00000000000001</ele><time>2026-04-25T11:38:02.161Z</time></trkpt><trkpt lat="45.105473" lon="9.3797469"><ele>54.00000000000001</ele><time>2026-04-25T11:38:03.16Z</time></trkpt><trkpt lat="45.1054307" lon="9.379879"><ele>54.0</ele><time>2026-04-25T11:38:04.16Z</time></trkpt><trkpt lat="45.1053839" lon="9.380007"><ele>54.0</ele><time>2026-04-25T11:38:05.16Z</time></trkpt><trkpt lat="45.1053421" lon="9.3801125"><ele>53.833333333333336</ele><time>2026-04-25T11:38:06.161Z</time></trkpt><trkpt lat="45.1053042" lon="9.3802189"><ele>53.66666666666667</ele><time>2026-04-25T11:38:07.161Z</time></trkpt><trkpt lat="45.1052661" lon="9.3803262"><ele>53.5</ele><time>2026-04-25T11:38:08.162Z</time></trkpt><trkpt lat="45.1052288" lon="9.3804318"><ele>53.333333333333336</ele><time>2026-04-25T11:38:09.162Z</time></trkpt><trkpt lat="45.1051954" lon="9.3805407"><ele>53.16666666666667</ele><time>2026-04-25T11:38:10.162Z</time></trkpt><trkpt lat="45.1051483" lon="9.3806479"><ele>53.0</ele><time>2026-04-25T11:38:11.16Z</time></trkpt><trkpt lat="45.1050965" lon="9.3807329"><ele>53.00000000000001</ele><time>2026-04-25T11:38:12.16Z</time></trkpt><trkpt lat="45.1050322" lon="9.380814"><ele>53.0</ele><time>2026-04-25T11:38:13.161Z</time></trkpt><trkpt lat="45.1049709" lon="9.3808908"><ele>53.0</ele><time>2026-04-25T11:38:14.161Z</time></trkpt><trkpt lat="45.1049306" lon="9.3809649"><ele>53.0</ele><time>2026-04-25T11:38:15.16Z</time></trkpt><trkpt lat="45.1048701" lon="9.3810636"><ele>53.00000000000001</ele><time>2026-04-25T11:38:16.161Z</time></trkpt><trkpt lat="45.1048327" lon="9.381147"><ele>53.0</ele><time>2026-04-25T11:38:17.161Z</time></trkpt><trkpt lat="45.1047896" lon="9.3812431"><ele>52.833333333333336</ele><time>2026-04-25T11:38:18.161Z</time></trkpt><trkpt lat="45.1047557" lon="9.381348"><ele>52.66666666666667</ele><time>2026-04-25T11:38:19.161Z</time></trkpt><trkpt lat="45.1047278" lon="9.3814529"><ele>52.5</ele><time>2026-04-25T11:38:20.16Z</time></trkpt><trkpt lat="45.1047162" lon="9.3815605"><ele>52.33333333333333</ele><time>2026-04-25T11:38:21.162Z</time></trkpt><trkpt lat="45.1046954" lon="9.381668"><ele>52.166666666666664</ele><time>2026-04-25T11:38:22.16Z</time></trkpt><trkpt lat="45.1046497" lon="9.3818436"><ele>52.0</ele><time>2026-04-25T11:38:24.161Z</time></trkpt><trkpt lat="45.1046218" lon="9.3820323"><ele>52.0</ele><time>2026-04-25T11:38:26.162Z</time></trkpt><trkpt lat="45.1046026" lon="9.3821762"><ele>52.0</ele><time>2026-04-25T11:38:27.16Z</time></trkpt><trkpt lat="45.1045821" lon="9.3823335"><ele>52.0</ele><time>2026-04-25T11:38:28.161Z</time></trkpt><trkpt lat="45.1045698" lon="9.3824654"><ele>52.0</ele><time>2026-04-25T11:38:29.16Z</time></trkpt><trkpt lat="45.1045366" lon="9.3826228"><ele>52.0</ele><time>2026-04-25T11:38:30.161Z</time></trkpt><trkpt lat="45.1045114" lon="9.3827585"><ele>52.0</ele><time>2026-04-25T11:38:31.16Z</time></trkpt><trkpt lat="45.1044855" lon="9.3828982"><ele>52.0</ele><time>2026-04-25T11:38:32.161Z</time></trkpt><trkpt lat="45.1044599" lon="9.3830308"><ele>52.0</ele><time>2026-04-25T11:38:33.162Z</time></trkpt><trkpt lat="45.1044085" lon="9.3831771"><ele>52.0</ele><time>2026-04-25T11:38:34.16Z</time></trkpt><trkpt lat="45.1043732" lon="9.3833158"><ele>52.0</ele><time>2026-04-25T11:38:35.161Z</time></trkpt><trkpt lat="45.1043319" lon="9.3834413"><ele>51.99999999999999</ele><time>2026-04-25T11:38:36.16Z</time></trkpt><trkpt lat="45.1042868" lon="9.3835438"><ele>52.0</ele><time>2026-04-25T11:38:37.161Z</time></trkpt><trkpt lat="45.1042536" lon="9.3836486"><ele>52.0</ele><time>2026-04-25T11:38:38.161Z</time></trkpt><trkpt lat="45.1042173" lon="9.3837667"><ele>52.0</ele><time>2026-04-25T11:38:39.16Z</time></trkpt><trkpt lat="45.1041969" lon="9.3838757"><ele>51.99999999999999</ele><time>2026-04-25T11:38:40.161Z</time></trkpt><trkpt lat="45.1041391" lon="9.3840113"><ele>52.0</ele><time>2026-04-25T11:38:41.162Z</time></trkpt><trkpt lat="45.104101" lon="9.38413"><ele>52.49999999999999</ele><time>2026-04-25T11:38:42.16Z</time></trkpt><trkpt lat="45.1040772" lon="9.3842127"><ele>53.0</ele><time>2026-04-25T11:38:43.161Z</time></trkpt><trkpt lat="45.1040421" lon="9.3843127"><ele>53.5</ele><time>2026-04-25T11:38:44.161Z</time></trkpt><trkpt lat="45.1040185" lon="9.3844202"><ele>54.0</ele><time>2026-04-25T11:38:45.161Z</time></trkpt><trkpt lat="45.103985" lon="9.3845215"><ele>54.49999999999999</ele><time>2026-04-25T11:38:46.161Z</time></trkpt><trkpt lat="45.1039551" lon="9.3846443"><ele>55.0</ele><time>2026-04-25T11:38:47.161Z</time></trkpt><trkpt lat="45.1039271" lon="9.3847481"><ele>55.0</ele><time>2026-04-25T11:38:48.161Z</time></trkpt><trkpt lat="45.1039003" lon="9.3848483"><ele>55.0</ele><time>2026-04-25T11:38:49.16Z</time></trkpt><trkpt lat="45.1038649" lon="9.3849728"><ele>55.0</ele><time>2026-04-25T11:38:51.161Z</time></trkpt><trkpt lat="45.1038569" lon="9.3850798"><ele>55.0</ele><time>2026-04-25T11:38:53.16Z</time></trkpt><trkpt lat="45.1038152" lon="9.3851991"><ele>55.0</ele><time>2026-04-25T11:39:41.161Z</time></trkpt><trkpt lat="45.1037154" lon="9.3854723"><ele>54.666666666666664</ele><time>2026-04-25T11:39:43.16Z</time></trkpt><trkpt lat="45.103668" lon="9.3855817"><ele>54.33333333333333</ele><time>2026-04-25T11:39:44.162Z</time></trkpt><trkpt lat="45.1036251" lon="9.3856739"><ele>54.0</ele><time>2026-04-25T11:39:45.16Z</time></trkpt><trkpt lat="45.1035747" lon="9.3857394"><ele>53.66666666666667</ele><time>2026-04-25T11:39:46.16Z</time></trkpt><trkpt lat="45.1034985" lon="9.385837"><ele>53.333333333333336</ele><time>2026-04-25T11:39:47.161Z</time></trkpt><trkpt lat="45.1034286" lon="9.3859065"><ele>53.0</ele><time>2026-04-25T11:39:48.161Z</time></trkpt><trkpt lat="45.1033648" lon="9.3859763"><ele>53.00000000000001</ele><time>2026-04-25T11:39:49.161Z</time></trkpt><trkpt lat="45.1033059" lon="9.3860551"><ele>53.0</ele><time>2026-04-25T11:39:50.161Z</time></trkpt><trkpt lat="45.1032461" lon="9.3861308"><ele>53.0</ele><time>2026-04-25T11:39:51.162Z</time></trkpt><trkpt lat="45.1031862" lon="9.3862073"><ele>53.0</ele><time>2026-04-25T11:39:52.161Z</time></trkpt><trkpt lat="45.1031302" lon="9.3862754"><ele>53.00000000000001</ele><time>2026-04-25T11:39:53.162Z</time></trkpt><trkpt lat="45.1030694" lon="9.3863941"><ele>53.0</ele><time>2026-04-25T11:39:54.161Z</time></trkpt><trkpt lat="45.103012" lon="9.3865011"><ele>52.8</ele><time>2026-04-25T11:39:55.162Z</time></trkpt><trkpt lat="45.1029548" lon="9.3866182"><ele>52.599999999999994</ele><time>2026-04-25T11:39:56.16Z</time></trkpt><trkpt lat="45.102904" lon="9.3867442"><ele>52.400000000000006</ele><time>2026-04-25T11:39:57.162Z</time></trkpt><trkpt lat="45.102855" lon="9.386877"><ele>52.2</ele><time>2026-04-25T11:39:58.161Z</time></trkpt><trkpt lat="45.1028115" lon="9.3870055"><ele>52.0</ele><time>2026-04-25T11:39:59.161Z</time></trkpt><trkpt lat="45.1027669" lon="9.38713"><ele>52.166666666666664</ele><time>2026-04-25T11:40:00.162Z</time></trkpt><trkpt lat="45.1027317" lon="9.3872324"><ele>52.33333333333333</ele><time>2026-04-25T11:40:01.161Z</time></trkpt><trkpt lat="45.102694" lon="9.3873385"><ele>52.5</ele><time>2026-04-25T11:40:02.161Z</time></trkpt><trkpt lat="45.1026484" lon="9.3874446"><ele>52.66666666666667</ele><time>2026-04-25T11:40:03.161Z</time></trkpt><trkpt lat="45.1026016" lon="9.3875512"><ele>52.833333333333336</ele><time>2026-04-25T11:40:04.162Z</time></trkpt><trkpt lat="45.102551" lon="9.3876428"><ele>53.0</ele><time>2026-04-25T11:40:05.161Z</time></trkpt><trkpt lat="45.1024972" lon="9.3877243"><ele>53.0</ele><time>2026-04-25T11:40:06.161Z</time></trkpt><trkpt lat="45.1024164" lon="9.3878184"><ele>53.0</ele><time>2026-04-25T11:40:07.161Z</time></trkpt><trkpt lat="45.1023423" lon="9.3878818"><ele>53.0</ele><time>2026-04-25T11:40:08.16Z</time></trkpt><trkpt lat="45.1022772" lon="9.3879532"><ele>53.0</ele><time>2026-04-25T11:40:09.161Z</time></trkpt><trkpt lat="45.1022191" lon="9.3880335"><ele>53.0</ele><time>2026-04-25T11:40:10.161Z</time></trkpt><trkpt lat="45.1021278" lon="9.3881565"><ele>52.833333333333336</ele><time>2026-04-25T11:40:12.161Z</time></trkpt><trkpt lat="45.1020763" lon="9.3882224"><ele>52.66666666666667</ele><time>2026-04-25T11:40:13.162Z</time></trkpt><trkpt lat="45.1019982" lon="9.3883313"><ele>52.5</ele><time>2026-04-25T11:40:15.16Z</time></trkpt><trkpt lat="45.1019524" lon="9.3883927"><ele>52.33333333333333</ele><time>2026-04-25T11:40:16.161Z</time></trkpt><trkpt lat="45.1018982" lon="9.3884637"><ele>52.166666666666664</ele><time>2026-04-25T11:40:17.161Z</time></trkpt><trkpt lat="45.1018366" lon="9.3885491"><ele>52.0</ele><time>2026-04-25T11:40:18.16Z</time></trkpt><trkpt lat="45.1017739" lon="9.3886273"><ele>51.99999999999999</ele><time>2026-04-25T11:40:19.161Z</time></trkpt><trkpt lat="45.1017028" lon="9.3886851"><ele>52.0</ele><time>2026-04-25T11:40:20.16Z</time></trkpt><trkpt lat="45.1016462" lon="9.3887573"><ele>52.0</ele><time>2026-04-25T11:40:21.162Z</time></trkpt><trkpt lat="45.1015884" lon="9.3888361"><ele>52.0</ele><time>2026-04-25T11:40:22.16Z</time></trkpt><trkpt lat="45.1015356" lon="9.3889082"><ele>51.99999999999999</ele><time>2026-04-25T11:40:23.162Z</time></trkpt><trkpt lat="45.1014919" lon="9.3889784"><ele>52.0</ele><time>2026-04-25T11:40:24.162Z</time></trkpt><trkpt lat="45.1014247" lon="9.3890933"><ele>52.83333333333333</ele><time>2026-04-25T11:40:26.162Z</time></trkpt><trkpt lat="45.101352" lon="9.3892337"><ele>53.666666666666664</ele><time>2026-04-25T11:40:28.161Z</time></trkpt><trkpt lat="45.1013167" lon="9.3893223"><ele>54.5</ele><time>2026-04-25T11:40:29.16Z</time></trkpt><trkpt lat="45.1012798" lon="9.3894166"><ele>55.33333333333333</ele><time>2026-04-25T11:40:30.161Z</time></trkpt><trkpt lat="45.1012556" lon="9.3895384"><ele>56.166666666666664</ele><time>2026-04-25T11:40:31.16Z</time></trkpt><trkpt lat="45.1012295" lon="9.3896368"><ele>57.0</ele><time>2026-04-25T11:40:32.16Z</time></trkpt><trkpt lat="45.1011987" lon="9.3897309"><ele>57.0</ele><time>2026-04-25T11:40:33.16Z</time></trkpt><trkpt lat="45.1011643" lon="9.3898309"><ele>57.0</ele><time>2026-04-25T11:40:34.16Z</time></trkpt><trkpt lat="45.1011193" lon="9.3899114"><ele>57.0</ele><time>2026-04-25T11:40:35.161Z</time></trkpt><trkpt lat="45.1010684" lon="9.3899863"><ele>57.0</ele><time>2026-04-25T11:40:36.16Z</time></trkpt><trkpt lat="45.1010104" lon="9.3900635"><ele>57.0</ele><time>2026-04-25T11:40:37.16Z</time></trkpt><trkpt lat="45.1009536" lon="9.3901394"><ele>57.0</ele><time>2026-04-25T11:40:38.16Z</time></trkpt><trkpt lat="45.1008985" lon="9.3902176"><ele>57.0</ele><time>2026-04-25T11:40:39.162Z</time></trkpt><trkpt lat="45.1008302" lon="9.3902847"><ele>57.0</ele><time>2026-04-25T11:40:40.16Z</time></trkpt><trkpt lat="45.1007678" lon="9.3903515"><ele>57.0</ele><time>2026-04-25T11:40:41.161Z</time></trkpt><trkpt lat="45.1007065" lon="9.3904295"><ele>57.0</ele><time>2026-04-25T11:40:42.161Z</time></trkpt><trkpt lat="45.1006433" lon="9.3905063"><ele>57.0</ele><time>2026-04-25T11:40:43.16Z</time></trkpt><trkpt lat="45.1005853" lon="9.3905948"><ele>57.0</ele><time>2026-04-25T11:40:44.16Z</time></trkpt><trkpt lat="45.1005305" lon="9.390686"><ele>56.666666666666664</ele><time>2026-04-25T11:40:45.16Z</time></trkpt><trkpt lat="45.1004739" lon="9.3907801"><ele>56.33333333333333</ele><time>2026-04-25T11:40:46.161Z</time></trkpt><trkpt lat="45.1004186" lon="9.390875"><ele>56.0</ele><time>2026-04-25T11:40:47.161Z</time></trkpt><trkpt lat="45.1003616" lon="9.390967"><ele>55.666666666666664</ele><time>2026-04-25T11:40:48.161Z</time></trkpt><trkpt lat="45.100306" lon="9.3910595"><ele>55.33333333333333</ele><time>2026-04-25T11:40:49.161Z</time></trkpt><trkpt lat="45.1002476" lon="9.3911523"><ele>55.0</ele><time>2026-04-25T11:40:50.162Z</time></trkpt><trkpt lat="45.1001868" lon="9.3912568"><ele>54.99999999999999</ele><time>2026-04-25T11:40:51.16Z</time></trkpt><trkpt lat="45.100143" lon="9.3913492"><ele>55.0</ele><time>2026-04-25T11:40:52.161Z</time></trkpt><trkpt lat="45.1000981" lon="9.3914483"><ele>55.0</ele><time>2026-04-25T11:40:53.161Z</time></trkpt><trkpt lat="45.1000558" lon="9.3915554"><ele>55.0</ele><time>2026-04-25T11:40:54.161Z</time></trkpt><trkpt lat="45.1000174" lon="9.3916575"><ele>54.99999999999999</ele><time>2026-04-25T11:40:55.161Z</time></trkpt><trkpt lat="45.0999747" lon="9.3917704"><ele>55.0</ele><time>2026-04-25T11:40:56.161Z</time></trkpt><trkpt lat="45.0999442" lon="9.3918882"><ele>55.2</ele><time>2026-04-25T11:40:57.161Z</time></trkpt><trkpt lat="45.0999141" lon="9.3920087"><ele>55.4</ele><time>2026-04-25T11:40:58.16Z</time></trkpt><trkpt lat="45.0998776" lon="9.3921495"><ele>55.599999999999994</ele><time>2026-04-25T11:40:59.161Z</time></trkpt><trkpt lat="45.0998443" lon="9.392279"><ele>55.8</ele><time>2026-04-25T11:41:00.161Z</time></trkpt><trkpt lat="45.0998122" lon="9.3924056"><ele>56.0</ele><time>2026-04-25T11:41:01.161Z</time></trkpt><trkpt lat="45.0997812" lon="9.392537"><ele>55.599999999999994</ele><time>2026-04-25T11:41:02.161Z</time></trkpt><trkpt lat="45.0997596" lon="9.3926592"><ele>55.199999999999996</ele><time>2026-04-25T11:41:03.16Z</time></trkpt><trkpt lat="45.0997982" lon="9.392831"><ele>54.800000000000004</ele><time>2026-04-25T11:41:05.162Z</time></trkpt><trkpt lat="45.0998228" lon="9.3929154"><ele>54.400000000000006</ele><time>2026-04-25T11:41:06.16Z</time></trkpt><trkpt lat="45.0998517" lon="9.3930353"><ele>54.0</ele><time>2026-04-25T11:41:07.162Z</time></trkpt><trkpt lat="45.0998819" lon="9.3931457"><ele>53.666666666666664</ele><time>2026-04-25T11:41:08.161Z</time></trkpt><trkpt lat="45.0999143" lon="9.3932543"><ele>53.33333333333333</ele><time>2026-04-25T11:41:09.161Z</time></trkpt><trkpt lat="45.0999493" lon="9.393358"><ele>53.0</ele><time>2026-04-25T11:41:11.16Z</time></trkpt><trkpt lat="45.1000071" lon="9.3934337"><ele>52.666666666666664</ele><time>2026-04-25T11:41:13.16Z</time></trkpt><trkpt lat="45.0999409" lon="9.393489"><ele>52.33333333333333</ele><time>2026-04-25T11:41:42.16Z</time></trkpt><trkpt lat="45.0998683" lon="9.3934758"><ele>52.0</ele><time>2026-04-25T11:41:43.16Z</time></trkpt><trkpt lat="45.0997925" lon="9.3934467"><ele>52.0</ele><time>2026-04-25T11:41:44.161Z</time></trkpt><trkpt lat="45.0997163" lon="9.393427"><ele>52.0</ele><time>2026-04-25T11:41:45.162Z</time></trkpt><trkpt lat="45.0995917" lon="9.3934158"><ele>52.0</ele><time>2026-04-25T11:41:47.162Z</time></trkpt><trkpt lat="45.09947" lon="9.3933961"><ele>52.0</ele><time>2026-04-25T11:41:49.16Z</time></trkpt><trkpt lat="45.0994025" lon="9.3933701"><ele>52.0</ele><time>2026-04-25T11:41:50.16Z</time></trkpt><trkpt lat="45.099301" lon="9.3933723"><ele>51.99999999999999</ele><time>2026-04-25T11:41:52.161Z</time></trkpt><trkpt lat="45.0992181" lon="9.3933718"><ele>52.0</ele><time>2026-04-25T11:41:54.161Z</time></trkpt><trkpt lat="45.099154" lon="9.3933772"><ele>52.0</ele><time>2026-04-25T11:41:55.161Z</time></trkpt><trkpt lat="45.0990824" lon="9.3933632"><ele>52.0</ele><time>2026-04-25T11:41:56.16Z</time></trkpt><trkpt lat="45.0989742" lon="9.3933482"><ele>51.99999999999999</ele><time>2026-04-25T11:41:58.161Z</time></trkpt><trkpt lat="45.0989074" lon="9.3933415"><ele>52.0</ele><time>2026-04-25T11:42:00.16Z</time></trkpt><trkpt lat="45.0988727" lon="9.3934403"><ele>51.83333333333333</ele><time>2026-04-25T11:42:03.161Z</time></trkpt><trkpt lat="45.0988338" lon="9.3935397"><ele>51.666666666666664</ele><time>2026-04-25T11:42:05.16Z</time></trkpt><trkpt lat="45.0987509" lon="9.3936619"><ele>51.5</ele><time>2026-04-25T11:42:07.16Z</time></trkpt><trkpt lat="45.0987009" lon="9.3937303"><ele>51.33333333333333</ele><time>2026-04-25T11:42:08.16Z</time></trkpt><trkpt lat="45.0986574" lon="9.3938234"><ele>51.166666666666664</ele><time>2026-04-25T11:42:09.161Z</time></trkpt><trkpt lat="45.0986088" lon="9.3939137"><ele>51.0</ele><time>2026-04-25T11:42:10.16Z</time></trkpt><trkpt lat="45.09857" lon="9.3939864"><ele>51.333333333333336</ele><time>2026-04-25T11:42:11.161Z</time></trkpt><trkpt lat="45.0985204" lon="9.3940644"><ele>51.66666666666667</ele><time>2026-04-25T11:42:12.161Z</time></trkpt><trkpt lat="45.0984754" lon="9.3941376"><ele>52.0</ele><time>2026-04-25T11:42:13.161Z</time></trkpt><trkpt lat="45.0984255" lon="9.3942461"><ele>52.333333333333336</ele><time>2026-04-25T11:42:14.16Z</time></trkpt><trkpt lat="45.0983817" lon="9.3943468"><ele>52.66666666666667</ele><time>2026-04-25T11:42:15.161Z</time></trkpt><trkpt lat="45.0983603" lon="9.3944484"><ele>53.0</ele><time>2026-04-25T11:42:16.162Z</time></trkpt><trkpt lat="45.0983398" lon="9.3945579"><ele>53.00000000000001</ele><time>2026-04-25T11:42:17.162Z</time></trkpt><trkpt lat="45.0983238" lon="9.3946632"><ele>53.0</ele><time>2026-04-25T11:42:18.16Z</time></trkpt><trkpt lat="45.0983101" lon="9.3947683"><ele>53.0</ele><time>2026-04-25T11:42:19.16Z</time></trkpt><trkpt lat="45.0983056" lon="9.3948861"><ele>53.0</ele><time>2026-04-25T11:42:20.161Z</time></trkpt><trkpt lat="45.0982995" lon="9.3949999"><ele>53.00000000000001</ele><time>2026-04-25T11:42:21.161Z</time></trkpt><trkpt lat="45.0982928" lon="9.3951046"><ele>53.0</ele><time>2026-04-25T11:42:22.162Z</time></trkpt><trkpt lat="45.0982901" lon="9.3952181"><ele>53.0</ele><time>2026-04-25T11:42:23.161Z</time></trkpt><trkpt lat="45.0982853" lon="9.3953382"><ele>53.0</ele><time>2026-04-25T11:42:24.16Z</time></trkpt><trkpt lat="45.0982772" lon="9.3954574"><ele>53.0</ele><time>2026-04-25T11:42:25.161Z</time></trkpt><trkpt lat="45.0982669" lon="9.3955548"><ele>53.0</ele><time>2026-04-25T11:42:26.162Z</time></trkpt><trkpt lat="45.0982404" lon="9.3957662"><ele>53.0</ele><time>2026-04-25T11:42:28.161Z</time></trkpt><trkpt lat="45.09823" lon="9.3958795"><ele>53.00000000000001</ele><time>2026-04-25T11:42:29.161Z</time></trkpt><trkpt lat="45.0982148" lon="9.396003"><ele>53.0</ele><time>2026-04-25T11:42:30.16Z</time></trkpt><trkpt lat="45.0981884" lon="9.3961212"><ele>53.0</ele><time>2026-04-25T11:42:31.161Z</time></trkpt><trkpt lat="45.0981903" lon="9.3962459"><ele>53.0</ele><time>2026-04-25T11:42:32.162Z</time></trkpt><trkpt lat="45.0981858" lon="9.3963748"><ele>53.00000000000001</ele><time>2026-04-25T11:42:33.162Z</time></trkpt><trkpt lat="45.0981715" lon="9.3965051"><ele>53.0</ele><time>2026-04-25T11:42:34.16Z</time></trkpt><trkpt lat="45.0981604" lon="9.3966364"><ele>53.0</ele><time>2026-04-25T11:42:35.161Z</time></trkpt><trkpt lat="45.0981513" lon="9.3967702"><ele>53.0</ele><time>2026-04-25T11:42:36.161Z</time></trkpt><trkpt lat="45.0981384" lon="9.3968876"><ele>53.0</ele><time>2026-04-25T11:42:37.16Z</time></trkpt><trkpt lat="45.098132" lon="9.3970063"><ele>53.0</ele><time>2026-04-25T11:42:38.16Z</time></trkpt><trkpt lat="45.0981145" lon="9.3971397"><ele>53.0</ele><time>2026-04-25T11:42:39.161Z</time></trkpt><trkpt lat="45.0981" lon="9.3972794"><ele>53.2</ele><time>2026-04-25T11:42:40.161Z</time></trkpt><trkpt lat="45.0980886" lon="9.3974292"><ele>53.4</ele><time>2026-04-25T11:42:41.161Z</time></trkpt><trkpt lat="45.0980727" lon="9.3975778"><ele>53.60000000000001</ele><time>2026-04-25T11:42:42.161Z</time></trkpt><trkpt lat="45.0980611" lon="9.3977418"><ele>53.800000000000004</ele><time>2026-04-25T11:42:43.161Z</time></trkpt><trkpt lat="45.0980461" lon="9.3978608"><ele>54.0</ele><time>2026-04-25T11:42:44.16Z</time></trkpt><trkpt lat="45.0980277" lon="9.398032"><ele>53.6</ele><time>2026-04-25T11:42:45.161Z</time></trkpt><trkpt lat="45.0980154" lon="9.3981823"><ele>53.2</ele><time>2026-04-25T11:42:46.161Z</time></trkpt><trkpt lat="45.0979935" lon="9.3983435"><ele>52.800000000000004</ele><time>2026-04-25T11:42:47.161Z</time></trkpt><trkpt lat="45.0979758" lon="9.3984981"><ele>52.400000000000006</ele><time>2026-04-25T11:42:48.16Z</time></trkpt><trkpt lat="45.0979583" lon="9.3986353"><ele>52.0</ele><time>2026-04-25T11:42:49.161Z</time></trkpt><trkpt lat="45.0979394" lon="9.3987763"><ele>51.99999999999999</ele><time>2026-04-25T11:42:50.16Z</time></trkpt><trkpt lat="45.0979141" lon="9.3988853"><ele>52.0</ele><time>2026-04-25T11:42:51.161Z</time></trkpt><trkpt lat="45.0978951" lon="9.3990179"><ele>52.0</ele><time>2026-04-25T11:42:52.161Z</time></trkpt><trkpt lat="45.0978784" lon="9.3991358"><ele>52.0</ele><time>2026-04-25T11:42:53.16Z</time></trkpt><trkpt lat="45.0978696" lon="9.3992419"><ele>51.99999999999999</ele><time>2026-04-25T11:42:54.161Z</time></trkpt><trkpt lat="45.0978577" lon="9.3993556"><ele>52.0</ele><time>2026-04-25T11:42:55.161Z</time></trkpt><trkpt lat="45.0978443" lon="9.3994679"><ele>52.0</ele><time>2026-04-25T11:42:56.161Z</time></trkpt><trkpt lat="45.097834" lon="9.399582"><ele>52.0</ele><time>2026-04-25T11:42:57.161Z</time></trkpt><trkpt lat="45.097825" lon="9.3996733"><ele>52.0</ele><time>2026-04-25T11:42:58.16Z</time></trkpt><trkpt lat="45.0978169" lon="9.399811"><ele>52.0</ele><time>2026-04-25T11:42:59.16Z</time></trkpt><trkpt lat="45.0977787" lon="9.3999434"><ele>52.0</ele><time>2026-04-25T11:43:01.16Z</time></trkpt><trkpt lat="45.0977574" lon="9.4001016"><ele>52.2</ele><time>2026-04-25T11:43:02.16Z</time></trkpt><trkpt lat="45.0977432" lon="9.4002245"><ele>52.400000000000006</ele><time>2026-04-25T11:43:03.161Z</time></trkpt><trkpt lat="45.0977275" lon="9.4003735"><ele>52.599999999999994</ele><time>2026-04-25T11:43:04.161Z</time></trkpt><trkpt lat="45.0977076" lon="9.4004965"><ele>52.8</ele><time>2026-04-25T11:43:05.162Z</time></trkpt><trkpt lat="45.0976793" lon="9.4006348"><ele>53.0</ele><time>2026-04-25T11:43:06.16Z</time></trkpt><trkpt lat="45.0976883" lon="9.4007845"><ele>53.2</ele><time>2026-04-25T11:43:07.161Z</time></trkpt><trkpt lat="45.0976771" lon="9.4009165"><ele>53.4</ele><time>2026-04-25T11:43:08.161Z</time></trkpt><trkpt lat="45.0976595" lon="9.4010565"><ele>53.60000000000001</ele><time>2026-04-25T11:43:09.162Z</time></trkpt><trkpt lat="45.0976409" lon="9.4011981"><ele>53.800000000000004</ele><time>2026-04-25T11:43:10.161Z</time></trkpt><trkpt lat="45.0976115" lon="9.4013339"><ele>54.0</ele><time>2026-04-25T11:43:11.162Z</time></trkpt><trkpt lat="45.0975737" lon="9.4014679"><ele>54.0</ele><time>2026-04-25T11:43:12.16Z</time></trkpt><trkpt lat="45.097564" lon="9.4016047"><ele>54.00000000000001</ele><time>2026-04-25T11:43:13.162Z</time></trkpt><trkpt lat="45.0975224" lon="9.4017477"><ele>54.00000000000001</ele><time>2026-04-25T11:43:14.16Z</time></trkpt><trkpt lat="45.0974828" lon="9.4018953"><ele>54.0</ele><time>2026-04-25T11:43:15.161Z</time></trkpt><trkpt lat="45.0974494" lon="9.4020323"><ele>54.0</ele><time>2026-04-25T11:43:16.161Z</time></trkpt><trkpt lat="45.0974165" lon="9.402175"><ele>53.6</ele><time>2026-04-25T11:43:17.161Z</time></trkpt><trkpt lat="45.0973777" lon="9.4023374"><ele>53.2</ele><time>2026-04-25T11:43:18.161Z</time></trkpt><trkpt lat="45.0973384" lon="9.4024586"><ele>52.800000000000004</ele><time>2026-04-25T11:43:19.161Z</time></trkpt><trkpt lat="45.0973045" lon="9.4025756"><ele>52.400000000000006</ele><time>2026-04-25T11:43:20.161Z</time></trkpt><trkpt lat="45.0972703" lon="9.4027071"><ele>52.0</ele><time>2026-04-25T11:43:21.161Z</time></trkpt><trkpt lat="45.0972397" lon="9.4028472"><ele>52.0</ele><time>2026-04-25T11:43:22.16Z</time></trkpt><trkpt lat="45.0972188" lon="9.4029721"><ele>52.0</ele><time>2026-04-25T11:43:23.162Z</time></trkpt><trkpt lat="45.0971916" lon="9.4031017"><ele>52.0</ele><time>2026-04-25T11:43:24.161Z</time></trkpt><trkpt lat="45.0971309" lon="9.4032711"><ele>52.0</ele><time>2026-04-25T11:43:25.162Z</time></trkpt><trkpt lat="45.0970841" lon="9.4034195"><ele>52.0</ele><time>2026-04-25T11:43:26.162Z</time></trkpt><trkpt lat="45.0970295" lon="9.4035525"><ele>52.2</ele><time>2026-04-25T11:43:27.16Z</time></trkpt><trkpt lat="45.0969894" lon="9.4036786"><ele>52.400000000000006</ele><time>2026-04-25T11:43:28.161Z</time></trkpt><trkpt lat="45.0969593" lon="9.4038111"><ele>52.599999999999994</ele><time>2026-04-25T11:43:29.16Z</time></trkpt><trkpt lat="45.0969125" lon="9.4039442"><ele>52.8</ele><time>2026-04-25T11:43:30.161Z</time></trkpt><trkpt lat="45.0968841" lon="9.4040793"><ele>53.0</ele><time>2026-04-25T11:43:31.161Z</time></trkpt><trkpt lat="45.0968682" lon="9.4042173"><ele>53.0</ele><time>2026-04-25T11:43:32.16Z</time></trkpt><trkpt lat="45.0968478" lon="9.4043533"><ele>53.0</ele><time>2026-04-25T11:43:33.16Z</time></trkpt><trkpt lat="45.0968236" lon="9.4045026"><ele>53.0</ele><time>2026-04-25T11:43:34.161Z</time></trkpt><trkpt lat="45.0968102" lon="9.4046162"><ele>53.0</ele><time>2026-04-25T11:43:35.161Z</time></trkpt><trkpt lat="45.0967924" lon="9.4047465"><ele>53.0</ele><time>2026-04-25T11:43:36.161Z</time></trkpt><trkpt lat="45.096774" lon="9.4048772"><ele>53.0</ele><time>2026-04-25T11:43:37.16Z</time></trkpt><trkpt lat="45.0967508" lon="9.4050045"><ele>53.0</ele><time>2026-04-25T11:43:38.161Z</time></trkpt><trkpt lat="45.0967238" lon="9.4051237"><ele>53.0</ele><time>2026-04-25T11:43:39.16Z</time></trkpt><trkpt lat="45.0967046" lon="9.4052557"><ele>53.0</ele><time>2026-04-25T11:43:40.162Z</time></trkpt><trkpt lat="45.0966756" lon="9.4053817"><ele>53.0</ele><time>2026-04-25T11:43:41.161Z</time></trkpt><trkpt lat="45.0966479" lon="9.40555"><ele>53.00000000000001</ele><time>2026-04-25T11:43:42.161Z</time></trkpt><trkpt lat="45.0966364" lon="9.405648"><ele>53.0</ele><time>2026-04-25T11:43:43.162Z</time></trkpt><trkpt lat="45.0966228" lon="9.4057848"><ele>53.0</ele><time>2026-04-25T11:43:44.161Z</time></trkpt><trkpt lat="45.096609" lon="9.4059224"><ele>53.0</ele><time>2026-04-25T11:43:45.16Z</time></trkpt><trkpt lat="45.0965955" lon="9.4060509"><ele>53.00000000000001</ele><time>2026-04-25T11:43:46.161Z</time></trkpt><trkpt lat="45.0965674" lon="9.4061655"><ele>53.0</ele><time>2026-04-25T11:43:47.16Z</time></trkpt><trkpt lat="45.0965449" lon="9.4062926"><ele>52.4</ele><time>2026-04-25T11:43:48.16Z</time></trkpt><trkpt lat="45.0965276" lon="9.4064209"><ele>51.8</ele><time>2026-04-25T11:43:49.162Z</time></trkpt><trkpt lat="45.0965134" lon="9.4065541"><ele>51.2</ele><time>2026-04-25T11:43:50.161Z</time></trkpt><trkpt lat="45.0964911" lon="9.4066848"><ele>50.6</ele><time>2026-04-25T11:43:51.161Z</time></trkpt><trkpt lat="45.0964697" lon="9.4068119"><ele>50.0</ele><time>2026-04-25T11:43:52.161Z</time></trkpt><trkpt lat="45.0964551" lon="9.4069416"><ele>50.0</ele><time>2026-04-25T11:43:53.16Z</time></trkpt><trkpt lat="45.096439" lon="9.4070781"><ele>50.0</ele><time>2026-04-25T11:43:54.161Z</time></trkpt><trkpt lat="45.0964269" lon="9.4072144"><ele>50.0</ele><time>2026-04-25T11:43:55.16Z</time></trkpt><trkpt lat="45.096414" lon="9.4073524"><ele>50.0</ele><time>2026-04-25T11:43:56.16Z</time></trkpt><trkpt lat="45.0964029" lon="9.4074661"><ele>50.0</ele><time>2026-04-25T11:43:57.161Z</time></trkpt><trkpt lat="45.0963851" lon="9.4075942"><ele>50.00000000000001</ele><time>2026-04-25T11:43:58.16Z</time></trkpt><trkpt lat="45.0963895" lon="9.407755"><ele>50.0</ele><time>2026-04-25T11:43:59.161Z</time></trkpt><trkpt lat="45.0963788" lon="9.4078669"><ele>50.0</ele><time>2026-04-25T11:44:00.161Z</time></trkpt><trkpt lat="45.0963762" lon="9.4079591"><ele>50.0</ele><time>2026-04-25T11:44:01.161Z</time></trkpt><trkpt lat="45.0963648" lon="9.4080592"><ele>50.00000000000001</ele><time>2026-04-25T11:44:02.16Z</time></trkpt><trkpt lat="45.0963709" lon="9.408169"><ele>50.0</ele><time>2026-04-25T11:44:03.161Z</time></trkpt><trkpt lat="45.0963815" lon="9.4082846"><ele>50.16666666666667</ele><time>2026-04-25T11:44:04.161Z</time></trkpt><trkpt lat="45.0963825" lon="9.4083974"><ele>50.333333333333336</ele><time>2026-04-25T11:44:05.16Z</time></trkpt><trkpt lat="45.0963864" lon="9.4085124"><ele>50.5</ele><time>2026-04-25T11:44:06.161Z</time></trkpt><trkpt lat="45.0963881" lon="9.4086218"><ele>50.66666666666667</ele><time>2026-04-25T11:44:07.16Z</time></trkpt><trkpt lat="45.096388" lon="9.4087328"><ele>50.833333333333336</ele><time>2026-04-25T11:44:08.162Z</time></trkpt><trkpt lat="45.0963937" lon="9.4088776"><ele>51.0</ele><time>2026-04-25T11:44:10.16Z</time></trkpt><trkpt lat="45.0964175" lon="9.4090465"><ele>51.599999999999994</ele><time>2026-04-25T11:44:12.16Z</time></trkpt><trkpt lat="45.0964164" lon="9.4091553"><ele>52.2</ele><time>2026-04-25T11:44:15.161Z</time></trkpt><trkpt lat="45.0963819" lon="9.4088905"><ele>52.800000000000004</ele><time>2026-04-25T11:44:38.159Z</time></trkpt><trkpt lat="45.096398" lon="9.4089926"><ele>53.400000000000006</ele><time>2026-04-25T11:44:40.16Z</time></trkpt><trkpt lat="45.0964082" lon="9.4091168"><ele>54.0</ele><time>2026-04-25T11:45:02.16Z</time></trkpt><trkpt lat="45.0964152" lon="9.4092564"><ele>54.0</ele><time>2026-04-25T11:50:46.159Z</time></trkpt><trkpt lat="45.0964048" lon="9.4093487"><ele>54.0</ele><time>2026-04-25T11:50:48.159Z</time></trkpt><trkpt lat="45.0963705" lon="9.4094518"><ele>54.0</ele><time>2026-04-25T11:50:51.16Z</time></trkpt><trkpt lat="45.0962976" lon="9.4094731"><ele>54.0</ele><time>2026-04-25T11:50:54.16Z</time></trkpt><trkpt lat="45.0961769" lon="9.4094825"><ele>54.0</ele><time>2026-04-25T11:50:56.16Z</time></trkpt><trkpt lat="45.0961073" lon="9.4094847"><ele>54.0</ele><time>2026-04-25T11:50:57.159Z</time></trkpt><trkpt lat="45.0960388" lon="9.4095154"><ele>54.0</ele><time>2026-04-25T11:50:58.159Z</time></trkpt><trkpt lat="45.0959492" lon="9.4095121"><ele>54.0</ele><time>2026-04-25T11:51:00.161Z</time></trkpt><trkpt lat="45.0958859" lon="9.4095615"><ele>54.0</ele><time>2026-04-25T11:51:02.16Z</time></trkpt><trkpt lat="45.0958638" lon="9.4097018"><ele>54.0</ele><time>2026-04-25T11:51:04.16Z</time></trkpt><trkpt lat="45.0958078" lon="9.4098404"><ele>54.0</ele><time>2026-04-25T11:51:06.16Z</time></trkpt><trkpt lat="45.0957723" lon="9.4099143"><ele>54.0</ele><time>2026-04-25T11:51:07.16Z</time></trkpt><trkpt lat="45.0957242" lon="9.4100712"><ele>53.857142857142854</ele><time>2026-04-25T11:51:09.16Z</time></trkpt><trkpt lat="45.0956945" lon="9.4101535"><ele>53.71428571428571</ele><time>2026-04-25T11:51:10.16Z</time></trkpt><trkpt lat="45.0956718" lon="9.4102426"><ele>53.57142857142857</ele><time>2026-04-25T11:51:11.16Z</time></trkpt><trkpt lat="45.0956504" lon="9.4103297"><ele>53.42857142857143</ele><time>2026-04-25T11:51:12.16Z</time></trkpt><trkpt lat="45.0956463" lon="9.410421"><ele>53.285714285714285</ele><time>2026-04-25T11:51:13.161Z</time></trkpt><trkpt lat="45.0956339" lon="9.4105242"><ele>53.142857142857146</ele><time>2026-04-25T11:51:14.161Z</time></trkpt><trkpt lat="45.09562" lon="9.4106344"><ele>53.0</ele><time>2026-04-25T11:51:15.161Z</time></trkpt><trkpt lat="45.0956134" lon="9.4107432"><ele>53.0</ele><time>2026-04-25T11:51:16.159Z</time></trkpt><trkpt lat="45.0956075" lon="9.4108628"><ele>53.0</ele><time>2026-04-25T11:51:18.159Z</time></trkpt><trkpt lat="45.0955939" lon="9.4109619"><ele>53.0</ele><time>2026-04-25T11:51:56.16Z</time></trkpt><trkpt lat="45.0955894" lon="9.4110553"><ele>53.0</ele><time>2026-04-25T11:51:57.16Z</time></trkpt><trkpt lat="45.0955859" lon="9.4111573"><ele>53.0</ele><time>2026-04-25T11:51:58.16Z</time></trkpt><trkpt lat="45.0955833" lon="9.4112676"><ele>53.0</ele><time>2026-04-25T11:51:59.16Z</time></trkpt><trkpt lat="45.0955873" lon="9.411375"><ele>53.0</ele><time>2026-04-25T11:52:00.159Z</time></trkpt><trkpt lat="45.0955845" lon="9.4114735"><ele>52.333333333333336</ele><time>2026-04-25T11:52:01.16Z</time></trkpt><trkpt lat="45.0955749" lon="9.4115792"><ele>51.66666666666667</ele><time>2026-04-25T11:52:02.159Z</time></trkpt><trkpt lat="45.0955637" lon="9.4116827"><ele>51.0</ele><time>2026-04-25T11:52:03.16Z</time></trkpt><trkpt lat="45.0955514" lon="9.4117908"><ele>50.33333333333333</ele><time>2026-04-25T11:52:04.16Z</time></trkpt><trkpt lat="45.095538" lon="9.4118979"><ele>49.666666666666664</ele><time>2026-04-25T11:52:05.161Z</time></trkpt><trkpt lat="45.0955229" lon="9.4120017"><ele>49.0</ele><time>2026-04-25T11:52:06.16Z</time></trkpt><trkpt lat="45.0955136" lon="9.4121052"><ele>48.49999999999999</ele><time>2026-04-25T11:52:07.16Z</time></trkpt><trkpt lat="45.0955066" lon="9.4122072"><ele>48.0</ele><time>2026-04-25T11:52:08.16Z</time></trkpt><trkpt lat="45.0955065" lon="9.4123042"><ele>47.5</ele><time>2026-04-25T11:52:09.16Z</time></trkpt><trkpt lat="45.0955162" lon="9.4124006"><ele>47.0</ele><time>2026-04-25T11:52:10.16Z</time></trkpt><trkpt lat="45.0955119" lon="9.4125682"><ele>46.5</ele><time>2026-04-25T11:52:11.16Z</time></trkpt><trkpt lat="45.095518" lon="9.4127017"><ele>46.0</ele><time>2026-04-25T11:52:12.16Z</time></trkpt><trkpt lat="45.0955217" lon="9.4128254"><ele>46.0</ele><time>2026-04-25T11:52:13.16Z</time></trkpt><trkpt lat="45.0955233" lon="9.4129473"><ele>46.0</ele><time>2026-04-25T11:52:14.159Z</time></trkpt><trkpt lat="45.0955249" lon="9.4130637"><ele>46.0</ele><time>2026-04-25T11:52:15.161Z</time></trkpt><trkpt lat="45.0955274" lon="9.4131891"><ele>46.0</ele><time>2026-04-25T11:52:16.161Z</time></trkpt><trkpt lat="45.0955272" lon="9.4133127"><ele>46.0</ele><time>2026-04-25T11:52:17.16Z</time></trkpt><trkpt lat="45.0955354" lon="9.4134392"><ele>46.0</ele><time>2026-04-25T11:52:18.161Z</time></trkpt><trkpt lat="45.0955373" lon="9.4135707"><ele>46.16666666666667</ele><time>2026-04-25T11:52:19.16Z</time></trkpt><trkpt lat="45.0955372" lon="9.4136998"><ele>46.333333333333336</ele><time>2026-04-25T11:52:20.16Z</time></trkpt><trkpt lat="45.095531" lon="9.4138266"><ele>46.5</ele><time>2026-04-25T11:52:21.161Z</time></trkpt><trkpt lat="45.0955258" lon="9.4139545"><ele>46.666666666666664</ele><time>2026-04-25T11:52:22.16Z</time></trkpt><trkpt lat="45.0955303" lon="9.4140735"><ele>46.83333333333333</ele><time>2026-04-25T11:52:23.16Z</time></trkpt><trkpt lat="45.095526" lon="9.4141901"><ele>47.0</ele><time>2026-04-25T11:52:24.16Z</time></trkpt><trkpt lat="45.0955175" lon="9.4143297"><ele>47.0</ele><time>2026-04-25T11:52:25.16Z</time></trkpt><trkpt lat="45.0955103" lon="9.4144677"><ele>47.0</ele><time>2026-04-25T11:52:26.159Z</time></trkpt><trkpt lat="45.095505" lon="9.4145881"><ele>47.0</ele><time>2026-04-25T11:52:27.16Z</time></trkpt><trkpt lat="45.0955049" lon="9.4147368"><ele>47.0</ele><time>2026-04-25T11:52:28.159Z</time></trkpt><trkpt lat="45.0955034" lon="9.4148896"><ele>47.0</ele><time>2026-04-25T11:52:29.159Z</time></trkpt><trkpt lat="45.0955014" lon="9.4150442"><ele>47.0</ele><time>2026-04-25T11:52:30.159Z</time></trkpt><trkpt lat="45.0954972" lon="9.4151955"><ele>47.0</ele><time>2026-04-25T11:52:31.159Z</time></trkpt><trkpt lat="45.0955008" lon="9.4153333"><ele>47.0</ele><time>2026-04-25T11:52:32.16Z</time></trkpt><trkpt lat="45.0955" lon="9.4154803"><ele>47.0</ele><time>2026-04-25T11:52:33.16Z</time></trkpt><trkpt lat="45.0955078" lon="9.4156234"><ele>47.0</ele><time>2026-04-25T11:52:34.16Z</time></trkpt><trkpt lat="45.0955192" lon="9.4157744"><ele>47.25</ele><time>2026-04-25T11:52:35.159Z</time></trkpt><trkpt lat="45.0955278" lon="9.4159398"><ele>47.5</ele><time>2026-04-25T11:52:36.16Z</time></trkpt><trkpt lat="45.0955376" lon="9.416106"><ele>47.75</ele><time>2026-04-25T11:52:37.16Z</time></trkpt><trkpt lat="45.0955452" lon="9.4162647"><ele>48.0</ele><time>2026-04-25T11:52:38.16Z</time></trkpt><trkpt lat="45.0955528" lon="9.4164152"><ele>48.0</ele><time>2026-04-25T11:52:39.159Z</time></trkpt><trkpt lat="45.0955532" lon="9.4165722"><ele>48.0</ele><time>2026-04-25T11:52:40.16Z</time></trkpt><trkpt lat="45.095543" lon="9.4167321"><ele>48.0</ele><time>2026-04-25T11:52:41.16Z</time></trkpt><trkpt lat="45.0955332" lon="9.4168807"><ele>48.0</ele><time>2026-04-25T11:52:42.159Z</time></trkpt><trkpt lat="45.095525" lon="9.4170329"><ele>48.0</ele><time>2026-04-25T11:52:43.16Z</time></trkpt><trkpt lat="45.0954458" lon="9.4171791"><ele>48.0</ele><time>2026-04-25T11:52:45.159Z</time></trkpt><trkpt lat="45.0953998" lon="9.4172534"><ele>48.0</ele><time>2026-04-25T11:52:46.16Z</time></trkpt><trkpt lat="45.0953191" lon="9.4174025"><ele>48.0</ele><time>2026-04-25T11:52:48.16Z</time></trkpt><trkpt lat="45.0952878" lon="9.4174851"><ele>48.0</ele><time>2026-04-25T11:52:50.159Z</time></trkpt><trkpt lat="45.0952258" lon="9.4175839"><ele>48.0</ele><time>2026-04-25T11:52:52.159Z</time></trkpt><trkpt lat="45.0951676" lon="9.4176952"><ele>48.0</ele><time>2026-04-25T11:52:54.16Z</time></trkpt><trkpt lat="45.0951464" lon="9.4178252"><ele>48.0</ele><time>2026-04-25T11:52:56.159Z</time></trkpt><trkpt lat="45.0951738" lon="9.4179459"><ele>48.0</ele><time>2026-04-25T11:52:58.16Z</time></trkpt><trkpt lat="45.0951852" lon="9.4181165"><ele>48.0</ele><time>2026-04-25T11:53:00.16Z</time></trkpt><trkpt lat="45.0951848" lon="9.4182734"><ele>48.0</ele><time>2026-04-25T11:53:02.16Z</time></trkpt><trkpt lat="45.095179" lon="9.418464"><ele>48.0</ele><time>2026-04-25T11:53:04.16Z</time></trkpt><trkpt lat="45.0951584" lon="9.4185705"><ele>48.0</ele><time>2026-04-25T11:53:06.16Z</time></trkpt><trkpt lat="45.095146" lon="9.4186663"><ele>48.0</ele><time>2026-04-25T11:53:07.16Z</time></trkpt><trkpt lat="45.0951113" lon="9.4188048"><ele>48.0</ele><time>2026-04-25T11:53:09.159Z</time></trkpt><trkpt lat="45.0950691" lon="9.4189082"><ele>48.0</ele><time>2026-04-25T11:53:11.158Z</time></trkpt><trkpt lat="45.0950169" lon="9.4189822"><ele>48.0</ele><time>2026-04-25T11:53:13.158Z</time></trkpt><trkpt lat="45.0949335" lon="9.4190999"><ele>48.0</ele><time>2026-04-25T11:53:15.159Z</time></trkpt><trkpt lat="45.0948801" lon="9.4192067"><ele>48.0</ele><time>2026-04-25T11:53:17.159Z</time></trkpt><trkpt lat="45.0948494" lon="9.4193098"><ele>48.0</ele><time>2026-04-25T11:53:19.158Z</time></trkpt><trkpt lat="45.0948287" lon="9.4194193"><ele>48.0</ele><time>2026-04-25T11:53:21.159Z</time></trkpt><trkpt lat="45.09481" lon="9.4195416"><ele>48.0</ele><time>2026-04-25T11:53:23.159Z</time></trkpt><trkpt lat="45.0947922" lon="9.4196802"><ele>48.0</ele><time>2026-04-25T11:53:25.158Z</time></trkpt><trkpt lat="45.0947746" lon="9.4198005"><ele>48.0</ele><time>2026-04-25T11:53:27.159Z</time></trkpt><trkpt lat="45.0947569" lon="9.4199375"><ele>48.0</ele><time>2026-04-25T11:53:29.16Z</time></trkpt><trkpt lat="45.0947508" lon="9.4200906"><ele>48.0</ele><time>2026-04-25T11:53:31.158Z</time></trkpt><trkpt lat="45.0947656" lon="9.4202509"><ele>48.0</ele><time>2026-04-25T11:53:33.159Z</time></trkpt><trkpt lat="45.0947826" lon="9.4204024"><ele>48.0</ele><time>2026-04-25T11:53:35.158Z</time></trkpt><trkpt lat="45.0948161" lon="9.4205444"><ele>48.0</ele><time>2026-04-25T11:53:37.159Z</time></trkpt><trkpt lat="45.0947702" lon="9.4206233"><ele>48.0</ele><time>2026-04-25T11:53:39.159Z</time></trkpt><trkpt lat="45.0947009" lon="9.4205979"><ele>48.0</ele><time>2026-04-25T11:53:55.158Z</time></trkpt><trkpt lat="45.0946671" lon="9.4204825"><ele>48.0</ele><time>2026-04-25T11:53:58.158Z</time></trkpt><trkpt lat="45.0946356" lon="9.4204035"><ele>48.0</ele><time>2026-04-25T11:54:00.159Z</time></trkpt><trkpt lat="45.0945785" lon="9.4203054"><ele>48.0</ele><time>2026-04-25T11:54:03.159Z</time></trkpt><trkpt lat="45.0945421" lon="9.420163"><ele>48.0</ele><time>2026-04-25T11:54:05.16Z</time></trkpt><trkpt lat="45.094529" lon="9.4200414"><ele>48.0</ele><time>2026-04-25T11:54:07.159Z</time></trkpt><trkpt lat="45.0945163" lon="9.419903"><ele>48.0</ele><time>2026-04-25T11:54:09.159Z</time></trkpt><trkpt lat="45.0945172" lon="9.4197744"><ele>48.0</ele><time>2026-04-25T11:54:11.159Z</time></trkpt><trkpt lat="45.0945224" lon="9.4196572"><ele>48.0</ele><time>2026-04-25T11:54:13.16Z</time></trkpt><trkpt lat="45.0945538" lon="9.4195729"><ele>48.0</ele><time>2026-04-25T11:54:28.159Z</time></trkpt><trkpt lat="45.0946023" lon="9.4194688"><ele>47.833333333333336</ele><time>2026-04-25T11:54:32.159Z</time></trkpt><trkpt lat="45.0946402" lon="9.4193969"><ele>47.666666666666664</ele><time>2026-04-25T11:54:34.158Z</time></trkpt><trkpt lat="45.0946728" lon="9.4193107"><ele>47.5</ele><time>2026-04-25T11:54:36.159Z</time></trkpt><trkpt lat="45.0946908" lon="9.4191961"><ele>47.33333333333333</ele><time>2026-04-25T11:54:38.159Z</time></trkpt><trkpt lat="45.0947127" lon="9.4190803"><ele>47.166666666666664</ele><time>2026-04-25T11:54:40.159Z</time></trkpt><trkpt lat="45.0947517" lon="9.4189672"><ele>47.0</ele><time>2026-04-25T11:54:42.159Z</time></trkpt><trkpt lat="45.0947962" lon="9.4188994"><ele>47.0</ele><time>2026-04-25T11:54:43.159Z</time></trkpt><trkpt lat="45.0948713" lon="9.4188252"><ele>47.0</ele><time>2026-04-25T11:54:46.159Z</time></trkpt><trkpt lat="45.0949382" lon="9.4188408"><ele>47.0</ele><time>2026-04-25T11:54:48.159Z</time></trkpt><trkpt lat="45.0950025" lon="9.4188147"><ele>47.0</ele><time>2026-04-25T11:55:27.159Z</time></trkpt><trkpt lat="45.0950228" lon="9.4187031"><ele>47.0</ele><time>2026-04-25T11:55:29.158Z</time></trkpt><trkpt lat="45.0950242" lon="9.4185803"><ele>47.0</ele><time>2026-04-25T11:55:31.158Z</time></trkpt><trkpt lat="45.095032" lon="9.4184422"><ele>47.166666666666664</ele><time>2026-04-25T11:55:33.16Z</time></trkpt><trkpt lat="45.0950274" lon="9.4183088"><ele>47.33333333333333</ele><time>2026-04-25T11:55:35.158Z</time></trkpt><trkpt lat="45.0950423" lon="9.4182065"><ele>47.5</ele><time>2026-04-25T11:55:37.159Z</time></trkpt><trkpt lat="45.0950554" lon="9.4180824"><ele>47.666666666666664</ele><time>2026-04-25T11:55:39.158Z</time></trkpt><trkpt lat="45.0950852" lon="9.4179759"><ele>47.833333333333336</ele><time>2026-04-25T11:55:41.159Z</time></trkpt><trkpt lat="45.0950952" lon="9.4178613"><ele>48.0</ele><time>2026-04-25T11:55:43.159Z</time></trkpt><trkpt lat="45.0950894" lon="9.4177667"><ele>48.0</ele><time>2026-04-25T11:55:45.16Z</time></trkpt><trkpt lat="45.0950327" lon="9.4177118"><ele>48.0</ele><time>2026-04-25T11:55:49.16Z</time></trkpt><trkpt lat="45.0949453" lon="9.4176929"><ele>48.0</ele><time>2026-04-25T11:55:52.159Z</time></trkpt><trkpt lat="45.0948633" lon="9.4176873"><ele>48.0</ele><time>2026-04-25T11:55:54.159Z</time></trkpt><trkpt lat="45.0947495" lon="9.4176765"><ele>48.0</ele><time>2026-04-25T11:55:56.16Z</time></trkpt><trkpt lat="45.0946806" lon="9.4177251"><ele>48.0</ele><time>2026-04-25T11:55:58.158Z</time></trkpt><trkpt lat="45.094713" lon="9.4178432"><ele>47.833333333333336</ele><time>2026-04-25T11:56:00.16Z</time></trkpt><trkpt lat="45.0947988" lon="9.4179121"><ele>47.666666666666664</ele><time>2026-04-25T11:56:02.159Z</time></trkpt><trkpt lat="45.0948632" lon="9.4178901"><ele>47.5</ele><time>2026-04-25T11:56:04.159Z</time></trkpt><trkpt lat="45.0948832" lon="9.4177696"><ele>47.33333333333333</ele><time>2026-04-25T11:56:06.159Z</time></trkpt><trkpt lat="45.094861" lon="9.4176667"><ele>47.166666666666664</ele><time>2026-04-25T11:56:08.159Z</time></trkpt><trkpt lat="45.0948204" lon="9.4175185"><ele>47.0</ele><time>2026-04-25T11:56:10.159Z</time></trkpt><trkpt lat="45.0948076" lon="9.4173637"><ele>47.0</ele><time>2026-04-25T11:56:11.159Z</time></trkpt><trkpt lat="45.0947938" lon="9.4172744"><ele>47.0</ele><time>2026-04-25T11:56:12.158Z</time></trkpt><trkpt lat="45.0947842" lon="9.4171733"><ele>47.0</ele><time>2026-04-25T11:56:13.158Z</time></trkpt><trkpt lat="45.0947516" lon="9.4170783"><ele>47.0</ele><time>2026-04-25T11:56:15.159Z</time></trkpt><trkpt lat="45.0946841" lon="9.4171353"><ele>47.0</ele><time>2026-04-25T11:56:17.16Z</time></trkpt><trkpt lat="45.0946532" lon="9.4172446"><ele>47.0</ele><time>2026-04-25T11:56:19.159Z</time></trkpt><trkpt lat="45.0946542" lon="9.4174435"><ele>47.0</ele><time>2026-04-25T11:56:21.158Z</time></trkpt><trkpt lat="45.0946585" lon="9.4175839"><ele>47.0</ele><time>2026-04-25T11:56:23.159Z</time></trkpt><trkpt lat="45.0946523" lon="9.4176765"><ele>47.0</ele><time>2026-04-25T11:56:25.159Z</time></trkpt><trkpt lat="45.0946896" lon="9.4175958"><ele>47.0</ele><time>2026-04-25T11:57:10.158Z</time></trkpt><trkpt lat="45.0946704" lon="9.4176863"><ele>47.0</ele><time>2026-04-25T11:57:57.158Z</time></trkpt><trkpt lat="45.0946151" lon="9.4177341"><ele>47.0</ele><time>2026-04-25T11:58:56.159Z</time></trkpt><trkpt lat="45.0945449" lon="9.4177052"><ele>47.0</ele><time>2026-04-25T11:59:04.159Z</time></trkpt><trkpt lat="45.0946135" lon="9.4177166"><ele>47.0</ele><time>2026-04-25T11:59:28.158Z</time></trkpt><trkpt lat="45.0946775" lon="9.4176769"><ele>47.0</ele><time>2026-04-25T11:59:41.159Z</time></trkpt></trkseg><trkseg><trkpt lat="45.0947326" lon="9.4177828"><ele>47.0</ele><time>2026-04-25T12:12:05.157Z</time></trkpt><trkpt lat="45.0948149" lon="9.4178715"><ele>47.0</ele><time>2026-04-25T12:12:06.157Z</time></trkpt><trkpt lat="45.0948721" lon="9.4179256"><ele>47.0</ele><time>2026-04-25T12:12:07.156Z</time></trkpt><trkpt lat="45.0949305" lon="9.417964"><ele>47.0</ele><time>2026-04-25T12:12:08.156Z</time></trkpt><trkpt lat="45.0950122" lon="9.4180017"><ele>47.0</ele><time>2026-04-25T12:12:11.155Z</time></trkpt><trkpt lat="45.0950916" lon="9.4179785"><ele>47.0</ele><time>2026-04-25T12:12:32.156Z</time></trkpt><trkpt lat="45.0951761" lon="9.417999"><ele>47.2</ele><time>2026-04-25T12:12:35.155Z</time></trkpt><trkpt lat="45.0951955" lon="9.4181003"><ele>47.400000000000006</ele><time>2026-04-25T12:12:38.156Z</time></trkpt><trkpt lat="45.0951755" lon="9.4182447"><ele>47.599999999999994</ele><time>2026-04-25T12:12:40.156Z</time></trkpt><trkpt lat="45.0951703" lon="9.418412"><ele>47.8</ele><time>2026-04-25T12:12:42.155Z</time></trkpt><trkpt lat="45.095155" lon="9.418552"><ele>48.0</ele><time>2026-04-25T12:12:44.155Z</time></trkpt><trkpt lat="45.0951234" lon="9.4187283"><ele>47.8</ele><time>2026-04-25T12:12:46.157Z</time></trkpt><trkpt lat="45.0950834" lon="9.4188595"><ele>47.599999999999994</ele><time>2026-04-25T12:12:48.156Z</time></trkpt><trkpt lat="45.0950121" lon="9.4189692"><ele>47.400000000000006</ele><time>2026-04-25T12:12:50.155Z</time></trkpt><trkpt lat="45.0949323" lon="9.4190793"><ele>47.2</ele><time>2026-04-25T12:12:52.156Z</time></trkpt><trkpt lat="45.0948765" lon="9.419192"><ele>47.0</ele><time>2026-04-25T12:12:54.157Z</time></trkpt><trkpt lat="45.0948408" lon="9.4193025"><ele>47.0</ele><time>2026-04-25T12:12:56.156Z</time></trkpt><trkpt lat="45.094816" lon="9.4194382"><ele>47.0</ele><time>2026-04-25T12:12:58.156Z</time></trkpt><trkpt lat="45.0947985" lon="9.4195882"><ele>47.0</ele><time>2026-04-25T12:13:00.156Z</time></trkpt><trkpt lat="45.0947813" lon="9.4197368"><ele>47.0</ele><time>2026-04-25T12:13:02.156Z</time></trkpt><trkpt lat="45.0947626" lon="9.4198965"><ele>47.0</ele><time>2026-04-25T12:13:04.157Z</time></trkpt><trkpt lat="45.0947539" lon="9.4200671"><ele>47.0</ele><time>2026-04-25T12:13:06.155Z</time></trkpt><trkpt lat="45.0947564" lon="9.4202243"><ele>47.0</ele><time>2026-04-25T12:13:08.155Z</time></trkpt><trkpt lat="45.0947647" lon="9.4203797"><ele>47.0</ele><time>2026-04-25T12:13:10.156Z</time></trkpt><trkpt lat="45.0947794" lon="9.4205625"><ele>47.0</ele><time>2026-04-25T12:13:12.155Z</time></trkpt><trkpt lat="45.0947733" lon="9.4206588"><ele>47.0</ele><time>2026-04-25T12:13:13.155Z</time></trkpt><trkpt lat="45.0947629" lon="9.420805"><ele>47.0</ele><time>2026-04-25T12:13:15.156Z</time></trkpt><trkpt lat="45.0947487" lon="9.420916"><ele>47.0</ele><time>2026-04-25T12:13:17.156Z</time></trkpt><trkpt lat="45.094737" lon="9.4210606"><ele>47.0</ele><time>2026-04-25T12:13:19.157Z</time></trkpt><trkpt lat="45.0947258" lon="9.4212028"><ele>47.0</ele><time>2026-04-25T12:13:21.156Z</time></trkpt><trkpt lat="45.0947251" lon="9.4213603"><ele>47.0</ele><time>2026-04-25T12:13:23.156Z</time></trkpt><trkpt lat="45.0947186" lon="9.4214518"><ele>47.0</ele><time>2026-04-25T12:13:25.157Z</time></trkpt><trkpt lat="45.0947325" lon="9.4215573"><ele>47.0</ele><time>2026-04-25T12:13:28.156Z</time></trkpt><trkpt lat="45.0947803" lon="9.421659"><ele>47.0</ele><time>2026-04-25T12:13:31.156Z</time></trkpt><trkpt lat="45.0948653" lon="9.4217036"><ele>47.0</ele><time>2026-04-25T12:13:33.155Z</time></trkpt><trkpt lat="45.0949524" lon="9.4217423"><ele>47.0</ele><time>2026-04-25T12:13:35.157Z</time></trkpt><trkpt lat="45.0950265" lon="9.421736"><ele>47.0</ele><time>2026-04-25T12:13:37.155Z</time></trkpt><trkpt lat="45.0950983" lon="9.4217146"><ele>47.2</ele><time>2026-04-25T12:13:39.156Z</time></trkpt><trkpt lat="45.0951876" lon="9.4216882"><ele>47.400000000000006</ele><time>2026-04-25T12:13:42.157Z</time></trkpt><trkpt lat="45.0952876" lon="9.4216718"><ele>47.599999999999994</ele><time>2026-04-25T12:13:44.157Z</time></trkpt><trkpt lat="45.0954122" lon="9.4216522"><ele>47.8</ele><time>2026-04-25T12:13:46.156Z</time></trkpt><trkpt lat="45.0954716" lon="9.4216193"><ele>48.0</ele><time>2026-04-25T12:13:47.155Z</time></trkpt><trkpt lat="45.0955285" lon="9.4215546"><ele>48.0</ele><time>2026-04-25T12:13:48.155Z</time></trkpt><trkpt lat="45.0955957" lon="9.4214761"><ele>48.0</ele><time>2026-04-25T12:13:49.156Z</time></trkpt><trkpt lat="45.0956498" lon="9.4214184"><ele>48.0</ele><time>2026-04-25T12:13:50.156Z</time></trkpt><trkpt lat="45.0957447" lon="9.4213965"><ele>48.0</ele><time>2026-04-25T12:13:52.157Z</time></trkpt><trkpt lat="45.0958628" lon="9.4213886"><ele>48.0</ele><time>2026-04-25T12:13:54.156Z</time></trkpt><trkpt lat="45.0959823" lon="9.4214054"><ele>48.166666666666664</ele><time>2026-04-25T12:13:56.157Z</time></trkpt><trkpt lat="45.0960474" lon="9.4214228"><ele>48.33333333333333</ele><time>2026-04-25T12:13:57.156Z</time></trkpt><trkpt lat="45.0961247" lon="9.4214414"><ele>48.5</ele><time>2026-04-25T12:13:58.155Z</time></trkpt><trkpt lat="45.0962141" lon="9.4214606"><ele>48.666666666666664</ele><time>2026-04-25T12:13:59.155Z</time></trkpt><trkpt lat="45.0962984" lon="9.4214706"><ele>48.83333333333333</ele><time>2026-04-25T12:14:00.156Z</time></trkpt><trkpt lat="45.0963842" lon="9.421482"><ele>49.0</ele><time>2026-04-25T12:14:01.155Z</time></trkpt><trkpt lat="45.096478" lon="9.4214955"><ele>49.0</ele><time>2026-04-25T12:14:02.156Z</time></trkpt><trkpt lat="45.0965684" lon="9.4215123"><ele>49.0</ele><time>2026-04-25T12:14:03.156Z</time></trkpt><trkpt lat="45.0966565" lon="9.4215289"><ele>49.0</ele><time>2026-04-25T12:14:04.155Z</time></trkpt><trkpt lat="45.096747" lon="9.4215461"><ele>49.0</ele><time>2026-04-25T12:14:05.157Z</time></trkpt><trkpt lat="45.096839" lon="9.4215649"><ele>49.0</ele><time>2026-04-25T12:14:06.157Z</time></trkpt><trkpt lat="45.0969308" lon="9.4215814"><ele>49.6</ele><time>2026-04-25T12:14:07.155Z</time></trkpt><trkpt lat="45.0970218" lon="9.4215999"><ele>50.2</ele><time>2026-04-25T12:14:08.155Z</time></trkpt><trkpt lat="45.0971086" lon="9.4216175"><ele>50.800000000000004</ele><time>2026-04-25T12:14:09.155Z</time></trkpt><trkpt lat="45.0972041" lon="9.4216281"><ele>51.400000000000006</ele><time>2026-04-25T12:14:10.155Z</time></trkpt><trkpt lat="45.0973051" lon="9.4216407"><ele>52.0</ele><time>2026-04-25T12:14:11.155Z</time></trkpt><trkpt lat="45.0974045" lon="9.4216527"><ele>52.25</ele><time>2026-04-25T12:14:12.155Z</time></trkpt><trkpt lat="45.0975176" lon="9.4216682"><ele>52.5</ele><time>2026-04-25T12:14:13.155Z</time></trkpt><trkpt lat="45.0976362" lon="9.4216882"><ele>52.75</ele><time>2026-04-25T12:14:14.156Z</time></trkpt><trkpt lat="45.0977536" lon="9.4217097"><ele>53.0</ele><time>2026-04-25T12:14:15.155Z</time></trkpt><trkpt lat="45.0978604" lon="9.4217268"><ele>53.0</ele><time>2026-04-25T12:14:16.157Z</time></trkpt><trkpt lat="45.097959" lon="9.4217417"><ele>53.0</ele><time>2026-04-25T12:14:17.155Z</time></trkpt><trkpt lat="45.098055" lon="9.4217583"><ele>53.0</ele><time>2026-04-25T12:14:18.155Z</time></trkpt><trkpt lat="45.0981547" lon="9.4217808"><ele>53.0</ele><time>2026-04-25T12:14:19.156Z</time></trkpt><trkpt lat="45.0982553" lon="9.4218059"><ele>53.0</ele><time>2026-04-25T12:14:20.156Z</time></trkpt><trkpt lat="45.0983587" lon="9.4218271"><ele>53.4</ele><time>2026-04-25T12:14:21.157Z</time></trkpt><trkpt lat="45.0984608" lon="9.421845"><ele>53.8</ele><time>2026-04-25T12:14:22.156Z</time></trkpt><trkpt lat="45.09857" lon="9.4218701"><ele>54.2</ele><time>2026-04-25T12:14:23.157Z</time></trkpt><trkpt lat="45.0986836" lon="9.4219021"><ele>54.6</ele><time>2026-04-25T12:14:24.155Z</time></trkpt><trkpt lat="45.0987953" lon="9.4219315"><ele>55.0</ele><time>2026-04-25T12:14:25.154Z</time></trkpt><trkpt lat="45.0988952" lon="9.4219578"><ele>55.0</ele><time>2026-04-25T12:14:26.155Z</time></trkpt><trkpt lat="45.0989937" lon="9.4219834"><ele>55.0</ele><time>2026-04-25T12:14:27.156Z</time></trkpt><trkpt lat="45.0990906" lon="9.4220077"><ele>55.0</ele><time>2026-04-25T12:14:28.155Z</time></trkpt><trkpt lat="45.0991919" lon="9.4220503"><ele>55.0</ele><time>2026-04-25T12:14:29.156Z</time></trkpt><trkpt lat="45.0992952" lon="9.4221195"><ele>55.0</ele><time>2026-04-25T12:14:30.155Z</time></trkpt><trkpt lat="45.0994154" lon="9.4222114"><ele>54.4</ele><time>2026-04-25T12:14:31.154Z</time></trkpt><trkpt lat="45.0995501" lon="9.4223123"><ele>53.8</ele><time>2026-04-25T12:14:32.156Z</time></trkpt><trkpt lat="45.0996576" lon="9.422397"><ele>53.2</ele><time>2026-04-25T12:14:33.154Z</time></trkpt><trkpt lat="45.0997406" lon="9.4224583"><ele>52.6</ele><time>2026-04-25T12:14:34.155Z</time></trkpt><trkpt lat="45.0998019" lon="9.4224999"><ele>52.0</ele><time>2026-04-25T12:14:35.154Z</time></trkpt><trkpt lat="45.0998735" lon="9.4225866"><ele>52.0</ele><time>2026-04-25T12:14:37.154Z</time></trkpt><trkpt lat="45.0998877" lon="9.4226859"><ele>52.0</ele><time>2026-04-25T12:14:39.156Z</time></trkpt><trkpt lat="45.0998875" lon="9.4227964"><ele>52.0</ele><time>2026-04-25T12:14:56.154Z</time></trkpt><trkpt lat="45.0998814" lon="9.4230126"><ele>52.0</ele><time>2026-04-25T12:14:58.155Z</time></trkpt><trkpt lat="45.0998855" lon="9.4231829"><ele>52.0</ele><time>2026-04-25T12:14:59.154Z</time></trkpt><trkpt lat="45.0998855" lon="9.4233601"><ele>52.0</ele><time>2026-04-25T12:15:00.156Z</time></trkpt><trkpt lat="45.0998803" lon="9.4235355"><ele>52.0</ele><time>2026-04-25T12:15:01.155Z</time></trkpt><trkpt lat="45.0998767" lon="9.4237172"><ele>52.0</ele><time>2026-04-25T12:15:02.154Z</time></trkpt><trkpt lat="45.0998716" lon="9.4238965"><ele>52.0</ele><time>2026-04-25T12:15:03.156Z</time></trkpt><trkpt lat="45.0998647" lon="9.4240721"><ele>53.0</ele><time>2026-04-25T12:15:04.155Z</time></trkpt><trkpt lat="45.0998616" lon="9.4242452"><ele>54.0</ele><time>2026-04-25T12:15:05.155Z</time></trkpt><trkpt lat="45.0998584" lon="9.4244143"><ele>55.0</ele><time>2026-04-25T12:15:06.155Z</time></trkpt><trkpt lat="45.099856" lon="9.4245791"><ele>56.0</ele><time>2026-04-25T12:15:07.154Z</time></trkpt><trkpt lat="45.0998491" lon="9.4247385"><ele>57.5</ele><time>2026-04-25T12:15:08.154Z</time></trkpt><trkpt lat="45.0998453" lon="9.4249024"><ele>59.0</ele><time>2026-04-25T12:15:09.155Z</time></trkpt><trkpt lat="45.0998422" lon="9.4250696"><ele>60.5</ele><time>2026-04-25T12:15:10.155Z</time></trkpt><trkpt lat="45.0998397" lon="9.4252353"><ele>62.0</ele><time>2026-04-25T12:15:11.155Z</time></trkpt><trkpt lat="45.0998381" lon="9.4254036"><ele>61.75</ele><time>2026-04-25T12:15:12.155Z</time></trkpt><trkpt lat="45.0998353" lon="9.4255705"><ele>61.5</ele><time>2026-04-25T12:15:13.156Z</time></trkpt><trkpt lat="45.099833" lon="9.4257352"><ele>61.25</ele><time>2026-04-25T12:15:14.155Z</time></trkpt><trkpt lat="45.0998308" lon="9.4259005"><ele>61.0</ele><time>2026-04-25T12:15:15.155Z</time></trkpt><trkpt lat="45.0998264" lon="9.4260572"><ele>61.0</ele><time>2026-04-25T12:15:16.154Z</time></trkpt><trkpt lat="45.0998236" lon="9.4262005"><ele>60.99999999999999</ele><time>2026-04-25T12:15:17.154Z</time></trkpt><trkpt lat="45.0998215" lon="9.4263383"><ele>60.99999999999999</ele><time>2026-04-25T12:15:18.155Z</time></trkpt><trkpt lat="45.0998187" lon="9.4264749"><ele>61.0</ele><time>2026-04-25T12:15:19.154Z</time></trkpt><trkpt lat="45.0998162" lon="9.4266093"><ele>61.0</ele><time>2026-04-25T12:15:20.156Z</time></trkpt><trkpt lat="45.0998149" lon="9.4267512"><ele>60.4</ele><time>2026-04-25T12:15:21.155Z</time></trkpt><trkpt lat="45.0998153" lon="9.4269023"><ele>59.8</ele><time>2026-04-25T12:15:22.155Z</time></trkpt><trkpt lat="45.0998143" lon="9.4270639"><ele>59.199999999999996</ele><time>2026-04-25T12:15:23.155Z</time></trkpt><trkpt lat="45.0998105" lon="9.427218"><ele>58.599999999999994</ele><time>2026-04-25T12:15:24.154Z</time></trkpt><trkpt lat="45.0998026" lon="9.4273676"><ele>58.0</ele><time>2026-04-25T12:15:25.154Z</time></trkpt><trkpt lat="45.0997966" lon="9.4275178"><ele>57.25</ele><time>2026-04-25T12:15:26.156Z</time></trkpt><trkpt lat="45.0997898" lon="9.4276746"><ele>56.5</ele><time>2026-04-25T12:15:27.154Z</time></trkpt><trkpt lat="45.0997886" lon="9.4278487"><ele>55.75</ele><time>2026-04-25T12:15:28.155Z</time></trkpt><trkpt lat="45.0997878" lon="9.4280607"><ele>55.0</ele><time>2026-04-25T12:15:29.155Z</time></trkpt><trkpt lat="45.0997856" lon="9.4282711"><ele>54.0</ele><time>2026-04-25T12:15:30.155Z</time></trkpt><trkpt lat="45.0997819" lon="9.4284812"><ele>53.0</ele><time>2026-04-25T12:15:31.154Z</time></trkpt><trkpt lat="45.0997767" lon="9.4286857"><ele>52.0</ele><time>2026-04-25T12:15:32.155Z</time></trkpt><trkpt lat="45.09977" lon="9.4288831"><ele>51.0</ele><time>2026-04-25T12:15:33.154Z</time></trkpt><trkpt lat="45.099764" lon="9.429075"><ele>51.0</ele><time>2026-04-25T12:15:34.154Z</time></trkpt><trkpt lat="45.09976" lon="9.4292614"><ele>51.0</ele><time>2026-04-25T12:15:35.154Z</time></trkpt><trkpt lat="45.0997576" lon="9.4294436"><ele>51.0</ele><time>2026-04-25T12:15:36.154Z</time></trkpt><trkpt lat="45.0997508" lon="9.4296211"><ele>51.0</ele><time>2026-04-25T12:15:37.156Z</time></trkpt><trkpt lat="45.0997414" lon="9.429795"><ele>51.0</ele><time>2026-04-25T12:15:38.156Z</time></trkpt><trkpt lat="45.0997326" lon="9.4299563"><ele>51.0</ele><time>2026-04-25T12:15:39.155Z</time></trkpt><trkpt lat="45.0997165" lon="9.4301042"><ele>51.0</ele><time>2026-04-25T12:15:40.155Z</time></trkpt><trkpt lat="45.0996956" lon="9.4302418"><ele>51.0</ele><time>2026-04-25T12:15:41.156Z</time></trkpt><trkpt lat="45.0996715" lon="9.430371"><ele>51.0</ele><time>2026-04-25T12:15:42.155Z</time></trkpt><trkpt lat="45.0996416" lon="9.4304934"><ele>51.0</ele><time>2026-04-25T12:15:43.154Z</time></trkpt><trkpt lat="45.0996055" lon="9.4306156"><ele>51.0</ele><time>2026-04-25T12:15:44.154Z</time></trkpt><trkpt lat="45.0995605" lon="9.4307394"><ele>51.0</ele><time>2026-04-25T12:15:45.156Z</time></trkpt><trkpt lat="45.0995063" lon="9.4308633"><ele>51.0</ele><time>2026-04-25T12:15:46.156Z</time></trkpt><trkpt lat="45.0994533" lon="9.431008"><ele>51.0</ele><time>2026-04-25T12:15:47.155Z</time></trkpt><trkpt lat="45.0993917" lon="9.431164"><ele>51.0</ele><time>2026-04-25T12:15:48.155Z</time></trkpt><trkpt lat="45.0993249" lon="9.4313136"><ele>51.0</ele><time>2026-04-25T12:15:49.155Z</time></trkpt><trkpt lat="45.0992617" lon="9.4314648"><ele>51.0</ele><time>2026-04-25T12:15:50.154Z</time></trkpt><trkpt lat="45.099203" lon="9.4316132"><ele>51.0</ele><time>2026-04-25T12:15:51.155Z</time></trkpt><trkpt lat="45.0991432" lon="9.431762"><ele>51.0</ele><time>2026-04-25T12:15:52.154Z</time></trkpt><trkpt lat="45.0990853" lon="9.4319134"><ele>51.0</ele><time>2026-04-25T12:15:53.155Z</time></trkpt><trkpt lat="45.0990386" lon="9.4320667"><ele>51.0</ele><time>2026-04-25T12:15:54.154Z</time></trkpt><trkpt lat="45.0989992" lon="9.4322255"><ele>51.0</ele><time>2026-04-25T12:15:55.155Z</time></trkpt><trkpt lat="45.0989582" lon="9.4323813"><ele>51.0</ele><time>2026-04-25T12:15:56.155Z</time></trkpt><trkpt lat="45.0989241" lon="9.4325391"><ele>51.0</ele><time>2026-04-25T12:15:57.156Z</time></trkpt><trkpt lat="45.0988992" lon="9.4327053"><ele>51.0</ele><time>2026-04-25T12:15:58.156Z</time></trkpt><trkpt lat="45.0988818" lon="9.4328644"><ele>51.0</ele><time>2026-04-25T12:15:59.155Z</time></trkpt><trkpt lat="45.0988729" lon="9.4330269"><ele>51.5</ele><time>2026-04-25T12:16:00.155Z</time></trkpt><trkpt lat="45.0988645" lon="9.4331903"><ele>52.0</ele><time>2026-04-25T12:16:01.155Z</time></trkpt><trkpt lat="45.0988646" lon="9.4333557"><ele>52.5</ele><time>2026-04-25T12:16:02.154Z</time></trkpt><trkpt lat="45.0988673" lon="9.433519"><ele>53.0</ele><time>2026-04-25T12:16:03.154Z</time></trkpt><trkpt lat="45.0988672" lon="9.4336937"><ele>53.25</ele><time>2026-04-25T12:16:04.155Z</time></trkpt><trkpt lat="45.0988663" lon="9.4338753"><ele>53.5</ele><time>2026-04-25T12:16:05.155Z</time></trkpt><trkpt lat="45.0988678" lon="9.4340621"><ele>53.75</ele><time>2026-04-25T12:16:06.155Z</time></trkpt><trkpt lat="45.0988696" lon="9.4342483"><ele>54.0</ele><time>2026-04-25T12:16:07.155Z</time></trkpt><trkpt lat="45.0988737" lon="9.4344286"><ele>54.0</ele><time>2026-04-25T12:16:08.154Z</time></trkpt><trkpt lat="45.0988761" lon="9.4346262"><ele>54.0</ele><time>2026-04-25T12:16:09.154Z</time></trkpt><trkpt lat="45.0988803" lon="9.4348195"><ele>54.0</ele><time>2026-04-25T12:16:10.154Z</time></trkpt><trkpt lat="45.0988845" lon="9.4350146"><ele>54.0</ele><time>2026-04-25T12:16:11.154Z</time></trkpt><trkpt lat="45.0988849" lon="9.4352115"><ele>53.25</ele><time>2026-04-25T12:16:12.156Z</time></trkpt><trkpt lat="45.0988847" lon="9.4354099"><ele>52.5</ele><time>2026-04-25T12:16:13.155Z</time></trkpt><trkpt lat="45.0988809" lon="9.4356106"><ele>51.75</ele><time>2026-04-25T12:16:14.155Z</time></trkpt><trkpt lat="45.0988786" lon="9.435813"><ele>51.0</ele><time>2026-04-25T12:16:15.154Z</time></trkpt><trkpt lat="45.0988768" lon="9.4360174"><ele>51.0</ele><time>2026-04-25T12:16:16.154Z</time></trkpt><trkpt lat="45.0988751" lon="9.4362234"><ele>51.0</ele><time>2026-04-25T12:16:17.154Z</time></trkpt><trkpt lat="45.0988706" lon="9.436432"><ele>51.0</ele><time>2026-04-25T12:16:18.156Z</time></trkpt><trkpt lat="45.0988639" lon="9.4366389"><ele>51.0</ele><time>2026-04-25T12:16:19.155Z</time></trkpt><trkpt lat="45.0988586" lon="9.4368286"><ele>51.75</ele><time>2026-04-25T12:16:20.156Z</time></trkpt><trkpt lat="45.0988516" lon="9.4370054"><ele>52.5</ele><time>2026-04-25T12:16:21.156Z</time></trkpt><trkpt lat="45.0988434" lon="9.4371799"><ele>53.25</ele><time>2026-04-25T12:16:22.156Z</time></trkpt><trkpt lat="45.0988347" lon="9.4373485"><ele>54.0</ele><time>2026-04-25T12:16:23.154Z</time></trkpt><trkpt lat="45.0988267" lon="9.4375038"><ele>54.0</ele><time>2026-04-25T12:16:24.155Z</time></trkpt><trkpt lat="45.0988253" lon="9.4376539"><ele>54.0</ele><time>2026-04-25T12:16:25.155Z</time></trkpt><trkpt lat="45.0988256" lon="9.4378041"><ele>54.0</ele><time>2026-04-25T12:16:26.154Z</time></trkpt><trkpt lat="45.098835" lon="9.4379872"><ele>54.0</ele><time>2026-04-25T12:16:27.155Z</time></trkpt><trkpt lat="45.0988454" lon="9.4381647"><ele>52.66666666666667</ele><time>2026-04-25T12:16:28.156Z</time></trkpt><trkpt lat="45.0988713" lon="9.43836"><ele>51.333333333333336</ele><time>2026-04-25T12:16:29.155Z</time></trkpt><trkpt lat="45.0989238" lon="9.438568"><ele>50.0</ele><time>2026-04-25T12:16:30.155Z</time></trkpt><trkpt lat="45.0990076" lon="9.4388009"><ele>50.333333333333336</ele><time>2026-04-25T12:16:31.154Z</time></trkpt><trkpt lat="45.0991064" lon="9.4390556"><ele>50.66666666666667</ele><time>2026-04-25T12:16:32.155Z</time></trkpt><trkpt lat="45.0992072" lon="9.4393214"><ele>51.0</ele><time>2026-04-25T12:16:33.155Z</time></trkpt><trkpt lat="45.0993059" lon="9.4395821"><ele>50.66666666666667</ele><time>2026-04-25T12:16:34.156Z</time></trkpt><trkpt lat="45.0993973" lon="9.439833"><ele>50.333333333333336</ele><time>2026-04-25T12:16:35.155Z</time></trkpt><trkpt lat="45.0994776" lon="9.4400767"><ele>50.0</ele><time>2026-04-25T12:16:36.154Z</time></trkpt><trkpt lat="45.0995586" lon="9.4403119"><ele>49.66666666666667</ele><time>2026-04-25T12:16:37.154Z</time></trkpt><trkpt lat="45.0996417" lon="9.4405408"><ele>49.33333333333333</ele><time>2026-04-25T12:16:38.154Z</time></trkpt><trkpt lat="45.0997294" lon="9.4407801"><ele>49.0</ele><time>2026-04-25T12:16:39.154Z</time></trkpt><trkpt lat="45.0998055" lon="9.4409878"><ele>49.0</ele><time>2026-04-25T12:16:40.155Z</time></trkpt><trkpt lat="45.0998788" lon="9.4411928"><ele>49.0</ele><time>2026-04-25T12:16:41.155Z</time></trkpt><trkpt lat="45.0999489" lon="9.4413877"><ele>49.0</ele><time>2026-04-25T12:16:42.154Z</time></trkpt><trkpt lat="45.1000122" lon="9.4415714"><ele>49.25</ele><time>2026-04-25T12:16:43.154Z</time></trkpt><trkpt lat="45.1000721" lon="9.4417414"><ele>49.5</ele><time>2026-04-25T12:16:44.154Z</time></trkpt><trkpt lat="45.1001244" lon="9.4418963"><ele>49.75</ele><time>2026-04-25T12:16:45.155Z</time></trkpt><trkpt lat="45.1001732" lon="9.4420387"><ele>50.0</ele><time>2026-04-25T12:16:46.156Z</time></trkpt><trkpt lat="45.1002126" lon="9.4421821"><ele>50.0</ele><time>2026-04-25T12:16:47.156Z</time></trkpt><trkpt lat="45.1002436" lon="9.4422791"><ele>50.0</ele><time>2026-04-25T12:16:49.155Z</time></trkpt><trkpt lat="45.1003158" lon="9.442294"><ele>50.0</ele><time>2026-04-25T12:16:51.155Z</time></trkpt><trkpt lat="45.1004476" lon="9.4422718"><ele>50.0</ele><time>2026-04-25T12:16:53.154Z</time></trkpt><trkpt lat="45.1005294" lon="9.442262"><ele>50.0</ele><time>2026-04-25T12:16:54.155Z</time></trkpt><trkpt lat="45.1006196" lon="9.4422561"><ele>50.00000000000001</ele><time>2026-04-25T12:16:55.155Z</time></trkpt><trkpt lat="45.1007154" lon="9.4422637"><ele>50.0</ele><time>2026-04-25T12:16:56.154Z</time></trkpt><trkpt lat="45.100814" lon="9.4422829"><ele>50.0</ele><time>2026-04-25T12:16:57.155Z</time></trkpt><trkpt lat="45.1009033" lon="9.4423133"><ele>50.0</ele><time>2026-04-25T12:16:58.154Z</time></trkpt><trkpt lat="45.1009771" lon="9.4423465"><ele>50.00000000000001</ele><time>2026-04-25T12:16:59.155Z</time></trkpt><trkpt lat="45.1010457" lon="9.4423732"><ele>50.0</ele><time>2026-04-25T12:17:00.154Z</time></trkpt><trkpt lat="45.1011442" lon="9.4424173"><ele>50.16666666666667</ele><time>2026-04-25T12:17:02.155Z</time></trkpt><trkpt lat="45.1012339" lon="9.4424233"><ele>50.333333333333336</ele><time>2026-04-25T12:17:04.155Z</time></trkpt><trkpt lat="45.1013131" lon="9.4424363"><ele>50.5</ele><time>2026-04-25T12:17:06.155Z</time></trkpt><trkpt lat="45.1013763" lon="9.4424897"><ele>50.66666666666667</ele><time>2026-04-25T12:17:29.154Z</time></trkpt><trkpt lat="45.1014363" lon="9.4425252"><ele>50.833333333333336</ele><time>2026-04-25T12:20:04.154Z</time></trkpt><trkpt lat="45.101507" lon="9.4425516"><ele>51.0</ele><time>2026-04-25T12:20:06.153Z</time></trkpt><trkpt lat="45.1016002" lon="9.4425733"><ele>51.0</ele><time>2026-04-25T12:20:08.154Z</time></trkpt><trkpt lat="45.1016649" lon="9.4425848"><ele>51.0</ele><time>2026-04-25T12:20:09.154Z</time></trkpt><trkpt lat="45.1017608" lon="9.4426031"><ele>51.0</ele><time>2026-04-25T12:20:11.154Z</time></trkpt><trkpt lat="45.1018567" lon="9.4426114"><ele>51.0</ele><time>2026-04-25T12:20:13.154Z</time></trkpt><trkpt lat="45.1019455" lon="9.4426177"><ele>51.0</ele><time>2026-04-25T12:20:15.153Z</time></trkpt><trkpt lat="45.1020405" lon="9.4426338"><ele>51.0</ele><time>2026-04-25T12:20:17.155Z</time></trkpt><trkpt lat="45.1021037" lon="9.4426386"><ele>51.0</ele><time>2026-04-25T12:20:18.154Z</time></trkpt><trkpt lat="45.1022529" lon="9.4426418"><ele>51.0</ele><time>2026-04-25T12:20:20.154Z</time></trkpt><trkpt lat="45.1023379" lon="9.4426332"><ele>51.0</ele><time>2026-04-25T12:20:21.154Z</time></trkpt><trkpt lat="45.102428" lon="9.4426201"><ele>51.0</ele><time>2026-04-25T12:20:22.153Z</time></trkpt><trkpt lat="45.1025273" lon="9.4426066"><ele>51.0</ele><time>2026-04-25T12:20:23.154Z</time></trkpt><trkpt lat="45.1026286" lon="9.4425953"><ele>51.0</ele><time>2026-04-25T12:20:24.154Z</time></trkpt><trkpt lat="45.1027274" lon="9.4425882"><ele>51.0</ele><time>2026-04-25T12:20:25.154Z</time></trkpt><trkpt lat="45.1028336" lon="9.442574"><ele>51.0</ele><time>2026-04-25T12:20:26.153Z</time></trkpt><trkpt lat="45.1029406" lon="9.4425633"><ele>51.0</ele><time>2026-04-25T12:20:27.153Z</time></trkpt><trkpt lat="45.1030476" lon="9.4425528"><ele>51.0</ele><time>2026-04-25T12:20:28.154Z</time></trkpt><trkpt lat="45.103153" lon="9.4425386"><ele>50.5</ele><time>2026-04-25T12:20:29.155Z</time></trkpt><trkpt lat="45.103254" lon="9.442525"><ele>50.0</ele><time>2026-04-25T12:20:30.155Z</time></trkpt><trkpt lat="45.1033769" lon="9.4425163"><ele>49.5</ele><time>2026-04-25T12:20:31.154Z</time></trkpt><trkpt lat="45.1035139" lon="9.4425057"><ele>49.0</ele><time>2026-04-25T12:20:32.154Z</time></trkpt><trkpt lat="45.103647" lon="9.4424951"><ele>49.0</ele><time>2026-04-25T12:20:33.154Z</time></trkpt><trkpt lat="45.1037771" lon="9.4424806"><ele>49.0</ele><time>2026-04-25T12:20:34.153Z</time></trkpt><trkpt lat="45.1039083" lon="9.4424661"><ele>49.0</ele><time>2026-04-25T12:20:35.154Z</time></trkpt><trkpt lat="45.1040322" lon="9.4424525"><ele>49.0</ele><time>2026-04-25T12:20:36.154Z</time></trkpt><trkpt lat="45.10415" lon="9.4424396"><ele>49.25</ele><time>2026-04-25T12:20:37.153Z</time></trkpt><trkpt lat="45.1042727" lon="9.442429"><ele>49.5</ele><time>2026-04-25T12:20:38.153Z</time></trkpt><trkpt lat="45.1043882" lon="9.4424144"><ele>49.75</ele><time>2026-04-25T12:20:39.154Z</time></trkpt><trkpt lat="45.1044956" lon="9.4424006"><ele>50.0</ele><time>2026-04-25T12:20:40.155Z</time></trkpt><trkpt lat="45.1046243" lon="9.4423958"><ele>50.0</ele><time>2026-04-25T12:20:41.154Z</time></trkpt><trkpt lat="45.1047433" lon="9.4423845"><ele>50.0</ele><time>2026-04-25T12:20:42.153Z</time></trkpt><trkpt lat="45.1048632" lon="9.4423752"><ele>50.0</ele><time>2026-04-25T12:20:43.154Z</time></trkpt><trkpt lat="45.1049843" lon="9.4423626"><ele>50.0</ele><time>2026-04-25T12:20:44.154Z</time></trkpt><trkpt lat="45.1051105" lon="9.4423493"><ele>50.25</ele><time>2026-04-25T12:20:45.154Z</time></trkpt><trkpt lat="45.1052367" lon="9.4423411"><ele>50.5</ele><time>2026-04-25T12:20:46.154Z</time></trkpt><trkpt lat="45.1053721" lon="9.4423358"><ele>50.75</ele><time>2026-04-25T12:20:47.154Z</time></trkpt><trkpt lat="45.1055053" lon="9.4423554"><ele>51.0</ele><time>2026-04-25T12:20:48.154Z</time></trkpt><trkpt lat="45.1056463" lon="9.4423828"><ele>51.25</ele><time>2026-04-25T12:20:49.154Z</time></trkpt><trkpt lat="45.1057785" lon="9.4424157"><ele>51.5</ele><time>2026-04-25T12:20:50.153Z</time></trkpt><trkpt lat="45.1059134" lon="9.442456"><ele>51.75</ele><time>2026-04-25T12:20:51.154Z</time></trkpt><trkpt lat="45.1060534" lon="9.4424908"><ele>52.0</ele><time>2026-04-25T12:20:52.154Z</time></trkpt><trkpt lat="45.1061848" lon="9.4425244"><ele>52.0</ele><time>2026-04-25T12:20:53.154Z</time></trkpt><trkpt lat="45.1063169" lon="9.4425573"><ele>52.0</ele><time>2026-04-25T12:20:54.154Z</time></trkpt><trkpt lat="45.1064453" lon="9.4425854"><ele>52.0</ele><time>2026-04-25T12:20:55.155Z</time></trkpt><trkpt lat="45.1065644" lon="9.4426211"><ele>52.0</ele><time>2026-04-25T12:20:56.155Z</time></trkpt><trkpt lat="45.1066724" lon="9.4426506"><ele>51.6</ele><time>2026-04-25T12:20:57.154Z</time></trkpt><trkpt lat="45.1067722" lon="9.4426774"><ele>51.2</ele><time>2026-04-25T12:20:58.154Z</time></trkpt><trkpt lat="45.1068622" lon="9.4427032"><ele>50.8</ele><time>2026-04-25T12:20:59.154Z</time></trkpt><trkpt lat="45.1069366" lon="9.442739"><ele>50.4</ele><time>2026-04-25T12:21:00.154Z</time></trkpt><trkpt lat="45.1070055" lon="9.4427691"><ele>50.0</ele><time>2026-04-25T12:21:01.154Z</time></trkpt><trkpt lat="45.1069965" lon="9.4429333"><ele>50.2</ele><time>2026-04-25T12:21:03.153Z</time></trkpt><trkpt lat="45.1069713" lon="9.4430246"><ele>50.4</ele><time>2026-04-25T12:21:04.155Z</time></trkpt><trkpt lat="45.1069357" lon="9.4431193"><ele>50.599999999999994</ele><time>2026-04-25T12:21:05.155Z</time></trkpt><trkpt lat="45.1068811" lon="9.4432367"><ele>50.8</ele><time>2026-04-25T12:21:06.154Z</time></trkpt><trkpt lat="45.1068152" lon="9.4433575"><ele>51.0</ele><time>2026-04-25T12:21:07.155Z</time></trkpt><trkpt lat="45.1067578" lon="9.4434784"><ele>51.0</ele><time>2026-04-25T12:21:08.154Z</time></trkpt><trkpt lat="45.1066682" lon="9.4436462"><ele>51.0</ele><time>2026-04-25T12:21:09.154Z</time></trkpt><trkpt lat="45.1066018" lon="9.44379"><ele>51.0</ele><time>2026-04-25T12:21:10.154Z</time></trkpt><trkpt lat="45.1065226" lon="9.4439619"><ele>51.0</ele><time>2026-04-25T12:21:11.154Z</time></trkpt><trkpt lat="45.1064236" lon="9.4441823"><ele>51.0</ele><time>2026-04-25T12:21:12.154Z</time></trkpt><trkpt lat="45.1063411" lon="9.4443807"><ele>51.0</ele><time>2026-04-25T12:21:13.154Z</time></trkpt><trkpt lat="45.1062539" lon="9.4445813"><ele>51.0</ele><time>2026-04-25T12:21:14.154Z</time></trkpt><trkpt lat="45.106168" lon="9.4447868"><ele>50.66666666666667</ele><time>2026-04-25T12:21:15.153Z</time></trkpt><trkpt lat="45.10608" lon="9.445001"><ele>50.333333333333336</ele><time>2026-04-25T12:21:16.154Z</time></trkpt><trkpt lat="45.1059903" lon="9.4452139"><ele>50.0</ele><time>2026-04-25T12:21:17.153Z</time></trkpt><trkpt lat="45.1059064" lon="9.4454253"><ele>50.0</ele><time>2026-04-25T12:21:18.154Z</time></trkpt><trkpt lat="45.105817" lon="9.4456388"><ele>50.0</ele><time>2026-04-25T12:21:19.154Z</time></trkpt><trkpt lat="45.1057244" lon="9.4458565"><ele>50.0</ele><time>2026-04-25T12:21:20.153Z</time></trkpt><trkpt lat="45.1056301" lon="9.4460732"><ele>50.0</ele><time>2026-04-25T12:21:21.154Z</time></trkpt><trkpt lat="45.1055339" lon="9.4463038"><ele>50.0</ele><time>2026-04-25T12:21:22.153Z</time></trkpt><trkpt lat="45.1054413" lon="9.4465249"><ele>50.0</ele><time>2026-04-25T12:21:23.153Z</time></trkpt><trkpt lat="45.1053484" lon="9.4467418"><ele>50.0</ele><time>2026-04-25T12:21:24.154Z</time></trkpt><trkpt lat="45.1052546" lon="9.4469633"><ele>50.0</ele><time>2026-04-25T12:21:25.153Z</time></trkpt><trkpt lat="45.1051595" lon="9.4471933"><ele>50.0</ele><time>2026-04-25T12:21:26.154Z</time></trkpt><trkpt lat="45.1050625" lon="9.4474271"><ele>50.0</ele><time>2026-04-25T12:21:27.154Z</time></trkpt><trkpt lat="45.1049673" lon="9.4476582"><ele>50.0</ele><time>2026-04-25T12:21:28.154Z</time></trkpt><trkpt lat="45.1048705" lon="9.4478911"><ele>50.0</ele><time>2026-04-25T12:21:29.153Z</time></trkpt><trkpt lat="45.1047704" lon="9.4481304"><ele>50.0</ele><time>2026-04-25T12:21:30.154Z</time></trkpt><trkpt lat="45.1046729" lon="9.4483714"><ele>50.0</ele><time>2026-04-25T12:21:31.153Z</time></trkpt><trkpt lat="45.1045852" lon="9.4485786"><ele>50.0</ele><time>2026-04-25T12:21:32.153Z</time></trkpt><trkpt lat="45.1044798" lon="9.4488015"><ele>50.66666666666667</ele><time>2026-04-25T12:21:33.155Z</time></trkpt><trkpt lat="45.1043692" lon="9.4490148"><ele>51.33333333333333</ele><time>2026-04-25T12:21:34.154Z</time></trkpt><trkpt lat="45.1042498" lon="9.4492092"><ele>52.0</ele><time>2026-04-25T12:21:35.153Z</time></trkpt><trkpt lat="45.1041159" lon="9.449416"><ele>52.0</ele><time>2026-04-25T12:21:36.154Z</time></trkpt><trkpt lat="45.1039794" lon="9.4496059"><ele>52.0</ele><time>2026-04-25T12:21:37.154Z</time></trkpt><trkpt lat="45.1038508" lon="9.449737"><ele>52.0</ele><time>2026-04-25T12:21:38.154Z</time></trkpt><trkpt lat="45.1037349" lon="9.4498595"><ele>52.2</ele><time>2026-04-25T12:21:39.154Z</time></trkpt><trkpt lat="45.1036178" lon="9.4499825"><ele>52.400000000000006</ele><time>2026-04-25T12:21:40.153Z</time></trkpt><trkpt lat="45.1035229" lon="9.450098"><ele>52.599999999999994</ele><time>2026-04-25T12:21:41.153Z</time></trkpt><trkpt lat="45.1034793" lon="9.4501649"><ele>52.8</ele><time>2026-04-25T12:21:42.155Z</time></trkpt><trkpt lat="45.1034727" lon="9.450298"><ele>53.0</ele><time>2026-04-25T12:21:44.154Z</time></trkpt><trkpt lat="45.1034694" lon="9.4504165"><ele>53.0</ele><time>2026-04-25T12:21:46.155Z</time></trkpt><trkpt lat="45.1036062" lon="9.4504429"><ele>53.0</ele><time>2026-04-25T12:21:48.153Z</time></trkpt><trkpt lat="45.1037781" lon="9.450415"><ele>53.0</ele><time>2026-04-25T12:21:49.153Z</time></trkpt><trkpt lat="45.1039097" lon="9.4503936"><ele>53.0</ele><time>2026-04-25T12:21:50.155Z</time></trkpt><trkpt lat="45.1040616" lon="9.4504026"><ele>53.66666666666667</ele><time>2026-04-25T12:21:51.154Z</time></trkpt><trkpt lat="45.1042253" lon="9.4503961"><ele>54.33333333333333</ele><time>2026-04-25T12:21:52.154Z</time></trkpt><trkpt lat="45.1043898" lon="9.4503936"><ele>55.0</ele><time>2026-04-25T12:21:53.154Z</time></trkpt><trkpt lat="45.1045521" lon="9.4503985"><ele>55.0</ele><time>2026-04-25T12:21:54.154Z</time></trkpt><trkpt lat="45.104725" lon="9.4504042"><ele>55.0</ele><time>2026-04-25T12:21:55.155Z</time></trkpt><trkpt lat="45.1049029" lon="9.4504058"><ele>55.0</ele><time>2026-04-25T12:21:56.153Z</time></trkpt><trkpt lat="45.1050827" lon="9.4504057"><ele>54.0</ele><time>2026-04-25T12:21:57.154Z</time></trkpt><trkpt lat="45.1052642" lon="9.4504052"><ele>53.0</ele><time>2026-04-25T12:21:58.154Z</time></trkpt><trkpt lat="45.1054423" lon="9.4504031"><ele>52.0</ele><time>2026-04-25T12:21:59.154Z</time></trkpt><trkpt lat="45.1056242" lon="9.4504048"><ele>51.33333333333333</ele><time>2026-04-25T12:22:00.153Z</time></trkpt><trkpt lat="45.1058032" lon="9.4504062"><ele>50.66666666666667</ele><time>2026-04-25T12:22:01.154Z</time></trkpt><trkpt lat="45.1059828" lon="9.4504094"><ele>50.0</ele><time>2026-04-25T12:22:02.154Z</time></trkpt><trkpt lat="45.1061579" lon="9.4504113"><ele>50.0</ele><time>2026-04-25T12:22:03.153Z</time></trkpt><trkpt lat="45.1063314" lon="9.4504093"><ele>50.0</ele><time>2026-04-25T12:22:04.153Z</time></trkpt><trkpt lat="45.1065009" lon="9.4504057"><ele>50.0</ele><time>2026-04-25T12:22:05.154Z</time></trkpt><trkpt lat="45.1066668" lon="9.4504093"><ele>49.66666666666667</ele><time>2026-04-25T12:22:06.153Z</time></trkpt><trkpt lat="45.1068286" lon="9.4504149"><ele>49.33333333333333</ele><time>2026-04-25T12:22:07.154Z</time></trkpt><trkpt lat="45.1069863" lon="9.4504224"><ele>49.0</ele><time>2026-04-25T12:22:08.153Z</time></trkpt><trkpt lat="45.1071339" lon="9.4504278"><ele>49.0</ele><time>2026-04-25T12:22:09.154Z</time></trkpt><trkpt lat="45.1072609" lon="9.4504275"><ele>49.0</ele><time>2026-04-25T12:22:10.153Z</time></trkpt><trkpt lat="45.1073933" lon="9.4504254"><ele>49.0</ele><time>2026-04-25T12:22:11.153Z</time></trkpt><trkpt lat="45.1075001" lon="9.4504171"><ele>49.0</ele><time>2026-04-25T12:22:12.155Z</time></trkpt><trkpt lat="45.1075877" lon="9.4503972"><ele>49.49999999999999</ele><time>2026-04-25T12:22:13.155Z</time></trkpt><trkpt lat="45.1076559" lon="9.4503538"><ele>50.0</ele><time>2026-04-25T12:22:14.154Z</time></trkpt><trkpt lat="45.1076953" lon="9.4502822"><ele>50.5</ele><time>2026-04-25T12:22:15.153Z</time></trkpt><trkpt lat="45.1077325" lon="9.4501975"><ele>51.0</ele><time>2026-04-25T12:22:16.154Z</time></trkpt><trkpt lat="45.1077569" lon="9.4500081"><ele>51.49999999999999</ele><time>2026-04-25T12:22:18.154Z</time></trkpt><trkpt lat="45.1077783" lon="9.4499022"><ele>52.0</ele><time>2026-04-25T12:22:20.154Z</time></trkpt><trkpt lat="45.1078608" lon="9.4499315"><ele>51.99999999999999</ele><time>2026-04-25T12:22:22.153Z</time></trkpt><trkpt lat="45.1079592" lon="9.4499352"><ele>52.0</ele><time>2026-04-25T12:22:24.154Z</time></trkpt><trkpt lat="45.1080178" lon="9.4499691"><ele>52.0</ele><time>2026-04-25T12:22:50.153Z</time></trkpt><trkpt lat="45.1079343" lon="9.4499586"><ele>52.0</ele><time>2026-04-25T12:23:10.153Z</time></trkpt><trkpt lat="45.1078547" lon="9.4499893"><ele>51.99999999999999</ele><time>2026-04-25T12:23:13.153Z</time></trkpt><trkpt lat="45.1079192" lon="9.4499816"><ele>52.0</ele><time>2026-04-25T12:23:45.153Z</time></trkpt><trkpt lat="45.1079899" lon="9.4499737"><ele>52.0</ele><time>2026-04-25T12:24:10.153Z</time></trkpt><trkpt lat="45.108046" lon="9.4500593"><ele>52.0</ele><time>2026-04-25T12:27:00.153Z</time></trkpt><trkpt lat="45.1080749" lon="9.4502243"><ele>52.0</ele><time>2026-04-25T12:27:02.153Z</time></trkpt><trkpt lat="45.1080863" lon="9.4503278"><ele>52.0</ele><time>2026-04-25T12:27:04.153Z</time></trkpt><trkpt lat="45.1081537" lon="9.4504259"><ele>52.0</ele><time>2026-04-25T12:27:09.153Z</time></trkpt><trkpt lat="45.1082403" lon="9.4504421"><ele>51.5</ele><time>2026-04-25T12:27:11.153Z</time></trkpt><trkpt lat="45.1083801" lon="9.4504346"><ele>51.0</ele><time>2026-04-25T12:27:12.152Z</time></trkpt><trkpt lat="45.1085366" lon="9.4504243"><ele>50.5</ele><time>2026-04-25T12:27:13.153Z</time></trkpt><trkpt lat="45.1086564" lon="9.450423"><ele>50.0</ele><time>2026-04-25T12:27:14.152Z</time></trkpt><trkpt lat="45.1087763" lon="9.4504274"><ele>50.0</ele><time>2026-04-25T12:27:15.152Z</time></trkpt><trkpt lat="45.1088952" lon="9.4504376"><ele>50.0</ele><time>2026-04-25T12:27:16.154Z</time></trkpt><trkpt lat="45.1090049" lon="9.4504494"><ele>50.0</ele><time>2026-04-25T12:27:17.153Z</time></trkpt><trkpt lat="45.109114" lon="9.4504656"><ele>50.0</ele><time>2026-04-25T12:27:18.152Z</time></trkpt><trkpt lat="45.1092135" lon="9.4504813"><ele>50.0</ele><time>2026-04-25T12:27:19.153Z</time></trkpt><trkpt lat="45.1093094" lon="9.4505014"><ele>50.0</ele><time>2026-04-25T12:27:20.153Z</time></trkpt><trkpt lat="45.1093969" lon="9.4505237"><ele>50.0</ele><time>2026-04-25T12:27:21.153Z</time></trkpt><trkpt lat="45.1094921" lon="9.4505468"><ele>50.0</ele><time>2026-04-25T12:27:22.153Z</time></trkpt><trkpt lat="45.1095838" lon="9.4505692"><ele>50.0</ele><time>2026-04-25T12:27:23.152Z</time></trkpt><trkpt lat="45.1097129" lon="9.4506048"><ele>50.0</ele><time>2026-04-25T12:27:24.152Z</time></trkpt><trkpt lat="45.1098578" lon="9.4506313"><ele>50.25</ele><time>2026-04-25T12:27:25.154Z</time></trkpt><trkpt lat="45.1099955" lon="9.4506269"><ele>50.5</ele><time>2026-04-25T12:27:26.153Z</time></trkpt><trkpt lat="45.1101422" lon="9.45062"><ele>50.75</ele><time>2026-04-25T12:27:27.153Z</time></trkpt><trkpt lat="45.1102595" lon="9.4506132"><ele>51.0</ele><time>2026-04-25T12:27:28.152Z</time></trkpt><trkpt lat="45.110386" lon="9.4506011"><ele>51.0</ele><time>2026-04-25T12:27:29.152Z</time></trkpt><trkpt lat="45.1104868" lon="9.4506474"><ele>51.0</ele><time>2026-04-25T12:27:30.152Z</time></trkpt><trkpt lat="45.1105747" lon="9.4507088"><ele>51.0</ele><time>2026-04-25T12:27:31.153Z</time></trkpt><trkpt lat="45.1107021" lon="9.4507836"><ele>51.0</ele><time>2026-04-25T12:27:32.152Z</time></trkpt><trkpt lat="45.1107994" lon="9.4508834"><ele>51.0</ele><time>2026-04-25T12:27:33.153Z</time></trkpt><trkpt lat="45.1108793" lon="9.4510227"><ele>51.0</ele><time>2026-04-25T12:27:34.153Z</time></trkpt><trkpt lat="45.1109387" lon="9.4511868"><ele>51.0</ele><time>2026-04-25T12:27:35.153Z</time></trkpt><trkpt lat="45.1109813" lon="9.4513771"><ele>51.0</ele><time>2026-04-25T12:27:36.154Z</time></trkpt><trkpt lat="45.1110275" lon="9.4515637"><ele>50.75</ele><time>2026-04-25T12:27:37.152Z</time></trkpt><trkpt lat="45.1110832" lon="9.4517597"><ele>50.5</ele><time>2026-04-25T12:27:38.153Z</time></trkpt><trkpt lat="45.1111097" lon="9.451953"><ele>50.25</ele><time>2026-04-25T12:27:39.153Z</time></trkpt><trkpt lat="45.1112072" lon="9.452134"><ele>50.0</ele><time>2026-04-25T12:27:40.153Z</time></trkpt><trkpt lat="45.1112876" lon="9.4523041"><ele>50.0</ele><time>2026-04-25T12:27:41.153Z</time></trkpt><trkpt lat="45.111418" lon="9.4525149"><ele>50.0</ele><time>2026-04-25T12:27:42.152Z</time></trkpt><trkpt lat="45.1115121" lon="9.4527025"><ele>50.0</ele><time>2026-04-25T12:27:43.153Z</time></trkpt><trkpt lat="45.1116177" lon="9.4528939"><ele>49.66666666666667</ele><time>2026-04-25T12:27:44.153Z</time></trkpt><trkpt lat="45.1117254" lon="9.4530793"><ele>49.33333333333333</ele><time>2026-04-25T12:27:45.152Z</time></trkpt><trkpt lat="45.1118362" lon="9.4532621"><ele>49.0</ele><time>2026-04-25T12:27:46.153Z</time></trkpt><trkpt lat="45.1119597" lon="9.4534418"><ele>49.0</ele><time>2026-04-25T12:27:47.153Z</time></trkpt><trkpt lat="45.1120847" lon="9.4536133"><ele>49.0</ele><time>2026-04-25T12:27:48.153Z</time></trkpt><trkpt lat="45.1122219" lon="9.4537809"><ele>49.0</ele><time>2026-04-25T12:27:49.153Z</time></trkpt><trkpt lat="45.1123617" lon="9.4539461"><ele>49.0</ele><time>2026-04-25T12:27:50.152Z</time></trkpt><trkpt lat="45.1125013" lon="9.4541113"><ele>49.0</ele><time>2026-04-25T12:27:51.152Z</time></trkpt><trkpt lat="45.1126412" lon="9.4542773"><ele>49.0</ele><time>2026-04-25T12:27:52.152Z</time></trkpt><trkpt lat="45.1127833" lon="9.4544463"><ele>49.0</ele><time>2026-04-25T12:27:53.153Z</time></trkpt><trkpt lat="45.1129244" lon="9.4546182"><ele>49.0</ele><time>2026-04-25T12:27:54.153Z</time></trkpt><trkpt lat="45.1130636" lon="9.4547848"><ele>49.0</ele><time>2026-04-25T12:27:55.153Z</time></trkpt><trkpt lat="45.1132006" lon="9.4549594"><ele>49.33333333333333</ele><time>2026-04-25T12:27:56.153Z</time></trkpt><trkpt lat="45.1133331" lon="9.4551391"><ele>49.66666666666667</ele><time>2026-04-25T12:27:57.153Z</time></trkpt><trkpt lat="45.1134583" lon="9.4553305"><ele>50.0</ele><time>2026-04-25T12:27:58.154Z</time></trkpt><trkpt lat="45.1135744" lon="9.4555282"><ele>50.0</ele><time>2026-04-25T12:27:59.153Z</time></trkpt><trkpt lat="45.1136893" lon="9.4557266"><ele>50.0</ele><time>2026-04-25T12:28:00.153Z</time></trkpt><trkpt lat="45.1138103" lon="9.455925"><ele>50.0</ele><time>2026-04-25T12:28:01.152Z</time></trkpt><trkpt lat="45.1139285" lon="9.4561223"><ele>49.66666666666667</ele><time>2026-04-25T12:28:02.154Z</time></trkpt><trkpt lat="45.1140488" lon="9.4563201"><ele>49.33333333333333</ele><time>2026-04-25T12:28:03.153Z</time></trkpt><trkpt lat="45.1141695" lon="9.4565196"><ele>49.0</ele><time>2026-04-25T12:28:04.152Z</time></trkpt><trkpt lat="45.1142904" lon="9.4567199"><ele>49.0</ele><time>2026-04-25T12:28:05.152Z</time></trkpt><trkpt lat="45.114411" lon="9.4569169"><ele>49.0</ele><time>2026-04-25T12:28:06.153Z</time></trkpt><trkpt lat="45.1145376" lon="9.4571124"><ele>49.0</ele><time>2026-04-25T12:28:07.152Z</time></trkpt><trkpt lat="45.1146635" lon="9.4573064"><ele>49.0</ele><time>2026-04-25T12:28:08.154Z</time></trkpt><trkpt lat="45.1147884" lon="9.4575031"><ele>49.0</ele><time>2026-04-25T12:28:09.153Z</time></trkpt><trkpt lat="45.1149131" lon="9.4576987"><ele>49.0</ele><time>2026-04-25T12:28:10.153Z</time></trkpt><trkpt lat="45.1150417" lon="9.4578888"><ele>49.0</ele><time>2026-04-25T12:28:11.152Z</time></trkpt><trkpt lat="45.115171" lon="9.4580796"><ele>49.0</ele><time>2026-04-25T12:28:12.154Z</time></trkpt><trkpt lat="45.1153001" lon="9.4582742"><ele>49.0</ele><time>2026-04-25T12:28:13.152Z</time></trkpt><trkpt lat="45.1154271" lon="9.4584682"><ele>49.0</ele><time>2026-04-25T12:28:14.152Z</time></trkpt><trkpt lat="45.115557" lon="9.4586635"><ele>49.0</ele><time>2026-04-25T12:28:15.153Z</time></trkpt><trkpt lat="45.1156866" lon="9.45886"><ele>49.0</ele><time>2026-04-25T12:28:16.153Z</time></trkpt><trkpt lat="45.1158149" lon="9.459054"><ele>49.0</ele><time>2026-04-25T12:28:17.152Z</time></trkpt><trkpt lat="45.115945" lon="9.4592487"><ele>49.0</ele><time>2026-04-25T12:28:18.153Z</time></trkpt><trkpt lat="45.1160757" lon="9.4594456"><ele>49.0</ele><time>2026-04-25T12:28:19.153Z</time></trkpt><trkpt lat="45.1162079" lon="9.4596396"><ele>49.0</ele><time>2026-04-25T12:28:20.154Z</time></trkpt><trkpt lat="45.1163393" lon="9.4598345"><ele>49.0</ele><time>2026-04-25T12:28:21.153Z</time></trkpt><trkpt lat="45.1164711" lon="9.4600298"><ele>49.0</ele><time>2026-04-25T12:28:22.153Z</time></trkpt><trkpt lat="45.1166034" lon="9.4602298"><ele>49.0</ele><time>2026-04-25T12:28:23.152Z</time></trkpt><trkpt lat="45.1167357" lon="9.4604254"><ele>49.0</ele><time>2026-04-25T12:28:24.153Z</time></trkpt><trkpt lat="45.1168649" lon="9.4606182"><ele>49.0</ele><time>2026-04-25T12:28:25.154Z</time></trkpt><trkpt lat="45.1169896" lon="9.4608045"><ele>49.0</ele><time>2026-04-25T12:28:26.152Z</time></trkpt><trkpt lat="45.1171071" lon="9.4609851"><ele>49.0</ele><time>2026-04-25T12:28:27.152Z</time></trkpt><trkpt lat="45.1172185" lon="9.4611626"><ele>49.0</ele><time>2026-04-25T12:28:28.153Z</time></trkpt><trkpt lat="45.1173206" lon="9.4613393"><ele>49.0</ele><time>2026-04-25T12:28:29.152Z</time></trkpt><trkpt lat="45.1174179" lon="9.4615111"><ele>49.0</ele><time>2026-04-25T12:28:30.153Z</time></trkpt><trkpt lat="45.1175116" lon="9.461688"><ele>49.0</ele><time>2026-04-25T12:28:31.153Z</time></trkpt><trkpt lat="45.1176026" lon="9.4618708"><ele>49.0</ele><time>2026-04-25T12:28:32.152Z</time></trkpt><trkpt lat="45.1176961" lon="9.4620566"><ele>49.0</ele><time>2026-04-25T12:28:33.152Z</time></trkpt><trkpt lat="45.1177903" lon="9.4622468"><ele>49.0</ele><time>2026-04-25T12:28:34.154Z</time></trkpt><trkpt lat="45.117884" lon="9.4624399"><ele>48.666666666666664</ele><time>2026-04-25T12:28:35.153Z</time></trkpt><trkpt lat="45.1179801" lon="9.4626336"><ele>48.33333333333333</ele><time>2026-04-25T12:28:36.153Z</time></trkpt><trkpt lat="45.1180727" lon="9.4628227"><ele>48.0</ele><time>2026-04-25T12:28:37.153Z</time></trkpt><trkpt lat="45.1181637" lon="9.4630118"><ele>48.0</ele><time>2026-04-25T12:28:38.153Z</time></trkpt><trkpt lat="45.11826" lon="9.4631953"><ele>48.0</ele><time>2026-04-25T12:28:39.152Z</time></trkpt><trkpt lat="45.1183612" lon="9.4633698"><ele>48.0</ele><time>2026-04-25T12:28:40.153Z</time></trkpt><trkpt lat="45.1184684" lon="9.4635365"><ele>48.0</ele><time>2026-04-25T12:28:41.153Z</time></trkpt><trkpt lat="45.1185847" lon="9.4636867"><ele>48.0</ele><time>2026-04-25T12:28:42.152Z</time></trkpt><trkpt lat="45.1187079" lon="9.4638274"><ele>48.0</ele><time>2026-04-25T12:28:43.153Z</time></trkpt><trkpt lat="45.118839" lon="9.4639591"><ele>47.666666666666664</ele><time>2026-04-25T12:28:44.152Z</time></trkpt><trkpt lat="45.1189732" lon="9.4640744"><ele>47.33333333333333</ele><time>2026-04-25T12:28:45.153Z</time></trkpt><trkpt lat="45.1191165" lon="9.4641746"><ele>47.0</ele><time>2026-04-25T12:28:46.154Z</time></trkpt><trkpt lat="45.1192642" lon="9.4642601"><ele>46.666666666666664</ele><time>2026-04-25T12:28:47.153Z</time></trkpt><trkpt lat="45.119416" lon="9.4643316"><ele>46.333333333333336</ele><time>2026-04-25T12:28:48.152Z</time></trkpt><trkpt lat="45.1195746" lon="9.4643935"><ele>46.0</ele><time>2026-04-25T12:28:49.153Z</time></trkpt><trkpt lat="45.1197371" lon="9.4644396"><ele>46.0</ele><time>2026-04-25T12:28:50.154Z</time></trkpt><trkpt lat="45.1198989" lon="9.4644833"><ele>46.0</ele><time>2026-04-25T12:28:51.154Z</time></trkpt><trkpt lat="45.1200639" lon="9.4645178"><ele>46.0</ele><time>2026-04-25T12:28:52.152Z</time></trkpt><trkpt lat="45.1202275" lon="9.4645568"><ele>46.333333333333336</ele><time>2026-04-25T12:28:53.153Z</time></trkpt><trkpt lat="45.1204046" lon="9.464598"><ele>46.666666666666664</ele><time>2026-04-25T12:28:54.154Z</time></trkpt><trkpt lat="45.1205863" lon="9.4646386"><ele>47.0</ele><time>2026-04-25T12:28:55.153Z</time></trkpt><trkpt lat="45.1207751" lon="9.4646779"><ele>48.0</ele><time>2026-04-25T12:28:56.153Z</time></trkpt><trkpt lat="45.1209672" lon="9.4647253"><ele>49.0</ele><time>2026-04-25T12:28:57.152Z</time></trkpt><trkpt lat="45.1211635" lon="9.4647691"><ele>50.0</ele><time>2026-04-25T12:28:58.154Z</time></trkpt><trkpt lat="45.12136" lon="9.4648105"><ele>50.0</ele><time>2026-04-25T12:28:59.153Z</time></trkpt><trkpt lat="45.1215533" lon="9.4648538"><ele>50.0</ele><time>2026-04-25T12:29:00.153Z</time></trkpt><trkpt lat="45.1217466" lon="9.4648946"><ele>50.0</ele><time>2026-04-25T12:29:01.152Z</time></trkpt><trkpt lat="45.1219437" lon="9.4649403"><ele>50.0</ele><time>2026-04-25T12:29:02.153Z</time></trkpt><trkpt lat="45.1221426" lon="9.4649811"><ele>50.0</ele><time>2026-04-25T12:29:03.153Z</time></trkpt><trkpt lat="45.1223391" lon="9.4650198"><ele>50.0</ele><time>2026-04-25T12:29:04.153Z</time></trkpt><trkpt lat="45.1225421" lon="9.4650588"><ele>50.0</ele><time>2026-04-25T12:29:05.153Z</time></trkpt><trkpt lat="45.1227453" lon="9.4651"><ele>50.0</ele><time>2026-04-25T12:29:06.153Z</time></trkpt><trkpt lat="45.1229447" lon="9.4651443"><ele>50.0</ele><time>2026-04-25T12:29:07.153Z</time></trkpt><trkpt lat="45.1231445" lon="9.4651965"><ele>49.0</ele><time>2026-04-25T12:29:08.154Z</time></trkpt><trkpt lat="45.1233444" lon="9.4652487"><ele>48.0</ele><time>2026-04-25T12:29:09.153Z</time></trkpt><trkpt lat="45.1235496" lon="9.465304"><ele>47.0</ele><time>2026-04-25T12:29:10.154Z</time></trkpt><trkpt lat="45.123721" lon="9.4653565"><ele>47.0</ele><time>2026-04-25T12:29:11.153Z</time></trkpt><trkpt lat="45.1239046" lon="9.4654217"><ele>47.0</ele><time>2026-04-25T12:29:12.152Z</time></trkpt><trkpt lat="45.1240832" lon="9.4654982"><ele>47.0</ele><time>2026-04-25T12:29:13.152Z</time></trkpt><trkpt lat="45.1242571" lon="9.465588"><ele>47.33333333333333</ele><time>2026-04-25T12:29:14.153Z</time></trkpt><trkpt lat="45.1244293" lon="9.4656786"><ele>47.666666666666664</ele><time>2026-04-25T12:29:15.152Z</time></trkpt><trkpt lat="45.1246017" lon="9.4657753"><ele>48.0</ele><time>2026-04-25T12:29:16.153Z</time></trkpt><trkpt lat="45.1247727" lon="9.4658776"><ele>48.33333333333333</ele><time>2026-04-25T12:29:17.154Z</time></trkpt><trkpt lat="45.1249427" lon="9.4659855"><ele>48.666666666666664</ele><time>2026-04-25T12:29:18.153Z</time></trkpt><trkpt lat="45.1251156" lon="9.4660966"><ele>49.0</ele><time>2026-04-25T12:29:19.154Z</time></trkpt><trkpt lat="45.1252872" lon="9.466212"><ele>49.33333333333333</ele><time>2026-04-25T12:29:20.152Z</time></trkpt><trkpt lat="45.1254579" lon="9.4663289"><ele>49.66666666666667</ele><time>2026-04-25T12:29:21.152Z</time></trkpt><trkpt lat="45.1256296" lon="9.4664466"><ele>50.0</ele><time>2026-04-25T12:29:22.153Z</time></trkpt><trkpt lat="45.1257998" lon="9.4665648"><ele>49.333333333333336</ele><time>2026-04-25T12:29:23.152Z</time></trkpt><trkpt lat="45.1259735" lon="9.4666856"><ele>48.66666666666667</ele><time>2026-04-25T12:29:24.153Z</time></trkpt><trkpt lat="45.1261496" lon="9.4667932"><ele>48.0</ele><time>2026-04-25T12:29:25.153Z</time></trkpt><trkpt lat="45.1263279" lon="9.4669175"><ele>48.0</ele><time>2026-04-25T12:29:26.153Z</time></trkpt><trkpt lat="45.1265026" lon="9.4670411"><ele>48.0</ele><time>2026-04-25T12:29:27.153Z</time></trkpt><trkpt lat="45.1266826" lon="9.4671648"><ele>48.0</ele><time>2026-04-25T12:29:28.152Z</time></trkpt><trkpt lat="45.1268605" lon="9.4672899"><ele>47.666666666666664</ele><time>2026-04-25T12:29:29.153Z</time></trkpt><trkpt lat="45.1270427" lon="9.4674136"><ele>47.33333333333333</ele><time>2026-04-25T12:29:30.153Z</time></trkpt><trkpt lat="45.1272223" lon="9.467535"><ele>47.0</ele><time>2026-04-25T12:29:31.153Z</time></trkpt><trkpt lat="45.1274062" lon="9.4676589"><ele>46.666666666666664</ele><time>2026-04-25T12:29:32.153Z</time></trkpt><trkpt lat="45.127588" lon="9.4677832"><ele>46.333333333333336</ele><time>2026-04-25T12:29:33.152Z</time></trkpt><trkpt lat="45.1277718" lon="9.4679071"><ele>46.0</ele><time>2026-04-25T12:29:34.152Z</time></trkpt><trkpt lat="45.1279553" lon="9.468032"><ele>46.66666666666667</ele><time>2026-04-25T12:29:35.153Z</time></trkpt><trkpt lat="45.1281398" lon="9.4681544"><ele>47.333333333333336</ele><time>2026-04-25T12:29:36.153Z</time></trkpt><trkpt lat="45.1283099" lon="9.4682731"><ele>48.0</ele><time>2026-04-25T12:29:37.152Z</time></trkpt><trkpt lat="45.1284755" lon="9.4683989"><ele>48.0</ele><time>2026-04-25T12:29:38.152Z</time></trkpt><trkpt lat="45.1286394" lon="9.4685371"><ele>48.0</ele><time>2026-04-25T12:29:39.152Z</time></trkpt><trkpt lat="45.1288001" lon="9.468687"><ele>48.0</ele><time>2026-04-25T12:29:40.152Z</time></trkpt><trkpt lat="45.1289544" lon="9.4688442"><ele>48.66666666666667</ele><time>2026-04-25T12:29:41.153Z</time></trkpt><trkpt lat="45.1291036" lon="9.4690123"><ele>49.333333333333336</ele><time>2026-04-25T12:29:42.153Z</time></trkpt><trkpt lat="45.1292415" lon="9.4691933"><ele>50.0</ele><time>2026-04-25T12:29:43.153Z</time></trkpt><trkpt lat="45.1293798" lon="9.4693842"><ele>50.0</ele><time>2026-04-25T12:29:44.153Z</time></trkpt><trkpt lat="45.1295148" lon="9.46958"><ele>50.0</ele><time>2026-04-25T12:29:45.152Z</time></trkpt><trkpt lat="45.1296454" lon="9.4697777"><ele>50.0</ele><time>2026-04-25T12:29:46.153Z</time></trkpt><trkpt lat="45.1297712" lon="9.4699651"><ele>49.66666666666667</ele><time>2026-04-25T12:29:47.153Z</time></trkpt><trkpt lat="45.1299074" lon="9.470163"><ele>49.33333333333333</ele><time>2026-04-25T12:29:48.153Z</time></trkpt><trkpt lat="45.1300437" lon="9.4703611"><ele>49.0</ele><time>2026-04-25T12:29:49.153Z</time></trkpt><trkpt lat="45.1301804" lon="9.4705583"><ele>49.0</ele><time>2026-04-25T12:29:50.153Z</time></trkpt><trkpt lat="45.130317" lon="9.4707542"><ele>49.0</ele><time>2026-04-25T12:29:51.152Z</time></trkpt><trkpt lat="45.1304579" lon="9.4709529"><ele>49.0</ele><time>2026-04-25T12:29:52.152Z</time></trkpt><trkpt lat="45.1305939" lon="9.4711512"><ele>48.666666666666664</ele><time>2026-04-25T12:29:53.152Z</time></trkpt><trkpt lat="45.1307318" lon="9.4713538"><ele>48.33333333333333</ele><time>2026-04-25T12:29:54.153Z</time></trkpt><trkpt lat="45.130867" lon="9.4715643"><ele>48.0</ele><time>2026-04-25T12:29:55.154Z</time></trkpt><trkpt lat="45.1310031" lon="9.4717794"><ele>48.0</ele><time>2026-04-25T12:29:56.153Z</time></trkpt><trkpt lat="45.1311457" lon="9.4719782"><ele>48.0</ele><time>2026-04-25T12:29:57.153Z</time></trkpt><trkpt lat="45.1312951" lon="9.472182"><ele>48.0</ele><time>2026-04-25T12:29:58.152Z</time></trkpt><trkpt lat="45.1314357" lon="9.472399"><ele>48.0</ele><time>2026-04-25T12:29:59.154Z</time></trkpt><trkpt lat="45.1315693" lon="9.4726163"><ele>48.0</ele><time>2026-04-25T12:30:00.152Z</time></trkpt><trkpt lat="45.1317163" lon="9.4728201"><ele>48.0</ele><time>2026-04-25T12:30:01.153Z</time></trkpt><trkpt lat="45.1318555" lon="9.4730268"><ele>47.666666666666664</ele><time>2026-04-25T12:30:02.154Z</time></trkpt><trkpt lat="45.1319934" lon="9.4732302"><ele>47.33333333333333</ele><time>2026-04-25T12:30:03.153Z</time></trkpt><trkpt lat="45.132137" lon="9.4734351"><ele>47.0</ele><time>2026-04-25T12:30:04.152Z</time></trkpt><trkpt lat="45.1322756" lon="9.4736409"><ele>47.666666666666664</ele><time>2026-04-25T12:30:05.153Z</time></trkpt><trkpt lat="45.1324201" lon="9.4738447"><ele>48.33333333333333</ele><time>2026-04-25T12:30:06.153Z</time></trkpt><trkpt lat="45.1325549" lon="9.4740588"><ele>49.0</ele><time>2026-04-25T12:30:07.153Z</time></trkpt><trkpt lat="45.1326805" lon="9.4742546"><ele>49.0</ele><time>2026-04-25T12:30:08.153Z</time></trkpt><trkpt lat="45.1328004" lon="9.4744694"><ele>49.0</ele><time>2026-04-25T12:30:09.153Z</time></trkpt><trkpt lat="45.1329171" lon="9.4746793"><ele>49.0</ele><time>2026-04-25T12:30:10.153Z</time></trkpt><trkpt lat="45.1330375" lon="9.4748926"><ele>49.0</ele><time>2026-04-25T12:30:11.154Z</time></trkpt><trkpt lat="45.1331567" lon="9.4751003"><ele>49.0</ele><time>2026-04-25T12:30:12.152Z</time></trkpt><trkpt lat="45.1332718" lon="9.4753096"><ele>49.0</ele><time>2026-04-25T12:30:13.153Z</time></trkpt><trkpt lat="45.133387" lon="9.4755193"><ele>48.666666666666664</ele><time>2026-04-25T12:30:14.153Z</time></trkpt><trkpt lat="45.1334985" lon="9.4757334"><ele>48.33333333333333</ele><time>2026-04-25T12:30:15.154Z</time></trkpt><trkpt lat="45.1336159" lon="9.4759441"><ele>48.0</ele><time>2026-04-25T12:30:16.153Z</time></trkpt><trkpt lat="45.1337294" lon="9.4761582"><ele>48.33333333333333</ele><time>2026-04-25T12:30:17.153Z</time></trkpt><trkpt lat="45.1338451" lon="9.4763704"><ele>48.666666666666664</ele><time>2026-04-25T12:30:18.153Z</time></trkpt><trkpt lat="45.133967" lon="9.476576"><ele>49.0</ele><time>2026-04-25T12:30:19.153Z</time></trkpt><trkpt lat="45.1341004" lon="9.4767635"><ele>49.0</ele><time>2026-04-25T12:30:20.153Z</time></trkpt><trkpt lat="45.1342355" lon="9.47695"><ele>49.0</ele><time>2026-04-25T12:30:21.153Z</time></trkpt><trkpt lat="45.1343781" lon="9.4771516"><ele>49.0</ele><time>2026-04-25T12:30:22.153Z</time></trkpt><trkpt lat="45.1345113" lon="9.4773172"><ele>49.0</ele><time>2026-04-25T12:30:23.152Z</time></trkpt><trkpt lat="45.1346543" lon="9.4775033"><ele>49.0</ele><time>2026-04-25T12:30:24.153Z</time></trkpt><trkpt lat="45.1347999" lon="9.4776862"><ele>49.0</ele><time>2026-04-25T12:30:25.154Z</time></trkpt><trkpt lat="45.1349516" lon="9.4778543"><ele>49.33333333333333</ele><time>2026-04-25T12:30:26.153Z</time></trkpt><trkpt lat="45.1351118" lon="9.4780329"><ele>49.66666666666667</ele><time>2026-04-25T12:30:27.152Z</time></trkpt><trkpt lat="45.1352337" lon="9.4782176"><ele>50.0</ele><time>2026-04-25T12:30:28.153Z</time></trkpt><trkpt lat="45.1353729" lon="9.4783968"><ele>50.0</ele><time>2026-04-25T12:30:29.153Z</time></trkpt><trkpt lat="45.1355007" lon="9.4786003"><ele>50.0</ele><time>2026-04-25T12:30:30.152Z</time></trkpt><trkpt lat="45.135588" lon="9.4788385"><ele>50.0</ele><time>2026-04-25T12:30:31.153Z</time></trkpt><trkpt lat="45.1356898" lon="9.4790666"><ele>50.0</ele><time>2026-04-25T12:30:32.153Z</time></trkpt><trkpt lat="45.1358033" lon="9.4792942"><ele>50.0</ele><time>2026-04-25T12:30:33.152Z</time></trkpt><trkpt lat="45.1359733" lon="9.4794949"><ele>50.0</ele><time>2026-04-25T12:30:34.153Z</time></trkpt><trkpt lat="45.1361498" lon="9.4796851"><ele>50.0</ele><time>2026-04-25T12:30:35.153Z</time></trkpt><trkpt lat="45.1363462" lon="9.4798644"><ele>50.0</ele><time>2026-04-25T12:30:36.153Z</time></trkpt><trkpt lat="45.13654" lon="9.4800561"><ele>49.5</ele><time>2026-04-25T12:30:37.153Z</time></trkpt><trkpt lat="45.1367311" lon="9.4802674"><ele>49.0</ele><time>2026-04-25T12:30:38.153Z</time></trkpt><trkpt lat="45.1369099" lon="9.4804973"><ele>49.0</ele><time>2026-04-25T12:30:39.154Z</time></trkpt><trkpt lat="45.1370755" lon="9.4807464"><ele>49.0</ele><time>2026-04-25T12:30:40.153Z</time></trkpt><trkpt lat="45.1372351" lon="9.4810062"><ele>49.5</ele><time>2026-04-25T12:30:41.153Z</time></trkpt><trkpt lat="45.1373954" lon="9.4812679"><ele>50.0</ele><time>2026-04-25T12:30:42.153Z</time></trkpt><trkpt lat="45.1375588" lon="9.4815272"><ele>50.0</ele><time>2026-04-25T12:30:43.153Z</time></trkpt><trkpt lat="45.1377224" lon="9.4817869"><ele>50.0</ele><time>2026-04-25T12:30:44.152Z</time></trkpt><trkpt lat="45.1378853" lon="9.4820462"><ele>50.0</ele><time>2026-04-25T12:30:45.152Z</time></trkpt><trkpt lat="45.1380455" lon="9.4823043"><ele>50.0</ele><time>2026-04-25T12:30:46.152Z</time></trkpt><trkpt lat="45.1382061" lon="9.4825617"><ele>50.0</ele><time>2026-04-25T12:30:47.152Z</time></trkpt><trkpt lat="45.1383738" lon="9.4828243"><ele>50.0</ele><time>2026-04-25T12:30:48.152Z</time></trkpt><trkpt lat="45.1385268" lon="9.4830788"><ele>50.0</ele><time>2026-04-25T12:30:49.153Z</time></trkpt><trkpt lat="45.1386906" lon="9.4833337"><ele>50.0</ele><time>2026-04-25T12:30:50.153Z</time></trkpt><trkpt lat="45.1388508" lon="9.4835905"><ele>50.0</ele><time>2026-04-25T12:30:51.153Z</time></trkpt><trkpt lat="45.1390097" lon="9.483848"><ele>50.0</ele><time>2026-04-25T12:30:52.152Z</time></trkpt><trkpt lat="45.1391698" lon="9.4840984"><ele>50.0</ele><time>2026-04-25T12:30:53.153Z</time></trkpt><trkpt lat="45.1393316" lon="9.4843604"><ele>50.0</ele><time>2026-04-25T12:30:54.154Z</time></trkpt><trkpt lat="45.1394927" lon="9.4846142"><ele>49.5</ele><time>2026-04-25T12:30:55.153Z</time></trkpt><trkpt lat="45.1396522" lon="9.4848713"><ele>49.0</ele><time>2026-04-25T12:30:56.153Z</time></trkpt><trkpt lat="45.1398138" lon="9.4851347"><ele>49.0</ele><time>2026-04-25T12:30:57.153Z</time></trkpt><trkpt lat="45.1399744" lon="9.4853895"><ele>49.0</ele><time>2026-04-25T12:30:58.154Z</time></trkpt><trkpt lat="45.140133" lon="9.485647"><ele>48.5</ele><time>2026-04-25T12:30:59.153Z</time></trkpt><trkpt lat="45.1402933" lon="9.4859053"><ele>48.0</ele><time>2026-04-25T12:31:00.153Z</time></trkpt><trkpt lat="45.1404533" lon="9.4861579"><ele>48.5</ele><time>2026-04-25T12:31:01.153Z</time></trkpt><trkpt lat="45.1406153" lon="9.4864133"><ele>49.0</ele><time>2026-04-25T12:31:02.152Z</time></trkpt><trkpt lat="45.1407737" lon="9.4866677"><ele>49.5</ele><time>2026-04-25T12:31:03.153Z</time></trkpt><trkpt lat="45.1409306" lon="9.4869263"><ele>50.0</ele><time>2026-04-25T12:31:04.153Z</time></trkpt><trkpt lat="45.1411003" lon="9.4871815"><ele>50.0</ele><time>2026-04-25T12:31:05.154Z</time></trkpt><trkpt lat="45.141243" lon="9.4874252"><ele>50.0</ele><time>2026-04-25T12:31:06.153Z</time></trkpt><trkpt lat="45.1413927" lon="9.4876745"><ele>50.0</ele><time>2026-04-25T12:31:07.153Z</time></trkpt><trkpt lat="45.1415429" lon="9.4879057"><ele>50.0</ele><time>2026-04-25T12:31:08.153Z</time></trkpt><trkpt lat="45.1416854" lon="9.4881363"><ele>50.0</ele><time>2026-04-25T12:31:09.152Z</time></trkpt><trkpt lat="45.1418181" lon="9.4883529"><ele>50.0</ele><time>2026-04-25T12:31:10.154Z</time></trkpt><trkpt lat="45.1419586" lon="9.4885554"><ele>50.0</ele><time>2026-04-25T12:31:11.153Z</time></trkpt><trkpt lat="45.1421126" lon="9.4887954"><ele>50.0</ele><time>2026-04-25T12:31:12.153Z</time></trkpt><trkpt lat="45.1422563" lon="9.4890123"><ele>49.5</ele><time>2026-04-25T12:31:13.154Z</time></trkpt><trkpt lat="45.1424162" lon="9.4892946"><ele>49.0</ele><time>2026-04-25T12:31:14.153Z</time></trkpt><trkpt lat="45.1425803" lon="9.4895843"><ele>48.5</ele><time>2026-04-25T12:31:15.152Z</time></trkpt><trkpt lat="45.1427481" lon="9.4898349"><ele>48.0</ele><time>2026-04-25T12:31:16.153Z</time></trkpt><trkpt lat="45.1429127" lon="9.4901235"><ele>48.0</ele><time>2026-04-25T12:31:17.152Z</time></trkpt><trkpt lat="45.143063" lon="9.4903615"><ele>48.0</ele><time>2026-04-25T12:31:18.152Z</time></trkpt><trkpt lat="45.1432257" lon="9.4906178"><ele>51.0</ele><time>2026-04-25T12:31:19.153Z</time></trkpt><trkpt lat="45.1433862" lon="9.4908731"><ele>54.0</ele><time>2026-04-25T12:31:20.153Z</time></trkpt><trkpt lat="45.1435461" lon="9.4911252"><ele>52.5</ele><time>2026-04-25T12:31:21.153Z</time></trkpt><trkpt lat="45.1437016" lon="9.4913775"><ele>51.0</ele><time>2026-04-25T12:31:22.153Z</time></trkpt><trkpt lat="45.1438627" lon="9.4916288"><ele>51.0</ele><time>2026-04-25T12:31:23.154Z</time></trkpt><trkpt lat="45.1440188" lon="9.4918807"><ele>51.0</ele><time>2026-04-25T12:31:24.153Z</time></trkpt><trkpt lat="45.1441736" lon="9.4921342"><ele>50.5</ele><time>2026-04-25T12:31:25.152Z</time></trkpt><trkpt lat="45.1443258" lon="9.4923859"><ele>50.0</ele><time>2026-04-25T12:31:26.152Z</time></trkpt><trkpt lat="45.1444803" lon="9.492637"><ele>50.0</ele><time>2026-04-25T12:31:27.153Z</time></trkpt><trkpt lat="45.1446353" lon="9.4928772"><ele>50.0</ele><time>2026-04-25T12:31:28.152Z</time></trkpt><trkpt lat="45.1447895" lon="9.4931232"><ele>50.5</ele><time>2026-04-25T12:31:29.152Z</time></trkpt><trkpt lat="45.1449404" lon="9.493372"><ele>51.0</ele><time>2026-04-25T12:31:30.153Z</time></trkpt><trkpt lat="45.1451015" lon="9.4936395"><ele>53.0</ele><time>2026-04-25T12:31:31.152Z</time></trkpt><trkpt lat="45.1452707" lon="9.4939112"><ele>55.0</ele><time>2026-04-25T12:31:32.153Z</time></trkpt><trkpt lat="45.1454308" lon="9.4941781"><ele>55.0</ele><time>2026-04-25T12:31:33.153Z</time></trkpt><trkpt lat="45.1455942" lon="9.4944602"><ele>55.0</ele><time>2026-04-25T12:31:34.152Z</time></trkpt><trkpt lat="45.1457686" lon="9.4947344"><ele>53.0</ele><time>2026-04-25T12:31:35.152Z</time></trkpt><trkpt lat="45.1459369" lon="9.494998"><ele>51.0</ele><time>2026-04-25T12:31:36.152Z</time></trkpt><trkpt lat="45.1461129" lon="9.4952587"><ele>50.5</ele><time>2026-04-25T12:31:37.153Z</time></trkpt><trkpt lat="45.1462827" lon="9.4955077"><ele>50.0</ele><time>2026-04-25T12:31:38.153Z</time></trkpt><trkpt lat="45.146439" lon="9.4957331"><ele>50.0</ele><time>2026-04-25T12:31:39.153Z</time></trkpt><trkpt lat="45.146586" lon="9.4959811"><ele>50.0</ele><time>2026-04-25T12:31:40.153Z</time></trkpt><trkpt lat="45.1467477" lon="9.4962321"><ele>50.5</ele><time>2026-04-25T12:31:41.153Z</time></trkpt><trkpt lat="45.1468925" lon="9.4964847"><ele>51.0</ele><time>2026-04-25T12:31:42.153Z</time></trkpt><trkpt lat="45.1470325" lon="9.49673"><ele>51.0</ele><time>2026-04-25T12:31:43.152Z</time></trkpt><trkpt lat="45.1471751" lon="9.4969705"><ele>51.0</ele><time>2026-04-25T12:31:44.152Z</time></trkpt><trkpt lat="45.1473162" lon="9.4972055"><ele>51.0</ele><time>2026-04-25T12:31:45.153Z</time></trkpt><trkpt lat="45.1474567" lon="9.4974269"><ele>50.33333333333333</ele><time>2026-04-25T12:31:46.152Z</time></trkpt><trkpt lat="45.1475914" lon="9.4976471"><ele>49.666666666666664</ele><time>2026-04-25T12:31:47.153Z</time></trkpt><trkpt lat="45.1477421" lon="9.4978701"><ele>49.0</ele><time>2026-04-25T12:31:48.152Z</time></trkpt><trkpt lat="45.1478893" lon="9.4980966"><ele>49.0</ele><time>2026-04-25T12:31:49.152Z</time></trkpt><trkpt lat="45.1480321" lon="9.4983275"><ele>49.0</ele><time>2026-04-25T12:31:50.152Z</time></trkpt><trkpt lat="45.1481519" lon="9.4985321"><ele>49.0</ele><time>2026-04-25T12:31:51.154Z</time></trkpt><trkpt lat="45.1482951" lon="9.4987342"><ele>48.666666666666664</ele><time>2026-04-25T12:31:52.153Z</time></trkpt><trkpt lat="45.148438" lon="9.4989341"><ele>48.33333333333333</ele><time>2026-04-25T12:31:53.153Z</time></trkpt><trkpt lat="45.1485842" lon="9.4991364"><ele>48.0</ele><time>2026-04-25T12:31:54.153Z</time></trkpt><trkpt lat="45.1487351" lon="9.4993313"><ele>48.0</ele><time>2026-04-25T12:31:55.152Z</time></trkpt><trkpt lat="45.1488944" lon="9.4995176"><ele>48.0</ele><time>2026-04-25T12:31:56.154Z</time></trkpt><trkpt lat="45.1490615" lon="9.4996915"><ele>48.0</ele><time>2026-04-25T12:31:57.152Z</time></trkpt><trkpt lat="45.1492315" lon="9.4998556"><ele>48.0</ele><time>2026-04-25T12:31:58.153Z</time></trkpt><trkpt lat="45.1494078" lon="9.5000106"><ele>48.0</ele><time>2026-04-25T12:31:59.153Z</time></trkpt><trkpt lat="45.1495821" lon="9.5001605"><ele>48.0</ele><time>2026-04-25T12:32:00.152Z</time></trkpt><trkpt lat="45.1497597" lon="9.5003025"><ele>48.66666666666667</ele><time>2026-04-25T12:32:01.153Z</time></trkpt><trkpt lat="45.1499453" lon="9.5004337"><ele>49.333333333333336</ele><time>2026-04-25T12:32:02.153Z</time></trkpt><trkpt lat="45.1501355" lon="9.500552"><ele>50.0</ele><time>2026-04-25T12:32:03.153Z</time></trkpt><trkpt lat="45.1503265" lon="9.5006582"><ele>50.0</ele><time>2026-04-25T12:32:04.152Z</time></trkpt><trkpt lat="45.1505211" lon="9.5007549"><ele>50.0</ele><time>2026-04-25T12:32:05.152Z</time></trkpt><trkpt lat="45.1507167" lon="9.5008487"><ele>50.0</ele><time>2026-04-25T12:32:06.152Z</time></trkpt><trkpt lat="45.1509273" lon="9.500914"><ele>50.0</ele><time>2026-04-25T12:32:07.154Z</time></trkpt><trkpt lat="45.1511295" lon="9.5009842"><ele>50.0</ele><time>2026-04-25T12:32:08.152Z</time></trkpt><trkpt lat="45.1513357" lon="9.501038"><ele>50.0</ele><time>2026-04-25T12:32:09.153Z</time></trkpt><trkpt lat="45.1515402" lon="9.5010734"><ele>49.333333333333336</ele><time>2026-04-25T12:32:10.152Z</time></trkpt><trkpt lat="45.1517444" lon="9.5011071"><ele>48.66666666666667</ele><time>2026-04-25T12:32:11.152Z</time></trkpt><trkpt lat="45.1519471" lon="9.5011306"><ele>48.0</ele><time>2026-04-25T12:32:12.153Z</time></trkpt><trkpt lat="45.1521578" lon="9.5011206"><ele>48.0</ele><time>2026-04-25T12:32:13.154Z</time></trkpt><trkpt lat="45.1523699" lon="9.5011195"><ele>48.0</ele><time>2026-04-25T12:32:14.154Z</time></trkpt><trkpt lat="45.1525803" lon="9.5011075"><ele>48.0</ele><time>2026-04-25T12:32:15.153Z</time></trkpt><trkpt lat="45.1527927" lon="9.5010888"><ele>48.0</ele><time>2026-04-25T12:32:16.154Z</time></trkpt><trkpt lat="45.1530014" lon="9.5010692"><ele>48.0</ele><time>2026-04-25T12:32:17.152Z</time></trkpt><trkpt lat="45.1532084" lon="9.5010443"><ele>48.0</ele><time>2026-04-25T12:32:18.152Z</time></trkpt><trkpt lat="45.1534158" lon="9.5010122"><ele>48.33333333333333</ele><time>2026-04-25T12:32:19.152Z</time></trkpt><trkpt lat="45.1536232" lon="9.5009643"><ele>48.666666666666664</ele><time>2026-04-25T12:32:20.154Z</time></trkpt><trkpt lat="45.1538283" lon="9.5009425"><ele>49.0</ele><time>2026-04-25T12:32:21.153Z</time></trkpt><trkpt lat="45.1540354" lon="9.5009088"><ele>49.33333333333333</ele><time>2026-04-25T12:32:22.152Z</time></trkpt><trkpt lat="45.1542425" lon="9.5008801"><ele>49.66666666666667</ele><time>2026-04-25T12:32:23.153Z</time></trkpt><trkpt lat="45.1544527" lon="9.5008504"><ele>50.0</ele><time>2026-04-25T12:32:24.153Z</time></trkpt><trkpt lat="45.1546379" lon="9.5008197"><ele>50.0</ele><time>2026-04-25T12:32:25.152Z</time></trkpt><trkpt lat="45.1548635" lon="9.5008019"><ele>50.0</ele><time>2026-04-25T12:32:26.153Z</time></trkpt><trkpt lat="45.1550593" lon="9.5007659"><ele>50.0</ele><time>2026-04-25T12:32:27.154Z</time></trkpt><trkpt lat="45.1552668" lon="9.5007267"><ele>50.66666666666667</ele><time>2026-04-25T12:32:28.152Z</time></trkpt><trkpt lat="45.1554677" lon="9.5007103"><ele>51.33333333333333</ele><time>2026-04-25T12:32:29.154Z</time></trkpt><trkpt lat="45.1556712" lon="9.5006827"><ele>52.0</ele><time>2026-04-25T12:32:30.154Z</time></trkpt><trkpt lat="45.1558721" lon="9.5006485"><ele>54.0</ele><time>2026-04-25T12:32:31.152Z</time></trkpt><trkpt lat="45.1560658" lon="9.5006277"><ele>56.0</ele><time>2026-04-25T12:32:32.152Z</time></trkpt><trkpt lat="45.1562623" lon="9.5005974"><ele>58.0</ele><time>2026-04-25T12:32:33.153Z</time></trkpt><trkpt lat="45.1564566" lon="9.5005642"><ele>59.0</ele><time>2026-04-25T12:32:34.152Z</time></trkpt><trkpt lat="45.1566532" lon="9.5005288"><ele>60.0</ele><time>2026-04-25T12:32:35.153Z</time></trkpt><trkpt lat="45.1568509" lon="9.5004936"><ele>61.0</ele><time>2026-04-25T12:32:36.153Z</time></trkpt><trkpt lat="45.157036" lon="9.5004644"><ele>61.0</ele><time>2026-04-25T12:32:37.152Z</time></trkpt><trkpt lat="45.1572355" lon="9.5004319"><ele>61.0</ele><time>2026-04-25T12:32:38.152Z</time></trkpt><trkpt lat="45.1574249" lon="9.5004022"><ele>61.0</ele><time>2026-04-25T12:32:39.152Z</time></trkpt><trkpt lat="45.1576144" lon="9.5003696"><ele>61.0</ele><time>2026-04-25T12:32:40.154Z</time></trkpt><trkpt lat="45.1578013" lon="9.5003315"><ele>61.0</ele><time>2026-04-25T12:32:41.153Z</time></trkpt><trkpt lat="45.1579708" lon="9.5003026"><ele>61.0</ele><time>2026-04-25T12:32:42.153Z</time></trkpt><trkpt lat="45.1581612" lon="9.5002908"><ele>62.0</ele><time>2026-04-25T12:32:43.153Z</time></trkpt><trkpt lat="45.1583674" lon="9.500252"><ele>63.0</ele><time>2026-04-25T12:32:44.151Z</time></trkpt><trkpt lat="45.1585644" lon="9.500225"><ele>64.0</ele><time>2026-04-25T12:32:45.152Z</time></trkpt><trkpt lat="45.1587611" lon="9.5001953"><ele>64.0</ele><time>2026-04-25T12:32:46.152Z</time></trkpt><trkpt lat="45.1589593" lon="9.5001622"><ele>64.0</ele><time>2026-04-25T12:32:47.151Z</time></trkpt><trkpt lat="45.1591524" lon="9.5001372"><ele>64.0</ele><time>2026-04-25T12:32:48.152Z</time></trkpt><trkpt lat="45.1593449" lon="9.5001167"><ele>63.666666666666664</ele><time>2026-04-25T12:32:49.151Z</time></trkpt><trkpt lat="45.1595581" lon="9.500054"><ele>63.33333333333333</ele><time>2026-04-25T12:32:50.152Z</time></trkpt><trkpt lat="45.1597555" lon="9.5000467"><ele>63.0</ele><time>2026-04-25T12:32:51.152Z</time></trkpt><trkpt lat="45.1599465" lon="9.5000065"><ele>64.0</ele><time>2026-04-25T12:32:52.153Z</time></trkpt><trkpt lat="45.1601398" lon="9.499968"><ele>65.0</ele><time>2026-04-25T12:32:53.152Z</time></trkpt><trkpt lat="45.1603424" lon="9.4999387"><ele>66.0</ele><time>2026-04-25T12:32:54.152Z</time></trkpt><trkpt lat="45.1605391" lon="9.4999085"><ele>66.33333333333333</ele><time>2026-04-25T12:32:55.151Z</time></trkpt><trkpt lat="45.1607341" lon="9.4998745"><ele>66.66666666666666</ele><time>2026-04-25T12:32:56.152Z</time></trkpt><trkpt lat="45.1609253" lon="9.4998402"><ele>67.0</ele><time>2026-04-25T12:32:57.152Z</time></trkpt><trkpt lat="45.161117" lon="9.499814"><ele>67.0</ele><time>2026-04-25T12:32:58.151Z</time></trkpt><trkpt lat="45.1613112" lon="9.49979"><ele>67.0</ele><time>2026-04-25T12:32:59.152Z</time></trkpt><trkpt lat="45.1614953" lon="9.4997622"><ele>67.0</ele><time>2026-04-25T12:33:00.151Z</time></trkpt><trkpt lat="45.1616848" lon="9.499733"><ele>66.66666666666666</ele><time>2026-04-25T12:33:01.153Z</time></trkpt><trkpt lat="45.1618583" lon="9.4997003"><ele>66.33333333333333</ele><time>2026-04-25T12:33:02.152Z</time></trkpt><trkpt lat="45.162002" lon="9.4996838"><ele>66.0</ele><time>2026-04-25T12:33:03.152Z</time></trkpt><trkpt lat="45.1621584" lon="9.4996629"><ele>66.0</ele><time>2026-04-25T12:33:04.153Z</time></trkpt><trkpt lat="45.1622961" lon="9.4996543"><ele>66.0</ele><time>2026-04-25T12:33:05.152Z</time></trkpt><trkpt lat="45.1624023" lon="9.499691"><ele>66.0</ele><time>2026-04-25T12:33:06.151Z</time></trkpt><trkpt lat="45.1625136" lon="9.4997294"><ele>66.0</ele><time>2026-04-25T12:33:07.151Z</time></trkpt><trkpt lat="45.1625929" lon="9.4997913"><ele>66.2</ele><time>2026-04-25T12:33:08.152Z</time></trkpt><trkpt lat="45.1626758" lon="9.4998751"><ele>66.39999999999999</ele><time>2026-04-25T12:33:09.153Z</time></trkpt><trkpt lat="45.1627289" lon="9.5000055"><ele>66.6</ele><time>2026-04-25T12:33:10.152Z</time></trkpt><trkpt lat="45.1627273" lon="9.5001452"><ele>66.8</ele><time>2026-04-25T12:33:11.151Z</time></trkpt><trkpt lat="45.1627376" lon="9.5002932"><ele>67.0</ele><time>2026-04-25T12:33:12.152Z</time></trkpt><trkpt lat="45.1627492" lon="9.5004463"><ele>67.0</ele><time>2026-04-25T12:33:13.151Z</time></trkpt><trkpt lat="45.1627593" lon="9.5006245"><ele>67.0</ele><time>2026-04-25T12:33:14.153Z</time></trkpt><trkpt lat="45.1627742" lon="9.5007884"><ele>67.0</ele><time>2026-04-25T12:33:15.153Z</time></trkpt><trkpt lat="45.1627709" lon="9.5010003"><ele>67.0</ele><time>2026-04-25T12:33:16.152Z</time></trkpt><trkpt lat="45.1627766" lon="9.5011854"><ele>67.0</ele><time>2026-04-25T12:33:17.153Z</time></trkpt><trkpt lat="45.1627896" lon="9.5013588"><ele>67.0</ele><time>2026-04-25T12:33:18.152Z</time></trkpt><trkpt lat="45.1627839" lon="9.5015366"><ele>67.0</ele><time>2026-04-25T12:33:19.152Z</time></trkpt><trkpt lat="45.1627901" lon="9.5017073"><ele>67.0</ele><time>2026-04-25T12:33:20.152Z</time></trkpt><trkpt lat="45.1627838" lon="9.5019148"><ele>67.0</ele><time>2026-04-25T12:33:21.151Z</time></trkpt><trkpt lat="45.1627874" lon="9.5021171"><ele>67.0</ele><time>2026-04-25T12:33:22.151Z</time></trkpt><trkpt lat="45.1627864" lon="9.5023191"><ele>67.0</ele><time>2026-04-25T12:33:23.151Z</time></trkpt><trkpt lat="45.1627987" lon="9.5025358"><ele>67.0</ele><time>2026-04-25T12:33:24.152Z</time></trkpt><trkpt lat="45.1628002" lon="9.5027421"><ele>66.66666666666666</ele><time>2026-04-25T12:33:25.151Z</time></trkpt><trkpt lat="45.1628101" lon="9.5029605"><ele>66.33333333333333</ele><time>2026-04-25T12:33:26.151Z</time></trkpt><trkpt lat="45.1628208" lon="9.5031834"><ele>66.0</ele><time>2026-04-25T12:33:27.151Z</time></trkpt><trkpt lat="45.1628305" lon="9.503408"><ele>66.0</ele><time>2026-04-25T12:33:28.151Z</time></trkpt><trkpt lat="45.162838" lon="9.5036391"><ele>66.0</ele><time>2026-04-25T12:33:29.152Z</time></trkpt><trkpt lat="45.1628545" lon="9.5038698"><ele>66.0</ele><time>2026-04-25T12:33:30.152Z</time></trkpt><trkpt lat="45.1628682" lon="9.5041067"><ele>65.66666666666667</ele><time>2026-04-25T12:33:31.151Z</time></trkpt><trkpt lat="45.1628776" lon="9.5043395"><ele>65.33333333333334</ele><time>2026-04-25T12:33:32.153Z</time></trkpt><trkpt lat="45.1628895" lon="9.5045796"><ele>65.0</ele><time>2026-04-25T12:33:33.151Z</time></trkpt><trkpt lat="45.1629017" lon="9.5047974"><ele>64.66666666666667</ele><time>2026-04-25T12:33:34.152Z</time></trkpt><trkpt lat="45.1629218" lon="9.5050392"><ele>64.33333333333333</ele><time>2026-04-25T12:33:35.152Z</time></trkpt><trkpt lat="45.1629385" lon="9.5052812"><ele>64.0</ele><time>2026-04-25T12:33:36.152Z</time></trkpt><trkpt lat="45.1629615" lon="9.5055264"><ele>64.0</ele><time>2026-04-25T12:33:37.153Z</time></trkpt><trkpt lat="45.1629801" lon="9.5057705"><ele>64.0</ele><time>2026-04-25T12:33:38.152Z</time></trkpt><trkpt lat="45.1630047" lon="9.5060207"><ele>64.0</ele><time>2026-04-25T12:33:39.153Z</time></trkpt><trkpt lat="45.1630213" lon="9.5062768"><ele>63.666666666666664</ele><time>2026-04-25T12:33:40.151Z</time></trkpt><trkpt lat="45.1630464" lon="9.5065302"><ele>63.33333333333333</ele><time>2026-04-25T12:33:41.152Z</time></trkpt><trkpt lat="45.1630734" lon="9.5067872"><ele>63.0</ele><time>2026-04-25T12:33:42.152Z</time></trkpt><trkpt lat="45.1630981" lon="9.5070378"><ele>62.66666666666667</ele><time>2026-04-25T12:33:43.151Z</time></trkpt><trkpt lat="45.1631249" lon="9.5073036"><ele>62.333333333333336</ele><time>2026-04-25T12:33:44.152Z</time></trkpt><trkpt lat="45.1631524" lon="9.5075636"><ele>62.0</ele><time>2026-04-25T12:33:45.153Z</time></trkpt><trkpt lat="45.1631823" lon="9.5078261"><ele>63.0</ele><time>2026-04-25T12:33:46.152Z</time></trkpt><trkpt lat="45.1632094" lon="9.5080954"><ele>64.0</ele><time>2026-04-25T12:33:47.152Z</time></trkpt><trkpt lat="45.163237" lon="9.5083535"><ele>65.0</ele><time>2026-04-25T12:33:48.151Z</time></trkpt><trkpt lat="45.1632648" lon="9.5086186"><ele>64.66666666666667</ele><time>2026-04-25T12:33:49.152Z</time></trkpt><trkpt lat="45.1632882" lon="9.5088832"><ele>64.33333333333333</ele><time>2026-04-25T12:33:50.152Z</time></trkpt><trkpt lat="45.1633167" lon="9.5091441"><ele>64.0</ele><time>2026-04-25T12:33:51.151Z</time></trkpt><trkpt lat="45.1633571" lon="9.5094024"><ele>64.66666666666666</ele><time>2026-04-25T12:33:52.153Z</time></trkpt><trkpt lat="45.1633959" lon="9.5096601"><ele>65.33333333333333</ele><time>2026-04-25T12:33:53.153Z</time></trkpt><trkpt lat="45.1634278" lon="9.5099224"><ele>66.0</ele><time>2026-04-25T12:33:54.152Z</time></trkpt><trkpt lat="45.163457" lon="9.5101875"><ele>66.0</ele><time>2026-04-25T12:33:55.152Z</time></trkpt><trkpt lat="45.1634868" lon="9.5104393"><ele>66.0</ele><time>2026-04-25T12:33:56.152Z</time></trkpt><trkpt lat="45.1635204" lon="9.5107076"><ele>66.0</ele><time>2026-04-25T12:33:57.152Z</time></trkpt><trkpt lat="45.1635418" lon="9.5109953"><ele>66.0</ele><time>2026-04-25T12:33:58.152Z</time></trkpt><trkpt lat="45.1635633" lon="9.5112774"><ele>66.0</ele><time>2026-04-25T12:33:59.152Z</time></trkpt><trkpt lat="45.1635912" lon="9.511544"><ele>66.0</ele><time>2026-04-25T12:34:00.152Z</time></trkpt><trkpt lat="45.1636149" lon="9.5118272"><ele>65.66666666666667</ele><time>2026-04-25T12:34:01.151Z</time></trkpt><trkpt lat="45.163632" lon="9.5121266"><ele>65.33333333333334</ele><time>2026-04-25T12:34:02.152Z</time></trkpt><trkpt lat="45.1636541" lon="9.512419"><ele>65.0</ele><time>2026-04-25T12:34:03.151Z</time></trkpt><trkpt lat="45.163678" lon="9.5127003"><ele>65.0</ele><time>2026-04-25T12:34:04.152Z</time></trkpt><trkpt lat="45.1637014" lon="9.5129806"><ele>65.0</ele><time>2026-04-25T12:34:05.151Z</time></trkpt><trkpt lat="45.1637246" lon="9.5132609"><ele>65.0</ele><time>2026-04-25T12:34:06.153Z</time></trkpt><trkpt lat="45.1637481" lon="9.5135392"><ele>64.66666666666667</ele><time>2026-04-25T12:34:07.152Z</time></trkpt><trkpt lat="45.163774" lon="9.5138161"><ele>64.33333333333333</ele><time>2026-04-25T12:34:08.153Z</time></trkpt><trkpt lat="45.1637992" lon="9.5140924"><ele>64.0</ele><time>2026-04-25T12:34:09.153Z</time></trkpt><trkpt lat="45.1638267" lon="9.5143644"><ele>64.0</ele><time>2026-04-25T12:34:10.153Z</time></trkpt><trkpt lat="45.163853" lon="9.5146376"><ele>64.0</ele><time>2026-04-25T12:34:11.151Z</time></trkpt><trkpt lat="45.1638717" lon="9.5148854"><ele>64.0</ele><time>2026-04-25T12:34:12.151Z</time></trkpt><trkpt lat="45.1638919" lon="9.5151296"><ele>64.0</ele><time>2026-04-25T12:34:13.152Z</time></trkpt><trkpt lat="45.163912" lon="9.5153644"><ele>64.0</ele><time>2026-04-25T12:34:14.151Z</time></trkpt><trkpt lat="45.1639331" lon="9.5155932"><ele>64.0</ele><time>2026-04-25T12:34:15.151Z</time></trkpt><trkpt lat="45.163953" lon="9.5158154"><ele>64.0</ele><time>2026-04-25T12:34:16.152Z</time></trkpt><trkpt lat="45.1639621" lon="9.5160324"><ele>64.0</ele><time>2026-04-25T12:34:17.152Z</time></trkpt><trkpt lat="45.1639639" lon="9.516253"><ele>64.0</ele><time>2026-04-25T12:34:18.152Z</time></trkpt><trkpt lat="45.1639761" lon="9.5164788"><ele>64.0</ele><time>2026-04-25T12:34:19.152Z</time></trkpt><trkpt lat="45.1639841" lon="9.5167089"><ele>64.0</ele><time>2026-04-25T12:34:20.153Z</time></trkpt><trkpt lat="45.1639957" lon="9.5169457"><ele>64.0</ele><time>2026-04-25T12:34:21.152Z</time></trkpt><trkpt lat="45.1640024" lon="9.5171805"><ele>64.0</ele><time>2026-04-25T12:34:22.151Z</time></trkpt><trkpt lat="45.1640113" lon="9.5174329"><ele>64.0</ele><time>2026-04-25T12:34:23.153Z</time></trkpt><trkpt lat="45.164031" lon="9.5176768"><ele>64.0</ele><time>2026-04-25T12:34:24.153Z</time></trkpt><trkpt lat="45.1640524" lon="9.5179199"><ele>64.0</ele><time>2026-04-25T12:34:25.151Z</time></trkpt><trkpt lat="45.1640692" lon="9.5181693"><ele>64.0</ele><time>2026-04-25T12:34:26.151Z</time></trkpt><trkpt lat="45.1640963" lon="9.5184196"><ele>64.0</ele><time>2026-04-25T12:34:27.151Z</time></trkpt><trkpt lat="45.1641278" lon="9.5186719"><ele>64.0</ele><time>2026-04-25T12:34:28.152Z</time></trkpt><trkpt lat="45.164161" lon="9.5189296"><ele>64.0</ele><time>2026-04-25T12:34:29.152Z</time></trkpt><trkpt lat="45.1641895" lon="9.5191926"><ele>64.0</ele><time>2026-04-25T12:34:30.151Z</time></trkpt><trkpt lat="45.1642186" lon="9.5194565"><ele>64.0</ele><time>2026-04-25T12:34:31.151Z</time></trkpt><trkpt lat="45.1642426" lon="9.5197218"><ele>64.0</ele><time>2026-04-25T12:34:32.152Z</time></trkpt><trkpt lat="45.1642661" lon="9.5199943"><ele>64.0</ele><time>2026-04-25T12:34:33.151Z</time></trkpt><trkpt lat="45.1642868" lon="9.520267"><ele>63.666666666666664</ele><time>2026-04-25T12:34:34.152Z</time></trkpt><trkpt lat="45.1643107" lon="9.5205389"><ele>63.33333333333333</ele><time>2026-04-25T12:34:35.151Z</time></trkpt><trkpt lat="45.1643361" lon="9.5208114"><ele>63.0</ele><time>2026-04-25T12:34:36.152Z</time></trkpt><trkpt lat="45.1643602" lon="9.5210825"><ele>63.33333333333333</ele><time>2026-04-25T12:34:37.151Z</time></trkpt><trkpt lat="45.1643824" lon="9.521357"><ele>63.666666666666664</ele><time>2026-04-25T12:34:38.152Z</time></trkpt><trkpt lat="45.1644223" lon="9.5216228"><ele>64.0</ele><time>2026-04-25T12:34:39.153Z</time></trkpt><trkpt lat="45.1644684" lon="9.5218848"><ele>64.0</ele><time>2026-04-25T12:34:40.152Z</time></trkpt><trkpt lat="45.1645261" lon="9.5221428"><ele>64.0</ele><time>2026-04-25T12:34:41.152Z</time></trkpt><trkpt lat="45.1645873" lon="9.5223935"><ele>64.0</ele><time>2026-04-25T12:34:42.152Z</time></trkpt><trkpt lat="45.164654" lon="9.5226431"><ele>64.0</ele><time>2026-04-25T12:34:43.152Z</time></trkpt><trkpt lat="45.1647163" lon="9.5228678"><ele>64.0</ele><time>2026-04-25T12:34:44.151Z</time></trkpt><trkpt lat="45.1647705" lon="9.5230835"><ele>64.0</ele><time>2026-04-25T12:34:45.153Z</time></trkpt><trkpt lat="45.1648239" lon="9.5233069"><ele>63.800000000000004</ele><time>2026-04-25T12:34:46.153Z</time></trkpt><trkpt lat="45.1648553" lon="9.5235138"><ele>63.60000000000001</ele><time>2026-04-25T12:34:47.152Z</time></trkpt><trkpt lat="45.164845" lon="9.5236239"><ele>63.4</ele><time>2026-04-25T12:34:48.152Z</time></trkpt><trkpt lat="45.1648348" lon="9.523784"><ele>63.2</ele><time>2026-04-25T12:34:49.152Z</time></trkpt><trkpt lat="45.1648051" lon="9.5238849"><ele>63.0</ele><time>2026-04-25T12:34:50.151Z</time></trkpt><trkpt lat="45.1647847" lon="9.5240033"><ele>62.8</ele><time>2026-04-25T12:34:51.152Z</time></trkpt><trkpt lat="45.1647522" lon="9.5241175"><ele>62.599999999999994</ele><time>2026-04-25T12:34:52.151Z</time></trkpt><trkpt lat="45.1647202" lon="9.5242355"><ele>62.400000000000006</ele><time>2026-04-25T12:34:53.152Z</time></trkpt><trkpt lat="45.1646926" lon="9.5243712"><ele>62.2</ele><time>2026-04-25T12:34:54.151Z</time></trkpt><trkpt lat="45.1646152" lon="9.524459"><ele>62.0</ele><time>2026-04-25T12:34:55.152Z</time></trkpt><trkpt lat="45.1645556" lon="9.5245379"><ele>62.00000000000001</ele><time>2026-04-25T12:34:56.151Z</time></trkpt><trkpt lat="45.1645388" lon="9.5246505"><ele>62.0</ele><time>2026-04-25T12:34:57.152Z</time></trkpt><trkpt lat="45.1645224" lon="9.5247438"><ele>62.0</ele><time>2026-04-25T12:34:58.153Z</time></trkpt><trkpt lat="45.1645582" lon="9.5248211"><ele>62.0</ele><time>2026-04-25T12:34:59.152Z</time></trkpt><trkpt lat="45.164558" lon="9.5249193"><ele>62.00000000000001</ele><time>2026-04-25T12:35:00.152Z</time></trkpt><trkpt lat="45.1645556" lon="9.525045"><ele>62.0</ele><time>2026-04-25T12:35:01.151Z</time></trkpt><trkpt lat="45.1645626" lon="9.5251912"><ele>62.25</ele><time>2026-04-25T12:35:02.151Z</time></trkpt><trkpt lat="45.1645673" lon="9.5254138"><ele>62.5</ele><time>2026-04-25T12:35:03.152Z</time></trkpt><trkpt lat="45.1645786" lon="9.5255863"><ele>62.75</ele><time>2026-04-25T12:35:04.152Z</time></trkpt><trkpt lat="45.1645836" lon="9.5258006"><ele>63.0</ele><time>2026-04-25T12:35:05.151Z</time></trkpt><trkpt lat="45.1645964" lon="9.5259901"><ele>63.0</ele><time>2026-04-25T12:35:06.152Z</time></trkpt><trkpt lat="45.1646051" lon="9.5262174"><ele>63.0</ele><time>2026-04-25T12:35:07.151Z</time></trkpt><trkpt lat="45.1646198" lon="9.5264374"><ele>63.0</ele><time>2026-04-25T12:35:08.152Z</time></trkpt><trkpt lat="45.1646205" lon="9.5266499"><ele>62.75</ele><time>2026-04-25T12:35:09.152Z</time></trkpt><trkpt lat="45.1646286" lon="9.526843"><ele>62.5</ele><time>2026-04-25T12:35:10.151Z</time></trkpt><trkpt lat="45.1646324" lon="9.5270397"><ele>62.25</ele><time>2026-04-25T12:35:11.152Z</time></trkpt><trkpt lat="45.1646262" lon="9.527201"><ele>62.0</ele><time>2026-04-25T12:35:12.151Z</time></trkpt><trkpt lat="45.164616" lon="9.5273735"><ele>62.0</ele><time>2026-04-25T12:35:14.152Z</time></trkpt><trkpt lat="45.1646936" lon="9.5274254"><ele>62.0</ele><time>2026-04-25T12:35:17.152Z</time></trkpt><trkpt lat="45.1648504" lon="9.5273593"><ele>62.0</ele><time>2026-04-25T12:35:19.153Z</time></trkpt><trkpt lat="45.1649292" lon="9.5273118"><ele>62.0</ele><time>2026-04-25T12:35:20.151Z</time></trkpt><trkpt lat="45.1650212" lon="9.5271938"><ele>61.50000000000001</ele><time>2026-04-25T12:35:21.151Z</time></trkpt><trkpt lat="45.165111" lon="9.5271057"><ele>61.0</ele><time>2026-04-25T12:35:22.151Z</time></trkpt><trkpt lat="45.1651922" lon="9.5270247"><ele>60.5</ele><time>2026-04-25T12:35:23.151Z</time></trkpt><trkpt lat="45.1652561" lon="9.5269696"><ele>60.0</ele><time>2026-04-25T12:35:24.153Z</time></trkpt><trkpt lat="45.1653282" lon="9.5269006"><ele>59.50000000000001</ele><time>2026-04-25T12:35:25.151Z</time></trkpt><trkpt lat="45.1653963" lon="9.5268478"><ele>59.0</ele><time>2026-04-25T12:35:26.152Z</time></trkpt><trkpt lat="45.1654666" lon="9.5268309"><ele>59.0</ele><time>2026-04-25T12:35:27.152Z</time></trkpt><trkpt lat="45.1655475" lon="9.5268774"><ele>59.00000000000001</ele><time>2026-04-25T12:35:29.152Z</time></trkpt><trkpt lat="45.1656049" lon="9.5270032"><ele>59.00000000000001</ele><time>2026-04-25T12:35:31.152Z</time></trkpt><trkpt lat="45.1656204" lon="9.5271105"><ele>59.0</ele><time>2026-04-25T12:35:32.151Z</time></trkpt><trkpt lat="45.1656451" lon="9.5272386"><ele>59.0</ele><time>2026-04-25T12:35:33.152Z</time></trkpt><trkpt lat="45.1656722" lon="9.5273801"><ele>58.5</ele><time>2026-04-25T12:35:34.151Z</time></trkpt><trkpt lat="45.1656976" lon="9.5275335"><ele>58.0</ele><time>2026-04-25T12:35:35.151Z</time></trkpt><trkpt lat="45.1657144" lon="9.5276975"><ele>57.5</ele><time>2026-04-25T12:35:36.152Z</time></trkpt><trkpt lat="45.1657244" lon="9.5278714"><ele>57.0</ele><time>2026-04-25T12:35:37.153Z</time></trkpt><trkpt lat="45.1657312" lon="9.5280557"><ele>56.5</ele><time>2026-04-25T12:35:38.152Z</time></trkpt><trkpt lat="45.1657338" lon="9.5282306"><ele>56.0</ele><time>2026-04-25T12:35:39.151Z</time></trkpt><trkpt lat="45.165728" lon="9.5284128"><ele>55.5</ele><time>2026-04-25T12:35:40.152Z</time></trkpt><trkpt lat="45.1657305" lon="9.5285953"><ele>55.0</ele><time>2026-04-25T12:35:41.151Z</time></trkpt><trkpt lat="45.1657347" lon="9.528818"><ele>54.0</ele><time>2026-04-25T12:35:42.151Z</time></trkpt><trkpt lat="45.1657326" lon="9.5290231"><ele>53.0</ele><time>2026-04-25T12:35:43.151Z</time></trkpt><trkpt lat="45.1657275" lon="9.529235"><ele>52.0</ele><time>2026-04-25T12:35:44.152Z</time></trkpt><trkpt lat="45.1657302" lon="9.5294564"><ele>52.0</ele><time>2026-04-25T12:35:45.151Z</time></trkpt><trkpt lat="45.1657264" lon="9.5296778"><ele>52.0</ele><time>2026-04-25T12:35:46.151Z</time></trkpt><trkpt lat="45.1657288" lon="9.5298938"><ele>52.0</ele><time>2026-04-25T12:35:47.153Z</time></trkpt><trkpt lat="45.1657286" lon="9.5301056"><ele>52.0</ele><time>2026-04-25T12:35:48.153Z</time></trkpt><trkpt lat="45.1657212" lon="9.5303495"><ele>52.0</ele><time>2026-04-25T12:35:49.152Z</time></trkpt><trkpt lat="45.1657216" lon="9.5305964"><ele>52.0</ele><time>2026-04-25T12:35:50.151Z</time></trkpt><trkpt lat="45.1657278" lon="9.5308366"><ele>52.0</ele><time>2026-04-25T12:35:51.152Z</time></trkpt><trkpt lat="45.1657316" lon="9.5310749"><ele>52.0</ele><time>2026-04-25T12:35:52.152Z</time></trkpt><trkpt lat="45.1657344" lon="9.5313089"><ele>52.0</ele><time>2026-04-25T12:35:53.151Z</time></trkpt><trkpt lat="45.165735" lon="9.5315481"><ele>51.666666666666664</ele><time>2026-04-25T12:35:54.151Z</time></trkpt><trkpt lat="45.1657365" lon="9.5317813"><ele>51.33333333333333</ele><time>2026-04-25T12:35:55.152Z</time></trkpt><trkpt lat="45.1657396" lon="9.5320105"><ele>51.0</ele><time>2026-04-25T12:35:56.153Z</time></trkpt><trkpt lat="45.1657407" lon="9.5322269"><ele>51.0</ele><time>2026-04-25T12:35:57.153Z</time></trkpt><trkpt lat="45.1657415" lon="9.5324271"><ele>51.0</ele><time>2026-04-25T12:35:58.151Z</time></trkpt><trkpt lat="45.1657398" lon="9.5326288"><ele>51.0</ele><time>2026-04-25T12:35:59.151Z</time></trkpt><trkpt lat="45.1657445" lon="9.5327981"><ele>51.0</ele><time>2026-04-25T12:36:01.153Z</time></trkpt><trkpt lat="45.1657361" lon="9.5329343"><ele>51.199999999999996</ele><time>2026-04-25T12:36:03.151Z</time></trkpt><trkpt lat="45.1656291" lon="9.532863"><ele>51.4</ele><time>2026-04-25T12:36:05.151Z</time></trkpt><trkpt lat="45.1655316" lon="9.5327992"><ele>51.6</ele><time>2026-04-25T12:36:06.151Z</time></trkpt><trkpt lat="45.1654455" lon="9.5327507"><ele>51.8</ele><time>2026-04-25T12:36:07.152Z</time></trkpt><trkpt lat="45.1653554" lon="9.5326984"><ele>52.0</ele><time>2026-04-25T12:36:08.152Z</time></trkpt><trkpt lat="45.1652349" lon="9.5326299"><ele>51.99999999999999</ele><time>2026-04-25T12:36:09.151Z</time></trkpt><trkpt lat="45.1651506" lon="9.53258"><ele>52.0</ele><time>2026-04-25T12:36:10.152Z</time></trkpt><trkpt lat="45.1650756" lon="9.5325328"><ele>52.0</ele><time>2026-04-25T12:36:11.152Z</time></trkpt><trkpt lat="45.1650044" lon="9.5324924"><ele>52.0</ele><time>2026-04-25T12:36:12.152Z</time></trkpt><trkpt lat="45.1649381" lon="9.5324554"><ele>51.99999999999999</ele><time>2026-04-25T12:36:13.153Z</time></trkpt><trkpt lat="45.164844" lon="9.5323765"><ele>52.0</ele><time>2026-04-25T12:36:15.152Z</time></trkpt><trkpt lat="45.1647802" lon="9.5323417"><ele>51.666666666666664</ele><time>2026-04-25T12:36:17.152Z</time></trkpt><trkpt lat="45.164723" lon="9.5324109"><ele>51.33333333333333</ele><time>2026-04-25T12:36:22.153Z</time></trkpt><trkpt lat="45.1647619" lon="9.5325969"><ele>51.0</ele><time>2026-04-25T12:36:32.152Z</time></trkpt><trkpt lat="45.1647687" lon="9.5327093"><ele>50.66666666666667</ele><time>2026-04-25T12:36:33.151Z</time></trkpt><trkpt lat="45.1647791" lon="9.5328165"><ele>50.333333333333336</ele><time>2026-04-25T12:36:34.151Z</time></trkpt><trkpt lat="45.1647704" lon="9.532927"><ele>50.0</ele><time>2026-04-25T12:36:35.152Z</time></trkpt><trkpt lat="45.1647285" lon="9.5330048"><ele>50.0</ele><time>2026-04-25T12:36:36.152Z</time></trkpt><trkpt lat="45.1646665" lon="9.5330538"><ele>50.0</ele><time>2026-04-25T12:36:37.153Z</time></trkpt><trkpt lat="45.1645975" lon="9.5331066"><ele>50.0</ele><time>2026-04-25T12:36:38.151Z</time></trkpt><trkpt lat="45.1645241" lon="9.533131"><ele>50.0</ele><time>2026-04-25T12:36:39.152Z</time></trkpt><trkpt lat="45.1643457" lon="9.5331484"><ele>50.0</ele><time>2026-04-25T12:36:40.151Z</time></trkpt><trkpt lat="45.1642235" lon="9.5331725"><ele>50.0</ele><time>2026-04-25T12:36:41.151Z</time></trkpt><trkpt lat="45.1640926" lon="9.5332015"><ele>50.0</ele><time>2026-04-25T12:36:42.151Z</time></trkpt><trkpt lat="45.1639599" lon="9.5332256"><ele>50.0</ele><time>2026-04-25T12:36:43.151Z</time></trkpt><trkpt lat="45.1638236" lon="9.5332585"><ele>50.0</ele><time>2026-04-25T12:36:44.151Z</time></trkpt><trkpt lat="45.1636922" lon="9.5332877"><ele>49.75</ele><time>2026-04-25T12:36:45.152Z</time></trkpt><trkpt lat="45.1635667" lon="9.5333197"><ele>49.5</ele><time>2026-04-25T12:36:46.152Z</time></trkpt><trkpt lat="45.1634514" lon="9.5333506"><ele>49.25</ele><time>2026-04-25T12:36:47.152Z</time></trkpt><trkpt lat="45.163341" lon="9.5333781"><ele>49.0</ele><time>2026-04-25T12:36:48.152Z</time></trkpt><trkpt lat="45.1632305" lon="9.5334043"><ele>49.0</ele><time>2026-04-25T12:36:49.152Z</time></trkpt><trkpt lat="45.1631379" lon="9.5334324"><ele>49.0</ele><time>2026-04-25T12:36:50.152Z</time></trkpt><trkpt lat="45.1630688" lon="9.5334975"><ele>49.0</ele><time>2026-04-25T12:36:51.151Z</time></trkpt><trkpt lat="45.1630015" lon="9.5335945"><ele>49.0</ele><time>2026-04-25T12:36:52.151Z</time></trkpt><trkpt lat="45.1629562" lon="9.5337212"><ele>49.0</ele><time>2026-04-25T12:36:53.153Z</time></trkpt><trkpt lat="45.1629124" lon="9.5338512"><ele>48.75</ele><time>2026-04-25T12:36:54.152Z</time></trkpt><trkpt lat="45.1628702" lon="9.5340249"><ele>48.5</ele><time>2026-04-25T12:36:55.152Z</time></trkpt><trkpt lat="45.1628296" lon="9.5341718"><ele>48.25</ele><time>2026-04-25T12:36:56.153Z</time></trkpt><trkpt lat="45.1627559" lon="9.534375"><ele>48.0</ele><time>2026-04-25T12:36:57.152Z</time></trkpt><trkpt lat="45.1626892" lon="9.5345384"><ele>48.25</ele><time>2026-04-25T12:36:58.151Z</time></trkpt><trkpt lat="45.162605" lon="9.5346901"><ele>48.5</ele><time>2026-04-25T12:36:59.152Z</time></trkpt><trkpt lat="45.1625041" lon="9.5348334"><ele>48.75</ele><time>2026-04-25T12:37:00.151Z</time></trkpt><trkpt lat="45.1623995" lon="9.5349768"><ele>49.0</ele><time>2026-04-25T12:37:01.152Z</time></trkpt><trkpt lat="45.1622915" lon="9.5351257"><ele>49.0</ele><time>2026-04-25T12:37:02.152Z</time></trkpt><trkpt lat="45.162183" lon="9.5352641"><ele>49.0</ele><time>2026-04-25T12:37:03.151Z</time></trkpt><trkpt lat="45.1620727" lon="9.5354103"><ele>49.0</ele><time>2026-04-25T12:37:04.153Z</time></trkpt><trkpt lat="45.1619632" lon="9.5355478"><ele>49.0</ele><time>2026-04-25T12:37:05.152Z</time></trkpt><trkpt lat="45.1618671" lon="9.5356724"><ele>49.400000000000006</ele><time>2026-04-25T12:37:06.151Z</time></trkpt><trkpt lat="45.1617859" lon="9.5357859"><ele>49.8</ele><time>2026-04-25T12:37:07.151Z</time></trkpt><trkpt lat="45.1617172" lon="9.5358973"><ele>50.2</ele><time>2026-04-25T12:37:08.152Z</time></trkpt><trkpt lat="45.1616606" lon="9.5360045"><ele>50.599999999999994</ele><time>2026-04-25T12:37:09.152Z</time></trkpt><trkpt lat="45.1616125" lon="9.536123"><ele>51.0</ele><time>2026-04-25T12:37:10.153Z</time></trkpt><trkpt lat="45.1616371" lon="9.5363047"><ele>51.0</ele><time>2026-04-25T12:37:11.152Z</time></trkpt><trkpt lat="45.161659" lon="9.5365086"><ele>51.0</ele><time>2026-04-25T12:37:12.151Z</time></trkpt><trkpt lat="45.1616903" lon="9.5367444"><ele>51.0</ele><time>2026-04-25T12:37:13.152Z</time></trkpt><trkpt lat="45.1617271" lon="9.5369909"><ele>51.5</ele><time>2026-04-25T12:37:14.152Z</time></trkpt><trkpt lat="45.1617592" lon="9.5372133"><ele>52.0</ele><time>2026-04-25T12:37:15.151Z</time></trkpt><trkpt lat="45.1617876" lon="9.5374108"><ele>52.5</ele><time>2026-04-25T12:37:16.152Z</time></trkpt><trkpt lat="45.1618088" lon="9.5375809"><ele>53.0</ele><time>2026-04-25T12:37:17.153Z</time></trkpt><trkpt lat="45.1618294" lon="9.5377334"><ele>53.0</ele><time>2026-04-25T12:37:18.151Z</time></trkpt><trkpt lat="45.1618389" lon="9.5378823"><ele>53.0</ele><time>2026-04-25T12:37:19.151Z</time></trkpt><trkpt lat="45.1618335" lon="9.5380169"><ele>53.0</ele><time>2026-04-25T12:37:20.152Z</time></trkpt><trkpt lat="45.1618088" lon="9.5381428"><ele>53.0</ele><time>2026-04-25T12:37:21.152Z</time></trkpt><trkpt lat="45.161754" lon="9.5382593"><ele>53.0</ele><time>2026-04-25T12:37:22.151Z</time></trkpt><trkpt lat="45.1616765" lon="9.5383607"><ele>53.0</ele><time>2026-04-25T12:37:23.153Z</time></trkpt><trkpt lat="45.1615826" lon="9.5384323"><ele>53.0</ele><time>2026-04-25T12:37:24.152Z</time></trkpt><trkpt lat="45.1614639" lon="9.5384867"><ele>53.0</ele><time>2026-04-25T12:37:25.151Z</time></trkpt><trkpt lat="45.1613245" lon="9.5385308"><ele>53.0</ele><time>2026-04-25T12:37:26.151Z</time></trkpt><trkpt lat="45.1611774" lon="9.5385537"><ele>52.75</ele><time>2026-04-25T12:37:27.151Z</time></trkpt><trkpt lat="45.1610255" lon="9.5385692"><ele>52.5</ele><time>2026-04-25T12:37:28.153Z</time></trkpt><trkpt lat="45.16088" lon="9.5385835"><ele>52.25</ele><time>2026-04-25T12:37:29.152Z</time></trkpt><trkpt lat="45.1607469" lon="9.5386002"><ele>52.0</ele><time>2026-04-25T12:37:30.152Z</time></trkpt><trkpt lat="45.1606216" lon="9.5386154"><ele>52.0</ele><time>2026-04-25T12:37:31.152Z</time></trkpt><trkpt lat="45.1605108" lon="9.5386267"><ele>52.0</ele><time>2026-04-25T12:37:32.152Z</time></trkpt><trkpt lat="45.1604196" lon="9.538646"><ele>52.0</ele><time>2026-04-25T12:37:33.152Z</time></trkpt><trkpt lat="45.1603439" lon="9.5386642"><ele>52.0</ele><time>2026-04-25T12:37:34.152Z</time></trkpt><trkpt lat="45.1602346" lon="9.5387123"><ele>52.0</ele><time>2026-04-25T12:37:36.152Z</time></trkpt><trkpt lat="45.1601593" lon="9.5387603"><ele>51.99999999999999</ele><time>2026-04-25T12:37:38.151Z</time></trkpt><trkpt lat="45.1601122" lon="9.5388484"><ele>52.0</ele><time>2026-04-25T12:38:18.153Z</time></trkpt><trkpt lat="45.1600764" lon="9.5389622"><ele>52.0</ele><time>2026-04-25T12:38:20.152Z</time></trkpt><trkpt lat="45.1600431" lon="9.5390549"><ele>52.0</ele><time>2026-04-25T12:38:21.151Z</time></trkpt><trkpt lat="45.1600067" lon="9.5391626"><ele>51.99999999999999</ele><time>2026-04-25T12:38:22.152Z</time></trkpt><trkpt lat="45.1599555" lon="9.5393114"><ele>52.0</ele><time>2026-04-25T12:38:23.152Z</time></trkpt><trkpt lat="45.1599193" lon="9.5394324"><ele>51.99999999999999</ele><time>2026-04-25T12:38:24.152Z</time></trkpt><trkpt lat="45.159871" lon="9.5395534"><ele>52.0</ele><time>2026-04-25T12:38:25.151Z</time></trkpt><trkpt lat="45.1598239" lon="9.5396897"><ele>52.0</ele><time>2026-04-25T12:38:26.153Z</time></trkpt><trkpt lat="45.1597867" lon="9.5398106"><ele>52.0</ele><time>2026-04-25T12:38:27.153Z</time></trkpt><trkpt lat="45.1597556" lon="9.5399069"><ele>51.99999999999999</ele><time>2026-04-25T12:38:28.152Z</time></trkpt><trkpt lat="45.159723" lon="9.5399944"><ele>52.0</ele><time>2026-04-25T12:38:29.151Z</time></trkpt><trkpt lat="45.1596883" lon="9.5400733"><ele>52.99999999999999</ele><time>2026-04-25T12:38:30.152Z</time></trkpt><trkpt lat="45.1596379" lon="9.5401971"><ele>54.0</ele><time>2026-04-25T12:38:32.152Z</time></trkpt><trkpt lat="45.1596745" lon="9.5401183"><ele>55.0</ele><time>2026-04-25T12:38:45.153Z</time></trkpt><trkpt lat="45.1597056" lon="9.5400046"><ele>56.0</ele><time>2026-04-25T12:38:48.152Z</time></trkpt><trkpt lat="45.1597321" lon="9.539892"><ele>56.99999999999999</ele><time>2026-04-25T12:38:51.151Z</time></trkpt><trkpt lat="45.1597639" lon="9.5397828"><ele>58.0</ele><time>2026-04-25T12:38:53.151Z</time></trkpt><trkpt lat="45.1598215" lon="9.5396344"><ele>57.49999999999999</ele><time>2026-04-25T12:38:55.151Z</time></trkpt><trkpt lat="45.1598561" lon="9.5395349"><ele>57.0</ele><time>2026-04-25T12:38:56.151Z</time></trkpt><trkpt lat="45.1598885" lon="9.5394241"><ele>56.5</ele><time>2026-04-25T12:38:57.152Z</time></trkpt><trkpt lat="45.1599241" lon="9.5393036"><ele>56.0</ele><time>2026-04-25T12:38:58.152Z</time></trkpt><trkpt lat="45.159965" lon="9.539182"><ele>55.49999999999999</ele><time>2026-04-25T12:38:59.151Z</time></trkpt><trkpt lat="45.1599986" lon="9.5390885"><ele>55.0</ele><time>2026-04-25T12:39:00.152Z</time></trkpt><trkpt lat="45.1600542" lon="9.5389757"><ele>54.4</ele><time>2026-04-25T12:39:02.153Z</time></trkpt><trkpt lat="45.1601405" lon="9.5389678"><ele>53.8</ele><time>2026-04-25T12:39:05.151Z</time></trkpt><trkpt lat="45.1602247" lon="9.5390454"><ele>53.2</ele><time>2026-04-25T12:39:07.152Z</time></trkpt><trkpt lat="45.1602699" lon="9.5391334"><ele>52.6</ele><time>2026-04-25T12:39:08.152Z</time></trkpt><trkpt lat="45.1603233" lon="9.539254"><ele>52.0</ele><time>2026-04-25T12:39:09.151Z</time></trkpt><trkpt lat="45.1603816" lon="9.539402"><ele>52.0</ele><time>2026-04-25T12:39:10.152Z</time></trkpt><trkpt lat="45.1604363" lon="9.5395618"><ele>52.0</ele><time>2026-04-25T12:39:11.152Z</time></trkpt><trkpt lat="45.1604864" lon="9.5397168"><ele>52.0</ele><time>2026-04-25T12:39:12.151Z</time></trkpt><trkpt lat="45.1605273" lon="9.539858"><ele>52.0</ele><time>2026-04-25T12:39:13.151Z</time></trkpt><trkpt lat="45.160573" lon="9.5399889"><ele>51.99999999999999</ele><time>2026-04-25T12:39:14.151Z</time></trkpt><trkpt lat="45.1606194" lon="9.54013"><ele>52.0</ele><time>2026-04-25T12:39:15.151Z</time></trkpt><trkpt lat="45.1606486" lon="9.540221"><ele>52.0</ele><time>2026-04-25T12:39:16.152Z</time></trkpt><trkpt lat="45.1606841" lon="9.5403419"><ele>52.0</ele><time>2026-04-25T12:39:17.152Z</time></trkpt><trkpt lat="45.1607102" lon="9.5404616"><ele>51.99999999999999</ele><time>2026-04-25T12:39:18.152Z</time></trkpt><trkpt lat="45.1607302" lon="9.5405808"><ele>52.0</ele><time>2026-04-25T12:39:19.152Z</time></trkpt><trkpt lat="45.1607504" lon="9.5407097"><ele>51.666666666666664</ele><time>2026-04-25T12:39:20.152Z</time></trkpt><trkpt lat="45.1607705" lon="9.5408337"><ele>51.33333333333333</ele><time>2026-04-25T12:39:21.152Z</time></trkpt><trkpt lat="45.1607894" lon="9.540957"><ele>51.0</ele><time>2026-04-25T12:39:22.153Z</time></trkpt><trkpt lat="45.1607998" lon="9.5410848"><ele>50.66666666666667</ele><time>2026-04-25T12:39:23.151Z</time></trkpt><trkpt lat="45.1608114" lon="9.5412069"><ele>50.333333333333336</ele><time>2026-04-25T12:39:24.152Z</time></trkpt><trkpt lat="45.160819" lon="9.5413366"><ele>50.0</ele><time>2026-04-25T12:39:25.151Z</time></trkpt><trkpt lat="45.1608306" lon="9.5414657"><ele>50.0</ele><time>2026-04-25T12:39:26.152Z</time></trkpt><trkpt lat="45.1608433" lon="9.5416"><ele>50.0</ele><time>2026-04-25T12:39:27.151Z</time></trkpt><trkpt lat="45.1608575" lon="9.5417428"><ele>50.0</ele><time>2026-04-25T12:39:28.153Z</time></trkpt><trkpt lat="45.1608773" lon="9.5418899"><ele>50.0</ele><time>2026-04-25T12:39:29.152Z</time></trkpt><trkpt lat="45.1608973" lon="9.5420456"><ele>50.0</ele><time>2026-04-25T12:39:30.152Z</time></trkpt><trkpt lat="45.160918" lon="9.5422039"><ele>50.5</ele><time>2026-04-25T12:39:31.152Z</time></trkpt><trkpt lat="45.160936" lon="9.5423669"><ele>51.0</ele><time>2026-04-25T12:39:32.152Z</time></trkpt><trkpt lat="45.1609591" lon="9.5425313"><ele>51.5</ele><time>2026-04-25T12:39:33.152Z</time></trkpt><trkpt lat="45.1609843" lon="9.5426892"><ele>52.0</ele><time>2026-04-25T12:39:34.153Z</time></trkpt><trkpt lat="45.1610086" lon="9.5428332"><ele>51.83333333333333</ele><time>2026-04-25T12:39:35.152Z</time></trkpt><trkpt lat="45.1610341" lon="9.5429615"><ele>51.666666666666664</ele><time>2026-04-25T12:39:36.152Z</time></trkpt><trkpt lat="45.1610589" lon="9.5430681"><ele>51.5</ele><time>2026-04-25T12:39:37.152Z</time></trkpt><trkpt lat="45.1610807" lon="9.5431772"><ele>51.33333333333333</ele><time>2026-04-25T12:39:38.152Z</time></trkpt><trkpt lat="45.1611123" lon="9.5432762"><ele>51.166666666666664</ele><time>2026-04-25T12:39:40.152Z</time></trkpt><trkpt lat="45.1611365" lon="9.5433716"><ele>51.0</ele><time>2026-04-25T12:40:31.151Z</time></trkpt><trkpt lat="45.161119" lon="9.5434842"><ele>51.0</ele><time>2026-04-25T12:40:34.151Z</time></trkpt><trkpt lat="45.1610094" lon="9.5435517"><ele>51.0</ele><time>2026-04-25T12:40:36.151Z</time></trkpt><trkpt lat="45.1609412" lon="9.5436022"><ele>51.0</ele><time>2026-04-25T12:40:37.151Z</time></trkpt><trkpt lat="45.160867" lon="9.5436559"><ele>51.0</ele><time>2026-04-25T12:40:38.151Z</time></trkpt><trkpt lat="45.1607865" lon="9.5437136"><ele>51.0</ele><time>2026-04-25T12:40:39.151Z</time></trkpt><trkpt lat="45.1607014" lon="9.5437754"><ele>51.0</ele><time>2026-04-25T12:40:40.151Z</time></trkpt><trkpt lat="45.1606161" lon="9.543839"><ele>51.0</ele><time>2026-04-25T12:40:41.15Z</time></trkpt><trkpt lat="45.1605265" lon="9.5438997"><ele>51.0</ele><time>2026-04-25T12:40:42.151Z</time></trkpt><trkpt lat="45.1604377" lon="9.5439569"><ele>51.0</ele><time>2026-04-25T12:40:43.151Z</time></trkpt><trkpt lat="45.1603508" lon="9.544023"><ele>51.0</ele><time>2026-04-25T12:40:44.152Z</time></trkpt><trkpt lat="45.1602624" lon="9.5440813"><ele>51.0</ele><time>2026-04-25T12:40:45.152Z</time></trkpt><trkpt lat="45.160176" lon="9.5441511"><ele>51.0</ele><time>2026-04-25T12:40:46.151Z</time></trkpt><trkpt lat="45.1600898" lon="9.5442321"><ele>51.0</ele><time>2026-04-25T12:40:47.152Z</time></trkpt><trkpt lat="45.1599972" lon="9.5443004"><ele>51.0</ele><time>2026-04-25T12:40:48.151Z</time></trkpt><trkpt lat="45.1598998" lon="9.544381"><ele>51.0</ele><time>2026-04-25T12:40:49.152Z</time></trkpt><trkpt lat="45.1598086" lon="9.5444427"><ele>51.0</ele><time>2026-04-25T12:40:50.151Z</time></trkpt><trkpt lat="45.1597161" lon="9.5445101"><ele>51.0</ele><time>2026-04-25T12:40:51.151Z</time></trkpt><trkpt lat="45.1596263" lon="9.5445965"><ele>51.0</ele><time>2026-04-25T12:40:52.151Z</time></trkpt><trkpt lat="45.1595409" lon="9.5446835"><ele>51.0</ele><time>2026-04-25T12:40:53.151Z</time></trkpt><trkpt lat="45.1594568" lon="9.5447771"><ele>51.0</ele><time>2026-04-25T12:40:54.15Z</time></trkpt><trkpt lat="45.1593801" lon="9.544881"><ele>51.0</ele><time>2026-04-25T12:40:55.15Z</time></trkpt><trkpt lat="45.159303" lon="9.5449855"><ele>51.0</ele><time>2026-04-25T12:40:56.152Z</time></trkpt><trkpt lat="45.1592328" lon="9.5450992"><ele>51.0</ele><time>2026-04-25T12:40:57.151Z</time></trkpt><trkpt lat="45.1591612" lon="9.5452143"><ele>51.0</ele><time>2026-04-25T12:40:58.152Z</time></trkpt><trkpt lat="45.1590886" lon="9.5453328"><ele>51.0</ele><time>2026-04-25T12:40:59.151Z</time></trkpt><trkpt lat="45.159017" lon="9.5454599"><ele>51.0</ele><time>2026-04-25T12:41:00.151Z</time></trkpt><trkpt lat="45.1589465" lon="9.5455907"><ele>51.0</ele><time>2026-04-25T12:41:01.15Z</time></trkpt><trkpt lat="45.1588823" lon="9.5457083"><ele>51.0</ele><time>2026-04-25T12:41:02.152Z</time></trkpt><trkpt lat="45.1588154" lon="9.5458195"><ele>51.0</ele><time>2026-04-25T12:41:03.151Z</time></trkpt><trkpt lat="45.158753" lon="9.5459151"><ele>51.0</ele><time>2026-04-25T12:41:04.15Z</time></trkpt><trkpt lat="45.1586895" lon="9.5460049"><ele>51.0</ele><time>2026-04-25T12:41:05.15Z</time></trkpt><trkpt lat="45.1586263" lon="9.5460837"><ele>51.0</ele><time>2026-04-25T12:41:06.15Z</time></trkpt><trkpt lat="45.1585633" lon="9.5461428"><ele>51.0</ele><time>2026-04-25T12:41:07.15Z</time></trkpt><trkpt lat="45.1584481" lon="9.5462116"><ele>51.0</ele><time>2026-04-25T12:41:09.151Z</time></trkpt><trkpt lat="45.158348" lon="9.5463087"><ele>51.0</ele><time>2026-04-25T12:41:11.151Z</time></trkpt><trkpt lat="45.1583191" lon="9.5463884"><ele>51.0</ele><time>2026-04-25T12:41:12.15Z</time></trkpt><trkpt lat="45.1582939" lon="9.5465379"><ele>51.0</ele><time>2026-04-25T12:41:14.15Z</time></trkpt><trkpt lat="45.1582854" lon="9.5466399"><ele>51.0</ele><time>2026-04-25T12:41:15.151Z</time></trkpt><trkpt lat="45.1582725" lon="9.546769"><ele>51.0</ele><time>2026-04-25T12:41:16.151Z</time></trkpt><trkpt lat="45.1582642" lon="9.5468841"><ele>51.0</ele><time>2026-04-25T12:41:17.152Z</time></trkpt><trkpt lat="45.1582642" lon="9.5470213"><ele>50.8</ele><time>2026-04-25T12:41:18.151Z</time></trkpt><trkpt lat="45.1582586" lon="9.5471554"><ele>50.599999999999994</ele><time>2026-04-25T12:41:19.151Z</time></trkpt><trkpt lat="45.158262" lon="9.5472731"><ele>50.4</ele><time>2026-04-25T12:41:20.152Z</time></trkpt><trkpt lat="45.158278" lon="9.5474323"><ele>50.2</ele><time>2026-04-25T12:41:21.152Z</time></trkpt><trkpt lat="45.1582931" lon="9.5475689"><ele>50.0</ele><time>2026-04-25T12:41:22.151Z</time></trkpt><trkpt lat="45.1583173" lon="9.5477126"><ele>50.0</ele><time>2026-04-25T12:41:23.152Z</time></trkpt><trkpt lat="45.1583536" lon="9.547847"><ele>50.0</ele><time>2026-04-25T12:41:24.151Z</time></trkpt><trkpt lat="45.1584044" lon="9.5479793"><ele>50.0</ele><time>2026-04-25T12:41:25.151Z</time></trkpt><trkpt lat="45.1584675" lon="9.5481147"><ele>50.0</ele><time>2026-04-25T12:41:26.15Z</time></trkpt><trkpt lat="45.1585267" lon="9.5482572"><ele>50.0</ele><time>2026-04-25T12:41:27.152Z</time></trkpt><trkpt lat="45.1585741" lon="9.5484039"><ele>50.0</ele><time>2026-04-25T12:41:28.151Z</time></trkpt><trkpt lat="45.1586107" lon="9.5485507"><ele>50.0</ele><time>2026-04-25T12:41:29.151Z</time></trkpt><trkpt lat="45.1586401" lon="9.5486914"><ele>50.0</ele><time>2026-04-25T12:41:30.151Z</time></trkpt><trkpt lat="45.1586626" lon="9.5488148"><ele>50.0</ele><time>2026-04-25T12:41:31.15Z</time></trkpt><trkpt lat="45.1586804" lon="9.5489268"><ele>50.0</ele><time>2026-04-25T12:41:32.151Z</time></trkpt><trkpt lat="45.1587005" lon="9.5490411"><ele>50.00000000000001</ele><time>2026-04-25T12:41:33.151Z</time></trkpt><trkpt lat="45.1587227" lon="9.5491556"><ele>50.0</ele><time>2026-04-25T12:41:34.151Z</time></trkpt><trkpt lat="45.1587416" lon="9.5492661"><ele>50.0</ele><time>2026-04-25T12:41:35.15Z</time></trkpt><trkpt lat="45.1587434" lon="9.5493997"><ele>50.0</ele><time>2026-04-25T12:41:37.151Z</time></trkpt><trkpt lat="45.1586871" lon="9.5495143"><ele>50.00000000000001</ele><time>2026-04-25T12:41:39.151Z</time></trkpt><trkpt lat="45.1586145" lon="9.5495523"><ele>50.0</ele><time>2026-04-25T12:41:40.151Z</time></trkpt><trkpt lat="45.1585434" lon="9.549572"><ele>49.75</ele><time>2026-04-25T12:41:41.151Z</time></trkpt><trkpt lat="45.1584148" lon="9.5496254"><ele>49.5</ele><time>2026-04-25T12:41:42.15Z</time></trkpt><trkpt lat="45.1582757" lon="9.5497305"><ele>49.25</ele><time>2026-04-25T12:41:43.151Z</time></trkpt><trkpt lat="45.1581358" lon="9.5498027"><ele>49.0</ele><time>2026-04-25T12:41:44.151Z</time></trkpt><trkpt lat="45.1579936" lon="9.5498824"><ele>49.0</ele><time>2026-04-25T12:41:45.151Z</time></trkpt><trkpt lat="45.1578522" lon="9.5499779"><ele>49.0</ele><time>2026-04-25T12:41:46.151Z</time></trkpt><trkpt lat="45.1577064" lon="9.5500801"><ele>49.0</ele><time>2026-04-25T12:41:47.15Z</time></trkpt><trkpt lat="45.1575692" lon="9.5501926"><ele>49.0</ele><time>2026-04-25T12:41:48.151Z</time></trkpt><trkpt lat="45.1574624" lon="9.5502425"><ele>49.0</ele><time>2026-04-25T12:41:49.15Z</time></trkpt><trkpt lat="45.1573597" lon="9.5502913"><ele>49.0</ele><time>2026-04-25T12:41:50.151Z</time></trkpt><trkpt lat="45.1572874" lon="9.5503521"><ele>49.0</ele><time>2026-04-25T12:41:51.15Z</time></trkpt><trkpt lat="45.1572033" lon="9.5503983"><ele>49.0</ele><time>2026-04-25T12:41:52.152Z</time></trkpt><trkpt lat="45.1571384" lon="9.5504443"><ele>49.25</ele><time>2026-04-25T12:41:53.152Z</time></trkpt><trkpt lat="45.1570693" lon="9.5505226"><ele>49.5</ele><time>2026-04-25T12:41:54.151Z</time></trkpt><trkpt lat="45.1570097" lon="9.550643"><ele>49.75</ele><time>2026-04-25T12:41:55.15Z</time></trkpt><trkpt lat="45.1569135" lon="9.5508338"><ele>50.0</ele><time>2026-04-25T12:41:56.151Z</time></trkpt><trkpt lat="45.1568412" lon="9.5509824"><ele>50.0</ele><time>2026-04-25T12:41:57.15Z</time></trkpt><trkpt lat="45.1567335" lon="9.5511011"><ele>50.0</ele><time>2026-04-25T12:41:58.15Z</time></trkpt><trkpt lat="45.1566346" lon="9.5512429"><ele>50.0</ele><time>2026-04-25T12:41:59.151Z</time></trkpt><trkpt lat="45.1565147" lon="9.5513179"><ele>50.0</ele><time>2026-04-25T12:42:00.15Z</time></trkpt><trkpt lat="45.1563788" lon="9.5514335"><ele>50.25</ele><time>2026-04-25T12:42:01.15Z</time></trkpt><trkpt lat="45.1562624" lon="9.5515228"><ele>50.5</ele><time>2026-04-25T12:42:02.152Z</time></trkpt><trkpt lat="45.1561481" lon="9.5516094"><ele>50.75</ele><time>2026-04-25T12:42:03.151Z</time></trkpt><trkpt lat="45.1560581" lon="9.5516774"><ele>51.0</ele><time>2026-04-25T12:42:04.15Z</time></trkpt><trkpt lat="45.1559747" lon="9.5517496"><ele>51.0</ele><time>2026-04-25T12:42:05.151Z</time></trkpt><trkpt lat="45.1558878" lon="9.5518119"><ele>51.0</ele><time>2026-04-25T12:42:06.15Z</time></trkpt><trkpt lat="45.1558126" lon="9.5518766"><ele>51.0</ele><time>2026-04-25T12:42:07.151Z</time></trkpt><trkpt lat="45.1557201" lon="9.5519364"><ele>51.0</ele><time>2026-04-25T12:42:09.151Z</time></trkpt><trkpt lat="45.1556543" lon="9.552082"><ele>51.0</ele><time>2026-04-25T12:42:11.15Z</time></trkpt><trkpt lat="45.1555814" lon="9.5521011"><ele>50.8</ele><time>2026-04-25T12:42:15.151Z</time></trkpt><trkpt lat="45.1555141" lon="9.5520698"><ele>50.599999999999994</ele><time>2026-04-25T12:42:18.15Z</time></trkpt><trkpt lat="45.1554543" lon="9.5520038"><ele>50.4</ele><time>2026-04-25T12:42:21.15Z</time></trkpt><trkpt lat="45.1553415" lon="9.5519371"><ele>50.2</ele><time>2026-04-25T12:42:32.151Z</time></trkpt><trkpt lat="45.1552642" lon="9.5518989"><ele>50.0</ele><time>2026-04-25T12:42:33.152Z</time></trkpt><trkpt lat="45.155136" lon="9.5518359"><ele>50.00000000000001</ele><time>2026-04-25T12:42:35.151Z</time></trkpt><trkpt lat="45.1550647" lon="9.5517995"><ele>50.0</ele><time>2026-04-25T12:42:36.151Z</time></trkpt><trkpt lat="45.1550046" lon="9.551755"><ele>50.0</ele><time>2026-04-25T12:42:37.15Z</time></trkpt><trkpt lat="45.1549351" lon="9.551718"><ele>50.0</ele><time>2026-04-25T12:42:38.151Z</time></trkpt><trkpt lat="45.1548665" lon="9.5516857"><ele>50.0</ele><time>2026-04-25T12:42:39.151Z</time></trkpt><trkpt lat="45.1548009" lon="9.5516458"><ele>50.00000000000001</ele><time>2026-04-25T12:42:40.15Z</time></trkpt><trkpt lat="45.1547278" lon="9.5515945"><ele>50.0</ele><time>2026-04-25T12:42:41.15Z</time></trkpt><trkpt lat="45.1546555" lon="9.55155"><ele>49.8</ele><time>2026-04-25T12:42:42.151Z</time></trkpt><trkpt lat="45.1545639" lon="9.5514935"><ele>49.6</ele><time>2026-04-25T12:42:43.151Z</time></trkpt><trkpt lat="45.1544643" lon="9.5514393"><ele>49.400000000000006</ele><time>2026-04-25T12:42:44.15Z</time></trkpt><trkpt lat="45.154367" lon="9.5513824"><ele>49.2</ele><time>2026-04-25T12:42:45.151Z</time></trkpt><trkpt lat="45.1542632" lon="9.5513276"><ele>49.0</ele><time>2026-04-25T12:42:46.151Z</time></trkpt><trkpt lat="45.154156" lon="9.5512654"><ele>49.0</ele><time>2026-04-25T12:42:47.15Z</time></trkpt><trkpt lat="45.1540456" lon="9.5511942"><ele>49.0</ele><time>2026-04-25T12:42:48.151Z</time></trkpt><trkpt lat="45.1539367" lon="9.5511232"><ele>49.0</ele><time>2026-04-25T12:42:49.151Z</time></trkpt><trkpt lat="45.1538257" lon="9.5510538"><ele>49.0</ele><time>2026-04-25T12:42:50.15Z</time></trkpt><trkpt lat="45.1537121" lon="9.5509823"><ele>49.0</ele><time>2026-04-25T12:42:51.15Z</time></trkpt><trkpt lat="45.1535952" lon="9.550902"><ele>49.0</ele><time>2026-04-25T12:42:52.15Z</time></trkpt><trkpt lat="45.1534768" lon="9.5508209"><ele>49.0</ele><time>2026-04-25T12:42:53.15Z</time></trkpt><trkpt lat="45.1533605" lon="9.5507538"><ele>49.0</ele><time>2026-04-25T12:42:54.152Z</time></trkpt><trkpt lat="45.1532462" lon="9.5506904"><ele>48.75</ele><time>2026-04-25T12:42:55.15Z</time></trkpt><trkpt lat="45.1531305" lon="9.5506274"><ele>48.5</ele><time>2026-04-25T12:42:56.15Z</time></trkpt><trkpt lat="45.1530134" lon="9.5505605"><ele>48.25</ele><time>2026-04-25T12:42:57.151Z</time></trkpt><trkpt lat="45.1528906" lon="9.5504908"><ele>48.0</ele><time>2026-04-25T12:42:58.151Z</time></trkpt><trkpt lat="45.1527685" lon="9.5504173"><ele>48.0</ele><time>2026-04-25T12:42:59.151Z</time></trkpt><trkpt lat="45.1526461" lon="9.5503464"><ele>48.0</ele><time>2026-04-25T12:43:00.151Z</time></trkpt><trkpt lat="45.1525242" lon="9.5502775"><ele>48.0</ele><time>2026-04-25T12:43:01.151Z</time></trkpt><trkpt lat="45.1524067" lon="9.5502042"><ele>48.0</ele><time>2026-04-25T12:43:02.15Z</time></trkpt><trkpt lat="45.1522849" lon="9.5501303"><ele>48.75</ele><time>2026-04-25T12:43:03.15Z</time></trkpt><trkpt lat="45.1521658" lon="9.5500599"><ele>49.5</ele><time>2026-04-25T12:43:04.151Z</time></trkpt><trkpt lat="45.1520469" lon="9.5499928"><ele>50.25</ele><time>2026-04-25T12:43:05.151Z</time></trkpt><trkpt lat="45.1519307" lon="9.5499285"><ele>51.0</ele><time>2026-04-25T12:43:06.151Z</time></trkpt><trkpt lat="45.1518174" lon="9.54987"><ele>51.0</ele><time>2026-04-25T12:43:07.151Z</time></trkpt><trkpt lat="45.1517077" lon="9.5498115"><ele>51.0</ele><time>2026-04-25T12:43:08.151Z</time></trkpt><trkpt lat="45.1515995" lon="9.5497505"><ele>51.0</ele><time>2026-04-25T12:43:09.151Z</time></trkpt><trkpt lat="45.1514919" lon="9.5496935"><ele>51.0</ele><time>2026-04-25T12:43:10.15Z</time></trkpt><trkpt lat="45.1514015" lon="9.5496411"><ele>51.0</ele><time>2026-04-25T12:43:11.152Z</time></trkpt><trkpt lat="45.1513038" lon="9.5495869"><ele>51.0</ele><time>2026-04-25T12:43:12.15Z</time></trkpt><trkpt lat="45.1512107" lon="9.5495334"><ele>51.0</ele><time>2026-04-25T12:43:13.151Z</time></trkpt><trkpt lat="45.1511091" lon="9.5494746"><ele>51.0</ele><time>2026-04-25T12:43:14.15Z</time></trkpt><trkpt lat="45.1510066" lon="9.5494207"><ele>51.0</ele><time>2026-04-25T12:43:15.151Z</time></trkpt><trkpt lat="45.1509095" lon="9.5493605"><ele>51.0</ele><time>2026-04-25T12:43:16.15Z</time></trkpt><trkpt lat="45.150812" lon="9.5493066"><ele>51.0</ele><time>2026-04-25T12:43:17.152Z</time></trkpt><trkpt lat="45.1507097" lon="9.5492462"><ele>51.0</ele><time>2026-04-25T12:43:18.152Z</time></trkpt><trkpt lat="45.1506127" lon="9.5491919"><ele>51.0</ele><time>2026-04-25T12:43:19.15Z</time></trkpt><trkpt lat="45.1505039" lon="9.5491346"><ele>51.0</ele><time>2026-04-25T12:43:20.151Z</time></trkpt><trkpt lat="45.1504097" lon="9.5490818"><ele>51.0</ele><time>2026-04-25T12:43:21.15Z</time></trkpt><trkpt lat="45.1502546" lon="9.5489795"><ele>51.25</ele><time>2026-04-25T12:43:22.151Z</time></trkpt><trkpt lat="45.1501338" lon="9.548912"><ele>51.5</ele><time>2026-04-25T12:43:23.15Z</time></trkpt><trkpt lat="45.1500198" lon="9.5488401"><ele>51.75</ele><time>2026-04-25T12:43:24.152Z</time></trkpt><trkpt lat="45.1499379" lon="9.5487934"><ele>52.0</ele><time>2026-04-25T12:43:25.152Z</time></trkpt><trkpt lat="45.149841" lon="9.548727"><ele>51.83333333333333</ele><time>2026-04-25T12:43:26.151Z</time></trkpt><trkpt lat="45.1497621" lon="9.5486845"><ele>51.666666666666664</ele><time>2026-04-25T12:43:27.152Z</time></trkpt><trkpt lat="45.1497848" lon="9.5485887"><ele>51.5</ele><time>2026-04-25T12:44:02.151Z</time></trkpt><trkpt lat="45.1498393" lon="9.5484345"><ele>51.33333333333333</ele><time>2026-04-25T12:44:04.151Z</time></trkpt><trkpt lat="45.1498524" lon="9.5483382"><ele>51.166666666666664</ele><time>2026-04-25T12:44:05.152Z</time></trkpt><trkpt lat="45.1498811" lon="9.5482481"><ele>51.0</ele><time>2026-04-25T12:44:06.152Z</time></trkpt><trkpt lat="45.1499164" lon="9.5481596"><ele>51.0</ele><time>2026-04-25T12:44:07.15Z</time></trkpt><trkpt lat="45.1499499" lon="9.5480096"><ele>51.0</ele><time>2026-04-25T12:44:08.152Z</time></trkpt><trkpt lat="45.1499876" lon="9.5478752"><ele>51.0</ele><time>2026-04-25T12:44:09.151Z</time></trkpt><trkpt lat="45.1500413" lon="9.5477432"><ele>51.0</ele><time>2026-04-25T12:44:10.15Z</time></trkpt><trkpt lat="45.1501091" lon="9.5476149"><ele>51.0</ele><time>2026-04-25T12:44:11.151Z</time></trkpt><trkpt lat="45.1501941" lon="9.5474981"><ele>50.25</ele><time>2026-04-25T12:44:12.151Z</time></trkpt><trkpt lat="45.1502779" lon="9.547371"><ele>49.5</ele><time>2026-04-25T12:44:13.151Z</time></trkpt><trkpt lat="45.1503778" lon="9.5472478"><ele>48.75</ele><time>2026-04-25T12:44:14.151Z</time></trkpt><trkpt lat="45.1504795" lon="9.5471307"><ele>48.0</ele><time>2026-04-25T12:44:15.15Z</time></trkpt><trkpt lat="45.1505776" lon="9.5470072"><ele>48.0</ele><time>2026-04-25T12:44:16.152Z</time></trkpt><trkpt lat="45.1506855" lon="9.5468911"><ele>48.0</ele><time>2026-04-25T12:44:17.152Z</time></trkpt><trkpt lat="45.1507909" lon="9.5467781"><ele>48.0</ele><time>2026-04-25T12:44:18.15Z</time></trkpt><trkpt lat="45.1508914" lon="9.5466756"><ele>48.0</ele><time>2026-04-25T12:44:19.151Z</time></trkpt><trkpt lat="45.151005" lon="9.5465676"><ele>48.25</ele><time>2026-04-25T12:44:20.15Z</time></trkpt><trkpt lat="45.1511165" lon="9.546499"><ele>48.5</ele><time>2026-04-25T12:44:21.151Z</time></trkpt><trkpt lat="45.1512419" lon="9.5464853"><ele>48.75</ele><time>2026-04-25T12:44:22.151Z</time></trkpt><trkpt lat="45.151368" lon="9.5464639"><ele>49.0</ele><time>2026-04-25T12:44:23.151Z</time></trkpt><trkpt lat="45.1514967" lon="9.5464504"><ele>49.0</ele><time>2026-04-25T12:44:24.151Z</time></trkpt><trkpt lat="45.1516157" lon="9.546429"><ele>49.0</ele><time>2026-04-25T12:44:25.15Z</time></trkpt><trkpt lat="45.1517587" lon="9.5464238"><ele>49.0</ele><time>2026-04-25T12:44:26.15Z</time></trkpt><trkpt lat="45.1518756" lon="9.5463976"><ele>49.0</ele><time>2026-04-25T12:44:27.15Z</time></trkpt><trkpt lat="45.1519944" lon="9.546352"><ele>49.0</ele><time>2026-04-25T12:44:28.152Z</time></trkpt><trkpt lat="45.1520982" lon="9.5462913"><ele>49.0</ele><time>2026-04-25T12:44:29.15Z</time></trkpt><trkpt lat="45.1522043" lon="9.5462291"><ele>49.0</ele><time>2026-04-25T12:44:30.151Z</time></trkpt><trkpt lat="45.1523046" lon="9.5461629"><ele>49.0</ele><time>2026-04-25T12:44:31.15Z</time></trkpt><trkpt lat="45.1524068" lon="9.5461103"><ele>49.0</ele><time>2026-04-25T12:44:32.15Z</time></trkpt><trkpt lat="45.152514" lon="9.5460557"><ele>48.99999999999999</ele><time>2026-04-25T12:44:33.152Z</time></trkpt><trkpt lat="45.1525836" lon="9.5460167"><ele>49.0</ele><time>2026-04-25T12:44:34.151Z</time></trkpt><trkpt lat="45.1526515" lon="9.5459757"><ele>49.0</ele><time>2026-04-25T12:44:35.151Z</time></trkpt><trkpt lat="45.1527614" lon="9.5459047"><ele>49.0</ele><time>2026-04-25T12:44:37.15Z</time></trkpt><trkpt lat="45.1528077" lon="9.545837"><ele>48.99999999999999</ele><time>2026-04-25T12:44:39.151Z</time></trkpt><trkpt lat="45.152792" lon="9.5457342"><ele>49.0</ele><time>2026-04-25T12:44:41.15Z</time></trkpt><trkpt lat="45.1527125" lon="9.5456554"><ele>49.0</ele><time>2026-04-25T12:44:43.152Z</time></trkpt><trkpt lat="45.1526332" lon="9.5455778"><ele>49.0</ele><time>2026-04-25T12:44:45.151Z</time></trkpt><trkpt lat="45.152556" lon="9.5454955"><ele>49.0</ele><time>2026-04-25T12:44:47.151Z</time></trkpt><trkpt lat="45.1525003" lon="9.5454078"><ele>49.0</ele><time>2026-04-25T12:44:49.152Z</time></trkpt><trkpt lat="45.1524315" lon="9.5452708"><ele>49.0</ele><time>2026-04-25T12:44:51.152Z</time></trkpt><trkpt lat="45.1523696" lon="9.5451138"><ele>48.83333333333333</ele><time>2026-04-25T12:44:53.151Z</time></trkpt><trkpt lat="45.1523255" lon="9.5450302"><ele>48.666666666666664</ele><time>2026-04-25T12:44:54.151Z</time></trkpt><trkpt lat="45.1522477" lon="9.5449783"><ele>48.5</ele><time>2026-04-25T12:44:56.151Z</time></trkpt><trkpt lat="45.1521828" lon="9.5449626"><ele>48.33333333333333</ele><time>2026-04-25T12:44:57.152Z</time></trkpt><trkpt lat="45.1521054" lon="9.5449609"><ele>48.166666666666664</ele><time>2026-04-25T12:44:58.15Z</time></trkpt><trkpt lat="45.1520276" lon="9.544966"><ele>48.0</ele><time>2026-04-25T12:44:59.151Z</time></trkpt><trkpt lat="45.1519387" lon="9.5449634"><ele>48.0</ele><time>2026-04-25T12:45:00.15Z</time></trkpt><trkpt lat="45.1518413" lon="9.5449788"><ele>48.0</ele><time>2026-04-25T12:45:01.15Z</time></trkpt><trkpt lat="45.1517436" lon="9.5449866"><ele>48.0</ele><time>2026-04-25T12:45:02.151Z</time></trkpt><trkpt lat="45.1516417" lon="9.5449976"><ele>48.0</ele><time>2026-04-25T12:45:03.15Z</time></trkpt><trkpt lat="45.1515302" lon="9.5450089"><ele>48.0</ele><time>2026-04-25T12:45:04.151Z</time></trkpt><trkpt lat="45.1514287" lon="9.5450247"><ele>48.0</ele><time>2026-04-25T12:45:05.151Z</time></trkpt><trkpt lat="45.1513048" lon="9.5450187"><ele>48.0</ele><time>2026-04-25T12:45:06.151Z</time></trkpt><trkpt lat="45.1511921" lon="9.5450178"><ele>48.0</ele><time>2026-04-25T12:45:07.15Z</time></trkpt><trkpt lat="45.1510805" lon="9.5450088"><ele>48.0</ele><time>2026-04-25T12:45:08.15Z</time></trkpt><trkpt lat="45.1509671" lon="9.5449924"><ele>48.0</ele><time>2026-04-25T12:45:09.151Z</time></trkpt><trkpt lat="45.1508538" lon="9.5449656"><ele>48.0</ele><time>2026-04-25T12:45:10.151Z</time></trkpt><trkpt lat="45.1507399" lon="9.5449355"><ele>48.0</ele><time>2026-04-25T12:45:11.15Z</time></trkpt><trkpt lat="45.1506283" lon="9.5449041"><ele>48.0</ele><time>2026-04-25T12:45:12.151Z</time></trkpt><trkpt lat="45.150521" lon="9.5448798"><ele>48.0</ele><time>2026-04-25T12:45:13.15Z</time></trkpt><trkpt lat="45.1504129" lon="9.5448469"><ele>48.0</ele><time>2026-04-25T12:45:14.152Z</time></trkpt><trkpt lat="45.1503066" lon="9.544819"><ele>48.0</ele><time>2026-04-25T12:45:15.151Z</time></trkpt><trkpt lat="45.1502037" lon="9.5447794"><ele>48.0</ele><time>2026-04-25T12:45:16.15Z</time></trkpt><trkpt lat="45.1500889" lon="9.5447472"><ele>48.0</ele><time>2026-04-25T12:45:17.151Z</time></trkpt><trkpt lat="45.1499867" lon="9.5447223"><ele>48.0</ele><time>2026-04-25T12:45:18.151Z</time></trkpt><trkpt lat="45.1498734" lon="9.544697"><ele>48.0</ele><time>2026-04-25T12:45:19.151Z</time></trkpt><trkpt lat="45.1497597" lon="9.544676"><ele>48.0</ele><time>2026-04-25T12:45:20.151Z</time></trkpt><trkpt lat="45.14964" lon="9.5446554"><ele>48.0</ele><time>2026-04-25T12:45:21.15Z</time></trkpt><trkpt lat="45.14952" lon="9.5446859"><ele>48.0</ele><time>2026-04-25T12:45:22.15Z</time></trkpt><trkpt lat="45.1494021" lon="9.5447133"><ele>48.0</ele><time>2026-04-25T12:45:23.15Z</time></trkpt><trkpt lat="45.1492841" lon="9.5447332"><ele>48.0</ele><time>2026-04-25T12:45:24.151Z</time></trkpt><trkpt lat="45.1491678" lon="9.5447617"><ele>48.0</ele><time>2026-04-25T12:45:25.15Z</time></trkpt><trkpt lat="45.1490542" lon="9.5447921"><ele>48.25</ele><time>2026-04-25T12:45:26.15Z</time></trkpt><trkpt lat="45.1489406" lon="9.5448279"><ele>48.5</ele><time>2026-04-25T12:45:27.151Z</time></trkpt><trkpt lat="45.148828" lon="9.5448706"><ele>48.75</ele><time>2026-04-25T12:45:28.15Z</time></trkpt><trkpt lat="45.1487094" lon="9.5449176"><ele>49.0</ele><time>2026-04-25T12:45:29.15Z</time></trkpt><trkpt lat="45.1486076" lon="9.5449555"><ele>49.0</ele><time>2026-04-25T12:45:30.152Z</time></trkpt><trkpt lat="45.1484831" lon="9.54499"><ele>49.0</ele><time>2026-04-25T12:45:31.151Z</time></trkpt><trkpt lat="45.1483647" lon="9.5450186"><ele>49.0</ele><time>2026-04-25T12:45:32.151Z</time></trkpt><trkpt lat="45.1482549" lon="9.5450472"><ele>49.0</ele><time>2026-04-25T12:45:33.15Z</time></trkpt><trkpt lat="45.148142" lon="9.5450648"><ele>48.5</ele><time>2026-04-25T12:45:34.15Z</time></trkpt><trkpt lat="45.148031" lon="9.5450904"><ele>48.0</ele><time>2026-04-25T12:45:35.152Z</time></trkpt><trkpt lat="45.1479125" lon="9.5451131"><ele>47.5</ele><time>2026-04-25T12:45:36.15Z</time></trkpt><trkpt lat="45.1477913" lon="9.5451512"><ele>47.0</ele><time>2026-04-25T12:45:37.152Z</time></trkpt><trkpt lat="45.1476719" lon="9.5451968"><ele>47.0</ele><time>2026-04-25T12:45:38.152Z</time></trkpt><trkpt lat="45.1475487" lon="9.5452461"><ele>47.0</ele><time>2026-04-25T12:45:39.152Z</time></trkpt><trkpt lat="45.1474235" lon="9.5452949"><ele>47.0</ele><time>2026-04-25T12:45:40.151Z</time></trkpt><trkpt lat="45.1473021" lon="9.5453352"><ele>47.0</ele><time>2026-04-25T12:45:41.15Z</time></trkpt><trkpt lat="45.147178" lon="9.5453619"><ele>46.75</ele><time>2026-04-25T12:45:42.151Z</time></trkpt><trkpt lat="45.1470549" lon="9.5453921"><ele>46.5</ele><time>2026-04-25T12:45:43.15Z</time></trkpt><trkpt lat="45.1469298" lon="9.5454274"><ele>46.25</ele><time>2026-04-25T12:45:44.151Z</time></trkpt><trkpt lat="45.1468086" lon="9.5454628"><ele>46.0</ele><time>2026-04-25T12:45:45.15Z</time></trkpt><trkpt lat="45.1466884" lon="9.5454962"><ele>46.0</ele><time>2026-04-25T12:45:46.151Z</time></trkpt><trkpt lat="45.1465727" lon="9.5455294"><ele>46.0</ele><time>2026-04-25T12:45:47.151Z</time></trkpt><trkpt lat="45.1464673" lon="9.5455564"><ele>46.0</ele><time>2026-04-25T12:45:48.15Z</time></trkpt><trkpt lat="45.1463656" lon="9.545573"><ele>46.0</ele><time>2026-04-25T12:45:49.152Z</time></trkpt><trkpt lat="45.1462574" lon="9.545574"><ele>46.0</ele><time>2026-04-25T12:45:50.15Z</time></trkpt><trkpt lat="45.1461484" lon="9.5455637"><ele>46.5</ele><time>2026-04-25T12:45:51.152Z</time></trkpt><trkpt lat="45.1460336" lon="9.5455499"><ele>47.0</ele><time>2026-04-25T12:45:52.151Z</time></trkpt><trkpt lat="45.1459186" lon="9.5455322"><ele>47.5</ele><time>2026-04-25T12:45:53.15Z</time></trkpt><trkpt lat="45.1458079" lon="9.5455092"><ele>48.0</ele><time>2026-04-25T12:45:54.151Z</time></trkpt><trkpt lat="45.1456933" lon="9.5454766"><ele>48.25</ele><time>2026-04-25T12:45:55.151Z</time></trkpt><trkpt lat="45.1455687" lon="9.5454284"><ele>48.5</ele><time>2026-04-25T12:45:56.151Z</time></trkpt><trkpt lat="45.1454239" lon="9.5453716"><ele>48.75</ele><time>2026-04-25T12:45:57.15Z</time></trkpt><trkpt lat="45.1452631" lon="9.5453065"><ele>49.0</ele><time>2026-04-25T12:45:58.151Z</time></trkpt><trkpt lat="45.1450978" lon="9.5452421"><ele>49.0</ele><time>2026-04-25T12:45:59.15Z</time></trkpt><trkpt lat="45.1449365" lon="9.545175"><ele>49.0</ele><time>2026-04-25T12:46:00.151Z</time></trkpt><trkpt lat="45.1447802" lon="9.5451106"><ele>49.0</ele><time>2026-04-25T12:46:01.152Z</time></trkpt><trkpt lat="45.1446273" lon="9.5450469"><ele>49.0</ele><time>2026-04-25T12:46:02.151Z</time></trkpt><trkpt lat="45.1444807" lon="9.5449766"><ele>49.0</ele><time>2026-04-25T12:46:03.151Z</time></trkpt><trkpt lat="45.1443318" lon="9.5449116"><ele>49.0</ele><time>2026-04-25T12:46:04.151Z</time></trkpt><trkpt lat="45.1441908" lon="9.5448464"><ele>50.0</ele><time>2026-04-25T12:46:05.151Z</time></trkpt><trkpt lat="45.1440192" lon="9.5447714"><ele>51.0</ele><time>2026-04-25T12:46:06.152Z</time></trkpt><trkpt lat="45.1438378" lon="9.5446966"><ele>52.0</ele><time>2026-04-25T12:46:07.151Z</time></trkpt><trkpt lat="45.143658" lon="9.5446143"><ele>52.25</ele><time>2026-04-25T12:46:08.15Z</time></trkpt><trkpt lat="45.1435012" lon="9.5445462"><ele>52.5</ele><time>2026-04-25T12:46:09.15Z</time></trkpt><trkpt lat="45.1433645" lon="9.5444882"><ele>52.75</ele><time>2026-04-25T12:46:10.15Z</time></trkpt><trkpt lat="45.1432472" lon="9.5444362"><ele>53.0</ele><time>2026-04-25T12:46:11.151Z</time></trkpt><trkpt lat="45.1431328" lon="9.544393"><ele>52.25</ele><time>2026-04-25T12:46:12.15Z</time></trkpt><trkpt lat="45.1430232" lon="9.5443629"><ele>51.5</ele><time>2026-04-25T12:46:13.151Z</time></trkpt><trkpt lat="45.1429122" lon="9.5443537"><ele>50.75</ele><time>2026-04-25T12:46:14.152Z</time></trkpt><trkpt lat="45.1427943" lon="9.5443642"><ele>50.0</ele><time>2026-04-25T12:46:15.151Z</time></trkpt><trkpt lat="45.1426785" lon="9.5443841"><ele>50.0</ele><time>2026-04-25T12:46:16.152Z</time></trkpt><trkpt lat="45.1425534" lon="9.5444165"><ele>50.0</ele><time>2026-04-25T12:46:17.15Z</time></trkpt><trkpt lat="45.1424402" lon="9.5444564"><ele>50.0</ele><time>2026-04-25T12:46:18.15Z</time></trkpt><trkpt lat="45.1423195" lon="9.5445063"><ele>50.0</ele><time>2026-04-25T12:46:19.15Z</time></trkpt><trkpt lat="45.1422078" lon="9.5445575"><ele>50.75</ele><time>2026-04-25T12:46:20.15Z</time></trkpt><trkpt lat="45.1420941" lon="9.5446201"><ele>51.5</ele><time>2026-04-25T12:46:21.15Z</time></trkpt><trkpt lat="45.1419659" lon="9.5447085"><ele>52.25</ele><time>2026-04-25T12:46:22.151Z</time></trkpt><trkpt lat="45.1418241" lon="9.544804"><ele>53.0</ele><time>2026-04-25T12:46:23.151Z</time></trkpt><trkpt lat="45.1416961" lon="9.544901"><ele>53.0</ele><time>2026-04-25T12:46:24.152Z</time></trkpt><trkpt lat="45.1415672" lon="9.5449978"><ele>53.0</ele><time>2026-04-25T12:46:25.15Z</time></trkpt><trkpt lat="45.1414531" lon="9.545087"><ele>53.0</ele><time>2026-04-25T12:46:26.151Z</time></trkpt><trkpt lat="45.1413459" lon="9.5451675"><ele>53.0</ele><time>2026-04-25T12:46:27.15Z</time></trkpt><trkpt lat="45.1412485" lon="9.545249"><ele>52.599999999999994</ele><time>2026-04-25T12:46:28.152Z</time></trkpt><trkpt lat="45.1411584" lon="9.5453281"><ele>52.199999999999996</ele><time>2026-04-25T12:46:29.15Z</time></trkpt><trkpt lat="45.1410706" lon="9.5453937"><ele>51.8</ele><time>2026-04-25T12:46:30.151Z</time></trkpt><trkpt lat="45.1409898" lon="9.5454586"><ele>51.4</ele><time>2026-04-25T12:46:31.151Z</time></trkpt><trkpt lat="45.1409109" lon="9.5455212"><ele>51.0</ele><time>2026-04-25T12:46:32.151Z</time></trkpt><trkpt lat="45.1408334" lon="9.5455847"><ele>51.0</ele><time>2026-04-25T12:46:33.151Z</time></trkpt><trkpt lat="45.1407529" lon="9.5456434"><ele>51.0</ele><time>2026-04-25T12:46:34.15Z</time></trkpt><trkpt lat="45.1406742" lon="9.5456972"><ele>51.0</ele><time>2026-04-25T12:46:35.15Z</time></trkpt><trkpt lat="45.1405915" lon="9.5457632"><ele>51.0</ele><time>2026-04-25T12:46:36.15Z</time></trkpt><trkpt lat="45.1405161" lon="9.5458228"><ele>51.0</ele><time>2026-04-25T12:46:37.15Z</time></trkpt><trkpt lat="45.1404592" lon="9.5458647"><ele>51.0</ele><time>2026-04-25T12:46:38.15Z</time></trkpt><trkpt lat="45.1403512" lon="9.5459222"><ele>50.8</ele><time>2026-04-25T12:46:40.15Z</time></trkpt><trkpt lat="45.1402983" lon="9.5460188"><ele>50.599999999999994</ele><time>2026-04-25T12:46:42.15Z</time></trkpt><trkpt lat="45.1403499" lon="9.5461785"><ele>50.4</ele><time>2026-04-25T12:46:44.151Z</time></trkpt><trkpt lat="45.1404055" lon="9.5462653"><ele>50.2</ele><time>2026-04-25T12:46:45.152Z</time></trkpt><trkpt lat="45.1404852" lon="9.5463288"><ele>50.0</ele><time>2026-04-25T12:46:46.151Z</time></trkpt><trkpt lat="45.1405993" lon="9.5463939"><ele>50.8</ele><time>2026-04-25T12:46:47.151Z</time></trkpt><trkpt lat="45.1407125" lon="9.5464585"><ele>51.6</ele><time>2026-04-25T12:46:48.15Z</time></trkpt><trkpt lat="45.1408144" lon="9.5465141"><ele>52.400000000000006</ele><time>2026-04-25T12:46:49.15Z</time></trkpt><trkpt lat="45.1408891" lon="9.5465582"><ele>53.2</ele><time>2026-04-25T12:46:50.15Z</time></trkpt><trkpt lat="45.1409702" lon="9.5466299"><ele>54.0</ele><time>2026-04-25T12:46:52.15Z</time></trkpt><trkpt lat="45.1408979" lon="9.5466701"><ele>54.0</ele><time>2026-04-25T12:46:56.15Z</time></trkpt><trkpt lat="45.1408199" lon="9.546659"><ele>54.0</ele><time>2026-04-25T12:46:59.152Z</time></trkpt><trkpt lat="45.140734" lon="9.5466387"><ele>54.0</ele><time>2026-04-25T12:47:02.151Z</time></trkpt><trkpt lat="45.1406604" lon="9.5466002"><ele>54.0</ele><time>2026-04-25T12:47:05.151Z</time></trkpt><trkpt lat="45.1405958" lon="9.5465837"><ele>54.0</ele><time>2026-04-25T12:47:08.152Z</time></trkpt><trkpt lat="45.1405142" lon="9.5465644"><ele>54.0</ele><time>2026-04-25T12:47:10.152Z</time></trkpt><trkpt lat="45.1404025" lon="9.5465205"><ele>54.333333333333336</ele><time>2026-04-25T12:47:12.151Z</time></trkpt><trkpt lat="45.1403379" lon="9.5464912"><ele>54.66666666666667</ele><time>2026-04-25T12:47:13.15Z</time></trkpt><trkpt lat="45.1402703" lon="9.5464598"><ele>55.0</ele><time>2026-04-25T12:47:14.152Z</time></trkpt><trkpt lat="45.1402057" lon="9.5464235"><ele>55.333333333333336</ele><time>2026-04-25T12:47:15.151Z</time></trkpt><trkpt lat="45.1401365" lon="9.546387"><ele>55.66666666666667</ele><time>2026-04-25T12:47:16.151Z</time></trkpt><trkpt lat="45.1400453" lon="9.5463347"><ele>56.0</ele><time>2026-04-25T12:47:17.15Z</time></trkpt><trkpt lat="45.1399604" lon="9.5462817"><ele>56.4</ele><time>2026-04-25T12:47:18.151Z</time></trkpt><trkpt lat="45.1398742" lon="9.5462232"><ele>56.8</ele><time>2026-04-25T12:47:19.151Z</time></trkpt><trkpt lat="45.1397881" lon="9.5461676"><ele>57.199999999999996</ele><time>2026-04-25T12:47:20.151Z</time></trkpt><trkpt lat="45.1396999" lon="9.5461266"><ele>57.599999999999994</ele><time>2026-04-25T12:47:21.15Z</time></trkpt><trkpt lat="45.1396118" lon="9.5460826"><ele>58.0</ele><time>2026-04-25T12:47:22.151Z</time></trkpt><trkpt lat="45.1395204" lon="9.5460287"><ele>57.0</ele><time>2026-04-25T12:47:23.15Z</time></trkpt><trkpt lat="45.1394411" lon="9.5459834"><ele>56.0</ele><time>2026-04-25T12:47:24.151Z</time></trkpt><trkpt lat="45.1393434" lon="9.5459184"><ele>55.0</ele><time>2026-04-25T12:47:25.15Z</time></trkpt><trkpt lat="45.1392659" lon="9.5458733"><ele>54.0</ele><time>2026-04-25T12:47:26.15Z</time></trkpt><trkpt lat="45.139153" lon="9.5458064"><ele>53.0</ele><time>2026-04-25T12:47:27.152Z</time></trkpt><trkpt lat="45.1390451" lon="9.5457507"><ele>53.0</ele><time>2026-04-25T12:47:28.151Z</time></trkpt><trkpt lat="45.1389405" lon="9.5457063"><ele>53.0</ele><time>2026-04-25T12:47:29.15Z</time></trkpt><trkpt lat="45.1388407" lon="9.5456632"><ele>53.0</ele><time>2026-04-25T12:47:30.152Z</time></trkpt><trkpt lat="45.1387502" lon="9.5456292"><ele>53.0</ele><time>2026-04-25T12:47:31.151Z</time></trkpt><trkpt lat="45.1386688" lon="9.5456331"><ele>53.0</ele><time>2026-04-25T12:47:32.151Z</time></trkpt><trkpt lat="45.1385818" lon="9.5456317"><ele>53.00000000000001</ele><time>2026-04-25T12:47:33.152Z</time></trkpt><trkpt lat="45.138494" lon="9.5456273"><ele>53.0</ele><time>2026-04-25T12:47:34.152Z</time></trkpt><trkpt lat="45.1384064" lon="9.5456336"><ele>53.0</ele><time>2026-04-25T12:47:35.15Z</time></trkpt><trkpt lat="45.1383175" lon="9.5456525"><ele>53.0</ele><time>2026-04-25T12:47:36.151Z</time></trkpt><trkpt lat="45.1382276" lon="9.5456593"><ele>53.00000000000001</ele><time>2026-04-25T12:47:37.151Z</time></trkpt><trkpt lat="45.1381379" lon="9.5456817"><ele>53.0</ele><time>2026-04-25T12:47:38.152Z</time></trkpt><trkpt lat="45.1380453" lon="9.5457168"><ele>52.4</ele><time>2026-04-25T12:47:39.151Z</time></trkpt><trkpt lat="45.1379502" lon="9.5457534"><ele>51.8</ele><time>2026-04-25T12:47:40.15Z</time></trkpt><trkpt lat="45.1378622" lon="9.5457864"><ele>51.2</ele><time>2026-04-25T12:47:41.151Z</time></trkpt><trkpt lat="45.1377848" lon="9.5458134"><ele>50.6</ele><time>2026-04-25T12:47:42.152Z</time></trkpt><trkpt lat="45.1376641" lon="9.545863"><ele>50.0</ele><time>2026-04-25T12:47:44.15Z</time></trkpt><trkpt lat="45.1375448" lon="9.5459181"><ele>50.0</ele><time>2026-04-25T12:47:46.151Z</time></trkpt><trkpt lat="45.1373983" lon="9.5460059"><ele>50.0</ele><time>2026-04-25T12:47:48.151Z</time></trkpt><trkpt lat="45.1372992" lon="9.5460484"><ele>50.0</ele><time>2026-04-25T12:47:49.15Z</time></trkpt><trkpt lat="45.1372109" lon="9.5460987"><ele>50.0</ele><time>2026-04-25T12:47:50.151Z</time></trkpt><trkpt lat="45.137099" lon="9.5461955"><ele>50.5</ele><time>2026-04-25T12:47:51.15Z</time></trkpt><trkpt lat="45.1369978" lon="9.5462638"><ele>51.0</ele><time>2026-04-25T12:47:52.151Z</time></trkpt><trkpt lat="45.1369062" lon="9.5463774"><ele>51.5</ele><time>2026-04-25T12:47:53.15Z</time></trkpt><trkpt lat="45.1367762" lon="9.5465095"><ele>52.0</ele><time>2026-04-25T12:47:54.151Z</time></trkpt><trkpt lat="45.1366572" lon="9.5466023"><ele>52.0</ele><time>2026-04-25T12:47:55.15Z</time></trkpt><trkpt lat="45.1365618" lon="9.546732"><ele>52.0</ele><time>2026-04-25T12:47:56.15Z</time></trkpt><trkpt lat="45.1364832" lon="9.5468032"><ele>52.0</ele><time>2026-04-25T12:47:57.151Z</time></trkpt><trkpt lat="45.136402" lon="9.5468837"><ele>52.0</ele><time>2026-04-25T12:47:58.151Z</time></trkpt><trkpt lat="45.1363208" lon="9.5469751"><ele>52.0</ele><time>2026-04-25T12:47:59.151Z</time></trkpt><trkpt lat="45.1362439" lon="9.547051"><ele>51.8</ele><time>2026-04-25T12:48:00.15Z</time></trkpt><trkpt lat="45.1361756" lon="9.5471403"><ele>51.6</ele><time>2026-04-25T12:48:01.151Z</time></trkpt><trkpt lat="45.1360888" lon="9.5472449"><ele>51.4</ele><time>2026-04-25T12:48:02.151Z</time></trkpt><trkpt lat="45.1360452" lon="9.5473949"><ele>51.199999999999996</ele><time>2026-04-25T12:48:03.15Z</time></trkpt><trkpt lat="45.1359774" lon="9.5475014"><ele>51.0</ele><time>2026-04-25T12:48:04.15Z</time></trkpt><trkpt lat="45.1359327" lon="9.5476767"><ele>51.0</ele><time>2026-04-25T12:48:05.15Z</time></trkpt><trkpt lat="45.1358797" lon="9.547816"><ele>51.0</ele><time>2026-04-25T12:48:06.15Z</time></trkpt><trkpt lat="45.1358297" lon="9.5479669"><ele>51.0</ele><time>2026-04-25T12:48:07.15Z</time></trkpt><trkpt lat="45.135772" lon="9.5481351"><ele>51.0</ele><time>2026-04-25T12:48:08.15Z</time></trkpt><trkpt lat="45.1357205" lon="9.5482991"><ele>50.25</ele><time>2026-04-25T12:48:09.151Z</time></trkpt><trkpt lat="45.135652" lon="9.5484666"><ele>49.5</ele><time>2026-04-25T12:48:10.151Z</time></trkpt><trkpt lat="45.1355927" lon="9.548622"><ele>48.75</ele><time>2026-04-25T12:48:11.15Z</time></trkpt><trkpt lat="45.1355232" lon="9.548765"><ele>48.0</ele><time>2026-04-25T12:48:12.149Z</time></trkpt><trkpt lat="45.1354503" lon="9.5489159"><ele>48.0</ele><time>2026-04-25T12:48:13.15Z</time></trkpt><trkpt lat="45.1353804" lon="9.549067"><ele>48.0</ele><time>2026-04-25T12:48:14.149Z</time></trkpt><trkpt lat="45.1353109" lon="9.5492287"><ele>48.0</ele><time>2026-04-25T12:48:15.15Z</time></trkpt><trkpt lat="45.1352403" lon="9.549377"><ele>48.0</ele><time>2026-04-25T12:48:16.149Z</time></trkpt><trkpt lat="45.1351686" lon="9.5495242"><ele>46.75</ele><time>2026-04-25T12:48:17.15Z</time></trkpt><trkpt lat="45.1350973" lon="9.5496752"><ele>45.5</ele><time>2026-04-25T12:48:18.151Z</time></trkpt><trkpt lat="45.1350231" lon="9.5498255"><ele>44.25</ele><time>2026-04-25T12:48:19.151Z</time></trkpt><trkpt lat="45.1349489" lon="9.5499628"><ele>43.0</ele><time>2026-04-25T12:48:20.151Z</time></trkpt><trkpt lat="45.1348797" lon="9.5500942"><ele>43.0</ele><time>2026-04-25T12:48:21.149Z</time></trkpt><trkpt lat="45.1348043" lon="9.5502238"><ele>43.0</ele><time>2026-04-25T12:48:22.149Z</time></trkpt><trkpt lat="45.1347225" lon="9.5503778"><ele>43.0</ele><time>2026-04-25T12:48:23.149Z</time></trkpt><trkpt lat="45.1346363" lon="9.5505079"><ele>43.0</ele><time>2026-04-25T12:48:24.15Z</time></trkpt><trkpt lat="45.1345629" lon="9.5506189"><ele>44.0</ele><time>2026-04-25T12:48:25.15Z</time></trkpt><trkpt lat="45.1345022" lon="9.5507242"><ele>45.0</ele><time>2026-04-25T12:48:26.149Z</time></trkpt><trkpt lat="45.1344427" lon="9.5508241"><ele>46.0</ele><time>2026-04-25T12:48:27.151Z</time></trkpt><trkpt lat="45.1343783" lon="9.5508985"><ele>47.0</ele><time>2026-04-25T12:48:28.151Z</time></trkpt><trkpt lat="45.1343013" lon="9.55102"><ele>48.0</ele><time>2026-04-25T12:48:29.15Z</time></trkpt><trkpt lat="45.1342331" lon="9.5511404"><ele>48.4</ele><time>2026-04-25T12:48:30.149Z</time></trkpt><trkpt lat="45.1341496" lon="9.5512298"><ele>48.8</ele><time>2026-04-25T12:48:31.15Z</time></trkpt><trkpt lat="45.1340733" lon="9.5513201"><ele>49.2</ele><time>2026-04-25T12:48:32.15Z</time></trkpt><trkpt lat="45.1339949" lon="9.5514099"><ele>49.6</ele><time>2026-04-25T12:48:33.149Z</time></trkpt><trkpt lat="45.1339168" lon="9.5514886"><ele>50.0</ele><time>2026-04-25T12:48:34.15Z</time></trkpt><trkpt lat="45.1338346" lon="9.5515556"><ele>50.0</ele><time>2026-04-25T12:48:35.15Z</time></trkpt><trkpt lat="45.1337556" lon="9.5516291"><ele>50.0</ele><time>2026-04-25T12:48:36.15Z</time></trkpt><trkpt lat="45.1336691" lon="9.5516959"><ele>50.0</ele><time>2026-04-25T12:48:37.149Z</time></trkpt><trkpt lat="45.1335795" lon="9.551762"><ele>50.0</ele><time>2026-04-25T12:48:38.149Z</time></trkpt><trkpt lat="45.1334861" lon="9.5518237"><ele>50.0</ele><time>2026-04-25T12:48:39.151Z</time></trkpt><trkpt lat="45.1333902" lon="9.5518917"><ele>50.0</ele><time>2026-04-25T12:48:40.149Z</time></trkpt><trkpt lat="45.1332975" lon="9.5519548"><ele>50.0</ele><time>2026-04-25T12:48:41.15Z</time></trkpt><trkpt lat="45.1332036" lon="9.5520154"><ele>50.0</ele><time>2026-04-25T12:48:42.151Z</time></trkpt><trkpt lat="45.1331052" lon="9.5520838"><ele>50.0</ele><time>2026-04-25T12:48:43.15Z</time></trkpt><trkpt lat="45.133002" lon="9.5521567"><ele>50.0</ele><time>2026-04-25T12:48:44.15Z</time></trkpt><trkpt lat="45.1329018" lon="9.5522255"><ele>50.4</ele><time>2026-04-25T12:48:45.149Z</time></trkpt><trkpt lat="45.1328054" lon="9.5522926"><ele>50.8</ele><time>2026-04-25T12:48:46.15Z</time></trkpt><trkpt lat="45.1327219" lon="9.5523548"><ele>51.2</ele><time>2026-04-25T12:48:47.149Z</time></trkpt><trkpt lat="45.1326542" lon="9.5524098"><ele>51.6</ele><time>2026-04-25T12:48:48.15Z</time></trkpt><trkpt lat="45.1325931" lon="9.5524619"><ele>52.0</ele><time>2026-04-25T12:48:49.151Z</time></trkpt><trkpt lat="45.1325008" lon="9.5525539"><ele>51.99999999999999</ele><time>2026-04-25T12:48:51.149Z</time></trkpt><trkpt lat="45.132447" lon="9.5526034"><ele>52.0</ele><time>2026-04-25T12:49:23.15Z</time></trkpt><trkpt lat="45.1323806" lon="9.5527106"><ele>52.0</ele><time>2026-04-25T12:49:24.15Z</time></trkpt><trkpt lat="45.1323321" lon="9.5527952"><ele>52.0</ele><time>2026-04-25T12:49:25.151Z</time></trkpt><trkpt lat="45.1322818" lon="9.5528982"><ele>51.99999999999999</ele><time>2026-04-25T12:49:26.15Z</time></trkpt><trkpt lat="45.1322435" lon="9.5529993"><ele>52.0</ele><time>2026-04-25T12:49:27.149Z</time></trkpt><trkpt lat="45.1322088" lon="9.5530861"><ele>50.99999999999999</ele><time>2026-04-25T12:49:28.149Z</time></trkpt><trkpt lat="45.1321751" lon="9.553172"><ele>50.0</ele><time>2026-04-25T12:49:29.149Z</time></trkpt><trkpt lat="45.1321156" lon="9.5533187"><ele>49.0</ele><time>2026-04-25T12:49:31.15Z</time></trkpt><trkpt lat="45.1320803" lon="9.5534045"><ele>48.0</ele><time>2026-04-25T12:49:33.149Z</time></trkpt><trkpt lat="45.1321162" lon="9.553483"><ele>47.0</ele><time>2026-04-25T12:50:03.149Z</time></trkpt><trkpt lat="45.1322049" lon="9.5535276"><ele>46.0</ele><time>2026-04-25T12:50:06.149Z</time></trkpt><trkpt lat="45.1322668" lon="9.5534294"><ele>46.0</ele><time>2026-04-25T12:50:08.15Z</time></trkpt><trkpt lat="45.1322335" lon="9.5533399"><ele>46.0</ele><time>2026-04-25T12:50:10.151Z</time></trkpt><trkpt lat="45.1321372" lon="9.5533215"><ele>46.0</ele><time>2026-04-25T12:50:13.15Z</time></trkpt><trkpt lat="45.1320845" lon="9.5533765"><ele>46.0</ele><time>2026-04-25T12:50:17.149Z</time></trkpt><trkpt lat="45.1321394" lon="9.5532661"><ele>46.0</ele><time>2026-04-25T12:50:19.149Z</time></trkpt><trkpt lat="45.1321886" lon="9.553131"><ele>46.0</ele><time>2026-04-25T12:50:21.149Z</time></trkpt><trkpt lat="45.1322285" lon="9.5530422"><ele>46.0</ele><time>2026-04-25T12:50:22.149Z</time></trkpt><trkpt lat="45.1322663" lon="9.5529507"><ele>46.0</ele><time>2026-04-25T12:50:23.151Z</time></trkpt><trkpt lat="45.1323115" lon="9.552853"><ele>46.0</ele><time>2026-04-25T12:50:24.15Z</time></trkpt><trkpt lat="45.1323403" lon="9.5527573"><ele>46.0</ele><time>2026-04-25T12:50:25.15Z</time></trkpt><trkpt lat="45.1323936" lon="9.5526984"><ele>46.0</ele><time>2026-04-25T12:50:26.151Z</time></trkpt><trkpt lat="45.1324444" lon="9.5526216"><ele>46.0</ele><time>2026-04-25T12:50:27.15Z</time></trkpt><trkpt lat="45.132509" lon="9.5525366"><ele>47.199999999999996</ele><time>2026-04-25T12:50:28.149Z</time></trkpt><trkpt lat="45.1325731" lon="9.552455"><ele>48.4</ele><time>2026-04-25T12:50:29.15Z</time></trkpt><trkpt lat="45.1326733" lon="9.55238"><ele>49.6</ele><time>2026-04-25T12:50:30.15Z</time></trkpt><trkpt lat="45.1327417" lon="9.5523198"><ele>50.8</ele><time>2026-04-25T12:50:31.151Z</time></trkpt><trkpt lat="45.1328311" lon="9.5522524"><ele>52.0</ele><time>2026-04-25T12:50:32.15Z</time></trkpt><trkpt lat="45.1329111" lon="9.5521827"><ele>52.0</ele><time>2026-04-25T12:50:33.15Z</time></trkpt><trkpt lat="45.1329939" lon="9.5521298"><ele>52.0</ele><time>2026-04-25T12:50:34.15Z</time></trkpt><trkpt lat="45.1330734" lon="9.5520599"><ele>52.0</ele><time>2026-04-25T12:50:35.151Z</time></trkpt><trkpt lat="45.1331948" lon="9.5519869"><ele>52.0</ele><time>2026-04-25T12:50:36.149Z</time></trkpt><trkpt lat="45.1332996" lon="9.5519153"><ele>52.0</ele><time>2026-04-25T12:50:37.15Z</time></trkpt><trkpt lat="45.1333991" lon="9.5518414"><ele>51.6</ele><time>2026-04-25T12:50:38.15Z</time></trkpt><trkpt lat="45.1334896" lon="9.551784"><ele>51.2</ele><time>2026-04-25T12:50:39.149Z</time></trkpt><trkpt lat="45.1335967" lon="9.5517304"><ele>50.8</ele><time>2026-04-25T12:50:40.149Z</time></trkpt><trkpt lat="45.1337092" lon="9.5516576"><ele>50.4</ele><time>2026-04-25T12:50:41.15Z</time></trkpt><trkpt lat="45.1337937" lon="9.5515727"><ele>50.0</ele><time>2026-04-25T12:50:42.15Z</time></trkpt><trkpt lat="45.1338785" lon="9.5515033"><ele>50.00000000000001</ele><time>2026-04-25T12:50:43.151Z</time></trkpt><trkpt lat="45.1339554" lon="9.5514416"><ele>50.0</ele><time>2026-04-25T12:50:44.15Z</time></trkpt><trkpt lat="45.1340241" lon="9.5513631"><ele>50.0</ele><time>2026-04-25T12:50:45.15Z</time></trkpt><trkpt lat="45.1340881" lon="9.5512835"><ele>50.0</ele><time>2026-04-25T12:50:46.15Z</time></trkpt><trkpt lat="45.1341552" lon="9.5512013"><ele>50.00000000000001</ele><time>2026-04-25T12:50:47.15Z</time></trkpt><trkpt lat="45.1342182" lon="9.5511173"><ele>50.0</ele><time>2026-04-25T12:50:48.149Z</time></trkpt><trkpt lat="45.1342817" lon="9.5510318"><ele>49.66666666666667</ele><time>2026-04-25T12:50:49.149Z</time></trkpt><trkpt lat="45.1343388" lon="9.5509622"><ele>49.333333333333336</ele><time>2026-04-25T12:50:50.149Z</time></trkpt><trkpt lat="45.1344152" lon="9.5508763"><ele>49.0</ele><time>2026-04-25T12:50:52.151Z</time></trkpt><trkpt lat="45.1345055" lon="9.5508859"><ele>48.66666666666667</ele><time>2026-04-25T12:50:54.15Z</time></trkpt><trkpt lat="45.1345624" lon="9.5509364"><ele>48.333333333333336</ele><time>2026-04-25T12:50:55.149Z</time></trkpt><trkpt lat="45.1346211" lon="9.550987"><ele>48.0</ele><time>2026-04-25T12:50:56.15Z</time></trkpt><trkpt lat="45.1346858" lon="9.5510655"><ele>48.0</ele><time>2026-04-25T12:50:57.15Z</time></trkpt><trkpt lat="45.1347721" lon="9.5511621"><ele>48.0</ele><time>2026-04-25T12:50:58.15Z</time></trkpt><trkpt lat="45.1348777" lon="9.5512697"><ele>48.0</ele><time>2026-04-25T12:50:59.149Z</time></trkpt><trkpt lat="45.1349964" lon="9.5513906"><ele>48.0</ele><time>2026-04-25T12:51:00.151Z</time></trkpt><trkpt lat="45.1351242" lon="9.5515077"><ele>51.25</ele><time>2026-04-25T12:51:01.149Z</time></trkpt><trkpt lat="45.1352479" lon="9.5516032"><ele>54.5</ele><time>2026-04-25T12:51:02.15Z</time></trkpt><trkpt lat="45.1353682" lon="9.5516984"><ele>57.75</ele><time>2026-04-25T12:51:03.149Z</time></trkpt><trkpt lat="45.1354893" lon="9.551819"><ele>61.0</ele><time>2026-04-25T12:51:04.15Z</time></trkpt><trkpt lat="45.1356176" lon="9.5519426"><ele>59.666666666666664</ele><time>2026-04-25T12:51:05.15Z</time></trkpt><trkpt lat="45.1357574" lon="9.5520927"><ele>58.33333333333333</ele><time>2026-04-25T12:51:06.15Z</time></trkpt><trkpt lat="45.1358915" lon="9.5522351"><ele>57.0</ele><time>2026-04-25T12:51:07.151Z</time></trkpt><trkpt lat="45.1360235" lon="9.5523653"><ele>57.0</ele><time>2026-04-25T12:51:08.15Z</time></trkpt><trkpt lat="45.1361549" lon="9.5524942"><ele>57.0</ele><time>2026-04-25T12:51:09.149Z</time></trkpt><trkpt lat="45.1362846" lon="9.5526147"><ele>57.0</ele><time>2026-04-25T12:51:10.15Z</time></trkpt><trkpt lat="45.1364094" lon="9.552733"><ele>57.0</ele><time>2026-04-25T12:51:11.15Z</time></trkpt><trkpt lat="45.1365272" lon="9.5528493"><ele>57.0</ele><time>2026-04-25T12:51:12.151Z</time></trkpt><trkpt lat="45.1366502" lon="9.5529685"><ele>57.0</ele><time>2026-04-25T12:51:13.149Z</time></trkpt><trkpt lat="45.1367682" lon="9.5530757"><ele>57.0</ele><time>2026-04-25T12:51:14.149Z</time></trkpt><trkpt lat="45.1368881" lon="9.55319"><ele>55.75</ele><time>2026-04-25T12:51:15.149Z</time></trkpt><trkpt lat="45.1369952" lon="9.5533027"><ele>54.5</ele><time>2026-04-25T12:51:16.15Z</time></trkpt><trkpt lat="45.1370927" lon="9.5533994"><ele>53.25</ele><time>2026-04-25T12:51:17.15Z</time></trkpt><trkpt lat="45.1371987" lon="9.5534876"><ele>52.0</ele><time>2026-04-25T12:51:18.15Z</time></trkpt><trkpt lat="45.1373145" lon="9.5535646"><ele>51.400000000000006</ele><time>2026-04-25T12:51:19.149Z</time></trkpt><trkpt lat="45.1374156" lon="9.5536242"><ele>50.800000000000004</ele><time>2026-04-25T12:51:20.15Z</time></trkpt><trkpt lat="45.1375165" lon="9.5536834"><ele>50.2</ele><time>2026-04-25T12:51:21.15Z</time></trkpt><trkpt lat="45.1375921" lon="9.5536522"><ele>49.6</ele><time>2026-04-25T12:51:22.149Z</time></trkpt><trkpt lat="45.1376889" lon="9.5536524"><ele>49.0</ele><time>2026-04-25T12:51:23.15Z</time></trkpt><trkpt lat="45.1377806" lon="9.5536473"><ele>49.0</ele><time>2026-04-25T12:51:24.15Z</time></trkpt><trkpt lat="45.1377265" lon="9.553695"><ele>49.0</ele><time>2026-04-25T12:52:04.15Z</time></trkpt><trkpt lat="45.1376411" lon="9.5537775"><ele>49.0</ele><time>2026-04-25T12:52:06.15Z</time></trkpt><trkpt lat="45.1375805" lon="9.5538606"><ele>49.0</ele><time>2026-04-25T12:52:07.15Z</time></trkpt><trkpt lat="45.1375098" lon="9.5539625"><ele>49.0</ele><time>2026-04-25T12:52:08.149Z</time></trkpt><trkpt lat="45.1374302" lon="9.5540743"><ele>49.75</ele><time>2026-04-25T12:52:09.149Z</time></trkpt><trkpt lat="45.1373522" lon="9.5541896"><ele>50.5</ele><time>2026-04-25T12:52:10.151Z</time></trkpt><trkpt lat="45.1372722" lon="9.5543051"><ele>51.25</ele><time>2026-04-25T12:52:11.15Z</time></trkpt><trkpt lat="45.1371698" lon="9.5544119"><ele>52.0</ele><time>2026-04-25T12:52:12.15Z</time></trkpt><trkpt lat="45.1370591" lon="9.5545117"><ele>51.75</ele><time>2026-04-25T12:52:13.15Z</time></trkpt><trkpt lat="45.1369528" lon="9.554607"><ele>51.5</ele><time>2026-04-25T12:52:14.15Z</time></trkpt><trkpt lat="45.136845" lon="9.5547034"><ele>51.25</ele><time>2026-04-25T12:52:15.15Z</time></trkpt><trkpt lat="45.1367337" lon="9.5547944"><ele>51.0</ele><time>2026-04-25T12:52:16.149Z</time></trkpt><trkpt lat="45.1366227" lon="9.5548857"><ele>50.25</ele><time>2026-04-25T12:52:17.15Z</time></trkpt><trkpt lat="45.1365181" lon="9.5549691"><ele>49.5</ele><time>2026-04-25T12:52:18.15Z</time></trkpt><trkpt lat="45.1364054" lon="9.5550592"><ele>48.75</ele><time>2026-04-25T12:52:19.15Z</time></trkpt><trkpt lat="45.1362969" lon="9.5551523"><ele>48.0</ele><time>2026-04-25T12:52:20.149Z</time></trkpt><trkpt lat="45.1361895" lon="9.5552389"><ele>48.0</ele><time>2026-04-25T12:52:21.15Z</time></trkpt><trkpt lat="45.1360784" lon="9.5553324"><ele>48.0</ele><time>2026-04-25T12:52:22.15Z</time></trkpt><trkpt lat="45.1359686" lon="9.5554235"><ele>48.0</ele><time>2026-04-25T12:52:23.149Z</time></trkpt><trkpt lat="45.135857" lon="9.55552"><ele>48.0</ele><time>2026-04-25T12:52:24.151Z</time></trkpt><trkpt lat="45.1357525" lon="9.5556143"><ele>48.25</ele><time>2026-04-25T12:52:25.149Z</time></trkpt><trkpt lat="45.1356451" lon="9.5557162"><ele>48.5</ele><time>2026-04-25T12:52:26.15Z</time></trkpt><trkpt lat="45.1355405" lon="9.5558207"><ele>48.75</ele><time>2026-04-25T12:52:27.149Z</time></trkpt><trkpt lat="45.1354393" lon="9.5559244"><ele>49.0</ele><time>2026-04-25T12:52:28.15Z</time></trkpt><trkpt lat="45.1353463" lon="9.5560142"><ele>49.0</ele><time>2026-04-25T12:52:29.15Z</time></trkpt><trkpt lat="45.1352392" lon="9.5561215"><ele>49.0</ele><time>2026-04-25T12:52:30.149Z</time></trkpt><trkpt lat="45.135133" lon="9.5562241"><ele>49.0</ele><time>2026-04-25T12:52:31.15Z</time></trkpt><trkpt lat="45.1350286" lon="9.556329"><ele>49.0</ele><time>2026-04-25T12:52:32.151Z</time></trkpt><trkpt lat="45.1349241" lon="9.5564273"><ele>48.75</ele><time>2026-04-25T12:52:33.149Z</time></trkpt><trkpt lat="45.134814" lon="9.5565312"><ele>48.5</ele><time>2026-04-25T12:52:34.15Z</time></trkpt><trkpt lat="45.1347152" lon="9.5566264"><ele>48.25</ele><time>2026-04-25T12:52:35.149Z</time></trkpt><trkpt lat="45.1346166" lon="9.5567277"><ele>48.0</ele><time>2026-04-25T12:52:36.15Z</time></trkpt><trkpt lat="45.1345302" lon="9.556821"><ele>48.0</ele><time>2026-04-25T12:52:37.151Z</time></trkpt><trkpt lat="45.1344315" lon="9.5569183"><ele>48.0</ele><time>2026-04-25T12:52:38.15Z</time></trkpt><trkpt lat="45.1343727" lon="9.5569712"><ele>48.0</ele><time>2026-04-25T12:52:39.151Z</time></trkpt><trkpt lat="45.1343018" lon="9.556977"><ele>48.0</ele><time>2026-04-25T12:52:41.151Z</time></trkpt><trkpt lat="45.1341863" lon="9.5569677"><ele>48.0</ele><time>2026-04-25T12:52:43.15Z</time></trkpt><trkpt lat="45.1341164" lon="9.5569164"><ele>48.4</ele><time>2026-04-25T12:52:44.15Z</time></trkpt><trkpt lat="45.1340549" lon="9.5568361"><ele>48.8</ele><time>2026-04-25T12:52:45.149Z</time></trkpt><trkpt lat="45.1340034" lon="9.5567344"><ele>49.2</ele><time>2026-04-25T12:52:46.149Z</time></trkpt><trkpt lat="45.1339477" lon="9.556616"><ele>49.6</ele><time>2026-04-25T12:52:47.151Z</time></trkpt><trkpt lat="45.1338843" lon="9.5565075"><ele>50.0</ele><time>2026-04-25T12:52:48.15Z</time></trkpt><trkpt lat="45.1338067" lon="9.556375"><ele>50.0</ele><time>2026-04-25T12:52:49.151Z</time></trkpt><trkpt lat="45.1337345" lon="9.5562389"><ele>50.0</ele><time>2026-04-25T12:52:50.149Z</time></trkpt><trkpt lat="45.1336589" lon="9.5560941"><ele>50.0</ele><time>2026-04-25T12:52:51.151Z</time></trkpt><trkpt lat="45.133589" lon="9.555961"><ele>50.0</ele><time>2026-04-25T12:52:52.149Z</time></trkpt><trkpt lat="45.1335165" lon="9.5557992"><ele>50.25</ele><time>2026-04-25T12:52:53.15Z</time></trkpt><trkpt lat="45.133447" lon="9.5556479"><ele>50.5</ele><time>2026-04-25T12:52:54.149Z</time></trkpt><trkpt lat="45.133377" lon="9.5555187"><ele>50.75</ele><time>2026-04-25T12:52:55.149Z</time></trkpt><trkpt lat="45.1332991" lon="9.5553956"><ele>51.0</ele><time>2026-04-25T12:52:56.149Z</time></trkpt><trkpt lat="45.1332031" lon="9.5552903"><ele>51.75</ele><time>2026-04-25T12:52:57.15Z</time></trkpt><trkpt lat="45.133115" lon="9.5551877"><ele>52.5</ele><time>2026-04-25T12:52:58.15Z</time></trkpt><trkpt lat="45.1330103" lon="9.5550987"><ele>53.25</ele><time>2026-04-25T12:52:59.149Z</time></trkpt><trkpt lat="45.1329089" lon="9.555018"><ele>54.0</ele><time>2026-04-25T12:53:00.15Z</time></trkpt><trkpt lat="45.1328065" lon="9.5549436"><ele>54.0</ele><time>2026-04-25T12:53:01.15Z</time></trkpt><trkpt lat="45.1327089" lon="9.5548861"><ele>54.00000000000001</ele><time>2026-04-25T12:53:02.15Z</time></trkpt><trkpt lat="45.1326024" lon="9.5548408"><ele>54.00000000000001</ele><time>2026-04-25T12:53:03.149Z</time></trkpt><trkpt lat="45.1324914" lon="9.554808"><ele>54.0</ele><time>2026-04-25T12:53:04.151Z</time></trkpt><trkpt lat="45.1323794" lon="9.554792"><ele>54.0</ele><time>2026-04-25T12:53:05.15Z</time></trkpt><trkpt lat="45.1322761" lon="9.554786"><ele>53.833333333333336</ele><time>2026-04-25T12:53:06.15Z</time></trkpt><trkpt lat="45.1321848" lon="9.5547874"><ele>53.66666666666667</ele><time>2026-04-25T12:53:07.149Z</time></trkpt><trkpt lat="45.1321071" lon="9.5547747"><ele>53.5</ele><time>2026-04-25T12:53:08.15Z</time></trkpt><trkpt lat="45.1320358" lon="9.5547591"><ele>53.333333333333336</ele><time>2026-04-25T12:53:09.15Z</time></trkpt><trkpt lat="45.1319467" lon="9.5547461"><ele>53.16666666666667</ele><time>2026-04-25T12:53:10.15Z</time></trkpt><trkpt lat="45.1318636" lon="9.5547509"><ele>53.0</ele><time>2026-04-25T12:53:11.149Z</time></trkpt><trkpt lat="45.1317881" lon="9.554763"><ele>53.00000000000001</ele><time>2026-04-25T12:53:12.149Z</time></trkpt><trkpt lat="45.1317185" lon="9.55478"><ele>53.0</ele><time>2026-04-25T12:53:13.151Z</time></trkpt><trkpt lat="45.1316522" lon="9.5547952"><ele>53.0</ele><time>2026-04-25T12:53:14.15Z</time></trkpt><trkpt lat="45.1315268" lon="9.5548148"><ele>53.0</ele><time>2026-04-25T12:53:16.149Z</time></trkpt><trkpt lat="45.1314601" lon="9.5548139"><ele>53.00000000000001</ele><time>2026-04-25T12:53:17.149Z</time></trkpt><trkpt lat="45.1313497" lon="9.554765"><ele>53.0</ele><time>2026-04-25T12:53:19.15Z</time></trkpt><trkpt lat="45.1312304" lon="9.554722"><ele>51.8</ele><time>2026-04-25T12:53:21.151Z</time></trkpt><trkpt lat="45.131144" lon="9.5547321"><ele>50.599999999999994</ele><time>2026-04-25T12:53:23.15Z</time></trkpt><trkpt lat="45.1309984" lon="9.5548"><ele>49.400000000000006</ele><time>2026-04-25T12:53:25.15Z</time></trkpt><trkpt lat="45.1309157" lon="9.5548586"><ele>48.2</ele><time>2026-04-25T12:53:26.149Z</time></trkpt><trkpt lat="45.1308269" lon="9.5549213"><ele>47.0</ele><time>2026-04-25T12:53:27.15Z</time></trkpt><trkpt lat="45.1307438" lon="9.5549893"><ele>46.400000000000006</ele><time>2026-04-25T12:53:28.151Z</time></trkpt><trkpt lat="45.1306568" lon="9.5550578"><ele>45.800000000000004</ele><time>2026-04-25T12:53:29.149Z</time></trkpt><trkpt lat="45.1305798" lon="9.5551173"><ele>45.2</ele><time>2026-04-25T12:53:30.149Z</time></trkpt><trkpt lat="45.1305018" lon="9.5551867"><ele>44.6</ele><time>2026-04-25T12:53:31.15Z</time></trkpt><trkpt lat="45.1304107" lon="9.5552758"><ele>44.0</ele><time>2026-04-25T12:53:32.149Z</time></trkpt><trkpt lat="45.1303266" lon="9.5553607"><ele>43.800000000000004</ele><time>2026-04-25T12:53:33.149Z</time></trkpt><trkpt lat="45.1302446" lon="9.5554493"><ele>43.6</ele><time>2026-04-25T12:53:34.15Z</time></trkpt><trkpt lat="45.1301346" lon="9.5555653"><ele>43.4</ele><time>2026-04-25T12:53:35.149Z</time></trkpt><trkpt lat="45.1300483" lon="9.5556582"><ele>43.2</ele><time>2026-04-25T12:53:36.149Z</time></trkpt><trkpt lat="45.1299813" lon="9.555727"><ele>43.0</ele><time>2026-04-25T12:53:37.151Z</time></trkpt><trkpt lat="45.1298628" lon="9.555822"><ele>43.0</ele><time>2026-04-25T12:53:38.15Z</time></trkpt><trkpt lat="45.1297762" lon="9.5559128"><ele>43.0</ele><time>2026-04-25T12:53:39.151Z</time></trkpt><trkpt lat="45.1297251" lon="9.5559873"><ele>43.0</ele><time>2026-04-25T12:53:40.149Z</time></trkpt><trkpt lat="45.1296528" lon="9.5560856"><ele>43.0</ele><time>2026-04-25T12:53:41.15Z</time></trkpt><trkpt lat="45.1295859" lon="9.5561867"><ele>43.0</ele><time>2026-04-25T12:53:42.15Z</time></trkpt><trkpt lat="45.1295228" lon="9.5562916"><ele>43.4</ele><time>2026-04-25T12:53:43.149Z</time></trkpt><trkpt lat="45.1294676" lon="9.5563946"><ele>43.8</ele><time>2026-04-25T12:53:44.149Z</time></trkpt><trkpt lat="45.1294201" lon="9.5564968"><ele>44.2</ele><time>2026-04-25T12:53:45.15Z</time></trkpt><trkpt lat="45.1293793" lon="9.556613"><ele>44.6</ele><time>2026-04-25T12:53:46.15Z</time></trkpt><trkpt lat="45.1293405" lon="9.5567301"><ele>45.0</ele><time>2026-04-25T12:53:47.149Z</time></trkpt><trkpt lat="45.1292939" lon="9.5568437"><ele>45.0</ele><time>2026-04-25T12:53:48.149Z</time></trkpt><trkpt lat="45.1292498" lon="9.5569528"><ele>45.0</ele><time>2026-04-25T12:53:49.15Z</time></trkpt><trkpt lat="45.1291935" lon="9.5570645"><ele>45.0</ele><time>2026-04-25T12:53:50.15Z</time></trkpt><trkpt lat="45.1291483" lon="9.5571704"><ele>45.0</ele><time>2026-04-25T12:53:51.15Z</time></trkpt><trkpt lat="45.1291005" lon="9.5572691"><ele>45.0</ele><time>2026-04-25T12:53:52.149Z</time></trkpt><trkpt lat="45.1290663" lon="9.5573518"><ele>45.0</ele><time>2026-04-25T12:53:53.151Z</time></trkpt><trkpt lat="45.1290312" lon="9.5574298"><ele>45.0</ele><time>2026-04-25T12:53:54.151Z</time></trkpt><trkpt lat="45.1289744" lon="9.5575605"><ele>45.0</ele><time>2026-04-25T12:53:56.15Z</time></trkpt><trkpt lat="45.1288996" lon="9.5577021"><ele>45.0</ele><time>2026-04-25T12:53:58.15Z</time></trkpt><trkpt lat="45.1288388" lon="9.5578214"><ele>45.0</ele><time>2026-04-25T12:54:00.151Z</time></trkpt><trkpt lat="45.12876" lon="9.5578856"><ele>45.0</ele><time>2026-04-25T12:54:02.15Z</time></trkpt><trkpt lat="45.1286887" lon="9.5579099"><ele>45.285714285714285</ele><time>2026-04-25T12:54:04.149Z</time></trkpt><trkpt lat="45.1286128" lon="9.557976"><ele>45.57142857142858</ele><time>2026-04-25T12:54:06.149Z</time></trkpt><trkpt lat="45.1285717" lon="9.5580668"><ele>45.85714285714286</ele><time>2026-04-25T12:54:07.151Z</time></trkpt><trkpt lat="45.12853" lon="9.5581475"><ele>46.14285714285714</ele><time>2026-04-25T12:54:08.149Z</time></trkpt><trkpt lat="45.1284872" lon="9.5582306"><ele>46.42857142857143</ele><time>2026-04-25T12:54:09.15Z</time></trkpt><trkpt lat="45.1284409" lon="9.5582966"><ele>46.714285714285715</ele><time>2026-04-25T12:54:10.149Z</time></trkpt><trkpt lat="45.1283973" lon="9.5583739"><ele>47.0</ele><time>2026-04-25T12:54:11.151Z</time></trkpt><trkpt lat="45.1283546" lon="9.5584455"><ele>47.0</ele><time>2026-04-25T12:54:12.151Z</time></trkpt><trkpt lat="45.1282754" lon="9.5585818"><ele>47.0</ele><time>2026-04-25T12:54:14.15Z</time></trkpt><trkpt lat="45.1282288" lon="9.5586537"><ele>47.0</ele><time>2026-04-25T12:54:15.151Z</time></trkpt><trkpt lat="45.128178" lon="9.5587284"><ele>47.0</ele><time>2026-04-25T12:54:16.149Z</time></trkpt><trkpt lat="45.1280996" lon="9.5588005"><ele>47.0</ele><time>2026-04-25T12:54:18.15Z</time></trkpt><trkpt lat="45.1280351" lon="9.5589004"><ele>47.0</ele><time>2026-04-25T12:54:20.151Z</time></trkpt><trkpt lat="45.1279849" lon="9.5589825"><ele>47.0</ele><time>2026-04-25T12:54:22.15Z</time></trkpt><trkpt lat="45.1279096" lon="9.5590302"><ele>47.0</ele><time>2026-04-25T12:54:24.149Z</time></trkpt><trkpt lat="45.1278602" lon="9.5590933"><ele>47.0</ele><time>2026-04-25T12:54:25.149Z</time></trkpt><trkpt lat="45.1277844" lon="9.5592012"><ele>47.0</ele><time>2026-04-25T12:54:27.15Z</time></trkpt><trkpt lat="45.1277227" lon="9.5592974"><ele>47.0</ele><time>2026-04-25T12:54:28.15Z</time></trkpt><trkpt lat="45.1276109" lon="9.5594107"><ele>47.0</ele><time>2026-04-25T12:54:30.151Z</time></trkpt><trkpt lat="45.1275502" lon="9.5594788"><ele>47.0</ele><time>2026-04-25T12:54:31.15Z</time></trkpt><trkpt lat="45.1274865" lon="9.5595752"><ele>47.0</ele><time>2026-04-25T12:54:32.15Z</time></trkpt><trkpt lat="45.1274119" lon="9.5597001"><ele>47.0</ele><time>2026-04-25T12:54:34.15Z</time></trkpt><trkpt lat="45.1273424" lon="9.5598279"><ele>47.0</ele><time>2026-04-25T12:54:36.149Z</time></trkpt><trkpt lat="45.127303" lon="9.5599003"><ele>47.0</ele><time>2026-04-25T12:54:37.149Z</time></trkpt><trkpt lat="45.1272608" lon="9.559979"><ele>47.0</ele><time>2026-04-25T12:54:38.15Z</time></trkpt><trkpt lat="45.1271995" lon="9.5600583"><ele>47.0</ele><time>2026-04-25T12:54:39.149Z</time></trkpt><trkpt lat="45.1271446" lon="9.560106"><ele>47.0</ele><time>2026-04-25T12:54:41.15Z</time></trkpt><trkpt lat="45.127046" lon="9.5602051"><ele>47.0</ele><time>2026-04-25T12:54:43.149Z</time></trkpt><trkpt lat="45.1269975" lon="9.5602685"><ele>47.0</ele><time>2026-04-25T12:54:44.151Z</time></trkpt><trkpt lat="45.1268915" lon="9.5603723"><ele>47.0</ele><time>2026-04-25T12:54:46.149Z</time></trkpt><trkpt lat="45.126834" lon="9.5604204"><ele>47.0</ele><time>2026-04-25T12:54:47.15Z</time></trkpt><trkpt lat="45.1267781" lon="9.5604694"><ele>47.0</ele><time>2026-04-25T12:54:48.149Z</time></trkpt><trkpt lat="45.1267233" lon="9.5605167"><ele>47.0</ele><time>2026-04-25T12:54:49.15Z</time></trkpt><trkpt lat="45.1266713" lon="9.560572"><ele>47.0</ele><time>2026-04-25T12:54:50.151Z</time></trkpt><trkpt lat="45.1266185" lon="9.5606362"><ele>47.0</ele><time>2026-04-25T12:54:51.149Z</time></trkpt><trkpt lat="45.1265476" lon="9.560672"><ele>47.0</ele><time>2026-04-25T12:54:52.151Z</time></trkpt><trkpt lat="45.1264298" lon="9.5607679"><ele>46.83333333333333</ele><time>2026-04-25T12:54:54.149Z</time></trkpt><trkpt lat="45.1263331" lon="9.5608953"><ele>46.666666666666664</ele><time>2026-04-25T12:54:56.151Z</time></trkpt><trkpt lat="45.1262812" lon="9.5609614"><ele>46.5</ele><time>2026-04-25T12:54:57.15Z</time></trkpt><trkpt lat="45.1262275" lon="9.5610379"><ele>46.333333333333336</ele><time>2026-04-25T12:54:58.15Z</time></trkpt><trkpt lat="45.1261898" lon="9.5611166"><ele>46.16666666666667</ele><time>2026-04-25T12:54:59.149Z</time></trkpt><trkpt lat="45.1261342" lon="9.5611858"><ele>46.0</ele><time>2026-04-25T12:55:00.149Z</time></trkpt><trkpt lat="45.1260458" lon="9.5612999"><ele>46.8</ele><time>2026-04-25T12:55:02.151Z</time></trkpt><trkpt lat="45.1260343" lon="9.5614109"><ele>47.599999999999994</ele><time>2026-04-25T12:55:04.15Z</time></trkpt><trkpt lat="45.1260214" lon="9.5615137"><ele>48.4</ele><time>2026-04-25T12:55:06.15Z</time></trkpt><trkpt lat="45.1259992" lon="9.5615997"><ele>49.2</ele><time>2026-04-25T12:55:07.15Z</time></trkpt><trkpt lat="45.1259089" lon="9.5617436"><ele>50.0</ele><time>2026-04-25T12:55:09.149Z</time></trkpt><trkpt lat="45.1258107" lon="9.5618004"><ele>50.0</ele><time>2026-04-25T12:55:11.15Z</time></trkpt><trkpt lat="45.1257507" lon="9.561855"><ele>50.0</ele><time>2026-04-25T12:55:12.15Z</time></trkpt><trkpt lat="45.1256764" lon="9.5620476"><ele>50.0</ele><time>2026-04-25T12:55:13.151Z</time></trkpt><trkpt lat="45.1256197" lon="9.5621524"><ele>50.0</ele><time>2026-04-25T12:55:14.15Z</time></trkpt><trkpt lat="45.125574" lon="9.5622328"><ele>50.0</ele><time>2026-04-25T12:55:15.15Z</time></trkpt><trkpt lat="45.125521" lon="9.562323"><ele>49.833333333333336</ele><time>2026-04-25T12:55:16.15Z</time></trkpt><trkpt lat="45.1254627" lon="9.5624059"><ele>49.66666666666667</ele><time>2026-04-25T12:55:17.151Z</time></trkpt><trkpt lat="45.1254055" lon="9.562494"><ele>49.5</ele><time>2026-04-25T12:55:18.149Z</time></trkpt><trkpt lat="45.1253415" lon="9.5625855"><ele>49.33333333333333</ele><time>2026-04-25T12:55:19.151Z</time></trkpt><trkpt lat="45.1252768" lon="9.5626908"><ele>49.166666666666664</ele><time>2026-04-25T12:55:20.149Z</time></trkpt><trkpt lat="45.1252113" lon="9.562763"><ele>49.0</ele><time>2026-04-25T12:55:21.15Z</time></trkpt><trkpt lat="45.1251554" lon="9.5628486"><ele>49.0</ele><time>2026-04-25T12:55:22.15Z</time></trkpt><trkpt lat="45.125074" lon="9.5629406"><ele>49.0</ele><time>2026-04-25T12:55:23.149Z</time></trkpt><trkpt lat="45.1249944" lon="9.5630417"><ele>49.0</ele><time>2026-04-25T12:55:24.15Z</time></trkpt><trkpt lat="45.1249164" lon="9.5630999"><ele>49.0</ele><time>2026-04-25T12:55:25.15Z</time></trkpt><trkpt lat="45.124854" lon="9.5631731"><ele>49.0</ele><time>2026-04-25T12:55:26.149Z</time></trkpt><trkpt lat="45.124784" lon="9.5632436"><ele>48.800000000000004</ele><time>2026-04-25T12:55:27.151Z</time></trkpt><trkpt lat="45.1247164" lon="9.5633038"><ele>48.6</ele><time>2026-04-25T12:55:28.15Z</time></trkpt><trkpt lat="45.1246458" lon="9.5633102"><ele>48.4</ele><time>2026-04-25T12:55:29.149Z</time></trkpt><trkpt lat="45.1245685" lon="9.5633636"><ele>48.2</ele><time>2026-04-25T12:55:30.149Z</time></trkpt><trkpt lat="45.1244932" lon="9.5634657"><ele>48.0</ele><time>2026-04-25T12:55:31.149Z</time></trkpt><trkpt lat="45.1244274" lon="9.5635976"><ele>48.0</ele><time>2026-04-25T12:55:32.151Z</time></trkpt><trkpt lat="45.1243514" lon="9.563685"><ele>48.0</ele><time>2026-04-25T12:55:33.149Z</time></trkpt><trkpt lat="45.124257" lon="9.5637629"><ele>48.0</ele><time>2026-04-25T12:55:34.15Z</time></trkpt><trkpt lat="45.1241923" lon="9.5638392"><ele>48.0</ele><time>2026-04-25T12:55:35.149Z</time></trkpt><trkpt lat="45.1241329" lon="9.5639129"><ele>48.0</ele><time>2026-04-25T12:55:36.15Z</time></trkpt><trkpt lat="45.1240589" lon="9.5640162"><ele>48.0</ele><time>2026-04-25T12:55:37.15Z</time></trkpt><trkpt lat="45.1239671" lon="9.5640894"><ele>48.0</ele><time>2026-04-25T12:55:38.149Z</time></trkpt><trkpt lat="45.123801" lon="9.564224"><ele>48.0</ele><time>2026-04-25T12:55:40.15Z</time></trkpt><trkpt lat="45.1237097" lon="9.5643142"><ele>48.0</ele><time>2026-04-25T12:55:41.15Z</time></trkpt><trkpt lat="45.1236093" lon="9.5644137"><ele>48.0</ele><time>2026-04-25T12:55:42.15Z</time></trkpt><trkpt lat="45.1235276" lon="9.5645059"><ele>48.0</ele><time>2026-04-25T12:55:43.15Z</time></trkpt><trkpt lat="45.1234362" lon="9.5645842"><ele>48.0</ele><time>2026-04-25T12:55:44.15Z</time></trkpt><trkpt lat="45.1233454" lon="9.5646659"><ele>48.0</ele><time>2026-04-25T12:55:45.151Z</time></trkpt><trkpt lat="45.1232505" lon="9.5647484"><ele>48.0</ele><time>2026-04-25T12:55:46.15Z</time></trkpt><trkpt lat="45.1231565" lon="9.5648344"><ele>48.0</ele><time>2026-04-25T12:55:47.149Z</time></trkpt><trkpt lat="45.1230684" lon="9.5649048"><ele>48.0</ele><time>2026-04-25T12:55:48.149Z</time></trkpt><trkpt lat="45.1229757" lon="9.5650048"><ele>48.0</ele><time>2026-04-25T12:55:49.15Z</time></trkpt><trkpt lat="45.1228936" lon="9.5650883"><ele>48.0</ele><time>2026-04-25T12:55:50.149Z</time></trkpt><trkpt lat="45.1228094" lon="9.5651812"><ele>48.0</ele><time>2026-04-25T12:55:51.149Z</time></trkpt><trkpt lat="45.1227143" lon="9.5652821"><ele>48.0</ele><time>2026-04-25T12:55:52.151Z</time></trkpt><trkpt lat="45.1226175" lon="9.5653772"><ele>48.0</ele><time>2026-04-25T12:55:53.149Z</time></trkpt><trkpt lat="45.1225377" lon="9.5654635"><ele>48.0</ele><time>2026-04-25T12:55:54.15Z</time></trkpt><trkpt lat="45.1224537" lon="9.5655496"><ele>48.0</ele><time>2026-04-25T12:55:55.151Z</time></trkpt><trkpt lat="45.1223825" lon="9.5656346"><ele>48.0</ele><time>2026-04-25T12:55:56.149Z</time></trkpt><trkpt lat="45.1223226" lon="9.5657058"><ele>48.0</ele><time>2026-04-25T12:55:57.15Z</time></trkpt><trkpt lat="45.1222388" lon="9.5657927"><ele>48.0</ele><time>2026-04-25T12:55:58.151Z</time></trkpt><trkpt lat="45.1221744" lon="9.5658492"><ele>48.0</ele><time>2026-04-25T12:55:59.151Z</time></trkpt><trkpt lat="45.1220779" lon="9.5659333"><ele>48.0</ele><time>2026-04-25T12:56:01.15Z</time></trkpt><trkpt lat="45.1220039" lon="9.5659784"><ele>48.0</ele><time>2026-04-25T12:56:04.15Z</time></trkpt><trkpt lat="45.1219286" lon="9.5659886"><ele>48.0</ele><time>2026-04-25T12:56:06.15Z</time></trkpt><trkpt lat="45.1218248" lon="9.5660058"><ele>48.0</ele><time>2026-04-25T12:56:08.149Z</time></trkpt><trkpt lat="45.1217583" lon="9.5660121"><ele>48.0</ele><time>2026-04-25T12:56:09.15Z</time></trkpt><trkpt lat="45.1216367" lon="9.5660043"><ele>48.0</ele><time>2026-04-25T12:56:11.15Z</time></trkpt><trkpt lat="45.1215735" lon="9.5659948"><ele>48.0</ele><time>2026-04-25T12:56:12.15Z</time></trkpt><trkpt lat="45.1214531" lon="9.5659714"><ele>48.0</ele><time>2026-04-25T12:56:14.151Z</time></trkpt><trkpt lat="45.1213896" lon="9.5659626"><ele>48.0</ele><time>2026-04-25T12:56:15.149Z</time></trkpt><trkpt lat="45.1212815" lon="9.5659349"><ele>47.75</ele><time>2026-04-25T12:56:17.15Z</time></trkpt><trkpt lat="45.1211602" lon="9.565896"><ele>47.5</ele><time>2026-04-25T12:56:19.151Z</time></trkpt><trkpt lat="45.1210518" lon="9.5658317"><ele>47.25</ele><time>2026-04-25T12:56:21.151Z</time></trkpt><trkpt lat="45.1209424" lon="9.5657821"><ele>47.0</ele><time>2026-04-25T12:56:23.15Z</time></trkpt><trkpt lat="45.1208517" lon="9.5656897"><ele>47.0</ele><time>2026-04-25T12:56:25.15Z</time></trkpt><trkpt lat="45.120776" lon="9.5656071"><ele>47.0</ele><time>2026-04-25T12:56:27.15Z</time></trkpt><trkpt lat="45.1207329" lon="9.5654905"><ele>47.0</ele><time>2026-04-25T12:56:46.149Z</time></trkpt><trkpt lat="45.1207289" lon="9.5653013"><ele>47.0</ele><time>2026-04-25T12:56:47.15Z</time></trkpt><trkpt lat="45.1206763" lon="9.5652258"><ele>47.0</ele><time>2026-04-25T12:56:48.151Z</time></trkpt><trkpt lat="45.1206291" lon="9.5651096"><ele>47.166666666666664</ele><time>2026-04-25T12:56:49.15Z</time></trkpt><trkpt lat="45.1205943" lon="9.5650208"><ele>47.33333333333333</ele><time>2026-04-25T12:56:50.15Z</time></trkpt><trkpt lat="45.1205581" lon="9.5649177"><ele>47.5</ele><time>2026-04-25T12:56:51.149Z</time></trkpt><trkpt lat="45.1205231" lon="9.5647938"><ele>47.666666666666664</ele><time>2026-04-25T12:56:52.151Z</time></trkpt><trkpt lat="45.1204963" lon="9.5646797"><ele>47.833333333333336</ele><time>2026-04-25T12:56:53.149Z</time></trkpt><trkpt lat="45.1204638" lon="9.564574"><ele>48.0</ele><time>2026-04-25T12:56:54.149Z</time></trkpt><trkpt lat="45.1204284" lon="9.5644839"><ele>47.666666666666664</ele><time>2026-04-25T12:56:55.151Z</time></trkpt><trkpt lat="45.1203755" lon="9.5643578"><ele>47.333333333333336</ele><time>2026-04-25T12:56:57.149Z</time></trkpt><trkpt lat="45.120317" lon="9.5642739"><ele>47.0</ele><time>2026-04-25T12:56:59.15Z</time></trkpt><trkpt lat="45.1202891" lon="9.5641715"><ele>46.66666666666667</ele><time>2026-04-25T12:57:01.149Z</time></trkpt><trkpt lat="45.1202672" lon="9.5640554"><ele>46.333333333333336</ele><time>2026-04-25T12:57:03.149Z</time></trkpt><trkpt lat="45.1202452" lon="9.5639598"><ele>46.0</ele><time>2026-04-25T12:57:05.148Z</time></trkpt><trkpt lat="45.1202197" lon="9.5638501"><ele>46.0</ele><time>2026-04-25T12:57:08.148Z</time></trkpt><trkpt lat="45.1201706" lon="9.5637932"><ele>46.0</ele><time>2026-04-25T12:57:10.148Z</time></trkpt><trkpt lat="45.1201047" lon="9.5637694"><ele>46.0</ele><time>2026-04-25T12:57:12.149Z</time></trkpt><trkpt lat="45.1200225" lon="9.5637856"><ele>46.0</ele><time>2026-04-25T12:57:14.148Z</time></trkpt><trkpt lat="45.1199568" lon="9.5638307"><ele>46.0</ele><time>2026-04-25T12:57:16.148Z</time></trkpt><trkpt lat="45.1198515" lon="9.5638819"><ele>46.0</ele><time>2026-04-25T12:57:18.149Z</time></trkpt><trkpt lat="45.1197863" lon="9.563849"><ele>45.714285714285715</ele><time>2026-04-25T12:57:19.149Z</time></trkpt><trkpt lat="45.1197121" lon="9.5638611"><ele>45.42857142857142</ele><time>2026-04-25T12:57:20.15Z</time></trkpt><trkpt lat="45.1196419" lon="9.5638781"><ele>45.14285714285714</ele><time>2026-04-25T12:57:21.149Z</time></trkpt><trkpt lat="45.1195723" lon="9.5638988"><ele>44.85714285714286</ele><time>2026-04-25T12:57:22.148Z</time></trkpt><trkpt lat="45.1195012" lon="9.5639301"><ele>44.57142857142857</ele><time>2026-04-25T12:57:23.148Z</time></trkpt><trkpt lat="45.1194391" lon="9.5639571"><ele>44.285714285714285</ele><time>2026-04-25T12:57:24.149Z</time></trkpt><trkpt lat="45.1193534" lon="9.5640006"><ele>44.0</ele><time>2026-04-25T12:57:25.149Z</time></trkpt><trkpt lat="45.1192812" lon="9.5640511"><ele>44.0</ele><time>2026-04-25T12:57:26.149Z</time></trkpt><trkpt lat="45.1192088" lon="9.5641039"><ele>44.0</ele><time>2026-04-25T12:57:27.148Z</time></trkpt><trkpt lat="45.1191265" lon="9.5641442"><ele>44.0</ele><time>2026-04-25T12:57:28.148Z</time></trkpt><trkpt lat="45.1190069" lon="9.5642274"><ele>44.0</ele><time>2026-04-25T12:57:30.148Z</time></trkpt><trkpt lat="45.1189257" lon="9.5643297"><ele>44.0</ele><time>2026-04-25T12:57:32.149Z</time></trkpt><trkpt lat="45.1188476" lon="9.5644027"><ele>44.0</ele><time>2026-04-25T12:57:34.148Z</time></trkpt><trkpt lat="45.1187599" lon="9.5644335"><ele>44.0</ele><time>2026-04-25T12:57:36.149Z</time></trkpt><trkpt lat="45.118682" lon="9.5644219"><ele>44.0</ele><time>2026-04-25T12:59:28.149Z</time></trkpt><trkpt lat="45.1186" lon="9.5644429"><ele>44.0</ele><time>2026-04-25T12:59:30.149Z</time></trkpt><trkpt lat="45.1185252" lon="9.564432"><ele>44.0</ele><time>2026-04-25T12:59:32.148Z</time></trkpt><trkpt lat="45.1184386" lon="9.5643897"><ele>44.0</ele><time>2026-04-25T12:59:35.149Z</time></trkpt><trkpt lat="45.1183773" lon="9.5643544"><ele>44.0</ele><time>2026-04-25T12:59:36.148Z</time></trkpt><trkpt lat="45.1182584" lon="9.5643498"><ele>44.0</ele><time>2026-04-25T12:59:38.149Z</time></trkpt><trkpt lat="45.1181465" lon="9.5643984"><ele>44.0</ele><time>2026-04-25T12:59:40.149Z</time></trkpt><trkpt lat="45.1180466" lon="9.5644305"><ele>44.0</ele><time>2026-04-25T12:59:42.149Z</time></trkpt><trkpt lat="45.117936" lon="9.5644874"><ele>44.2</ele><time>2026-04-25T12:59:44.149Z</time></trkpt><trkpt lat="45.1178185" lon="9.5645413"><ele>44.400000000000006</ele><time>2026-04-25T12:59:46.149Z</time></trkpt><trkpt lat="45.1177097" lon="9.5645704"><ele>44.6</ele><time>2026-04-25T12:59:48.149Z</time></trkpt><trkpt lat="45.1176066" lon="9.5646095"><ele>44.8</ele><time>2026-04-25T12:59:50.148Z</time></trkpt><trkpt lat="45.1175" lon="9.5646251"><ele>45.0</ele><time>2026-04-25T12:59:52.149Z</time></trkpt><trkpt lat="45.1173896" lon="9.5646457"><ele>45.0</ele><time>2026-04-25T12:59:54.148Z</time></trkpt><trkpt lat="45.1172939" lon="9.5646829"><ele>45.0</ele><time>2026-04-25T12:59:56.15Z</time></trkpt><trkpt lat="45.1171924" lon="9.5647427"><ele>45.0</ele><time>2026-04-25T12:59:58.149Z</time></trkpt><trkpt lat="45.1170995" lon="9.5648431"><ele>45.0</ele><time>2026-04-25T13:00:00.149Z</time></trkpt><trkpt lat="45.1170005" lon="9.5649443"><ele>45.0</ele><time>2026-04-25T13:00:02.149Z</time></trkpt><trkpt lat="45.1170147" lon="9.5650349"><ele>45.0</ele><time>2026-04-25T13:00:22.148Z</time></trkpt><trkpt lat="45.1169693" lon="9.5651066"><ele>45.0</ele><time>2026-04-25T13:00:24.15Z</time></trkpt><trkpt lat="45.1169458" lon="9.5651932"><ele>45.0</ele><time>2026-04-25T13:00:26.149Z</time></trkpt><trkpt lat="45.1169803" lon="9.5652811"><ele>45.0</ele><time>2026-04-25T13:00:30.149Z</time></trkpt><trkpt lat="45.1170688" lon="9.5652662"><ele>45.0</ele><time>2026-04-25T13:00:48.149Z</time></trkpt><trkpt lat="45.1171721" lon="9.5652266"><ele>45.0</ele><time>2026-04-25T13:00:50.149Z</time></trkpt><trkpt lat="45.1172488" lon="9.5651676"><ele>45.0</ele><time>2026-04-25T13:00:52.149Z</time></trkpt><trkpt lat="45.1173265" lon="9.5651031"><ele>45.0</ele><time>2026-04-25T13:00:54.149Z</time></trkpt><trkpt lat="45.1174069" lon="9.5650753"><ele>45.0</ele><time>2026-04-25T13:00:56.149Z</time></trkpt><trkpt lat="45.1175282" lon="9.5650758"><ele>45.0</ele><time>2026-04-25T13:00:58.148Z</time></trkpt><trkpt lat="45.1176339" lon="9.565105"><ele>45.0</ele><time>2026-04-25T13:01:00.15Z</time></trkpt><trkpt lat="45.1177175" lon="9.5651528"><ele>45.2</ele><time>2026-04-25T13:01:02.149Z</time></trkpt><trkpt lat="45.1177957" lon="9.5651525"><ele>45.4</ele><time>2026-04-25T13:01:04.149Z</time></trkpt><trkpt lat="45.1179091" lon="9.5651155"><ele>45.599999999999994</ele><time>2026-04-25T13:01:06.15Z</time></trkpt><trkpt lat="45.1180046" lon="9.5651059"><ele>45.8</ele><time>2026-04-25T13:01:08.15Z</time></trkpt><trkpt lat="45.118092" lon="9.5651303"><ele>46.0</ele><time>2026-04-25T13:01:10.15Z</time></trkpt><trkpt lat="45.1181883" lon="9.5651603"><ele>45.833333333333336</ele><time>2026-04-25T13:01:12.148Z</time></trkpt><trkpt lat="45.1182858" lon="9.5651623"><ele>45.66666666666667</ele><time>2026-04-25T13:01:13.148Z</time></trkpt><trkpt lat="45.118356" lon="9.5651657"><ele>45.5</ele><time>2026-04-25T13:01:14.149Z</time></trkpt><trkpt lat="45.1184209" lon="9.5651732"><ele>45.333333333333336</ele><time>2026-04-25T13:01:15.15Z</time></trkpt><trkpt lat="45.1184902" lon="9.5651815"><ele>45.166666666666664</ele><time>2026-04-25T13:01:16.149Z</time></trkpt><trkpt lat="45.1186171" lon="9.5651621"><ele>45.0</ele><time>2026-04-25T13:01:18.149Z</time></trkpt><trkpt lat="45.1186846" lon="9.5651458"><ele>45.0</ele><time>2026-04-25T13:01:19.148Z</time></trkpt><trkpt lat="45.1187491" lon="9.5651278"><ele>45.0</ele><time>2026-04-25T13:01:20.148Z</time></trkpt><trkpt lat="45.1188326" lon="9.5651117"><ele>45.0</ele><time>2026-04-25T13:01:22.149Z</time></trkpt><trkpt lat="45.1189069" lon="9.5651171"><ele>45.0</ele><time>2026-04-25T13:01:24.149Z</time></trkpt><trkpt lat="45.1189587" lon="9.5651796"><ele>45.0</ele><time>2026-04-25T13:01:57.149Z</time></trkpt><trkpt lat="45.1190056" lon="9.5652484"><ele>45.0</ele><time>2026-04-25T13:16:36.147Z</time></trkpt><trkpt lat="45.1190656" lon="9.5653388"><ele>45.0</ele><time>2026-04-25T13:16:39.147Z</time></trkpt><trkpt lat="45.1191142" lon="9.5654059"><ele>45.333333333333336</ele><time>2026-04-25T13:16:42.147Z</time></trkpt><trkpt lat="45.1191968" lon="9.5654442"><ele>45.666666666666664</ele><time>2026-04-25T13:16:46.146Z</time></trkpt><trkpt lat="45.1192587" lon="9.5655277"><ele>46.0</ele><time>2026-04-25T13:16:49.147Z</time></trkpt><trkpt lat="45.1192944" lon="9.5656144"><ele>46.33333333333333</ele><time>2026-04-25T13:18:07.146Z</time></trkpt><trkpt lat="45.1193373" lon="9.5657081"><ele>46.666666666666664</ele><time>2026-04-25T13:18:09.148Z</time></trkpt><trkpt lat="45.119377" lon="9.5658655"><ele>47.0</ele><time>2026-04-25T13:18:11.147Z</time></trkpt><trkpt lat="45.1193947" lon="9.5659876"><ele>47.0</ele><time>2026-04-25T13:18:13.147Z</time></trkpt><trkpt lat="45.1194102" lon="9.5661063"><ele>47.0</ele><time>2026-04-25T13:18:15.148Z</time></trkpt><trkpt lat="45.11943" lon="9.5662268"><ele>47.0</ele><time>2026-04-25T13:18:17.146Z</time></trkpt><trkpt lat="45.1194527" lon="9.5663149"><ele>47.0</ele><time>2026-04-25T13:18:19.148Z</time></trkpt><trkpt lat="45.1194827" lon="9.5665026"><ele>47.0</ele><time>2026-04-25T13:18:21.147Z</time></trkpt><trkpt lat="45.1195015" lon="9.5666242"><ele>47.0</ele><time>2026-04-25T13:18:22.146Z</time></trkpt><trkpt lat="45.1195268" lon="9.5667465"><ele>47.0</ele><time>2026-04-25T13:18:23.146Z</time></trkpt><trkpt lat="45.1195579" lon="9.5668685"><ele>47.0</ele><time>2026-04-25T13:18:24.147Z</time></trkpt><trkpt lat="45.1195919" lon="9.5669929"><ele>47.0</ele><time>2026-04-25T13:18:25.146Z</time></trkpt><trkpt lat="45.1196261" lon="9.5671283"><ele>47.0</ele><time>2026-04-25T13:18:26.147Z</time></trkpt><trkpt lat="45.1196581" lon="9.5672799"><ele>47.6</ele><time>2026-04-25T13:18:27.146Z</time></trkpt><trkpt lat="45.119698" lon="9.5674229"><ele>48.2</ele><time>2026-04-25T13:18:28.148Z</time></trkpt><trkpt lat="45.1197007" lon="9.5675628"><ele>48.8</ele><time>2026-04-25T13:18:29.147Z</time></trkpt><trkpt lat="45.1196876" lon="9.567692"><ele>49.4</ele><time>2026-04-25T13:18:30.146Z</time></trkpt><trkpt lat="45.1197143" lon="9.5677907"><ele>50.0</ele><time>2026-04-25T13:18:31.147Z</time></trkpt><trkpt lat="45.1197198" lon="9.5679362"><ele>50.4</ele><time>2026-04-25T13:18:33.148Z</time></trkpt><trkpt lat="45.1197877" lon="9.5680361"><ele>50.8</ele><time>2026-04-25T13:18:39.146Z</time></trkpt><trkpt lat="45.1198744" lon="9.5679959"><ele>51.2</ele><time>2026-04-25T13:18:41.147Z</time></trkpt><trkpt lat="45.1199988" lon="9.5679702"><ele>51.6</ele><time>2026-04-25T13:18:43.147Z</time></trkpt><trkpt lat="45.1201059" lon="9.5679445"><ele>52.0</ele><time>2026-04-25T13:18:44.147Z</time></trkpt><trkpt lat="45.1201962" lon="9.5679362"><ele>52.400000000000006</ele><time>2026-04-25T13:18:45.148Z</time></trkpt><trkpt lat="45.1202908" lon="9.567934"><ele>52.800000000000004</ele><time>2026-04-25T13:18:46.147Z</time></trkpt><trkpt lat="45.1203846" lon="9.5679303"><ele>53.2</ele><time>2026-04-25T13:18:47.147Z</time></trkpt><trkpt lat="45.1204737" lon="9.5679289"><ele>53.6</ele><time>2026-04-25T13:18:48.147Z</time></trkpt><trkpt lat="45.1205715" lon="9.5679311"><ele>54.0</ele><time>2026-04-25T13:18:49.146Z</time></trkpt><trkpt lat="45.1206633" lon="9.5679347"><ele>53.800000000000004</ele><time>2026-04-25T13:18:50.147Z</time></trkpt><trkpt lat="45.1207811" lon="9.5679397"><ele>53.60000000000001</ele><time>2026-04-25T13:18:51.146Z</time></trkpt><trkpt lat="45.1208825" lon="9.5679371"><ele>53.4</ele><time>2026-04-25T13:18:52.148Z</time></trkpt><trkpt lat="45.1209808" lon="9.5679212"><ele>53.2</ele><time>2026-04-25T13:18:53.147Z</time></trkpt><trkpt lat="45.1210463" lon="9.5678799"><ele>53.0</ele><time>2026-04-25T13:18:54.147Z</time></trkpt><trkpt lat="45.1211417" lon="9.5678985"><ele>53.0</ele><time>2026-04-25T13:18:55.147Z</time></trkpt><trkpt lat="45.1212215" lon="9.5678786"><ele>53.0</ele><time>2026-04-25T13:18:56.146Z</time></trkpt><trkpt lat="45.1213018" lon="9.5678993"><ele>53.0</ele><time>2026-04-25T13:18:57.146Z</time></trkpt><trkpt lat="45.121371" lon="9.5679422"><ele>53.0</ele><time>2026-04-25T13:18:58.147Z</time></trkpt><trkpt lat="45.121419" lon="9.5680135"><ele>53.0</ele><time>2026-04-25T13:18:59.146Z</time></trkpt><trkpt lat="45.1214498" lon="9.5681099"><ele>53.0</ele><time>2026-04-25T13:19:00.148Z</time></trkpt><trkpt lat="45.1214748" lon="9.5681971"><ele>53.0</ele><time>2026-04-25T13:19:01.146Z</time></trkpt><trkpt lat="45.1214954" lon="9.5683574"><ele>53.0</ele><time>2026-04-25T13:19:02.147Z</time></trkpt><trkpt lat="45.1214574" lon="9.5685643"><ele>53.0</ele><time>2026-04-25T13:19:03.147Z</time></trkpt><trkpt lat="45.1214673" lon="9.5687507"><ele>53.0</ele><time>2026-04-25T13:19:04.147Z</time></trkpt><trkpt lat="45.1214744" lon="9.5689396"><ele>53.0</ele><time>2026-04-25T13:19:05.147Z</time></trkpt><trkpt lat="45.1214531" lon="9.5691257"><ele>53.25</ele><time>2026-04-25T13:19:06.147Z</time></trkpt><trkpt lat="45.121414" lon="9.5693248"><ele>53.5</ele><time>2026-04-25T13:19:07.146Z</time></trkpt><trkpt lat="45.1213863" lon="9.5695181"><ele>53.75</ele><time>2026-04-25T13:19:08.147Z</time></trkpt><trkpt lat="45.121358" lon="9.5697051"><ele>54.0</ele><time>2026-04-25T13:19:09.146Z</time></trkpt><trkpt lat="45.1213237" lon="9.5698897"><ele>54.25</ele><time>2026-04-25T13:19:10.147Z</time></trkpt><trkpt lat="45.1212885" lon="9.5700677"><ele>54.5</ele><time>2026-04-25T13:19:11.146Z</time></trkpt><trkpt lat="45.1212552" lon="9.5702435"><ele>54.75</ele><time>2026-04-25T13:19:12.148Z</time></trkpt><trkpt lat="45.1212156" lon="9.5704276"><ele>55.0</ele><time>2026-04-25T13:19:13.146Z</time></trkpt><trkpt lat="45.1211817" lon="9.5706205"><ele>55.0</ele><time>2026-04-25T13:19:14.146Z</time></trkpt><trkpt lat="45.1211494" lon="9.5708009"><ele>55.0</ele><time>2026-04-25T13:19:15.146Z</time></trkpt><trkpt lat="45.1211091" lon="9.5709543"><ele>55.0</ele><time>2026-04-25T13:19:16.147Z</time></trkpt><trkpt lat="45.1210698" lon="9.5710956"><ele>55.0</ele><time>2026-04-25T13:19:17.147Z</time></trkpt><trkpt lat="45.1210277" lon="9.5712397"><ele>54.2</ele><time>2026-04-25T13:19:18.147Z</time></trkpt><trkpt lat="45.1210051" lon="9.5713493"><ele>53.4</ele><time>2026-04-25T13:19:19.148Z</time></trkpt><trkpt lat="45.1210473" lon="9.5715302"><ele>52.599999999999994</ele><time>2026-04-25T13:19:21.147Z</time></trkpt><trkpt lat="45.1210702" lon="9.5716576"><ele>51.8</ele><time>2026-04-25T13:19:22.147Z</time></trkpt><trkpt lat="45.1210861" lon="9.5718029"><ele>51.0</ele><time>2026-04-25T13:19:23.147Z</time></trkpt><trkpt lat="45.1210906" lon="9.5719694"><ele>50.599999999999994</ele><time>2026-04-25T13:19:24.147Z</time></trkpt><trkpt lat="45.1210838" lon="9.5721604"><ele>50.2</ele><time>2026-04-25T13:19:25.146Z</time></trkpt><trkpt lat="45.1210925" lon="9.5723055"><ele>49.8</ele><time>2026-04-25T13:19:26.147Z</time></trkpt><trkpt lat="45.1210881" lon="9.5724161"><ele>49.400000000000006</ele><time>2026-04-25T13:19:27.147Z</time></trkpt><trkpt lat="45.1210842" lon="9.5725109"><ele>49.0</ele><time>2026-04-25T13:19:28.146Z</time></trkpt><trkpt lat="45.1210706" lon="9.572662"><ele>49.0</ele><time>2026-04-25T13:19:30.147Z</time></trkpt></trkseg></trk></gpx>